# Wetter Temperatur Luftdruck Luftfeuchtigkeit Sichtweite Windgeschwindigkeit Windrichtung Zeit
1 Clouds 17 1019 92 10000 5.66 230 09:29 02.10.2022
2 Clouds 16 1019 93 10000 3.6 210 08:23 02.10.2022
3 Rain 16 1019 90 7000 3.6 220 03:52 02.10.2022
4 Clouds 16 1019 78 10000 3.09 230 00:51 02.10.2022
5 Clouds 16 1019 79 10000 3.09 250 00:32 02.10.2022
6 Clear 15 1018 76 10000 2.57 240 22:53 01.10.2022
7 Clear 17 1017 70 10000 4.12 260 20:55 01.10.2022
8 Clear 20 1014 62 10000 7.2 260 18:53 01.10.2022
9 Clouds 21 1014 58 10000 6.69 260 17:22 01.10.2022
10 Clouds 19 1012 67 10000 6.69 260 14:43 01.10.2022
11 Clouds 18 1012 74 10000 7.72 270 13:43 01.10.2022
12 Clouds 17 1011 81 10000 6.17 260 12:33 01.10.2022
13 Clouds 16 1010 87 10000 5.66 240 11:21 01.10.2022
14 Clear 16 1010 88 10000 5.66 240 10:44 01.10.2022
15 Clear 15 1010 88 10000 5.66 240 10:25 01.10.2022
16 Clear 15 1009 91 10000 6.17 230 09:18 01.10.2022
17 Clouds 15 1008 94 10000 5.14 240 08:19 01.10.2022
18 Rain 13 1007 93 10000 8.75 210 03:39 01.10.2022
19 Rain 12 1009 92 10000 6.69 180 01:31 01.10.2022
20 Rain 13 1010 79 10000 5.14 190 23:21 30.09.2022
21 Clear 15 1011 68 10000 6.17 200 21:57 30.09.2022
22 Clear 15 1011 66 10000 3.6 220 20:45 30.09.2022
23 Clear 15 1011 63 10000 6.69 200 20:20 30.09.2022
24 Clear 17 1011 54 10000 6.17 230 17:59 30.09.2022
25 Clear 18 1011 53 10000 5.14 210 16:32 30.09.2022
26 Clouds 17 1012 57 10000 4.63 200 14:23 30.09.2022
27 Clear 15 1012 68 10000 2.57 230 12:29 30.09.2022
28 Clear 14 1012 74 10000 2.57 240 11:55 30.09.2022
29 Clear 7 1012 95 10000 1.03 40 08:57 30.09.2022
30 Clear 7 1010 93 10000 2.06 330 06:38 30.09.2022
31 Clear 7 1009 93 10000 1.54 350 03:19 30.09.2022
32 Clear 7 1009 95 10000 2.06 330 01:23 30.09.2022
33 Clouds 11 1006 83 10000 0.51 30 21:39 29.09.2022
34 Clouds 11 1006 84 10000 0.51 30 21:19 29.09.2022
35 Clear 14 1004 69 10000 2.57 90 18:56 29.09.2022
36 Clear 15 1003 69 10000 2.57 70 17:49 29.09.2022
37 Clouds 13 1003 78 10000 2.57 340 16:29 29.09.2022
38 Clouds 13 1003 82 10000 1.54 90 15:37 29.09.2022
39 Clouds 13 1003 83 10000 3.6 80 14:59 29.09.2022
40 Clouds 13 1002 83 10000 3.09 40 12:39 29.09.2022
41 Clouds 10 1000 92 10000 2.06 240 08:45 29.09.2022
42 Clear 10 1000 92 10000 1.54 250 04:46 29.09.2022
43 Clear 10 1000 92 10000 3.09 240 02:36 29.09.2022
44 Clear 11 1001 87 10000 2.57 250 23:26 28.09.2022
45 Clouds 11 1001 85 10000 2.06 240 21:40 28.09.2022
46 Clouds 11 1001 85 10000 2.06 240 21:22 28.09.2022
47 Clouds 12 1001 81 10000 2.57 250 19:56 28.09.2022
48 Clouds 13 1000 75 10000 5.66 310 16:46 28.09.2022
49 Clouds 15 1001 65 10000 4.63 280 14:19 28.09.2022
50 Clouds 13 1001 79 10000 3.09 300 11:49 28.09.2022
51 Clear 11 1000 93 10000 3.09 300 09:49 28.09.2022
52 Clouds 11 999 95 10000 3.09 310 07:52 28.09.2022
53 Clouds 11 999 95 10000 3.6 290 05:48 28.09.2022
54 Rain 13 1000 90 5000 5.14 280 01:47 28.09.2022
55 Drizzle 13 1000 91 10000 4.63 270 01:25 28.09.2022
56 Clouds 13 1000 90 10000 5.14 240 22:49 27.09.2022
57 Clouds 13 1001 87 10000 6.17 240 21:20 27.09.2022
58 Clouds 13 1001 84 10000 5.14 230 20:35 27.09.2022
59 Clouds 13 1002 84 10000 5.66 250 19:45 27.09.2022
60 Clouds 14 1002 89 10000 4.12 250 17:54 27.09.2022
61 Clouds 14 1003 89 10000 4.12 250 17:29 27.09.2022
62 Clouds 13 1004 87 10000 7.2 250 15:23 27.09.2022
63 Clouds 12 1004 89 10000 6.69 230 14:24 27.09.2022
64 Clouds 13 1005 84 10000 6.17 250 12:39 27.09.2022
65 Clouds 13 1005 84 10000 6.17 250 12:39 27.09.2022
66 Clouds 12 1005 87 10000 5.14 250 10:49 27.09.2022
67 Clouds 11 1004 91 10000 4.12 240 08:42 27.09.2022
68 Clouds 10 1004 91 10000 5.14 250 05:49 27.09.2022
69 Clouds 11 1004 89 10000 4.63 280 01:43 27.09.2022
70 Clouds 11 1004 89 10000 5.66 290 00:32 27.09.2022
71 Clear 12 1003 88 10000 5.14 280 23:25 26.09.2022
72 Rain 12 1003 87 10000 4.63 280 22:19 26.09.2022
73 Clouds 13 1002 89 10000 4.63 270 20:27 26.09.2022
74 Clouds 13 1001 91 10000 4.63 230 19:24 26.09.2022
75 Clouds 13 1001 92 10000 5.14 240 18:30 26.09.2022
76 Clouds 12 1002 95 10000 6.17 220 15:52 26.09.2022
77 Clouds 14 1004 74 10000 7.72 220 13:28 26.09.2022
78 Clear 14 1006 68 10000 7.2 210 11:29 26.09.2022
79 Clouds 13 1007 74 10000 6.69 220 10:37 26.09.2022
80 Clouds 13 1007 74 10000 6.69 220 10:19 26.09.2022
81 Clouds 12 1008 76 10000 6.17 230 09:53 26.09.2022
82 Clouds 12 1008 79 10000 4.12 240 09:22 26.09.2022
83 Clear 11 1010 81 10000 3.6 220 06:28 26.09.2022
84 Clear 12 1014 80 10000 2.57 230 02:44 26.09.2022
85 Clear 13 1015 75 10000 2.57 310 23:29 25.09.2022
86 Clear 14 1016 73 10000 3.09 320 21:54 25.09.2022
87 Clouds 14 1016 72 10000 3.09 330 21:34 25.09.2022
88 Clouds 15 1015 74 10000 3.09 340 20:44 25.09.2022
89 Clear 16 1015 69 10000 6.17 360 19:32 25.09.2022
90 Clouds 17 1015 60 10000 5.14 310 18:35 25.09.2022
91 Clouds 18 1015 54 10000 5.14 330 17:52 25.09.2022
92 Clear 19 1015 47 10000 4.12 360 16:22 25.09.2022
93 Clear 19 1016 48 10000 5.14 10 15:43 25.09.2022
94 Clouds 18 1016 51 10000 5.14 20 14:21 25.09.2022
95 Clear 16 1016 60 10000 5.14 50 12:49 25.09.2022
96 Clear 13 1016 82 10000 5.66 20 10:26 25.09.2022
97 Clear 12 1016 87 10000 5.14 30 08:23 25.09.2022
98 Clouds 13 1015 87 10000 4.12 10 05:36 25.09.2022
99 Clear 14 1015 82 10000 5.66 40 00:39 25.09.2022
100 Clear 15 1014 85 10000 4.12 30 22:35 24.09.2022
101 Clouds 15 1013 86 10000 4.12 10 20:54 24.09.2022
102 Clouds 16 1013 82 10000 4.63 350 19:22 24.09.2022
103 Clouds 17 1013 77 10000 4.12 270 17:19 24.09.2022
104 Clouds 17 1012 75 10000 3.6 250 16:24 24.09.2022
105 Clouds 17 1012 77 10000 2.06 230 15:19 24.09.2022
106 Clouds 15 1013 86 10000 2.57 220 13:23 24.09.2022
107 Clouds 14 1013 90 10000 1.03 0 12:49 24.09.2022
108 Rain 13 1013 92 10000 1.54 260 10:38 24.09.2022
109 Mist 13 1012 93 10000 2.06 250 09:35 24.09.2022
110 Mist 13 1012 93 10000 2.06 320 08:43 24.09.2022
111 Clear 13 1012 91 10000 2.06 260 06:53 24.09.2022
112 Rain 14 1012 86 10000 1.54 220 04:35 24.09.2022
113 Clear 15 1013 78 10000 2.06 310 02:19 24.09.2022
114 Clear 16 1014 63 10000 2.57 150 22:28 23.09.2022
115 Clear 17 1014 60 10000 1.54 0 21:27 23.09.2022
116 Clear 17 1014 60 10000 2.06 110 20:55 23.09.2022
117 Clear 18 1014 56 10000 2.06 100 20:19 23.09.2022
118 Clear 20 1014 48 10000 2.06 130 18:26 23.09.2022
119 Clear 19 1016 53 10000 1.03 0 13:45 23.09.2022
120 Clear 14 1017 72 10000 1.54 0 10:27 23.09.2022
121 Clear 12 1017 76 10000 1.03 190 09:29 23.09.2022
122 Clear 11 1017 76 10000 1.54 350 04:59 23.09.2022
123 Clear 14 1019 61 10000 2.06 20 23:31 22.09.2022
124 Clear 15 1019 57 10000 0 0 22:41 22.09.2022
125 Clear 15 1019 57 10000 0 0 22:19 22.09.2022
126 Clear 17 1019 49 10000 1.54 30 20:46 22.09.2022
127 Clear 20 1018 41 10000 1.54 0 19:27 22.09.2022
128 Clear 21 1019 40 10000 2.06 50 16:57 22.09.2022
129 Clear 16 1022 58 10000 2.06 70 11:58 22.09.2022
130 Clear 13 1022 68 10000 2.06 80 10:20 22.09.2022
131 Clear 9 1022 85 10000 2.06 40 08:46 22.09.2022
132 Clear 9 1022 83 10000 1.54 50 06:42 22.09.2022
133 Clear 11 1023 74 10000 1.54 350 02:52 22.09.2022
134 Clear 13 1024 66 10000 2.57 50 23:25 21.09.2022
135 Clear 15 1024 59 10000 3.6 60 21:41 21.09.2022
136 Clear 17 1023 52 10000 4.12 50 19:55 21.09.2022
137 Clear 19 1023 44 10000 4.63 70 17:48 21.09.2022
138 Clear 19 1023 46 10000 4.63 40 16:51 21.09.2022
139 Clouds 18 1024 52 10000 4.12 10 14:31 21.09.2022
140 Clouds 17 1025 58 10000 5.14 30 12:54 21.09.2022
141 Clear 15 1025 70 10000 4.12 50 11:29 21.09.2022
142 Clear 12 1026 84 10000 3.09 40 09:55 21.09.2022
143 Clear 11 1026 87 10000 3.09 30 09:21 21.09.2022
144 Clear 9 1025 88 10000 2.06 20 07:41 21.09.2022
145 Clear 11 1025 81 10000 3.6 30 02:48 21.09.2022
146 Clear 11 1025 81 10000 3.6 30 02:28 21.09.2022
147 Clear 12 1025 80 10000 2.06 360 00:34 21.09.2022
148 Clear 13 1025 78 10000 2.57 20 23:18 20.09.2022
149 Clear 16 1024 68 10000 2.57 30 20:52 20.09.2022
150 Clear 17 1024 64 10000 3.09 30 19:37 20.09.2022
151 Clouds 17 1025 58 10000 1.54 0 16:28 20.09.2022
152 Clouds 17 1025 58 10000 2.57 340 14:46 20.09.2022
153 Clouds 16 1025 60 10000 2.06 350 13:48 20.09.2022
154 Clouds 11 1025 78 10000 2.57 340 10:33 20.09.2022
155 Clear 9 1025 86 10000 1.54 360 08:28 20.09.2022
156 Clear 9 1024 81 10000 3.09 350 05:48 20.09.2022
157 Clear 9 1024 78 10000 2.57 20 04:27 20.09.2022
158 Clear 13 1024 65 10000 3.09 350 23:32 19.09.2022
159 Clear 13 1024 60 10000 3.6 340 22:23 19.09.2022
160 Clear 15 1023 57 10000 4.12 330 20:57 19.09.2022
161 Clear 15 1023 56 10000 3.6 340 20:38 19.09.2022
162 Clear 18 1022 47 10000 4.63 320 17:55 19.09.2022
163 Clear 19 1023 45 10000 4.63 30 15:53 19.09.2022
164 Clouds 17 1024 52 10000 3.09 350 13:35 19.09.2022
165 Clear 16 1024 62 10000 3.6 330 11:29 19.09.2022
166 Clear 10 1023 86 10000 2.57 350 09:20 19.09.2022
167 Clear 10 1022 87 10000 2.57 340 08:19 19.09.2022
168 Clouds 12 1021 73 10000 2.57 310 02:18 19.09.2022
169 Clear 12 1021 69 10000 2.57 330 23:24 18.09.2022
170 Clear 14 1021 62 10000 3.6 330 21:47 18.09.2022
171 Clear 15 1020 58 10000 6.17 340 20:34 18.09.2022
172 Clear 19 1019 48 10000 6.17 330 18:41 18.09.2022
173 Clear 19 1019 48 10000 6.69 290 17:43 18.09.2022
174 Clear 19 1020 49 10000 6.69 300 15:56 18.09.2022
175 Clear 18 1021 51 10000 6.17 290 14:30 18.09.2022
176 Clouds 18 1021 53 10000 5.66 310 12:55 18.09.2022
177 Clear 15 1021 67 10000 3.6 240 11:46 18.09.2022
178 Clear 8 1021 83 10000 1.54 260 06:45 18.09.2022
179 Clear 10 1022 73 10000 3.09 280 01:32 18.09.2022
180 Clear 11 1022 70 10000 2.57 290 00:48 18.09.2022
181 Clear 12 1022 63 10000 2.57 330 22:24 17.09.2022
182 Clear 14 1021 56 10000 4.63 350 20:50 17.09.2022
183 Clear 16 1021 47 10000 5.14 320 19:28 17.09.2022
184 Clear 17 1020 43 10000 6.17 320 17:21 17.09.2022
185 Clear 16 1021 48 10000 5.66 300 14:18 17.09.2022
186 Clouds 15 1021 59 10000 5.66 10 12:33 17.09.2022
187 Clear 13 1021 70 10000 3.6 320 10:48 17.09.2022
188 Clear 9 1020 82 10000 3.6 300 06:31 17.09.2022
189 Clear 10 1020 80 10000 2.57 300 03:55 17.09.2022
190 Clear 12 1019 71 10000 6.17 10 23:36 16.09.2022
191 Clear 13 1017 65 10000 4.12 10 21:47 16.09.2022
192 Clouds 14 1017 64 10000 7.2 350 20:42 16.09.2022
193 Clear 17 1015 53 10000 5.14 340 18:29 16.09.2022
194 Clouds 18 1015 54 10000 5.14 330 16:22 16.09.2022
195 Clear 18 1015 51 10000 4.12 350 14:50 16.09.2022
196 Clear 17 1015 57 10000 4.12 360 12:51 16.09.2022
197 Clouds 13 1014 89 10000 3.09 330 09:39 16.09.2022
198 Clouds 12 1014 91 10000 3.09 330 07:23 16.09.2022
199 Clear 13 1014 86 10000 3.6 310 06:48 16.09.2022
200 Clear 13 1013 84 10000 3.6 300 05:55 16.09.2022
201 Clear 15 1013 72 10000 3.09 330 01:31 16.09.2022
202 Clear 18 1012 67 10000 4.63 20 21:33 15.09.2022
203 Clouds 19 1012 68 10000 5.36 42 20:33 15.09.2022
204 Clouds 22 1011 57 10000 6.17 340 18:57 15.09.2022
205 Clouds 23 1011 54 10000 5.14 310 17:40 15.09.2022
206 Clouds 23 1010 55 10000 5.14 310 17:22 15.09.2022
207 Clouds 22 1011 57 10000 4.12 240 15:38 15.09.2022
208 Clouds 20 1011 63 10000 3.09 340 12:50 15.09.2022
209 Clear 19 1011 69 10000 3.09 360 11:47 15.09.2022
210 Clear 15 1010 88 10000 4.12 340 09:44 15.09.2022
211 Clouds 16 1008 88 10000 3.09 310 06:45 15.09.2022
212 Clouds 18 1008 89 10000 4.12 330 03:29 15.09.2022
213 Clouds 21 1006 82 10000 3.6 340 22:51 14.09.2022
214 Clear 23 1005 68 10000 3.09 320 20:31 14.09.2022
215 Clear 24 1004 62 10000 4.63 270 19:32 14.09.2022
216 Clear 26 1004 56 10000 5.66 270 17:37 14.09.2022
217 Clouds 26 1004 58 10000 7.2 250 16:36 14.09.2022
218 Clouds 25 1004 62 10000 5.66 260 14:51 14.09.2022
219 Clouds 24 1005 72 10000 4.63 190 12:38 14.09.2022
220 Clouds 21 1004 91 10000 2.57 180 09:52 14.09.2022
221 Clear 20 1004 92 10000 2.57 40 08:28 14.09.2022
222 Clear 20 1004 89 10000 2.57 210 06:49 14.09.2022
223 Clear 20 1004 89 10000 2.57 210 06:28 14.09.2022
224 Clouds 21 1006 87 10000 3.09 200 02:25 14.09.2022
225 Clear 21 1006 89 10000 3.6 200 01:34 14.09.2022
226 Clear 22 1005 88 10000 3.09 200 00:52 14.09.2022
227 Clear 22 1005 87 10000 3.6 160 23:54 13.09.2022
228 Clear 22 1005 87 10000 3.09 150 23:36 13.09.2022
229 Clear 22 1005 86 10000 3.09 150 23:18 13.09.2022
230 Clear 22 1006 86 10000 3.6 110 22:26 13.09.2022
231 Clouds 23 1006 78 10000 1.54 30 21:35 13.09.2022
232 Clear 26 1006 65 10000 2.57 100 18:54 13.09.2022
233 Clouds 26 1006 62 10000 6.17 90 16:39 13.09.2022
234 Rain 25 1007 62 10000 6.69 80 15:19 13.09.2022
235 Clear 23 1008 65 10000 4.12 90 13:37 13.09.2022
236 Clear 21 1007 72 10000 4.12 50 10:20 13.09.2022
237 Clear 19 1008 79 10000 3.6 340 07:56 13.09.2022
238 Clear 20 1009 72 10000 2.57 10 02:22 13.09.2022
239 Clouds 22 1010 65 10000 2.06 360 23:22 12.09.2022
240 Clear 22 1010 65 10000 3.09 110 22:40 12.09.2022
241 Clear 23 1009 62 10000 2.57 110 21:21 12.09.2022
242 Clear 24 1009 58 10000 3.6 110 20:22 12.09.2022
243 Clear 28 1010 44 10000 3.6 100 18:24 12.09.2022
244 Clear 27 1011 47 10000 3.6 110 15:50 12.09.2022
245 Clear 23 1013 64 10000 2.57 100 12:35 12.09.2022
246 Clear 18 1014 79 10000 2.06 100 10:31 12.09.2022
247 Clear 14 1013 92 10000 2.06 120 07:40 12.09.2022
248 Clear 15 1015 90 10000 2.57 130 04:36 12.09.2022
249 Clear 15 1015 90 10000 2.57 130 02:25 12.09.2022
250 Clear 18 1017 76 10000 2.57 90 22:46 11.09.2022
251 Clear 19 1016 73 10000 2.57 90 21:30 11.09.2022
252 Clear 20 1016 69 10000 4.12 130 20:44 11.09.2022
253 Clouds 22 1016 62 10000 4.12 110 19:45 11.09.2022
254 Clouds 22 1017 62 10000 4.12 110 19:21 11.09.2022
255 Clouds 23 1017 59 10000 4.12 80 17:47 11.09.2022
256 Clouds 23 1018 61 10000 3.09 100 15:51 11.09.2022
257 Clouds 21 1019 69 10000 2.57 130 14:18 11.09.2022
258 Clouds 19 1020 87 10000 3.09 150 12:31 11.09.2022
259 Fog 11 1020 98 800 0.51 50 08:25 11.09.2022
260 Fog 12 1019 98 450 1.03 20 06:33 11.09.2022
261 Clouds 15 1019 95 9000 2.06 270 00:49 11.09.2022
262 Clouds 16 1018 92 10000 2.57 270 22:26 10.09.2022
263 Clouds 17 1017 90 10000 3.09 260 20:51 10.09.2022
264 Clouds 18 1017 89 10000 4.12 240 19:45 10.09.2022
265 Clouds 18 1017 89 10000 4.12 240 19:45 10.09.2022
266 Clouds 18 1017 88 10000 4.12 240 19:27 10.09.2022
267 Clouds 18 1017 89 10000 4.12 220 17:59 10.09.2022
268 Clouds 20 1017 74 10000 4.12 230 15:45 10.09.2022
269 Clouds 18 1017 87 10000 4.12 260 14:37 10.09.2022
270 Drizzle 17 1017 89 10000 4.12 240 12:52 10.09.2022
271 Clouds 16 1016 87 10000 5.66 250 10:35 10.09.2022
272 Drizzle 15 1015 89 10000 4.12 230 09:24 10.09.2022
273 Clouds 15 1015 90 10000 5.14 230 08:26 10.09.2022
274 Clouds 15 1014 90 10000 4.63 240 05:50 10.09.2022
275 Clear 16 1014 89 10000 5.14 240 23:56 09.09.2022
276 Clouds 16 1014 90 10000 4.63 240 23:29 09.09.2022
277 Clouds 16 1013 86 10000 3.6 230 21:24 09.09.2022
278 Clouds 17 1012 85 10000 4.12 220 20:31 09.09.2022
279 Clouds 18 1012 83 10000 5.14 230 19:24 09.09.2022
280 Clouds 18 1012 81 10000 6.17 240 18:33 09.09.2022
281 Rain 18 1012 86 10000 7.72 230 16:21 09.09.2022
282 Clouds 20 1011 70 10000 7.72 220 13:48 09.09.2022
283 Clouds 18 1011 76 10000 7.72 230 11:52 09.09.2022
284 Clouds 17 1009 83 10000 6.17 210 09:21 09.09.2022
285 Clouds 16 1009 86 10000 6.17 210 04:29 09.09.2022
286 Clouds 17 1010 85 10000 3.6 230 00:46 09.09.2022
287 Clear 18 1009 83 10000 3.6 190 21:52 08.09.2022
288 Clear 19 1009 76 10000 4.63 210 20:51 08.09.2022
289 Clouds 20 1009 74 10000 6.17 210 20:31 08.09.2022
290 Clouds 20 1009 71 10000 6.69 220 19:44 08.09.2022
291 Thunderstorm 21 1008 69 10000 7.2 230 17:44 08.09.2022
292 Clouds 22 1009 64 10000 7.72 210 16:19 08.09.2022
293 Clouds 21 1009 71 10000 6.69 220 14:40 08.09.2022
294 Clouds 20 1009 73 10000 8.23 220 13:23 08.09.2022
295 Clouds 18 1010 83 10000 7.2 190 11:37 08.09.2022
296 Clouds 17 1010 86 10000 5.14 180 10:48 08.09.2022
297 Clouds 15 1009 93 10000 4.12 200 07:57 08.09.2022
298 Clouds 15 1009 94 10000 4.12 180 06:41 08.09.2022
299 Clouds 16 1010 93 10000 3.6 190 02:36 08.09.2022
300 Clouds 16 1010 93 10000 4.12 190 02:18 08.09.2022
301 Clouds 16 1010 91 10000 3.09 230 00:27 08.09.2022
302 Mist 17 1011 93 5000 4.63 230 22:42 07.09.2022
303 Rain 18 1011 90 10000 3.09 190 21:42 07.09.2022
304 Rain 18 1010 88 10000 2.57 190 20:42 07.09.2022
305 Rain 19 1011 83 10000 2.57 260 19:36 07.09.2022
306 Clouds 19 1011 83 10000 3.6 180 17:49 07.09.2022
307 Clouds 21 1013 71 10000 6.17 180 12:52 07.09.2022
308 Clear 19 1013 82 10000 4.12 190 10:47 07.09.2022
309 Clear 18 1014 85 10000 3.6 190 09:19 07.09.2022
310 Clear 16 1014 87 10000 3.09 200 07:23 07.09.2022
311 Clear 18 1013 86 10000 2.06 190 03:19 07.09.2022
312 Clear 20 1013 73 10000 5.14 320 22:59 06.09.2022
313 Clear 24 1012 62 10000 4.12 290 21:41 06.09.2022
314 Clouds 25 1011 55 10000 3.6 290 20:45 06.09.2022
315 Clear 28 1011 44 10000 5.66 170 18:45 06.09.2022
316 Clear 28 1011 42 10000 5.66 170 18:22 06.09.2022
317 Clear 29 1012 39 10000 4.12 190 17:22 06.09.2022
318 Clear 28 1013 43 10000 2.57 140 16:37 06.09.2022
319 Clear 27 1014 49 10000 2.57 130 15:22 06.09.2022
320 Clear 24 1015 62 10000 3.09 150 13:45 06.09.2022
321 Clouds 24 1015 64 10000 2.57 200 13:45 06.09.2022
322 Clouds 24 1015 65 10000 2.57 200 13:24 06.09.2022
323 Clear 24 1016 65 10000 3.09 230 11:59 06.09.2022
324 Clear 21 1015 78 10000 3.09 240 10:41 06.09.2022
325 Clear 17 1015 94 10000 1.54 220 08:50 06.09.2022
326 Clear 16 1016 92 10000 2.06 250 07:49 06.09.2022
327 Clear 18 1015 90 10000 3.6 250 03:31 06.09.2022
328 Clear 19 1014 92 10000 2.57 110 23:27 05.09.2022
329 Clear 19 1015 90 10000 3.09 20 22:21 05.09.2022
330 Fog 21 1014 82 6000 3.09 310 20:35 05.09.2022
331 Rain 27 1013 57 10000 5.66 110 19:26 05.09.2022
332 Clear 30 1013 43 10000 4.63 130 18:46 05.09.2022
333 Clear 30 1013 45 10000 4.63 130 18:21 05.09.2022
334 Clear 29 1015 42 10000 4.12 110 16:43 05.09.2022
335 Clear 29 1016 40 10000 5.14 70 15:47 05.09.2022
336 Clear 27 1017 46 10000 4.12 270 13:26 05.09.2022
337 Clear 26 1017 51 10000 2.57 250 12:28 05.09.2022
338 Clear 23 1018 70 10000 3.09 190 10:18 05.09.2022
339 Clear 18 1016 88 10000 2.06 330 06:46 05.09.2022
340 Clouds 21 1016 68 10000 2.57 120 02:42 05.09.2022
341 Clear 24 1016 52 10000 3.6 120 23:26 04.09.2022
342 Clear 24 1015 47 10000 3.6 110 22:27 04.09.2022
343 Clear 25 1015 46 10000 3.6 90 21:34 04.09.2022
344 Clear 28 1015 39 10000 4.12 120 19:38 04.09.2022
345 Clear 30 1015 35 10000 4.63 120 18:20 04.09.2022
346 Clear 29 1016 36 10000 3.6 130 17:19 04.09.2022
347 Clear 27 1017 44 10000 3.6 190 14:36 04.09.2022
348 Clear 27 1017 47 10000 4.12 160 13:52 04.09.2022
349 Clear 24 1017 51 10000 2.57 140 12:21 04.09.2022
350 Clear 21 1017 65 10000 1.03 0 10:47 04.09.2022
351 Clear 16 1016 83 10000 1.54 80 08:21 04.09.2022
352 Clear 16 1015 81 10000 2.06 240 06:21 04.09.2022
353 Clear 19 1013 78 10000 2.57 150 01:31 04.09.2022
354 Clear 19 1012 77 10000 1.03 360 22:26 03.09.2022
355 Clear 21 1012 72 10000 2.06 210 21:24 03.09.2022
356 Clear 22 1012 64 10000 3.6 210 20:26 03.09.2022
357 Clear 23 1011 65 10000 5.66 230 17:35 03.09.2022
358 Clouds 23 1011 71 10000 6.69 220 16:33 03.09.2022
359 Clouds 22 1011 72 10000 6.69 180 14:47 03.09.2022
360 Clouds 23 1011 67 10000 5.14 210 14:26 03.09.2022
361 Clouds 22 1011 72 10000 7.2 180 13:39 03.09.2022
362 Clouds 21 1011 77 10000 4.12 180 11:18 03.09.2022
363 Clear 18 1010 91 10000 3.6 210 08:55 03.09.2022
364 Clear 18 1009 91 10000 2.57 160 06:59 03.09.2022
365 Clouds 18 1009 86 10000 2.57 190 04:43 03.09.2022
366 Clear 19 1009 84 10000 1.54 350 00:46 03.09.2022
367 Clear 19 1009 81 10000 2.06 190 23:28 02.09.2022
368 Clear 21 1009 71 10000 2.06 240 21:36 02.09.2022
369 Clouds 22 1009 67 10000 3.09 130 20:40 02.09.2022
370 Clear 23 1010 63 10000 2.57 200 19:47 02.09.2022
371 Clouds 24 1009 62 10000 4.12 140 18:43 02.09.2022
372 Clouds 24 1009 62 10000 4.12 140 18:24 02.09.2022
373 Clear 23 1010 64 10000 3.09 150 16:56 02.09.2022
374 Clouds 22 1011 68 10000 3.09 120 15:48 02.09.2022
375 Clear 20 1012 71 10000 1.54 270 12:58 02.09.2022
376 Clear 19 1012 69 10000 4.63 50 10:37 02.09.2022
377 Clear 19 1011 72 10000 5.66 60 09:41 02.09.2022
378 Clouds 18 1012 75 10000 4.63 60 08:42 02.09.2022
379 Clear 19 1012 72 10000 3.09 360 06:43 02.09.2022
380 Clouds 20 1012 62 9000 2.68 40 05:32 02.09.2022
381 Clear 23 1013 51 10000 4.12 90 22:58 01.09.2022
382 Clear 24 1014 49 10000 3.6 60 21:46 01.09.2022
383 Clear 24 1014 49 10000 3.6 60 21:26 01.09.2022
384 Clear 25 1013 48 10000 3.6 60 20:49 01.09.2022
385 Clear 27 1013 41 10000 3.6 60 19:25 01.09.2022
386 Clear 28 1013 42 10000 4.12 90 18:18 01.09.2022
387 Clear 28 1014 45 10000 4.63 70 16:47 01.09.2022
388 Clear 27 1015 50 10000 4.12 100 14:41 01.09.2022
389 Clear 25 1016 56 10000 3.6 80 13:20 01.09.2022
390 Clear 25 1016 59 10000 3.6 70 12:42 01.09.2022
391 Clear 23 1016 64 10000 2.57 100 11:50 01.09.2022
392 Clear 22 1016 68 10000 2.57 90 11:19 01.09.2022
393 Clear 19 1016 76 10000 3.09 80 09:31 01.09.2022
394 Clear 17 1016 81 10000 2.06 20 06:31 01.09.2022
395 Clear 20 1016 72 10000 3.09 350 02:33 01.09.2022
396 Clear 20 1016 70 10000 3.6 350 01:29 01.09.2022
397 Clear 23 1017 60 10000 3.09 10 22:22 31.08.2022
398 Clear 25 1016 51 10000 5.14 10 20:35 31.08.2022
399 Clear 27 1016 44 10000 4.12 60 18:32 31.08.2022
400 Clear 27 1017 45 10000 4.12 10 16:36 31.08.2022
401 Clear 27 1017 47 10000 4.12 20 15:21 31.08.2022
402 Clear 24 1018 54 10000 4.63 350 12:58 31.08.2022
403 Clear 23 1019 58 10000 3.6 350 11:54 31.08.2022
404 Clear 18 1019 71 10000 3.09 350 09:35 31.08.2022
405 Clear 16 1019 75 10000 3.6 360 07:31 31.08.2022
406 Clear 20 1018 64 10000 3.6 10 02:25 31.08.2022
407 Clear 23 1018 48 10000 3.09 360 22:18 30.08.2022
408 Clear 25 1018 46 10000 3.09 340 21:27 30.08.2022
409 Clear 28 1017 43 10000 2.57 340 19:51 30.08.2022
410 Clear 27 1018 46 10000 2.57 10 16:47 30.08.2022
411 Clear 27 1018 46 10000 2.57 10 16:47 30.08.2022
412 Clear 23 1019 54 10000 2.06 340 13:38 30.08.2022
413 Clear 21 1019 62 10000 2.57 30 11:44 30.08.2022
414 Clear 21 1018 64 10000 2.57 30 11:19 30.08.2022
415 Clear 17 1017 75 10000 3.6 10 08:51 30.08.2022
416 Clouds 17 1017 77 10000 4.12 50 06:26 30.08.2022
417 Clear 21 1017 54 10000 5.14 30 00:30 30.08.2022
418 Clear 23 1017 49 10000 6.69 30 22:37 29.08.2022
419 Clear 24 1016 49 10000 5.66 30 21:51 29.08.2022
420 Clear 27 1016 45 10000 4.63 10 20:35 29.08.2022
421 Clear 29 1015 44 10000 4.12 40 18:58 29.08.2022
422 Clear 29 1016 43 10000 4.12 20 17:32 29.08.2022
423 Clear 29 1016 43 10000 4.63 60 16:58 29.08.2022
424 Clear 27 1017 45 10000 5.14 10 15:19 29.08.2022
425 Clear 26 1017 48 10000 5.66 40 13:54 29.08.2022
426 Clear 23 1018 51 10000 5.14 50 12:24 29.08.2022
427 Clear 20 1018 56 10000 4.63 30 10:43 29.08.2022
428 Clear 19 1018 61 10000 5.66 30 09:18 29.08.2022
429 Clear 17 1017 63 10000 4.63 30 07:20 29.08.2022
430 Clear 20 1018 55 10000 5.66 40 02:31 29.08.2022
431 Clear 22 1017 52 10000 6.17 40 23:35 28.08.2022
432 Clear 23 1017 54 10000 4.12 30 21:48 28.08.2022
433 Clear 23 1017 54 10000 4.63 20 21:27 28.08.2022
434 Clear 25 1016 50 10000 3.6 10 20:19 28.08.2022
435 Clear 26 1016 47 10000 3.6 20 18:22 28.08.2022
436 Clear 26 1016 48 10000 3.09 20 17:59 28.08.2022
437 Clear 26 1016 50 10000 4.63 10 16:44 28.08.2022
438 Clear 25 1017 52 10000 4.12 50 15:34 28.08.2022
439 Clouds 24 1017 56 10000 4.63 30 13:32 28.08.2022
440 Clear 21 1018 64 10000 5.14 30 11:59 28.08.2022
441 Clear 18 1018 73 10000 5.14 40 10:22 28.08.2022
442 Clear 17 1018 78 10000 3.6 20 09:24 28.08.2022
443 Clear 15 1017 83 10000 3.6 10 07:56 28.08.2022
444 Clear 14 1017 83 10000 3.6 10 07:27 28.08.2022
445 Clear 18 1017 63 10000 2.57 340 00:45 28.08.2022
446 Clear 20 1017 57 10000 3.6 40 23:28 27.08.2022
447 Clear 21 1016 53 10000 4.12 40 22:27 27.08.2022
448 Clear 21 1016 53 10000 4.12 40 22:27 27.08.2022
449 Clear 23 1016 45 10000 4.63 40 20:36 27.08.2022
450 Clear 24 1015 44 10000 5.66 20 19:29 27.08.2022
451 Clear 25 1016 42 10000 4.12 340 16:30 27.08.2022
452 Clear 25 1016 43 10000 3.6 350 15:31 27.08.2022
453 Clouds 23 1016 50 10000 4.12 10 13:30 27.08.2022
454 Clouds 22 1017 58 10000 4.12 360 12:22 27.08.2022
455 Clear 20 1017 72 10000 4.63 20 10:30 27.08.2022
456 Clear 18 1017 76 10000 4.12 30 09:39 27.08.2022
457 Clear 16 1016 82 10000 3.09 20 06:54 27.08.2022
458 Clear 18 1017 75 10000 4.12 10 02:24 27.08.2022
459 Clear 20 1017 66 10000 4.63 340 23:49 26.08.2022
460 Clear 23 1016 54 10000 4.63 10 21:53 26.08.2022
461 Clear 25 1015 50 10000 3.6 320 20:22 26.08.2022
462 Clear 26 1015 49 10000 3.6 330 18:19 26.08.2022
463 Clear 26 1016 48 10000 4.12 360 16:40 26.08.2022
464 Clouds 25 1017 53 10000 3.09 360 15:25 26.08.2022
465 Clouds 24 1018 62 10000 3.6 330 13:26 26.08.2022
466 Clouds 22 1018 70 10000 4.63 330 12:34 26.08.2022
467 Clouds 21 1018 74 10000 4.12 330 11:22 26.08.2022
468 Clouds 19 1018 83 10000 4.12 330 09:53 26.08.2022
469 Clouds 19 1017 87 10000 4.63 340 04:56 26.08.2022
470 Clear 20 1017 78 10000 5.66 330 01:18 26.08.2022
471 Clear 22 1016 69 10000 6.17 330 22:57 25.08.2022
472 Clear 25 1015 61 10000 6.17 330 20:59 25.08.2022
473 Clear 27 1014 53 10000 7.2 330 19:47 25.08.2022
474 Clear 29 1013 48 10000 5.66 330 18:47 25.08.2022
475 Clear 30 1013 47 10000 6.17 320 17:32 25.08.2022
476 Clear 31 1013 44 10000 4.63 310 16:46 25.08.2022
477 Clear 31 1013 39 10000 4.63 360 15:37 25.08.2022
478 Clear 31 1013 39 10000 3.09 330 14:30 25.08.2022
479 Clear 27 1014 47 10000 5.14 310 11:34 25.08.2022
480 Clear 26 1014 47 10000 2.06 150 10:46 25.08.2022
481 Clear 21 1014 65 10000 2.06 20 08:41 25.08.2022
482 Clear 22 1014 61 10000 2.57 100 04:40 25.08.2022
483 Clear 24 1014 54 10000 2.57 70 00:26 25.08.2022
484 Clear 25 1014 52 10000 2.06 70 23:25 24.08.2022
485 Clear 27 1014 45 10000 2.57 50 22:18 24.08.2022
486 Clear 28 1014 45 10000 2.57 70 21:32 24.08.2022
487 Clear 31 1014 40 10000 4.12 110 20:23 24.08.2022
488 Clear 32 1014 37 10000 3.09 160 18:39 24.08.2022
489 Clear 32 1015 38 10000 4.12 100 16:23 24.08.2022
490 Clear 32 1015 39 10000 3.6 120 15:48 24.08.2022
491 Clear 29 1016 47 10000 2.57 0 12:55 24.08.2022
492 Clear 27 1017 57 10000 2.06 160 11:22 24.08.2022
493 Clear 22 1016 79 10000 2.06 70 09:20 24.08.2022
494 Clear 19 1016 89 10000 1.03 350 07:43 24.08.2022
495 Clear 21 1016 77 10000 1.54 360 02:25 24.08.2022
496 Clear 23 1016 72 10000 1.54 350 22:59 23.08.2022
497 Clear 24 1016 68 10000 1.03 340 22:29 23.08.2022
498 Clear 25 1016 64 10000 1.54 0 21:27 23.08.2022
499 Clear 27 1015 57 10000 1.54 300 19:57 23.08.2022
500 Clear 27 1015 57 10000 2.57 260 18:33 23.08.2022
501 Clear 27 1016 55 10000 3.6 250 17:47 23.08.2022
502 Clear 28 1016 54 10000 2.57 260 16:50 23.08.2022
503 Clouds 28 1016 57 10000 2.57 210 15:23 23.08.2022
504 Clouds 26 1016 63 10000 3.09 210 13:26 23.08.2022
505 Clouds 24 1016 73 10000 1.54 0 11:24 23.08.2022
506 Clouds 23 1016 72 10000 1.54 0 10:36 23.08.2022
507 Clouds 22 1016 76 10000 1.54 360 09:52 23.08.2022
508 Clear 20 1016 79 10000 1.54 190 08:51 23.08.2022
509 Clear 19 1015 83 10000 1.03 0 08:20 23.08.2022
510 Clear 19 1015 82 10000 1.54 60 07:34 23.08.2022
511 Clouds 19 1015 83 10000 2.06 50 06:27 23.08.2022
512 Clear 20 1014 77 10000 1.54 240 03:24 23.08.2022
513 Clear 21 1014 72 10000 2.57 240 00:28 23.08.2022
514 Clear 22 1014 70 10000 2.06 260 23:33 22.08.2022
515 Clear 22 1014 70 10000 2.06 240 22:44 22.08.2022
516 Clear 23 1013 64 10000 3.6 250 21:25 22.08.2022
517 Clouds 25 1013 58 10000 3.6 230 19:48 22.08.2022
518 Clouds 25 1013 58 10000 3.6 230 19:48 22.08.2022
519 Clouds 25 1013 59 10000 4.12 230 18:49 22.08.2022
520 Clouds 26 1012 61 10000 2.48 254 17:18 22.08.2022
521 Clear 25 1014 57 10000 4.12 170 15:39 22.08.2022
522 Clouds 25 1014 57 10000 3.6 210 13:57 22.08.2022
523 Clear 20 1015 70 10000 2.57 230 10:43 22.08.2022
524 Clear 17 1015 78 10000 2.06 230 07:59 22.08.2022
525 Clear 18 1014 75 10000 2.57 290 04:25 22.08.2022
526 Clear 20 1015 72 10000 5.14 320 00:43 22.08.2022
527 Clear 20 1015 72 10000 5.14 320 00:24 22.08.2022
528 Clear 21 1014 64 10000 3.6 320 22:53 21.08.2022
529 Clear 23 1014 56 10000 2.57 190 21:28 21.08.2022
530 Clear 24 1014 51 10000 4.12 230 20:56 21.08.2022
531 Clear 25 1014 49 10000 4.12 210 19:27 21.08.2022
532 Clear 26 1014 49 10000 4.63 200 17:39 21.08.2022
533 Clear 26 1015 49 10000 4.63 190 15:58 21.08.2022
534 Clear 26 1015 52 10000 4.12 200 15:22 21.08.2022
535 Clear 24 1016 52 10000 3.6 130 13:54 21.08.2022
536 Clear 24 1016 53 10000 4.12 120 13:34 21.08.2022
537 Clear 23 1016 60 10000 2.57 140 11:55 21.08.2022
538 Clear 18 1017 76 10000 1.54 0 09:32 21.08.2022
539 Clear 17 1018 78 10000 1.54 360 08:56 21.08.2022
540 Clear 15 1018 87 10000 1.54 360 08:38 21.08.2022
541 Clear 15 1017 85 10000 1.54 350 07:27 21.08.2022
542 Clear 17 1017 75 10000 2.06 80 03:41 21.08.2022
543 Clear 19 1018 63 10000 2.57 360 00:31 21.08.2022
544 Clear 20 1018 56 10000 1.54 320 22:59 20.08.2022
545 Clear 22 1018 50 10000 2.57 270 21:43 20.08.2022
546 Clear 23 1018 48 10000 2.57 230 20:44 20.08.2022
547 Clear 25 1018 45 10000 3.09 270 19:41 20.08.2022
548 Clear 25 1018 43 10000 2.57 250 18:35 20.08.2022
549 Clear 26 1018 43 10000 3.6 290 17:58 20.08.2022
550 Clear 25 1018 45 10000 2.06 210 17:18 20.08.2022
551 Clear 24 1019 49 10000 3.6 270 15:51 20.08.2022
552 Clouds 23 1019 57 10000 3.09 240 13:39 20.08.2022
553 Clouds 20 1020 68 10000 3.09 280 11:53 20.08.2022
554 Clear 18 1020 80 10000 3.09 280 10:36 20.08.2022
555 Clear 15 1020 89 10000 2.57 230 08:53 20.08.2022
556 Clear 14 1019 93 10000 2.57 280 06:40 20.08.2022
557 Clear 15 1019 89 10000 2.57 280 03:57 20.08.2022
558 Clear 18 1019 81 10000 4.12 310 00:51 20.08.2022
559 Clouds 20 1018 88 10000 4.12 310 23:21 19.08.2022
560 Clouds 20 1018 87 10000 5.14 300 22:35 19.08.2022
561 Rain 22 1017 74 10000 5.66 280 20:30 19.08.2022
562 Clear 24 1017 63 10000 3.09 330 18:51 19.08.2022
563 Clouds 24 1016 70 10000 4.63 20 15:54 19.08.2022
564 Clouds 23 1017 72 10000 3.09 220 13:40 19.08.2022
565 Clouds 20 1018 80 10000 3.09 240 11:40 19.08.2022
566 Clouds 19 1017 85 10000 3.6 290 10:30 19.08.2022
567 Clouds 18 1016 85 10000 3.6 280 07:25 19.08.2022
568 Clear 19 1016 79 10000 3.6 330 02:23 19.08.2022
569 Clear 20 1015 75 10000 4.63 320 00:36 19.08.2022
570 Clear 21 1015 72 10000 4.12 320 23:48 18.08.2022
571 Clear 22 1015 69 10000 5.14 330 22:53 18.08.2022
572 Clear 23 1014 67 10000 4.63 340 22:18 18.08.2022
573 Clouds 24 1014 62 10000 5.14 330 21:41 18.08.2022
574 Clear 26 1013 52 10000 5.14 290 20:42 18.08.2022
575 Clear 28 1013 47 10000 5.14 290 19:32 18.08.2022
576 Clear 28 1013 47 10000 5.14 320 18:29 18.08.2022
577 Clear 28 1013 48 10000 5.66 300 17:32 18.08.2022
578 Clear 27 1013 50 10000 4.12 300 15:50 18.08.2022
579 Clear 27 1013 53 10000 2.57 320 14:21 18.08.2022
580 Clouds 26 1013 56 9000 2.06 20 13:42 18.08.2022
581 Clear 24 1014 69 8000 1.54 290 12:27 18.08.2022
582 Clear 22 1014 80 7000 2.06 260 10:51 18.08.2022
583 Mist 19 1014 90 5000 1.03 0 09:42 18.08.2022
584 Clear 16 1013 94 10000 1.03 310 07:26 18.08.2022
585 Clear 17 1013 92 10000 2.57 350 05:33 18.08.2022
586 Clear 19 1013 87 10000 2.06 20 00:45 18.08.2022
587 Clear 20 1011 81 10000 1.54 30 22:28 17.08.2022
588 Rain 22 1011 74 10000 1.54 190 20:21 17.08.2022
589 Thunderstorm 24 1010 65 10000 4.12 200 19:34 17.08.2022
590 Clouds 26 1010 56 10000 5.14 90 18:32 17.08.2022
591 Clear 26 1009 58 10000 2.06 160 16:50 17.08.2022
592 Clouds 24 1011 68 10000 2.57 190 15:41 17.08.2022
593 Clouds 22 1010 82 10000 2.57 200 14:36 17.08.2022
594 Clouds 19 1010 92 10000 2.06 140 12:22 17.08.2022
595 Clouds 19 1010 93 10000 4.63 150 10:59 17.08.2022
596 Clear 18 1008 94 10000 1.54 0 08:26 17.08.2022
597 Clear 18 1008 92 9000 2.06 150 05:35 17.08.2022
598 Clear 18 1009 94 7000 1.54 0 00:50 17.08.2022
599 Clear 19 1009 90 10000 1.03 0 23:18 16.08.2022
600 Clear 19 1008 90 10000 3.09 60 21:21 16.08.2022
601 Clouds 19 1008 90 10000 3.6 10 20:20 16.08.2022
602 Thunderstorm 20 1008 83 2600 8.23 290 19:26 16.08.2022
603 Thunderstorm 27 1008 57 10000 3.09 160 17:55 16.08.2022
604 Clouds 28 1008 53 10000 2.57 70 16:48 16.08.2022
605 Clouds 26 1009 57 10000 4.12 170 15:45 16.08.2022
606 Clouds 26 1008 60 10000 3.09 180 14:54 16.08.2022
607 Clear 26 1008 59 10000 3.6 160 14:36 16.08.2022
608 Clouds 25 1008 65 10000 4.63 170 12:33 16.08.2022
609 Clear 21 1008 78 10000 2.57 150 10:23 16.08.2022
610 Clear 20 1008 85 10000 1.54 100 08:54 16.08.2022
611 Clear 19 1007 87 10000 1.03 0 08:21 16.08.2022
612 Clear 19 1007 86 10000 1.54 30 06:32 16.08.2022
613 Clear 21 1007 73 10000 2.06 250 00:32 16.08.2022
614 Clear 23 1006 67 10000 3.09 230 22:24 15.08.2022
615 Clear 23 1006 65 10000 2.57 250 21:50 15.08.2022
616 Clouds 25 1005 62 10000 5.14 180 20:32 15.08.2022
617 Clouds 25 1005 60 10000 4.63 250 19:59 15.08.2022
618 Clouds 26 1005 55 10000 2.06 160 17:59 15.08.2022
619 Clouds 24 1005 64 10000 2.57 250 16:25 15.08.2022
620 Clear 24 1005 66 10000 2.06 200 15:54 15.08.2022
621 Clouds 21 1005 81 10000 3.09 150 13:54 15.08.2022
622 Clouds 20 1004 83 10000 4.12 160 11:25 15.08.2022
623 Clear 19 1004 88 10000 2.57 150 09:42 15.08.2022
624 Clear 17 1004 95 10000 2.57 130 07:44 15.08.2022
625 Clear 18 1005 91 10000 2.57 180 04:35 15.08.2022
626 Clouds 18 1006 93 10000 2.06 150 00:54 15.08.2022
627 Clouds 18 1006 91 10000 1.54 210 22:38 14.08.2022
628 Clouds 18 1007 90 10000 1.03 0 21:37 14.08.2022
629 Rain 21 1006 76 10000 12.86 270 19:54 14.08.2022
630 Clear 25 1006 63 10000 4.12 150 18:58 14.08.2022
631 Clouds 25 1006 66 10000 5.14 140 18:19 14.08.2022
632 Clouds 25 1006 70 10000 3.6 220 16:53 14.08.2022
633 Rain 24 1006 71 10000 5.14 210 15:49 14.08.2022
634 Clouds 26 1008 50 10000 6.17 220 14:33 14.08.2022
635 Clear 28 1006 45 10000 4.63 250 13:50 14.08.2022
636 Clear 28 1006 45 10000 5.14 270 13:20 14.08.2022
637 Clear 28 1006 43 10000 7.2 280 12:28 14.08.2022
638 Clear 26 1006 47 10000 5.66 250 10:50 14.08.2022
639 Clear 21 1006 49 10000 1.54 50 08:52 14.08.2022
640 Clear 21 1007 47 10000 2.06 360 06:22 14.08.2022
641 Clear 22 1008 42 10000 4.12 70 02:57 14.08.2022
642 Clear 24 1009 37 10000 3.09 70 00:19 14.08.2022
643 Clear 26 1010 34 10000 2.57 70 22:56 13.08.2022
644 Clear 29 1010 28 10000 4.12 60 21:43 13.08.2022
645 Clear 31 1010 24 10000 3.6 100 20:46 13.08.2022
646 Clear 32 1010 23 10000 4.63 80 19:45 13.08.2022
647 Clear 33 1011 21 10000 5.14 90 17:59 13.08.2022
648 Clear 32 1012 23 10000 5.14 130 15:40 13.08.2022
649 Clear 32 1012 24 10000 5.66 100 14:32 13.08.2022
650 Clear 31 1013 25 10000 4.63 110 13:46 13.08.2022
651 Clear 29 1013 31 10000 5.14 100 11:53 13.08.2022
652 Clear 26 1013 37 10000 3.6 100 10:31 13.08.2022
653 Clear 24 1013 42 10000 3.6 90 09:19 13.08.2022
654 Clear 20 1013 47 10000 2.57 70 05:57 13.08.2022
655 Clear 25 1013 36 10000 2.06 80 00:30 13.08.2022
656 Clear 27 1013 34 10000 2.57 60 22:26 12.08.2022
657 Clear 30 1012 29 10000 3.6 70 21:20 12.08.2022
658 Clear 33 1012 23 10000 4.63 100 19:44 12.08.2022
659 Clear 34 1012 22 10000 4.63 70 18:58 12.08.2022
660 Clear 34 1013 22 10000 5.14 90 17:57 12.08.2022
661 Clear 33 1013 22 10000 5.66 50 16:25 12.08.2022
662 Clear 33 1014 23 10000 6.17 90 14:50 12.08.2022
663 Clear 31 1015 27 10000 7.72 90 12:59 12.08.2022
664 Clear 29 1015 32 10000 5.14 60 11:39 12.08.2022
665 Clear 22 1016 48 10000 2.57 20 08:48 12.08.2022
666 Clear 20 1016 54 10000 4.12 20 07:45 12.08.2022
667 Clear 21 1016 50 10000 2.57 20 03:56 12.08.2022
668 Clear 24 1016 41 10000 2.06 70 00:31 12.08.2022
669 Clear 25 1016 39 10000 2.06 360 23:42 11.08.2022
670 Clear 27 1016 35 10000 2.57 50 22:42 11.08.2022
671 Clear 28 1016 32 10000 4.12 70 21:52 11.08.2022
672 Clear 29 1016 30 10000 5.14 70 21:26 11.08.2022
673 Clear 31 1016 26 10000 6.17 80 20:30 11.08.2022
674 Clear 32 1015 25 10000 6.69 60 19:33 11.08.2022
675 Clear 32 1016 25 10000 6.69 70 18:41 11.08.2022
676 Clear 33 1017 24 10000 6.69 70 16:46 11.08.2022
677 Clear 32 1017 26 10000 7.72 70 15:42 11.08.2022
678 Clear 32 1018 25 10000 7.2 70 14:32 11.08.2022
679 Clear 29 1019 30 10000 4.63 60 11:56 11.08.2022
680 Clear 23 1019 45 10000 4.12 40 08:57 11.08.2022
681 Clear 20 1019 53 10000 2.57 10 05:58 11.08.2022
682 Clear 23 1019 46 10000 3.09 30 02:33 11.08.2022
683 Clear 25 1019 41 10000 2.57 50 23:41 10.08.2022
684 Clear 29 1018 33 10000 5.14 80 21:47 10.08.2022
685 Clear 30 1018 30 10000 5.66 80 20:56 10.08.2022
686 Clear 31 1018 29 10000 6.17 90 20:35 10.08.2022
687 Clear 32 1018 26 10000 5.66 70 18:53 10.08.2022
688 Clear 33 1019 25 10000 6.69 50 17:27 10.08.2022
689 Clear 32 1021 27 10000 6.69 50 14:53 10.08.2022
690 Clear 31 1021 31 10000 5.14 60 13:33 10.08.2022
691 Clear 26 1023 45 10000 3.6 40 10:50 10.08.2022
692 Clear 20 1022 64 10000 3.09 20 08:39 10.08.2022
693 Clear 19 1022 67 10000 3.09 360 07:35 10.08.2022
694 Clear 21 1022 58 10000 5.14 30 04:50 10.08.2022
695 Clear 23 1022 51 10000 5.66 40 01:52 10.08.2022
696 Clear 26 1023 45 10000 5.66 30 23:32 09.08.2022
697 Clear 26 1023 44 10000 5.14 30 22:45 09.08.2022
698 Clear 28 1022 36 10000 4.63 30 21:24 09.08.2022
699 Clear 30 1021 32 10000 5.66 40 19:33 09.08.2022
700 Clear 31 1022 30 10000 5.66 10 17:53 09.08.2022
701 Clear 31 1022 31 10000 5.14 70 17:26 09.08.2022
702 Clear 31 1023 31 10000 5.14 40 16:30 09.08.2022
703 Clear 30 1023 33 10000 5.66 40 15:26 09.08.2022
704 Clear 26 1024 46 10000 5.14 30 12:20 09.08.2022
705 Clear 19 1024 70 10000 4.12 10 08:54 09.08.2022
706 Clear 18 1024 73 10000 5.14 20 07:59 09.08.2022
707 Clear 17 1024 75 10000 3.6 20 07:18 09.08.2022
708 Clear 20 1024 59 10000 5.66 30 02:27 09.08.2022
709 Clear 23 1023 46 10000 5.66 20 23:26 08.08.2022
710 Clear 24 1023 41 10000 5.66 30 22:52 08.08.2022
711 Clear 25 1023 40 10000 6.17 30 21:48 08.08.2022
712 Clear 27 1022 35 10000 6.69 30 20:51 08.08.2022
713 Clear 28 1021 30 10000 6.69 10 19:50 08.08.2022
714 Clear 29 1021 28 10000 6.69 50 18:19 08.08.2022
715 Clear 28 1022 30 10000 6.17 20 15:57 08.08.2022
716 Clear 28 1022 30 10000 5.66 40 15:38 08.08.2022
717 Clear 25 1023 42 10000 6.69 30 12:39 08.08.2022
718 Clear 23 1024 47 10000 6.17 40 11:32 08.08.2022
719 Clear 19 1024 61 10000 5.66 30 09:29 08.08.2022
720 Clear 16 1022 66 10000 4.12 10 05:35 08.08.2022
721 Clear 19 1023 51 10000 4.63 30 01:56 08.08.2022
722 Clear 23 1022 41 10000 6.17 40 22:20 07.08.2022
723 Clear 24 1021 38 10000 5.66 30 21:38 07.08.2022
724 Clear 26 1020 35 10000 6.69 40 20:25 07.08.2022
725 Clear 26 1020 33 10000 7.2 30 19:54 07.08.2022
726 Clear 26 1020 33 10000 5.66 30 19:29 07.08.2022
727 Clear 27 1021 31 10000 7.2 50 18:22 07.08.2022
728 Clear 27 1021 31 10000 6.17 30 16:54 07.08.2022
729 Clear 26 1022 32 10000 5.66 30 15:54 07.08.2022
730 Clear 26 1022 33 10000 6.17 40 15:19 07.08.2022
731 Clear 24 1023 37 10000 6.17 50 13:22 07.08.2022
732 Clear 21 1024 46 10000 6.17 40 10:59 07.08.2022
733 Clear 20 1024 49 10000 5.66 40 10:33 07.08.2022
734 Clear 15 1024 61 10000 4.63 20 05:48 07.08.2022
735 Clear 17 1024 54 10000 5.66 30 03:19 07.08.2022
736 Clear 20 1025 44 10000 6.17 40 23:44 06.08.2022
737 Clear 21 1024 41 10000 5.66 40 22:20 06.08.2022
738 Clear 24 1024 34 10000 5.66 20 20:26 06.08.2022
739 Clear 24 1023 33 10000 6.69 20 19:41 06.08.2022
740 Clear 24 1023 33 10000 6.69 20 19:41 06.08.2022
741 Clear 25 1024 31 10000 6.69 40 18:25 06.08.2022
742 Clear 25 1024 31 10000 6.69 30 17:31 06.08.2022
743 Clear 23 1026 32 10000 6.17 30 14:35 06.08.2022
744 Clear 23 1026 32 10000 7.72 60 13:44 06.08.2022
745 Clear 20 1026 42 10000 7.72 40 11:33 06.08.2022
746 Clear 17 1026 54 10000 5.14 20 09:51 06.08.2022
747 Clear 15 1026 62 10000 5.14 40 08:32 06.08.2022
748 Clear 15 1025 63 10000 4.63 30 03:52 06.08.2022
749 Clear 19 1024 45 10000 6.17 10 23:36 05.08.2022
750 Clear 20 1023 42 10000 6.17 360 22:23 05.08.2022
751 Clear 24 1021 45 10000 5.14 350 19:46 05.08.2022
752 Clear 25 1020 44 10000 6.69 360 18:46 05.08.2022
753 Clear 26 1020 45 10000 6.69 360 18:22 05.08.2022
754 Clear 25 1020 46 10000 5.66 320 16:49 05.08.2022
755 Clear 26 1019 47 10000 5.14 340 15:22 05.08.2022
756 Clouds 25 1019 52 10000 5.66 340 14:31 05.08.2022
757 Clouds 24 1019 57 10000 4.63 330 13:24 05.08.2022
758 Clouds 23 1019 64 10000 5.14 330 12:30 05.08.2022
759 Clear 21 1018 75 10000 4.12 320 10:53 05.08.2022
760 Clear 17 1017 90 10000 4.12 300 08:30 05.08.2022
761 Clear 16 1016 93 10000 2.57 300 07:22 05.08.2022
762 Rain 20 1016 75 10000 4.63 360 01:28 05.08.2022
763 Clear 21 1015 73 10000 5.66 360 22:33 04.08.2022
764 Clear 23 1014 70 10000 6.69 330 21:27 04.08.2022
765 Clouds 25 1014 71 10000 3.6 340 20:45 04.08.2022
766 Clouds 25 1014 73 10000 3.6 40 19:58 04.08.2022
767 Clouds 25 1014 68 10000 4.63 340 18:52 04.08.2022
768 Rain 27 1015 54 10000 5.66 290 18:32 04.08.2022
769 Clear 27 1015 54 10000 4.12 330 14:45 04.08.2022
770 Clear 25 1014 62 10000 4.63 330 13:23 04.08.2022
771 Clouds 22 1014 76 10000 3.6 340 11:38 04.08.2022
772 Rain 23 1013 67 10000 3.6 340 09:58 04.08.2022
773 Clouds 21 1013 72 10000 4.63 320 07:31 04.08.2022
774 Clear 24 1012 64 10000 4.12 360 02:46 04.08.2022
775 Clear 27 1012 53 10000 4.63 340 23:58 03.08.2022
776 Clear 27 1012 50 10000 4.12 320 23:36 03.08.2022
777 Clear 32 1011 34 10000 1.54 230 21:26 03.08.2022
778 Clear 35 1011 29 10000 3.6 230 20:20 03.08.2022
779 Clear 36 1011 29 10000 2.57 220 18:53 03.08.2022
780 Clear 35 1013 31 10000 2.06 210 16:27 03.08.2022
781 Clear 35 1013 31 10000 2.06 0 15:53 03.08.2022
782 Clear 32 1014 38 10000 2.57 180 13:40 03.08.2022
783 Clear 28 1015 54 10000 1.03 0 10:50 03.08.2022
784 Clear 20 1015 81 10000 2.57 70 07:26 03.08.2022
785 Clear 21 1015 75 10000 3.09 30 04:22 03.08.2022
786 Clear 22 1016 73 10000 3.09 20 03:23 03.08.2022
787 Clear 23 1016 65 10000 3.6 350 00:49 03.08.2022
788 Clear 26 1015 53 10000 1.54 10 22:37 02.08.2022
789 Clear 28 1015 47 10000 1.54 0 21:51 02.08.2022
790 Clear 31 1015 39 10000 2.06 280 20:30 02.08.2022
791 Clear 32 1016 38 10000 2.57 350 18:34 02.08.2022
792 Clear 30 1017 41 10000 2.57 310 15:20 02.08.2022
793 Clear 24 1019 59 10000 2.06 320 10:51 02.08.2022
794 Clear 20 1019 71 10000 1.54 0 08:59 02.08.2022
795 Clear 19 1018 81 10000 1.54 330 07:52 02.08.2022
796 Clear 18 1018 82 10000 2.06 360 06:41 02.08.2022
797 Clear 19 1019 79 10000 2.06 330 04:31 02.08.2022
798 Clear 22 1019 66 10000 1.03 340 23:35 01.08.2022
799 Clear 24 1018 60 10000 1.03 340 22:23 01.08.2022
800 Clear 26 1018 51 10000 3.09 260 20:51 01.08.2022
801 Clear 27 1017 49 10000 2.57 330 19:23 01.08.2022
802 Clear 27 1018 50 10000 3.09 290 18:30 01.08.2022
803 Clear 27 1018 49 10000 4.12 280 16:53 01.08.2022
804 Clouds 26 1018 55 10000 2.57 330 15:52 01.08.2022
805 Clouds 26 1018 55 10000 2.57 330 15:52 01.08.2022
806 Clouds 26 1018 57 10000 2.57 350 15:30 01.08.2022
807 Clouds 25 1018 61 10000 3.09 280 13:48 01.08.2022
808 Clouds 22 1019 68 10000 3.09 260 11:50 01.08.2022
809 Clouds 21 1018 77 10000 3.6 300 09:39 01.08.2022
810 Clouds 20 1018 80 10000 3.09 270 08:22 01.08.2022
811 Clouds 19 1018 81 10000 1.54 320 04:48 01.08.2022
812 Clouds 20 1018 77 10000 2.06 300 02:32 01.08.2022
813 Clear 22 1019 69 10000 3.09 310 23:54 31.07.2022
814 Clear 24 1018 65 10000 4.12 340 22:38 31.07.2022
815 Clear 25 1018 58 10000 5.14 320 21:27 31.07.2022
816 Clear 29 1018 46 10000 4.63 310 19:41 31.07.2022
817 Clouds 29 1018 44 10000 4.12 270 17:48 31.07.2022
818 Clouds 28 1019 49 10000 4.12 0 15:37 31.07.2022
819 Clouds 26 1020 55 10000 4.63 300 13:43 31.07.2022
820 Clouds 23 1020 62 10000 3.6 280 11:58 31.07.2022
821 Clouds 21 1020 73 10000 5.14 290 09:43 31.07.2022
822 Clouds 19 1019 83 10000 2.06 280 07:38 31.07.2022
823 Clear 20 1020 73 10000 2.57 340 02:58 31.07.2022
824 Clear 24 1019 58 10000 4.63 330 23:40 30.07.2022
825 Clear 26 1018 49 10000 3.6 340 22:19 30.07.2022
826 Clear 27 1018 47 10000 3.6 340 21:48 30.07.2022
827 Clear 28 1018 41 10000 4.12 330 20:57 30.07.2022
828 Clear 30 1017 38 10000 4.63 330 19:59 30.07.2022
829 Clear 30 1018 36 10000 5.14 290 18:53 30.07.2022
830 Clear 30 1018 34 10000 4.12 310 17:44 30.07.2022
831 Clear 30 1018 35 10000 5.66 290 15:54 30.07.2022
832 Clear 30 1019 35 10000 4.12 250 15:24 30.07.2022
833 Clear 28 1019 38 10000 3.09 250 13:18 30.07.2022
834 Clear 26 1019 41 10000 1.54 0 12:19 30.07.2022
835 Clear 24 1019 52 10000 1.03 0 10:31 30.07.2022
836 Clear 24 1019 52 10000 1.03 0 10:31 30.07.2022
837 Clear 24 1019 52 10000 1.03 0 10:31 30.07.2022
838 Clear 24 1019 52 10000 1.03 0 10:31 30.07.2022
839 Clear 23 1020 54 10000 1.54 320 09:56 30.07.2022
840 Clear 18 1019 69 10000 1.03 0 07:55 30.07.2022
841 Clear 20 1018 57 10000 3.09 10 03:55 30.07.2022
842 Clear 21 1019 53 10000 2.06 350 02:25 30.07.2022
843 Clear 25 1018 45 10000 1.54 360 22:44 29.07.2022
844 Clear 27 1016 40 10000 2.06 330 21:24 29.07.2022
845 Clear 28 1016 36 10000 2.57 340 20:41 29.07.2022
846 Clear 29 1016 33 10000 4.63 330 18:26 29.07.2022
847 Clear 29 1016 33 10000 4.12 280 16:32 29.07.2022
848 Clear 28 1016 36 10000 2.57 0 13:45 29.07.2022
849 Clear 25 1017 43 10000 2.06 350 11:30 29.07.2022
850 Clear 19 1016 59 10000 1.03 0 08:50 29.07.2022
851 Clear 18 1016 65 10000 1.03 10 08:20 29.07.2022
852 Clear 18 1015 57 10000 1.54 60 02:52 29.07.2022
853 Clear 21 1015 46 10000 3.6 40 23:20 28.07.2022
854 Clear 24 1014 40 10000 3.6 30 21:30 28.07.2022
855 Clear 26 1014 37 10000 4.12 360 20:45 28.07.2022
856 Clouds 26 1014 37 10000 0.45 270 19:44 28.07.2022
857 Clear 26 1014 35 10000 4.63 340 19:26 28.07.2022
858 Clear 27 1014 34 10000 2.57 360 17:45 28.07.2022
859 Clear 27 1014 34 10000 2.57 360 17:19 28.07.2022
860 Clouds 26 1014 34 10000 4.12 350 16:40 28.07.2022
861 Clear 26 1014 35 10000 2.57 0 13:56 28.07.2022
862 Clear 24 1014 41 10000 2.57 30 12:33 28.07.2022
863 Clear 16 1015 64 10000 2.57 30 07:33 28.07.2022
864 Clear 16 1015 63 10000 2.06 360 05:39 28.07.2022
865 Clear 17 1015 61 10000 2.57 50 05:20 28.07.2022
866 Clear 21 1016 46 10000 6.17 50 23:19 27.07.2022
867 Clear 23 1016 40 10000 5.14 30 21:30 27.07.2022
868 Clear 24 1015 37 10000 3.6 20 19:48 27.07.2022
869 Clear 24 1016 37 10000 5.14 50 19:19 27.07.2022
870 Clear 25 1017 39 10000 3.6 0 16:31 27.07.2022
871 Clear 25 1017 40 10000 3.6 20 15:51 27.07.2022
872 Clear 24 1018 43 10000 4.12 20 14:41 27.07.2022
873 Clouds 23 1018 49 10000 3.6 70 13:34 27.07.2022
874 Clouds 18 1019 71 10000 3.6 30 09:29 27.07.2022
875 Clear 15 1019 80 10000 3.6 40 07:47 27.07.2022
876 Clear 15 1019 84 10000 2.57 340 04:53 27.07.2022
877 Clear 19 1019 65 10000 4.63 320 23:21 26.07.2022
878 Clear 21 1018 57 10000 2.57 320 21:49 26.07.2022
879 Clear 22 1018 53 10000 3.09 330 20:49 26.07.2022
880 Clear 22 1018 50 10000 4.12 330 19:22 26.07.2022
881 Clear 23 1018 50 10000 4.12 300 18:40 26.07.2022
882 Clear 23 1018 51 10000 3.6 280 17:47 26.07.2022
883 Clouds 22 1018 52 10000 3.6 280 15:43 26.07.2022
884 Clear 22 1019 54 10000 4.12 300 14:43 26.07.2022
885 Clouds 20 1019 66 10000 4.63 310 12:32 26.07.2022
886 Clouds 19 1018 77 10000 4.12 300 10:20 26.07.2022
887 Clouds 18 1018 81 10000 4.12 290 08:27 26.07.2022
888 Clear 18 1017 71 10000 4.63 290 01:55 26.07.2022
889 Clear 20 1017 66 10000 4.12 310 00:20 26.07.2022
890 Clear 21 1016 61 10000 6.69 310 22:40 25.07.2022
891 Clear 23 1015 54 10000 8.23 310 21:43 25.07.2022
892 Clear 25 1015 45 10000 8.23 300 20:43 25.07.2022
893 Clear 25 1014 43 10000 8.23 300 20:24 25.07.2022
894 Clear 27 1014 39 10000 6.69 270 19:25 25.07.2022
895 Clear 28 1013 41 9000 5.66 260 17:42 25.07.2022
896 Clear 27 1013 42 9000 7.72 280 17:20 25.07.2022
897 Clouds 25 1014 59 10000 6.17 260 13:28 25.07.2022
898 Clouds 24 1013 63 10000 6.69 270 10:55 25.07.2022
899 Clear 20 1011 72 10000 4.63 340 07:59 25.07.2022
900 Clear 26 1011 53 10000 2.06 200 01:36 25.07.2022
901 Clear 27 1012 49 10000 2.06 170 23:45 24.07.2022
902 Clear 28 1012 49 10000 3.09 160 22:49 24.07.2022
903 Clear 30 1012 42 10000 4.12 180 21:48 24.07.2022
904 Clear 31 1012 40 10000 4.12 180 21:18 24.07.2022
905 Clear 32 1012 37 10000 5.14 160 20:44 24.07.2022
906 Clear 33 1012 35 10000 4.63 180 19:23 24.07.2022
907 Clear 33 1013 35 10000 4.63 170 18:26 24.07.2022
908 Clear 32 1015 36 10000 4.63 180 15:55 24.07.2022
909 Clear 32 1015 37 10000 5.14 180 15:31 24.07.2022
910 Clear 30 1017 39 10000 4.12 210 13:50 24.07.2022
911 Clear 29 1017 44 10000 4.12 210 12:50 24.07.2022
912 Clear 27 1018 52 10000 3.6 160 11:35 24.07.2022
913 Clear 24 1019 64 10000 2.57 140 10:26 24.07.2022
914 Clear 20 1019 80 10000 2.57 110 08:29 24.07.2022
915 Clear 19 1019 83 10000 2.06 110 07:44 24.07.2022
916 Clear 18 1020 84 10000 2.06 50 03:57 24.07.2022
917 Clear 21 1019 73 10000 3.6 360 23:48 23.07.2022
918 Clear 26 1019 52 10000 3.6 320 20:51 23.07.2022
919 Clear 27 1019 51 10000 3.09 290 19:31 23.07.2022
920 Clouds 27 1019 51 10000 4.12 310 18:50 23.07.2022
921 Clouds 27 1020 54 9000 3.6 290 17:28 23.07.2022
922 Clouds 26 1020 58 9000 4.12 240 16:31 23.07.2022
923 Clouds 25 1020 63 10000 4.63 250 15:22 23.07.2022
924 Clouds 25 1020 67 10000 4.63 240 14:56 23.07.2022
925 Clouds 24 1021 70 10000 4.12 240 14:24 23.07.2022
926 Clouds 23 1020 76 10000 2.06 220 12:44 23.07.2022
927 Clouds 20 1020 87 7000 2.57 290 10:45 23.07.2022
928 Mist 20 1019 88 10000 3.6 290 09:56 23.07.2022
929 Mist 19 1019 90 10000 4.12 310 08:31 23.07.2022
930 Mist 18 1018 95 10000 2.57 270 03:38 23.07.2022
931 Mist 19 1018 93 10000 1.54 330 00:49 23.07.2022
932 Clouds 20 1017 90 10000 2.57 10 22:32 22.07.2022
933 Rain 22 1017 84 10000 3.09 360 20:51 22.07.2022
934 Rain 24 1017 77 10000 3.6 340 19:35 22.07.2022
935 Clouds 26 1016 68 10000 0.98 14 18:28 22.07.2022
936 Clear 25 1016 69 10000 3.09 360 16:49 22.07.2022
937 Clouds 24 1017 71 10000 2.57 80 14:51 22.07.2022
938 Clear 22 1018 72 10000 2.57 40 11:22 22.07.2022
939 Clear 20 1019 81 10000 3.09 40 09:26 22.07.2022
940 Clear 18 1019 86 10000 3.6 20 08:32 22.07.2022
941 Clear 17 1019 90 10000 3.6 30 06:59 22.07.2022
942 Clear 20 1020 83 10000 5.14 60 02:25 22.07.2022
943 Clear 23 1019 68 10000 3.6 40 22:43 21.07.2022
944 Clear 25 1020 61 10000 4.12 30 21:33 21.07.2022
945 Clear 27 1020 51 10000 3.09 360 19:28 21.07.2022
946 Clear 26 1021 51 10000 3.09 360 17:41 21.07.2022
947 Clear 26 1021 51 10000 1.54 360 17:19 21.07.2022
948 Clear 26 1021 51 10000 1.54 360 17:19 21.07.2022
949 Clouds 26 1022 56 10000 4.12 290 15:22 21.07.2022
950 Clouds 25 1022 61 10000 4.12 260 14:37 21.07.2022
951 Clouds 23 1022 73 10000 4.12 250 12:28 21.07.2022
952 Clouds 21 1022 81 10000 4.12 300 11:19 21.07.2022
953 Clouds 19 1021 87 10000 5.14 290 09:41 21.07.2022
954 Clouds 19 1021 89 10000 4.12 280 08:52 21.07.2022
955 Clouds 18 1021 91 10000 3.09 260 07:50 21.07.2022
956 Clouds 17 1020 92 10000 3.09 300 06:25 21.07.2022
957 Clouds 18 1020 91 10000 1.54 250 01:42 21.07.2022
958 Clear 20 1019 87 10000 2.57 240 22:22 20.07.2022
959 Clear 20 1019 87 10000 2.57 230 22:22 20.07.2022
960 Clear 21 1018 84 10000 2.06 220 21:30 20.07.2022
961 Rain 21 1019 81 10000 4.63 210 19:54 20.07.2022
962 Rain 21 1019 81 10000 4.63 210 19:54 20.07.2022
963 Clouds 21 1019 76 10000 5.66 200 19:25 20.07.2022
964 Clouds 22 1018 75 10000 5.66 170 18:52 20.07.2022
965 Clouds 23 1018 73 10000 6.69 160 18:29 20.07.2022
966 Fog 22 1019 77 10000 5.66 150 16:49 20.07.2022
967 Clouds 22 1019 82 10000 4.63 160 15:32 20.07.2022
968 Clouds 20 1019 86 10000 3.6 200 14:32 20.07.2022
969 Clouds 20 1019 86 10000 4.12 220 12:41 20.07.2022
970 Clouds 19 1018 92 10000 4.12 220 10:28 20.07.2022
971 Rain 21 1017 83 8000 4.63 260 05:52 20.07.2022
972 Clear 26 1015 59 10000 4.12 260 00:58 20.07.2022
973 Clear 26 1014 58 10000 4.63 260 00:40 20.07.2022
974 Clouds 28 1013 52 10000 7.72 260 22:35 19.07.2022
975 Clear 29 1012 53 10000 6.17 240 21:54 19.07.2022
976 Clouds 31 1011 52 8000 8.75 250 20:49 19.07.2022
977 Clear 38 1010 24 7000 8.23 190 19:22 19.07.2022
978 Clear 39 1010 22 7000 6.17 180 18:41 19.07.2022
979 Clear 40 1010 22 7000 6.69 160 17:53 19.07.2022
980 Clear 40 1011 20 8000 7.2 140 15:27 19.07.2022
981 Clear 38 1011 20 10000 7.2 110 13:37 19.07.2022
982 Clear 33 1013 29 10000 4.63 110 11:33 19.07.2022
983 Clear 30 1014 36 10000 3.6 130 09:52 19.07.2022
984 Clear 27 1014 41 10000 4.12 120 08:47 19.07.2022
985 Clear 25 1014 45 10000 2.57 50 07:57 19.07.2022
986 Clear 24 1015 46 10000 3.6 110 07:18 19.07.2022
987 Clear 24 1015 44 10000 3.09 30 05:19 19.07.2022
988 Clear 25 1015 41 10000 1.54 80 03:40 19.07.2022
989 Clear 29 1016 35 10000 2.57 50 23:57 18.07.2022
990 Clear 30 1016 32 10000 3.6 60 23:20 18.07.2022
991 Clear 31 1017 30 10000 2.57 50 22:42 18.07.2022
992 Clear 34 1016 26 10000 2.57 90 21:26 18.07.2022
993 Clear 36 1017 22 10000 3.09 90 20:45 18.07.2022
994 Clear 38 1017 19 10000 3.09 140 18:50 18.07.2022
995 Clear 37 1019 19 10000 2.06 160 16:45 18.07.2022
996 Clear 36 1019 20 10000 2.06 130 15:40 18.07.2022
997 Clear 34 1021 24 10000 3.09 90 13:40 18.07.2022
998 Clear 32 1020 30 10000 3.09 110 12:29 18.07.2022
999 Clear 27 1021 39 10000 2.06 100 10:24 18.07.2022
1000 Clear 22 1021 47 10000 3.09 140 08:21 18.07.2022
1001 Clear 20 1021 50 10000 2.57 110 06:48 18.07.2022
1002 Clear 26 1022 33 10000 2.57 50 23:30 17.07.2022
1003 Clear 27 1022 34 10000 3.6 60 22:32 17.07.2022
1004 Clear 29 1021 30 10000 3.6 60 21:44 17.07.2022
1005 Clear 30 1021 27 10000 3.6 100 20:54 17.07.2022
1006 Clear 31 1022 24 10000 3.6 70 20:35 17.07.2022
1007 Clear 32 1021 24 10000 3.6 60 19:26 17.07.2022
1008 Clear 32 1022 24 10000 4.12 80 18:26 17.07.2022
1009 Clear 32 1023 24 10000 4.12 70 17:38 17.07.2022
1010 Clear 32 1023 25 10000 5.14 40 16:50 17.07.2022
1011 Clear 31 1023 26 10000 5.14 40 16:25 17.07.2022
1012 Clear 29 1024 30 10000 4.63 30 14:37 17.07.2022
1013 Clear 27 1025 32 10000 2.57 0 13:30 17.07.2022
1014 Clear 25 1025 41 10000 4.63 70 11:32 17.07.2022
1015 Clear 20 1025 55 10000 4.12 50 08:57 17.07.2022
1016 Clear 20 1025 55 10000 3.6 60 03:44 17.07.2022
1017 Clear 21 1024 52 10000 5.14 60 02:32 17.07.2022
1018 Clear 24 1024 44 10000 6.17 50 23:20 16.07.2022
1019 Clear 26 1023 38 10000 5.66 40 21:30 16.07.2022
1020 Clear 28 1022 33 10000 3.6 20 19:30 16.07.2022
1021 Clear 29 1022 31 10000 4.63 30 18:32 16.07.2022
1022 Clear 29 1022 31 10000 4.63 40 16:34 16.07.2022
1023 Clear 26 1023 37 10000 4.63 50 13:49 16.07.2022
1024 Clear 23 1023 48 10000 3.09 20 10:55 16.07.2022
1025 Clear 20 1023 56 10000 2.57 10 09:33 16.07.2022
1026 Clear 18 1023 64 10000 2.06 30 08:44 16.07.2022
1027 Clear 17 1022 63 10000 1.03 0 08:23 16.07.2022
1028 Clear 17 1022 64 10000 2.57 10 04:24 16.07.2022
1029 Clear 17 1022 62 10000 3.09 350 03:22 16.07.2022
1030 Clear 21 1021 42 10000 2.57 340 23:34 15.07.2022
1031 Clear 23 1021 38 10000 3.09 50 22:41 15.07.2022
1032 Clear 25 1021 33 10000 3.6 20 21:29 15.07.2022
1033 Clear 26 1020 31 10000 3.6 10 20:30 15.07.2022
1034 Clear 27 1021 29 10000 3.6 340 18:44 15.07.2022
1035 Clear 27 1021 29 10000 4.12 20 17:44 15.07.2022
1036 Clear 25 1022 32 10000 4.92 38 14:54 15.07.2022
1037 Clear 24 1022 37 10000 5.14 50 13:20 15.07.2022
1038 Clear 22 1023 47 10000 5.14 50 11:45 15.07.2022
1039 Clear 20 1023 53 10000 5.66 40 10:27 15.07.2022
1040 Clear 16 1023 66 10000 4.12 30 06:30 15.07.2022
1041 Clear 20 1022 58 10000 4.12 360 02:24 15.07.2022
1042 Clear 22 1021 51 10000 7.2 30 00:37 15.07.2022
1043 Clear 24 1020 51 10000 6.69 10 22:53 14.07.2022
1044 Clear 25 1020 47 10000 5.66 360 21:56 14.07.2022
1045 Clear 26 1019 44 8000 7.2 330 21:32 14.07.2022
1046 Clear 28 1019 37 7000 6.69 330 20:46 14.07.2022
1047 Clear 28 1019 36 7000 6.69 330 20:28 14.07.2022
1048 Clear 29 1018 34 7000 6.17 330 19:58 14.07.2022
1049 Clear 31 1018 32 9000 5.14 340 16:23 14.07.2022
1050 Clear 31 1018 30 10000 5.66 310 15:54 14.07.2022
1051 Clear 30 1018 33 10000 5.14 320 14:44 14.07.2022
1052 Clear 29 1018 39 10000 5.14 320 13:33 14.07.2022
1053 Clear 27 1018 46 10000 3.6 320 12:19 14.07.2022
1054 Clear 26 1018 52 10000 4.12 330 11:25 14.07.2022
1055 Clear 25 1019 55 10000 4.12 320 10:49 14.07.2022
1056 Clear 22 1019 66 10000 2.57 320 08:22 14.07.2022
1057 Clear 23 1019 58 10000 1.54 230 03:42 14.07.2022
1058 Clear 25 1019 51 10000 1.54 340 00:55 14.07.2022
1059 Clear 27 1020 45 10000 3.09 30 23:41 13.07.2022
1060 Clear 29 1019 43 10000 6.17 10 22:27 13.07.2022
1061 Clear 31 1018 39 10000 4.63 360 21:32 13.07.2022
1062 Clear 35 1018 27 10000 4.12 330 20:38 13.07.2022
1063 Clear 36 1018 24 10000 3.09 220 18:22 13.07.2022
1064 Clear 36 1019 24 10000 2.57 0 17:22 13.07.2022
1065 Clear 35 1019 26 10000 4.63 240 15:59 13.07.2022
1066 Clear 34 1021 29 10000 3.09 260 13:50 13.07.2022
1067 Clear 29 1021 38 10000 3.09 240 11:33 13.07.2022
1068 Clear 27 1021 42 10000 2.57 250 10:44 13.07.2022
1069 Clear 25 1021 50 10000 1.54 200 09:30 13.07.2022
1070 Clear 23 1021 57 10000 1.54 0 08:24 13.07.2022
1071 Clear 22 1021 54 10000 1.54 0 04:50 13.07.2022
1072 Clear 24 1023 47 10000 3.09 150 00:47 13.07.2022
1073 Clear 27 1022 38 10000 2.57 120 22:47 12.07.2022
1074 Clear 29 1023 33 10000 2.06 100 21:49 12.07.2022
1075 Clear 31 1023 28 10000 1.54 130 20:54 12.07.2022
1076 Clear 32 1022 27 10000 2.57 90 20:21 12.07.2022
1077 Clear 33 1021 25 10000 3.09 120 18:51 12.07.2022
1078 Clear 33 1022 25 10000 2.06 110 17:29 12.07.2022
1079 Clear 32 1022 28 10000 3.09 150 15:35 12.07.2022
1080 Clear 30 1023 36 10000 2.57 0 13:43 12.07.2022
1081 Clear 28 1023 46 10000 2.57 60 11:59 12.07.2022
1082 Clear 25 1023 57 10000 2.06 80 10:46 12.07.2022
1083 Clear 22 1023 66 10000 2.57 80 09:18 12.07.2022
1084 Clear 20 1023 73 10000 2.06 360 07:57 12.07.2022
1085 Clear 19 1022 77 10000 2.06 350 05:54 12.07.2022
1086 Clear 19 1022 76 10000 2.57 350 05:35 12.07.2022
1087 Clear 23 1022 62 10000 4.63 70 01:36 12.07.2022
1088 Clear 25 1021 46 10000 3.6 60 22:50 11.07.2022
1089 Clear 28 1021 41 10000 4.63 30 21:44 11.07.2022
1090 Clear 29 1020 40 10000 5.14 30 20:33 11.07.2022
1091 Clear 30 1020 39 10000 4.63 30 19:32 11.07.2022
1092 Clear 30 1020 39 10000 5.14 70 18:32 11.07.2022
1093 Clear 30 1021 39 10000 4.63 20 17:31 11.07.2022
1094 Clear 29 1021 43 10000 5.14 50 15:34 11.07.2022
1095 Clear 27 1022 46 10000 5.66 70 13:39 11.07.2022
1096 Clear 24 1022 52 10000 4.12 60 11:38 11.07.2022
1097 Clear 23 1023 56 10000 6.17 80 10:18 11.07.2022
1098 Clear 22 1023 59 10000 5.66 80 09:41 11.07.2022
1099 Clear 20 1023 66 10000 5.66 70 08:33 11.07.2022
1100 Clear 18 1023 70 10000 4.12 70 04:34 11.07.2022
1101 Clear 21 1023 59 10000 5.14 70 00:20 11.07.2022
1102 Clear 23 1023 54 10000 6.17 50 22:56 10.07.2022
1103 Clear 24 1023 50 10000 5.66 60 21:51 10.07.2022
1104 Clear 25 1023 47 10000 5.66 50 20:54 10.07.2022
1105 Clear 27 1023 43 10000 6.17 40 19:50 10.07.2022
1106 Clear 27 1023 41 10000 5.66 50 18:48 10.07.2022
1107 Clear 27 1023 41 10000 5.14 40 17:37 10.07.2022
1108 Clear 27 1024 41 10000 5.66 40 16:57 10.07.2022
1109 Clear 25 1024 44 10000 5.14 40 15:28 10.07.2022
1110 Clear 24 1025 45 10000 6.17 50 14:30 10.07.2022
1111 Clear 22 1026 48 10000 5.66 50 12:29 10.07.2022
1112 Clear 21 1026 50 10000 5.14 50 11:20 10.07.2022
1113 Clear 17 1027 69 10000 4.12 40 08:45 10.07.2022
1114 Clear 15 1027 77 10000 4.12 50 07:39 10.07.2022
1115 Clear 17 1027 68 10000 4.63 20 02:50 10.07.2022
1116 Clear 21 1027 54 10000 6.69 30 22:59 09.07.2022
1117 Clear 22 1026 55 10000 7.2 30 22:25 09.07.2022
1118 Clear 24 1026 56 10000 7.72 10 21:28 09.07.2022
1119 Clear 29 1025 39 10000 5.14 360 18:45 09.07.2022
1120 Clear 29 1025 38 10000 5.14 10 17:48 09.07.2022
1121 Clear 29 1025 39 10000 4.63 20 16:58 09.07.2022
1122 Clear 28 1026 41 10000 4.12 360 15:44 09.07.2022
1123 Clear 28 1026 42 10000 4.12 360 15:25 09.07.2022
1124 Clear 27 1027 45 10000 3.6 0 13:51 09.07.2022
1125 Clear 26 1027 47 10000 4.12 360 12:53 09.07.2022
1126 Clear 25 1028 50 10000 3.09 330 11:33 09.07.2022
1127 Clear 23 1028 60 10000 2.06 340 10:23 09.07.2022
1128 Clear 18 1028 77 10000 3.09 350 07:54 09.07.2022
1129 Clear 16 1028 80 10000 3.6 350 06:58 09.07.2022
1130 Clear 17 1029 76 10000 2.57 10 04:34 09.07.2022
1131 Clear 22 1029 55 10000 3.09 50 23:22 08.07.2022
1132 Clear 24 1029 44 10000 3.6 30 21:59 08.07.2022
1133 Clear 26 1029 40 10000 4.12 20 20:59 08.07.2022
1134 Clear 26 1029 38 10000 4.12 20 20:25 08.07.2022
1135 Clear 27 1029 36 10000 4.63 20 18:33 08.07.2022
1136 Clear 27 1030 36 10000 4.63 10 17:33 08.07.2022
1137 Clear 27 1030 36 10000 4.63 10 17:33 08.07.2022
1138 Clear 25 1031 41 10000 4.12 30 14:55 08.07.2022
1139 Clear 24 1031 41 10000 4.12 40 14:29 08.07.2022
1140 Clear 21 1032 51 10000 4.12 50 12:28 08.07.2022
1141 Clear 18 1032 63 10000 3.6 20 10:45 08.07.2022
1142 Clear 16 1032 71 10000 4.12 40 08:55 08.07.2022
1143 Clear 12 1032 83 10000 2.57 30 06:55 08.07.2022
1144 Clear 13 1031 79 10000 4.63 30 04:31 08.07.2022
1145 Clear 17 1031 70 10000 3.58 42 23:56 07.07.2022
1146 Clear 18 1030 68 10000 5.14 10 22:45 07.07.2022
1147 Clouds 19 1029 63 10000 4.63 10 21:39 07.07.2022
1148 Clouds 21 1028 62 10000 6.17 350 18:43 07.07.2022
1149 Clouds 21 1028 62 10000 5.14 360 17:41 07.07.2022
1150 Clouds 22 1028 63 10000 5.14 350 15:34 07.07.2022
1151 Clouds 21 1027 66 10000 5.66 340 13:30 07.07.2022
1152 Clouds 21 1026 65 10000 5.66 340 12:40 07.07.2022
1153 Clouds 21 1026 66 10000 5.66 340 12:21 07.07.2022
1154 Clouds 21 1025 66 10000 5.14 330 11:31 07.07.2022
1155 Clouds 21 1025 72 10000 4.63 330 10:44 07.07.2022
1156 Clouds 20 1025 73 10000 4.63 330 10:26 07.07.2022
1157 Clouds 17 1024 86 10000 4.12 310 07:58 07.07.2022
1158 Clear 16 1024 82 10000 3.6 310 05:23 07.07.2022
1159 Clouds 21 1025 66 10000 0.89 270 23:37 06.07.2022
1160 Clear 21 1025 62 10000 4.63 330 23:19 06.07.2022
1161 Clear 21 1025 61 10000 4.63 330 22:58 06.07.2022
1162 Clear 22 1025 59 10000 4.12 320 22:40 06.07.2022
1163 Clear 22 1024 56 10000 5.14 320 21:59 06.07.2022
1164 Clear 26 1024 41 10000 5.66 320 19:45 06.07.2022
1165 Clear 26 1024 39 10000 5.14 320 18:41 06.07.2022
1166 Clear 26 1025 40 10000 3.6 0 16:45 06.07.2022
1167 Clear 25 1025 42 10000 4.12 310 15:39 06.07.2022
1168 Clouds 23 1027 48 10000 3.09 0 12:44 06.07.2022
1169 Clouds 22 1027 50 10000 3.09 20 11:49 06.07.2022
1170 Clear 21 1027 53 10000 2.06 310 10:33 06.07.2022
1171 Clear 17 1027 71 10000 2.57 340 08:43 06.07.2022
1172 Clear 14 1027 81 10000 2.06 330 07:41 06.07.2022
1173 Clear 13 1027 84 10000 3.09 340 06:40 06.07.2022
1174 Clear 20 1025 53 10000 5.14 340 22:50 05.07.2022
1175 Clear 21 1024 52 10000 6.17 340 22:28 05.07.2022
1176 Clear 24 1023 43 10000 5.14 340 20:45 05.07.2022
1177 Clear 25 1022 39 10000 4.12 330 19:54 05.07.2022
1178 Clear 26 1022 37 10000 4.12 320 19:35 05.07.2022
1179 Clear 26 1022 39 10000 3.6 330 17:49 05.07.2022
1180 Clear 26 1023 40 10000 3.6 330 17:18 05.07.2022
1181 Clear 25 1023 44 10000 3.6 320 15:39 05.07.2022
1182 Clear 24 1023 47 10000 3.6 300 14:44 05.07.2022
1183 Clouds 22 1024 52 10000 3.6 320 12:52 05.07.2022
1184 Clouds 21 1024 57 10000 3.09 10 12:21 05.07.2022
1185 Clouds 19 1023 67 10000 2.06 360 10:45 05.07.2022
1186 Clear 17 1024 77 10000 2.57 350 09:32 05.07.2022
1187 Clear 15 1024 83 10000 4.12 320 08:19 05.07.2022
1188 Clear 13 1023 88 10000 3.09 320 06:47 05.07.2022
1189 Clear 14 1022 81 10000 3.6 320 04:28 05.07.2022
1190 Clear 17 1023 70 10000 5.14 350 00:43 05.07.2022
1191 Clear 19 1022 65 10000 5.66 330 23:36 04.07.2022
1192 Clear 20 1021 63 10000 4.63 340 22:54 04.07.2022
1193 Clear 22 1020 52 10000 6.17 330 21:56 04.07.2022
1194 Clear 25 1020 41 10000 4.12 340 20:54 04.07.2022
1195 Clear 25 1019 39 10000 4.12 330 20:35 04.07.2022
1196 Clear 26 1019 37 10000 3.6 350 19:56 04.07.2022
1197 Clear 26 1019 36 10000 3.6 340 19:36 04.07.2022
1198 Clear 26 1019 36 10000 4.12 350 18:34 04.07.2022
1199 Clear 26 1020 38 10000 3.6 320 16:42 04.07.2022
1200 Clear 24 1020 42 10000 3.6 340 15:34 04.07.2022
1201 Clear 23 1021 45 10000 2.57 350 13:41 04.07.2022
1202 Clear 22 1021 49 10000 2.57 290 12:38 04.07.2022
1203 Clouds 19 1022 61 10000 2.06 250 10:39 04.07.2022
1204 Clouds 19 1022 61 10000 2.06 340 10:18 04.07.2022
1205 Clear 16 1022 75 10000 1.54 340 08:31 04.07.2022
1206 Clear 13 1022 82 10000 1.54 340 05:36 04.07.2022
1207 Clear 17 1021 66 10000 3.6 340 00:43 04.07.2022
1208 Clear 18 1021 61 10000 4.63 330 23:27 03.07.2022
1209 Clear 20 1021 54 10000 4.12 330 22:23 03.07.2022
1210 Clear 23 1020 44 8000 5.14 360 20:42 03.07.2022
1211 Clear 24 1019 42 9000 5.14 310 19:42 03.07.2022
1212 Clear 24 1019 42 9000 5.14 310 19:23 03.07.2022
1213 Clear 25 1019 42 10000 4.12 280 17:46 03.07.2022
1214 Clouds 25 1019 44 10000 4.63 270 17:18 03.07.2022
1215 Clear 23 1020 49 10000 4.63 300 15:26 03.07.2022
1216 Clouds 23 1020 51 10000 4.63 300 14:49 03.07.2022
1217 Clouds 22 1020 55 10000 3.6 280 13:49 03.07.2022
1218 Clouds 21 1020 59 10000 4.12 300 12:42 03.07.2022
1219 Clouds 21 1020 61 10000 2.57 320 11:46 03.07.2022
1220 Clear 20 1020 63 10000 2.06 330 10:51 03.07.2022
1221 Clear 19 1020 66 10000 2.57 310 10:33 03.07.2022
1222 Clear 14 1020 77 10000 3.09 330 07:38 03.07.2022
1223 Clear 14 1019 76 10000 2.57 340 05:34 03.07.2022
1224 Clear 19 1019 65 10000 6.17 350 00:26 03.07.2022
1225 Clear 22 1017 48 10000 2.57 260 22:37 02.07.2022
1226 Clear 23 1018 44 10000 2.57 210 22:18 02.07.2022
1227 Clear 26 1017 36 10000 3.6 200 20:26 02.07.2022
1228 Clear 27 1017 35 10000 3.09 190 19:49 02.07.2022
1229 Clear 27 1018 35 10000 3.09 150 18:20 02.07.2022
1230 Clear 27 1018 36 10000 2.57 0 17:38 02.07.2022
1231 Clear 26 1018 38 10000 2.06 130 15:46 02.07.2022
1232 Clear 24 1020 41 10000 2.57 210 13:35 02.07.2022
1233 Clear 22 1021 45 10000 3.6 180 11:48 02.07.2022
1234 Clear 22 1021 49 10000 2.57 130 10:50 02.07.2022
1235 Clear 20 1021 56 10000 3.09 140 09:49 02.07.2022
1236 Clear 16 1021 74 10000 2.06 140 08:37 02.07.2022
1237 Clear 15 1022 80 10000 1.54 30 08:19 02.07.2022
1238 Clear 13 1021 80 10000 1.54 280 02:59 02.07.2022
1239 Clear 15 1021 67 10000 2.06 230 00:28 02.07.2022
1240 Clear 17 1021 62 10000 1.54 250 23:26 01.07.2022
1241 Clouds 19 1021 55 10000 1.54 220 22:33 01.07.2022
1242 Clouds 20 1020 48 10000 3.09 250 21:38 01.07.2022
1243 Clear 21 1020 47 10000 3.09 220 20:58 01.07.2022
1244 Clear 21 1020 45 10000 4.12 230 20:32 01.07.2022
1245 Clear 21 1020 45 10000 4.63 230 19:36 01.07.2022
1246 Clear 21 1020 46 10000 4.12 250 17:18 01.07.2022
1247 Clouds 20 1020 50 10000 4.63 290 14:34 01.07.2022
1248 Clouds 20 1019 52 10000 3.09 240 13:54 01.07.2022
1249 Clouds 18 1019 60 10000 4.12 290 11:22 01.07.2022
1250 Clouds 17 1019 64 10000 4.63 280 10:19 01.07.2022
1251 Clear 12 1019 94 10000 2.06 260 07:38 01.07.2022
1252 Clear 12 1017 91 10000 2.57 190 02:43 01.07.2022
1253 Clear 14 1016 84 10000 2.06 220 00:21 01.07.2022
1254 Clouds 14 1016 84 10000 2.57 290 22:52 30.06.2022
1255 Clear 15 1016 83 10000 3.09 260 22:32 30.06.2022
1256 Clear 15 1015 82 10000 2.57 200 21:55 30.06.2022
1257 Clouds 17 1014 75 10000 4.63 200 20:58 30.06.2022
1258 Clouds 17 1015 78 10000 5.14 210 20:22 30.06.2022
1259 Clouds 17 1014 77 10000 4.63 180 19:51 30.06.2022
1260 Clouds 18 1014 78 10000 5.14 180 19:18 30.06.2022
1261 Clouds 17 1014 80 10000 4.12 200 18:34 30.06.2022
1262 Clouds 17 1015 82 10000 3.6 160 17:37 30.06.2022
1263 Clouds 16 1014 82 10000 3.6 160 16:48 30.06.2022
1264 Clouds 14 1014 93 10000 2.57 250 14:47 30.06.2022
1265 Rain 14 1014 94 6000 3.09 210 13:30 30.06.2022
1266 Rain 14 1013 93 10000 2.06 230 12:35 30.06.2022
1267 Rain 14 1013 92 10000 2.57 240 11:28 30.06.2022
1268 Rain 14 1013 93 7000 3.09 230 09:53 30.06.2022
1269 Rain 14 1014 93 10000 3.09 210 09:32 30.06.2022
1270 Rain 14 1013 91 10000 1.54 0 07:51 30.06.2022
1271 Clouds 15 1013 85 10000 2.06 250 05:57 30.06.2022
1272 Clear 18 1013 75 10000 5.14 290 00:32 30.06.2022
1273 Clear 18 1013 73 10000 4.63 280 23:34 29.06.2022
1274 Clear 20 1013 71 10000 6.69 280 22:39 29.06.2022
1275 Clear 22 1012 61 10000 6.17 290 21:37 29.06.2022
1276 Clear 24 1011 52 10000 4.12 280 20:34 29.06.2022
1277 Clear 25 1011 46 10000 5.14 250 19:37 29.06.2022
1278 Clear 26 1011 41 10000 4.12 240 17:45 29.06.2022
1279 Clear 26 1012 40 7000 4.63 270 16:41 29.06.2022
1280 Clear 26 1013 41 7000 4.12 210 15:19 29.06.2022
1281 Clear 23 1014 46 9000 5.14 220 12:47 29.06.2022
1282 Clear 23 1014 50 10000 5.14 240 11:32 29.06.2022
1283 Clear 20 1014 60 10000 1.03 0 09:33 29.06.2022
1284 Clear 18 1014 70 10000 2.57 310 08:26 29.06.2022
1285 Clear 15 1014 77 10000 1.03 0 04:57 29.06.2022
1286 Clear 18 1015 63 10000 2.57 330 01:48 29.06.2022
1287 Clear 20 1015 57 10000 3.6 290 00:37 29.06.2022
1288 Clear 21 1015 52 10000 2.57 280 22:56 28.06.2022
1289 Clear 21 1016 50 10000 1.54 210 22:34 28.06.2022
1290 Clear 23 1016 43 10000 2.57 210 21:55 28.06.2022
1291 Clear 25 1015 38 10000 3.6 240 21:33 28.06.2022
1292 Clear 26 1016 35 10000 3.6 250 20:50 28.06.2022
1293 Clear 27 1016 32 10000 2.06 210 19:43 28.06.2022
1294 Clear 27 1016 32 10000 4.12 260 19:23 28.06.2022
1295 Clear 27 1016 33 10000 4.12 210 17:44 28.06.2022
1296 Clear 27 1016 34 10000 5.14 170 16:24 28.06.2022
1297 Clear 27 1017 34 10000 5.14 170 15:53 28.06.2022
1298 Clear 25 1018 39 10000 4.12 210 14:21 28.06.2022
1299 Clear 25 1018 39 10000 3.6 180 13:55 28.06.2022
1300 Clear 24 1018 42 10000 3.09 240 13:26 28.06.2022
1301 Clear 22 1019 52 10000 3.09 130 11:37 28.06.2022
1302 Clear 19 1020 65 10000 3.6 90 09:41 28.06.2022
1303 Clear 17 1021 72 10000 3.6 80 08:45 28.06.2022
1304 Clear 15 1021 79 10000 2.57 70 07:58 28.06.2022
1305 Clear 14 1021 84 10000 2.06 40 07:19 28.06.2022
1306 Clear 16 1021 75 10000 3.6 330 01:36 28.06.2022
1307 Clear 17 1021 65 10000 4.63 320 23:45 27.06.2022
1308 Clear 18 1021 56 10000 3.09 260 22:55 27.06.2022
1309 Clear 21 1019 44 10000 4.12 250 21:38 27.06.2022
1310 Clear 21 1019 43 10000 4.12 250 21:38 27.06.2022
1311 Clouds 22 1020 41 10000 4.63 260 20:55 27.06.2022
1312 Clear 23 1018 39 10000 5.66 260 19:44 27.06.2022
1313 Clear 23 1018 38 10000 4.63 250 18:40 27.06.2022
1314 Clear 23 1018 40 10000 6.17 250 17:24 27.06.2022
1315 Clear 23 1018 39 10000 5.66 230 15:43 27.06.2022
1316 Clear 22 1017 49 10000 4.63 250 13:44 27.06.2022
1317 Clouds 21 1017 54 10000 5.14 260 12:57 27.06.2022
1318 Clear 17 1017 75 10000 3.6 300 10:43 27.06.2022
1319 Clear 16 1017 83 10000 3.6 260 09:43 27.06.2022
1320 Clear 15 1016 88 10000 2.06 200 08:38 27.06.2022
1321 Clouds 15 1015 89 10000 2.06 190 07:39 27.06.2022
1322 Clear 15 1015 84 10000 1.03 0 04:40 27.06.2022
1323 Clear 16 1015 82 10000 2.57 240 01:20 27.06.2022
1324 Clouds 18 1015 69 10000 2.06 170 22:48 26.06.2022
1325 Clear 19 1014 63 10000 3.09 160 21:23 26.06.2022
1326 Clouds 20 1014 58 10000 3.09 160 19:59 26.06.2022
1327 Clouds 21 1014 55 10000 2.57 140 18:33 26.06.2022
1328 Clouds 22 1014 53 10000 2.57 150 17:38 26.06.2022
1329 Clear 21 1014 53 10000 2.57 160 15:35 26.06.2022
1330 Clouds 21 1015 52 10000 2.06 150 13:59 26.06.2022
1331 Clouds 20 1015 53 10000 2.57 0 13:23 26.06.2022
1332 Clouds 19 1015 59 10000 1.54 0 11:39 26.06.2022
1333 Clear 17 1016 68 10000 1.54 270 10:42 26.06.2022
1334 Clear 16 1016 74 10000 1.54 0 09:55 26.06.2022
1335 Clear 14 1015 89 10000 2.06 280 07:47 26.06.2022
1336 Clear 13 1014 92 10000 2.57 230 05:26 26.06.2022
1337 Clear 15 1013 87 10000 3.09 190 00:36 26.06.2022
1338 Clear 15 1013 86 10000 3.6 200 00:18 26.06.2022
1339 Clear 15 1013 84 10000 3.6 200 23:29 25.06.2022
1340 Clear 15 1013 81 10000 3.6 200 22:42 25.06.2022
1341 Clear 15 1012 79 10000 3.6 200 22:24 25.06.2022
1342 Clear 17 1011 75 10000 2.57 190 21:21 25.06.2022
1343 Clear 17 1011 74 10000 2.57 190 20:36 25.06.2022
1344 Clear 17 1012 77 10000 3.6 190 19:56 25.06.2022
1345 Clouds 17 1012 84 10000 4.12 140 18:22 25.06.2022
1346 Clouds 17 1012 85 10000 1.54 240 17:26 25.06.2022
1347 Clouds 17 1012 82 10000 1.54 160 16:26 25.06.2022
1348 Rain 18 1011 79 8000 2.57 190 14:29 25.06.2022
1349 Clouds 18 1011 75 10000 3.6 230 12:45 25.06.2022
1350 Clouds 18 1011 74 10000 3.09 230 11:55 25.06.2022
1351 Clouds 17 1011 80 10000 3.09 240 09:24 25.06.2022
1352 Rain 17 1011 80 10000 3.6 250 08:49 25.06.2022
1353 Clouds 17 1011 80 10000 3.6 250 08:20 25.06.2022
1354 Clouds 17 1010 86 10000 3.09 210 06:35 25.06.2022
1355 Clear 19 1009 70 10000 4.63 220 00:45 25.06.2022
1356 Clear 19 1009 70 10000 4.63 220 23:54 24.06.2022
1357 Clear 20 1009 64 10000 3.6 210 22:26 24.06.2022
1358 Clear 22 1008 60 10000 5.14 220 21:22 24.06.2022
1359 Clouds 22 1007 60 10000 6.69 240 20:23 24.06.2022
1360 Clouds 23 1007 60 10000 7.2 230 19:24 24.06.2022
1361 Clouds 23 1008 61 10000 5.66 230 18:51 24.06.2022
1362 Clouds 24 1007 57 10000 6.69 250 18:31 24.06.2022
1363 Clouds 22 1007 61 10000 7.2 250 17:49 24.06.2022
1364 Clouds 23 1007 64 10000 7.72 240 16:45 24.06.2022
1365 Clouds 23 1007 64 10000 7.72 240 16:45 24.06.2022
1366 Clouds 23 1007 67 10000 6.69 230 14:30 24.06.2022
1367 Clouds 22 1007 66 10000 5.66 200 13:58 24.06.2022
1368 Clouds 23 1007 63 10000 5.66 200 13:35 24.06.2022
1369 Clouds 22 1007 68 10000 5.14 220 11:41 24.06.2022
1370 Clouds 20 1008 79 10000 4.63 210 10:36 24.06.2022
1371 Clouds 19 1008 87 10000 3.09 220 09:41 24.06.2022
1372 Clouds 18 1008 89 10000 3.09 230 08:53 24.06.2022
1373 Clouds 18 1008 92 10000 3.6 220 07:56 24.06.2022
1374 Clear 18 1008 94 10000 2.06 220 06:43 24.06.2022
1375 Clouds 18 1008 92 10000 2.06 190 06:20 24.06.2022
1376 Rain 19 1008 86 10000 4.12 230 04:41 24.06.2022
1377 Clear 24 1008 59 10000 2.06 250 23:24 23.06.2022
1378 Clear 24 1008 56 10000 3.09 260 22:42 23.06.2022
1379 Clear 26 1008 50 10000 3.6 230 20:59 23.06.2022
1380 Clear 26 1008 49 10000 3.09 230 20:36 23.06.2022
1381 Clear 27 1007 48 10000 3.6 240 19:48 23.06.2022
1382 Clear 28 1008 46 10000 4.12 150 18:26 23.06.2022
1383 Clear 28 1008 46 10000 3.09 210 17:34 23.06.2022
1384 Clear 27 1009 49 10000 3.6 170 16:26 23.06.2022
1385 Clear 27 1009 51 10000 3.09 220 15:26 23.06.2022
1386 Clouds 26 1010 56 9000 4.63 160 14:18 23.06.2022
1387 Clouds 23 1010 67 10000 4.12 200 11:33 23.06.2022
1388 Clouds 22 1011 72 10000 4.12 200 10:40 23.06.2022
1389 Clouds 20 1011 80 10000 4.63 200 09:19 23.06.2022
1390 Mist 19 1009 92 5000 3.6 220 04:43 23.06.2022
1391 Clear 21 1010 79 10000 4.12 70 00:27 23.06.2022
1392 Clouds 22 1010 74 10000 3.6 50 23:49 22.06.2022
1393 Clouds 22 1010 73 10000 3.09 60 22:53 22.06.2022
1394 Clear 24 1009 67 10000 4.12 50 21:36 22.06.2022
1395 Clear 24 1009 64 10000 3.6 50 20:51 22.06.2022
1396 Clouds 24 1009 64 10000 5.14 60 20:18 22.06.2022
1397 Clear 25 1009 61 10000 4.63 50 19:27 22.06.2022
1398 Clear 25 1008 61 10000 5.14 50 17:33 22.06.2022
1399 Clear 25 1010 66 10000 5.14 70 16:41 22.06.2022
1400 Clear 25 1010 66 10000 5.14 70 16:41 22.06.2022
1401 Clear 24 1010 68 10000 3.6 60 15:28 22.06.2022
1402 Clear 23 1011 70 10000 3.6 40 14:47 22.06.2022
1403 Clear 23 1010 67 10000 4.12 70 13:47 22.06.2022
1404 Clear 22 1010 67 10000 3.6 90 13:24 22.06.2022
1405 Clear 20 1010 68 10000 2.57 30 11:54 22.06.2022
1406 Clear 20 1010 69 10000 3.6 40 11:29 22.06.2022
1407 Clear 18 1010 72 10000 3.6 10 10:43 22.06.2022
1408 Clear 17 1010 75 10000 4.12 360 09:18 22.06.2022
1409 Clouds 17 1010 76 10000 3.13 42 06:55 22.06.2022
1410 Clear 19 1010 68 10000 5.14 20 02:26 22.06.2022
1411 Clear 20 1011 61 10000 4.12 40 00:57 22.06.2022
1412 Clear 23 1011 63 10000 3.6 40 22:49 21.06.2022
1413 Clear 25 1010 59 10000 4.12 20 20:58 21.06.2022
1414 Clear 26 1009 57 10000 3.09 60 19:23 21.06.2022
1415 Clouds 27 1009 55 10000 3.09 50 17:54 21.06.2022
1416 Clouds 26 1010 56 10000 3.6 20 16:47 21.06.2022
1417 Clouds 20 1012 76 10000 2.06 150 11:59 21.06.2022
1418 Clouds 18 1012 79 10000 3.09 70 10:46 21.06.2022
1419 Clouds 17 1012 81 10000 4.12 40 09:24 21.06.2022
1420 Clouds 15 1011 89 10000 3.09 30 07:50 21.06.2022
1421 Clouds 17 1013 76 10000 3.6 50 04:57 21.06.2022
1422 Clear 18 1014 68 10000 5.14 60 00:31 21.06.2022
1423 Clear 20 1014 62 10000 5.66 50 22:21 20.06.2022
1424 Clear 21 1014 60 10000 5.66 60 21:40 20.06.2022
1425 Clouds 22 1014 59 10000 5.66 40 20:30 20.06.2022
1426 Clear 22 1014 62 10000 5.66 60 19:37 20.06.2022
1427 Clouds 22 1014 64 10000 5.66 40 18:34 20.06.2022
1428 Clouds 22 1014 65 10000 5.66 40 17:49 20.06.2022
1429 Clouds 22 1015 68 10000 5.14 50 16:36 20.06.2022
1430 Clouds 21 1015 69 10000 4.63 30 15:52 20.06.2022
1431 Clouds 16 1015 88 10000 4.12 40 12:37 20.06.2022
1432 Clouds 15 1015 93 9000 4.63 20 10:22 20.06.2022
1433 Mist 15 1014 95 10000 4.63 20 08:56 20.06.2022
1434 Mist 15 1013 94 10000 4.12 20 07:53 20.06.2022
1435 Mist 16 1011 95 9000 3.6 310 05:26 20.06.2022
1436 Rain 17 1011 92 6000 6.17 50 01:33 20.06.2022
1437 Rain 17 1012 88 9000 3.6 20 00:25 20.06.2022
1438 Thunderstorm 20 1008 79 10000 5.14 360 22:46 19.06.2022
1439 Clear 22 1009 68 10000 5.66 10 21:48 19.06.2022
1440 Clear 22 1009 67 10000 6.17 20 21:48 19.06.2022
1441 Clear 22 1008 67 10000 6.17 20 21:29 19.06.2022
1442 Clear 23 1008 64 10000 5.14 10 20:38 19.06.2022
1443 Clear 24 1008 62 10000 5.66 40 19:47 19.06.2022
1444 Clear 25 1008 59 10000 5.66 30 18:43 19.06.2022
1445 Clear 24 1009 56 10000 6.17 30 17:48 19.06.2022
1446 Clear 24 1009 58 10000 5.66 40 17:22 19.06.2022
1447 Clear 23 1009 59 10000 6.69 50 16:34 19.06.2022
1448 Clear 21 1010 64 10000 7.72 20 15:41 19.06.2022
1449 Clear 21 1010 68 10000 7.2 360 14:57 19.06.2022
1450 Clouds 21 1010 69 10000 8.75 10 14:19 19.06.2022
1451 Clouds 21 1011 73 10000 4.63 20 13:21 19.06.2022
1452 Clouds 16 1011 86 10000 4.63 70 10:55 19.06.2022
1453 Clouds 16 1010 88 10000 4.12 310 09:46 19.06.2022
1454 Rain 16 1009 87 10000 5.14 30 08:47 19.06.2022
1455 Thunderstorm 16 1009 89 10000 6.69 10 07:59 19.06.2022
1456 Clouds 17 1010 79 10000 6.69 320 05:37 19.06.2022
1457 Clear 28 1006 54 10000 4.12 350 01:30 19.06.2022
1458 Clear 29 1006 51 10000 3.09 150 00:25 19.06.2022
1459 Clear 29 1006 53 10000 2.57 140 23:36 18.06.2022
1460 Clear 30 1006 48 10000 2.57 110 22:39 18.06.2022
1461 Clear 35 1007 37 10000 4.12 110 20:57 18.06.2022
1462 Clear 35 1008 35 10000 4.63 100 20:38 18.06.2022
1463 Clear 36 1008 31 10000 5.14 100 19:40 18.06.2022
1464 Clear 36 1008 30 9000 5.14 110 18:53 18.06.2022
1465 Clear 36 1011 31 9000 4.12 150 17:35 18.06.2022
1466 Clear 36 1011 31 9000 4.12 140 16:59 18.06.2022
1467 Clear 36 1013 33 10000 4.12 140 15:37 18.06.2022
1468 Clear 35 1014 33 10000 4.12 130 14:46 18.06.2022
1469 Clear 34 1015 32 10000 4.12 140 13:42 18.06.2022
1470 Clear 32 1016 39 10000 2.57 160 11:58 18.06.2022
1471 Clear 30 1017 46 10000 1.54 170 10:56 18.06.2022
1472 Clear 30 1017 47 10000 1.54 170 10:56 18.06.2022
1473 Clear 26 1017 55 10000 2.06 30 09:28 18.06.2022
1474 Clear 24 1017 62 10000 1.54 160 08:32 18.06.2022
1475 Clear 22 1018 67 10000 1.54 30 07:23 18.06.2022
1476 Clear 22 1020 69 10000 2.06 40 03:58 18.06.2022
1477 Clear 25 1020 56 10000 1.54 60 01:27 18.06.2022
1478 Clear 25 1020 59 10000 1.54 60 00:49 18.06.2022
1479 Clear 26 1020 55 10000 1.54 70 00:21 18.06.2022
1480 Clear 27 1020 52 10000 1.54 90 23:29 17.06.2022
1481 Clear 31 1020 42 10000 1.54 270 21:33 17.06.2022
1482 Clear 33 1020 36 10000 2.57 270 20:28 17.06.2022
1483 Clear 34 1020 29 10000 2.57 260 18:59 17.06.2022
1484 Clear 34 1020 28 10000 1.54 0 17:46 17.06.2022
1485 Clear 34 1020 30 10000 2.06 140 16:43 17.06.2022
1486 Clear 33 1021 30 10000 2.57 250 16:19 17.06.2022
1487 Clear 33 1021 32 10000 3.09 230 15:37 17.06.2022
1488 Clear 31 1022 33 10000 2.06 270 14:22 17.06.2022
1489 Clear 31 1022 34 10000 2.06 270 13:51 17.06.2022
1490 Clear 30 1022 34 10000 2.06 140 13:31 17.06.2022
1491 Clear 29 1022 37 10000 2.57 170 12:20 17.06.2022
1492 Clear 29 1022 38 10000 2.57 170 11:49 17.06.2022
1493 Clear 28 1022 40 10000 2.57 170 11:30 17.06.2022
1494 Clear 22 1022 61 10000 3.09 120 08:45 17.06.2022
1495 Clear 21 1022 65 10000 3.09 120 08:24 17.06.2022
1496 Clear 19 1022 68 10000 2.06 120 06:35 17.06.2022
1497 Clear 20 1022 59 10000 2.06 90 03:25 17.06.2022
1498 Clear 20 1023 60 10000 2.57 70 01:55 17.06.2022
1499 Clear 24 1022 46 10000 2.57 50 23:34 16.06.2022
1500 Clear 24 1022 45 10000 2.57 40 22:40 16.06.2022
1501 Clear 28 1021 37 10000 2.06 350 21:21 16.06.2022
1502 Clear 28 1021 36 10000 2.06 350 20:51 16.06.2022
1503 Clear 28 1021 34 10000 2.06 340 20:27 16.06.2022
1504 Clear 30 1020 30 10000 2.06 350 19:31 16.06.2022
1505 Clear 30 1020 29 10000 3.09 70 17:57 16.06.2022
1506 Clear 29 1020 29 10000 3.6 30 17:33 16.06.2022
1507 Clear 29 1020 31 10000 4.12 60 16:24 16.06.2022
1508 Clear 29 1021 32 10000 2.57 60 15:21 16.06.2022
1509 Clear 28 1021 33 10000 3.09 80 14:27 16.06.2022
1510 Clear 26 1021 38 10000 3.09 70 12:59 16.06.2022
1511 Clear 26 1021 39 10000 3.6 40 12:35 16.06.2022
1512 Clear 25 1022 42 10000 3.6 330 11:49 16.06.2022
1513 Clear 23 1021 50 10000 3.09 360 10:42 16.06.2022
1514 Clear 21 1022 58 10000 3.6 360 09:43 16.06.2022
1515 Clear 21 1021 60 10000 3.6 360 09:20 16.06.2022
1516 Clear 19 1020 70 10000 2.06 320 07:57 16.06.2022
1517 Clear 17 1019 76 10000 3.09 350 06:51 16.06.2022
1518 Clear 18 1018 71 10000 3.09 350 04:28 16.06.2022
1519 Clear 21 1017 58 10000 4.12 340 01:53 16.06.2022
1520 Clear 21 1017 57 10000 4.12 350 01:34 16.06.2022
1521 Clear 22 1018 52 10000 4.12 20 00:36 16.06.2022
1522 Clear 24 1017 47 10000 5.14 20 23:25 15.06.2022
1523 Clear 25 1016 43 10000 3.6 350 22:28 15.06.2022
1524 Clear 28 1016 37 10000 4.63 320 21:21 15.06.2022
1525 Clear 29 1016 34 10000 4.12 320 20:38 15.06.2022
1526 Clear 30 1016 33 10000 4.63 320 20:19 15.06.2022
1527 Clear 31 1016 32 10000 3.6 340 18:51 15.06.2022
1528 Clear 31 1015 33 10000 3.6 350 17:55 15.06.2022
1529 Clear 30 1015 34 10000 2.57 360 16:40 15.06.2022
1530 Clear 29 1016 37 10000 3.09 320 15:35 15.06.2022
1531 Clear 28 1016 40 10000 2.57 40 13:43 15.06.2022
1532 Clear 27 1016 43 10000 3.09 30 12:54 15.06.2022
1533 Clear 26 1016 45 10000 4.12 50 11:52 15.06.2022
1534 Clear 22 1016 55 10000 3.6 40 10:24 15.06.2022
1535 Clouds 21 1016 58 10000 2.68 39 09:39 15.06.2022
1536 Clear 18 1016 71 10000 3.09 60 08:30 15.06.2022
1537 Clouds 16 1016 77 10000 2.57 30 06:34 15.06.2022
1538 Clear 16 1016 72 10000 2.57 30 03:59 15.06.2022
1539 Clear 18 1017 66 10000 3.09 40 01:54 15.06.2022
1540 Clear 18 1017 62 10000 3.09 50 00:50 15.06.2022
1541 Clear 20 1017 58 10000 3.6 20 23:39 14.06.2022
1542 Clear 20 1017 56 10000 3.09 80 23:19 14.06.2022
1543 Clear 22 1016 49 10000 3.09 30 22:21 14.06.2022
1544 Clear 24 1016 43 10000 3.6 40 21:36 14.06.2022
1545 Clear 25 1016 38 10000 3.6 50 20:54 14.06.2022
1546 Clear 25 1016 40 10000 3.6 50 20:28 14.06.2022
1547 Clear 26 1017 37 10000 3.6 50 19:18 14.06.2022
1548 Clear 26 1017 37 10000 3.6 60 17:54 14.06.2022
1549 Clear 25 1018 39 10000 4.12 90 16:43 14.06.2022
1550 Clear 25 1018 40 10000 4.12 50 15:50 14.06.2022
1551 Clear 25 1018 41 10000 4.63 50 15:24 14.06.2022
1552 Clear 24 1018 42 10000 4.63 70 14:33 14.06.2022
1553 Clear 24 1019 43 10000 3.6 100 13:42 14.06.2022
1554 Clear 23 1020 46 10000 3.6 60 12:45 14.06.2022
1555 Clear 21 1020 49 10000 4.12 80 11:38 14.06.2022
1556 Clear 20 1020 53 10000 4.12 70 10:48 14.06.2022
1557 Clear 19 1021 58 10000 3.09 60 10:22 14.06.2022
1558 Clear 16 1021 65 10000 3.6 50 08:48 14.06.2022
1559 Clouds 15 1021 72 10000 4.12 60 07:49 14.06.2022
1560 Clear 13 1021 74 10000 3.6 60 05:29 14.06.2022
1561 Clear 15 1022 69 10000 3.09 60 03:20 14.06.2022
1562 Clear 16 1023 66 10000 3.09 80 00:54 14.06.2022
1563 Clear 18 1022 59 10000 4.12 60 23:41 13.06.2022
1564 Clear 19 1022 53 10000 4.12 70 22:26 13.06.2022
1565 Clear 20 1022 49 10000 5.14 60 21:52 13.06.2022
1566 Clear 22 1022 44 10000 4.63 50 20:42 13.06.2022
1567 Clear 23 1022 41 10000 3.6 350 19:35 13.06.2022
1568 Clear 24 1022 39 10000 4.12 330 18:31 13.06.2022
1569 Clear 23 1022 41 10000 3.09 0 17:48 13.06.2022
1570 Clear 23 1023 42 10000 3.09 10 16:53 13.06.2022
1571 Clear 23 1023 43 10000 3.09 20 15:41 13.06.2022
1572 Clear 22 1024 45 10000 3.09 30 14:47 13.06.2022
1573 Clear 21 1024 47 10000 3.09 320 13:55 13.06.2022
1574 Clouds 20 1024 49 10000 3.6 340 12:59 13.06.2022
1575 Clear 19 1025 55 10000 2.57 330 11:38 13.06.2022
1576 Clear 17 1024 65 10000 3.6 340 10:28 13.06.2022
1577 Clear 16 1024 73 10000 3.09 330 09:42 13.06.2022
1578 Clear 14 1024 82 10000 4.12 320 08:25 13.06.2022
1579 Clear 11 1024 86 10000 2.57 320 06:34 13.06.2022
1580 Clear 13 1023 75 10000 4.63 330 03:45 13.06.2022
1581 Clear 15 1023 65 10000 3.6 340 01:39 13.06.2022
1582 Clear 16 1023 62 10000 4.63 340 00:48 13.06.2022
1583 Clear 17 1023 58 10000 5.14 330 23:33 12.06.2022
1584 Clear 19 1022 55 10000 6.17 320 22:23 12.06.2022
1585 Clear 21 1022 52 10000 5.66 320 21:40 12.06.2022
1586 Clear 22 1022 46 9000 5.66 310 20:40 12.06.2022
1587 Clear 24 1021 41 9000 4.63 320 19:42 12.06.2022
1588 Clear 24 1021 41 10000 4.12 350 18:44 12.06.2022
1589 Clear 24 1022 41 10000 4.63 320 16:44 12.06.2022
1590 Clear 23 1022 45 10000 3.6 350 15:33 12.06.2022
1591 Clear 23 1023 46 10000 4.12 330 14:41 12.06.2022
1592 Clear 23 1023 48 10000 3.09 320 14:18 12.06.2022
1593 Clear 23 1023 49 10000 3.09 320 13:43 12.06.2022
1594 Clouds 21 1024 54 10000 3.09 350 11:58 12.06.2022
1595 Clouds 19 1024 58 10000 3.6 360 10:46 12.06.2022
1596 Clouds 17 1025 65 10000 3.6 10 09:36 12.06.2022
1597 Clear 16 1024 72 10000 2.68 43 08:49 12.06.2022
1598 Clouds 15 1024 74 10000 3.6 10 07:49 12.06.2022
1599 Clear 13 1024 81 10000 2.57 350 06:21 12.06.2022
1600 Clear 15 1024 74 10000 3.6 10 03:44 12.06.2022
1601 Clear 17 1024 68 10000 4.12 30 01:49 12.06.2022
1602 Clear 17 1024 68 10000 4.12 10 01:29 12.06.2022
1603 Clear 18 1024 67 10000 5.14 10 00:43 12.06.2022
1604 Clear 18 1023 68 10000 5.14 10 00:18 12.06.2022
1605 Clear 20 1023 66 10000 3.6 350 23:18 11.06.2022
1606 Clear 21 1023 62 10000 4.12 340 22:35 11.06.2022
1607 Clear 24 1022 55 10000 3.09 340 21:18 11.06.2022
1608 Clear 24 1022 55 10000 3.09 340 21:18 11.06.2022
1609 Clear 25 1022 52 10000 3.6 320 20:26 11.06.2022
1610 Clear 26 1022 50 10000 3.6 290 19:33 11.06.2022
1611 Clear 25 1022 51 10000 4.12 290 18:43 11.06.2022
1612 Clear 26 1022 50 10000 4.12 290 18:25 11.06.2022
1613 Clear 25 1022 51 10000 3.6 320 17:47 11.06.2022
1614 Clear 26 1022 50 10000 3.6 320 17:25 11.06.2022
1615 Clouds 26 1022 51 10000 3.09 340 16:42 11.06.2022
1616 Clouds 25 1022 52 10000 3.6 270 16:18 11.06.2022
1617 Clouds 25 1023 54 10000 2.06 300 14:44 11.06.2022
1618 Clouds 24 1023 58 10000 2.57 270 13:52 11.06.2022
1619 Clouds 21 1023 69 10000 2.57 360 11:55 11.06.2022
1620 Clouds 20 1023 74 10000 2.57 10 10:30 11.06.2022
1621 Clouds 19 1023 80 10000 3.09 10 09:41 11.06.2022
1622 Clouds 17 1023 88 10000 1.54 10 08:38 11.06.2022
1623 Clear 15 1023 93 10000 2.06 320 06:33 11.06.2022
1624 Clear 15 1022 92 10000 2.57 310 05:33 11.06.2022
1625 Clear 16 1022 88 10000 1.54 40 03:18 11.06.2022
1626 Clear 16 1022 88 10000 1.54 260 01:51 11.06.2022
1627 Clear 16 1022 88 10000 2.06 280 01:25 11.06.2022
1628 Clear 18 1022 78 10000 1.54 260 23:26 10.06.2022
1629 Clear 20 1022 71 10000 2.06 250 22:20 10.06.2022
1630 Clouds 21 1022 67 10000 2.06 250 21:44 10.06.2022
1631 Clouds 22 1022 63 10000 3.6 270 20:39 10.06.2022
1632 Clouds 23 1021 62 10000 4.12 250 20:19 10.06.2022
1633 Clouds 23 1022 64 10000 4.12 290 19:19 10.06.2022
1634 Clouds 23 1022 64 10000 4.12 290 19:19 10.06.2022
1635 Clouds 22 1022 65 10000 4.63 260 18:32 10.06.2022
1636 Clouds 22 1022 64 10000 4.63 280 17:50 10.06.2022
1637 Clouds 23 1022 63 10000 4.63 240 17:21 10.06.2022
1638 Clouds 22 1022 62 10000 4.63 230 16:26 10.06.2022
1639 Clouds 23 1022 60 9000 5.14 230 15:39 10.06.2022
1640 Clouds 22 1022 60 9000 5.66 200 14:24 10.06.2022
1641 Clouds 22 1022 60 10000 6.17 200 12:57 10.06.2022
1642 Clouds 22 1022 59 10000 5.66 200 11:59 10.06.2022
1643 Clear 20 1022 64 10000 4.63 200 10:46 10.06.2022
1644 Clouds 19 1022 71 10000 3.09 210 09:56 10.06.2022
1645 Clear 17 1022 78 10000 3.09 240 08:47 10.06.2022
1646 Clear 15 1022 83 10000 2.57 220 07:31 10.06.2022
1647 Clear 15 1022 84 10000 2.57 220 06:45 10.06.2022
1648 Clear 15 1022 83 10000 2.57 220 06:26 10.06.2022
1649 Clear 15 1021 81 10000 3.09 200 04:47 10.06.2022
1650 Clear 17 1021 75 10000 2.06 180 01:59 10.06.2022
1651 Clear 17 1021 73 10000 1.54 190 01:36 10.06.2022
1652 Clear 17 1021 73 10000 1.54 190 01:36 10.06.2022
1653 Clear 18 1021 69 10000 1.54 210 23:57 09.06.2022
1654 Clear 19 1021 65 10000 2.57 260 22:22 09.06.2022
1655 Clear 19 1021 63 10000 3.6 280 21:37 09.06.2022
1656 Clouds 19 1021 60 10000 4.63 280 21:18 09.06.2022
1657 Clouds 20 1021 57 10000 4.12 270 20:27 09.06.2022
1658 Clear 20 1020 53 10000 4.12 270 19:31 09.06.2022
1659 Clear 21 1020 49 10000 5.66 280 18:35 09.06.2022
1660 Clear 22 1020 46 10000 5.14 300 17:25 09.06.2022
1661 Clear 21 1019 46 9000 4.12 280 16:21 09.06.2022
1662 Clouds 20 1019 52 10000 5.14 270 14:42 09.06.2022
1663 Clouds 20 1019 53 10000 5.14 270 14:23 09.06.2022
1664 Clouds 19 1019 57 10000 5.66 290 13:30 09.06.2022
1665 Clouds 18 1018 61 10000 5.14 280 12:50 09.06.2022
1666 Clouds 17 1018 66 10000 5.66 300 11:20 09.06.2022
1667 Clouds 16 1018 75 10000 6.69 300 09:55 09.06.2022
1668 Clouds 16 1018 75 10000 6.69 300 09:55 09.06.2022
1669 Clouds 15 1017 78 10000 5.66 310 09:36 09.06.2022
1670 Clouds 14 1017 84 10000 5.14 280 08:27 09.06.2022
1671 Clear 13 1016 89 10000 5.14 270 07:24 09.06.2022
1672 Clouds 13 1014 85 10000 4.63 280 03:29 09.06.2022
1673 Clear 15 1013 82 10000 4.12 280 00:34 09.06.2022
1674 Rain 16 1012 78 10000 2.57 300 23:18 08.06.2022
1675 Clear 16 1012 73 10000 3.09 280 22:42 08.06.2022
1676 Clear 17 1012 70 10000 4.63 300 22:23 08.06.2022
1677 Clouds 18 1011 66 10000 5.66 300 21:32 08.06.2022
1678 Clouds 19 1011 63 10000 8.75 310 20:25 08.06.2022
1679 Clouds 20 1010 57 10000 8.23 280 19:41 08.06.2022
1680 Clouds 21 1009 57 10000 7.2 280 18:48 08.06.2022
1681 Clear 21 1009 54 10000 6.69 280 17:41 08.06.2022
1682 Clear 20 1008 60 10000 7.72 280 15:54 08.06.2022
1683 Clouds 20 1008 70 10000 7.2 300 14:38 08.06.2022
1684 Rain 19 1008 80 10000 5.14 250 12:55 08.06.2022
1685 Clouds 19 1008 80 10000 5.14 250 12:55 08.06.2022
1686 Rain 19 1008 80 10000 5.14 250 12:55 08.06.2022
1687 Clouds 16 1008 95 10000 4.63 240 11:36 08.06.2022
1688 Clouds 16 1008 95 10000 4.12 210 10:51 08.06.2022
1689 Mist 15 1008 95 3900 4.12 200 09:28 08.06.2022
1690 Rain 14 1008 96 5000 4.12 180 08:54 08.06.2022
1691 Rain 14 1009 95 7000 3.09 170 06:56 08.06.2022
1692 Rain 15 1010 88 10000 3.09 220 04:47 08.06.2022
1693 Clear 17 1012 75 10000 2.06 230 01:25 08.06.2022
1694 Clouds 18 1013 70 10000 3.09 200 23:32 07.06.2022
1695 Clear 18 1013 69 10000 4.12 210 22:54 07.06.2022
1696 Clouds 19 1013 66 10000 4.12 200 22:34 07.06.2022
1697 Clear 20 1013 60 10000 5.14 230 21:41 07.06.2022
1698 Clear 20 1013 60 10000 5.14 230 21:20 07.06.2022
1699 Clouds 21 1013 57 10000 6.17 230 20:42 07.06.2022
1700 Clear 22 1013 55 10000 6.17 230 19:57 07.06.2022
1701 Clouds 23 1013 46 10000 6.17 250 18:26 07.06.2022
1702 Clouds 22 1014 53 10000 6.69 230 17:33 07.06.2022
1703 Clear 22 1014 57 10000 6.69 240 16:47 07.06.2022
1704 Clear 22 1014 57 10000 6.69 240 16:28 07.06.2022
1705 Clouds 22 1014 57 10000 5.66 240 15:37 07.06.2022
1706 Clouds 22 1014 58 10000 7.2 250 15:18 07.06.2022
1707 Clouds 21 1014 62 10000 6.69 250 14:43 07.06.2022
1708 Clouds 20 1014 63 10000 7.72 250 13:38 07.06.2022
1709 Clouds 20 1015 65 10000 6.17 220 13:20 07.06.2022
1710 Clouds 19 1015 71 10000 6.69 250 11:56 07.06.2022
1711 Clouds 18 1015 78 10000 6.69 250 10:53 07.06.2022
1712 Clouds 16 1015 89 10000 4.63 240 09:26 07.06.2022
1713 Clouds 16 1014 91 10000 4.63 230 08:22 07.06.2022
1714 Clouds 16 1014 91 6000 4.63 200 07:18 07.06.2022
1715 Clouds 15 1014 86 10000 3.09 210 04:52 07.06.2022
1716 Clear 16 1016 75 10000 2.06 220 01:28 07.06.2022
1717 Clear 17 1016 70 10000 2.57 210 23:59 06.06.2022
1718 Clear 17 1017 67 10000 3.09 220 22:59 06.06.2022
1719 Clear 18 1016 61 10000 3.6 230 22:30 06.06.2022
1720 Clear 20 1016 56 10000 5.14 230 21:28 06.06.2022
1721 Clear 21 1016 49 10000 5.14 220 19:29 06.06.2022
1722 Clear 21 1016 48 10000 4.63 240 18:59 06.06.2022
1723 Clear 21 1016 48 10000 5.66 240 18:33 06.06.2022
1724 Clear 21 1016 49 10000 5.14 250 17:31 06.06.2022
1725 Clear 21 1016 49 10000 4.63 250 16:21 06.06.2022
1726 Clear 21 1017 50 10000 6.17 230 15:33 06.06.2022
1727 Clouds 21 1017 51 10000 5.66 240 14:36 06.06.2022
1728 Clear 20 1017 53 10000 5.14 260 13:27 06.06.2022
1729 Clouds 19 1017 57 10000 4.63 240 12:37 06.06.2022
1730 Clouds 19 1017 60 10000 5.14 240 11:54 06.06.2022
1731 Clouds 18 1017 68 10000 4.63 240 10:46 06.06.2022
1732 Clear 16 1018 76 10000 4.12 240 09:40 06.06.2022
1733 Clear 15 1018 81 10000 4.12 260 08:35 06.06.2022
1734 Clear 13 1017 88 10000 2.06 250 07:28 06.06.2022
1735 Clear 13 1017 90 10000 2.57 230 05:29 06.06.2022
1736 Clear 13 1017 90 10000 2.57 230 05:29 06.06.2022
1737 Clear 13 1017 90 10000 2.57 230 05:29 06.06.2022
1738 Clear 14 1017 90 10000 3.09 270 03:46 06.06.2022
1739 Clouds 16 1017 89 10000 1.54 250 01:29 06.06.2022
1740 Clouds 16 1018 89 10000 3.09 320 00:42 06.06.2022
1741 Clouds 17 1017 88 10000 1.54 0 23:49 05.06.2022
1742 Clouds 17 1017 84 10000 2.57 290 22:52 05.06.2022
1743 Clear 18 1017 82 10000 4.12 300 21:26 05.06.2022
1744 Clouds 21 1016 74 10000 6.17 230 19:52 05.06.2022
1745 Clouds 22 1015 67 10000 5.66 240 18:31 05.06.2022
1746 Clouds 22 1016 67 10000 5.66 240 18:31 05.06.2022
1747 Clouds 22 1015 66 10000 4.63 290 17:56 05.06.2022
1748 Clouds 22 1015 68 10000 6.69 280 17:27 05.06.2022
1749 Clouds 21 1016 70 10000 7.72 300 16:58 05.06.2022
1750 Clouds 21 1016 72 10000 8.23 280 16:37 05.06.2022
1751 Clouds 21 1015 77 10000 7.2 290 14:46 05.06.2022
1752 Clouds 20 1014 83 10000 6.17 290 13:21 05.06.2022
1753 Clouds 20 1014 84 10000 3.6 250 11:51 05.06.2022
1754 Clear 20 1013 85 10000 3.6 240 10:44 05.06.2022
1755 Clear 20 1013 86 10000 3.6 240 10:23 05.06.2022
1756 Clouds 18 1013 94 10000 2.06 120 08:45 05.06.2022
1757 Clouds 18 1013 94 10000 2.06 120 08:21 05.06.2022
1758 Clear 16 1013 97 10000 2.06 250 05:23 05.06.2022
1759 Mist 16 1012 95 10000 1.54 270 04:33 05.06.2022
1760 Clear 17 1015 94 10000 2.57 170 01:45 05.06.2022
1761 Clear 17 1015 94 10000 2.57 170 01:45 05.06.2022
1762 Clear 17 1015 94 10000 2.57 170 01:45 05.06.2022
1763 Clear 17 1015 94 10000 2.57 170 01:45 05.06.2022
1764 Clear 17 1014 93 10000 2.57 170 01:23 05.06.2022
1765 Clear 17 1015 93 10000 4.63 70 22:45 04.06.2022
1766 Clouds 18 1015 94 10000 5.66 60 21:21 04.06.2022
1767 Rain 19 1015 89 2400 6.17 280 18:54 04.06.2022
1768 Clear 27 1014 52 10000 3.6 100 16:48 04.06.2022
1769 Thunderstorm 26 1014 54 10000 5.66 110 16:48 04.06.2022
1770 Clear 27 1014 52 10000 2.57 70 16:20 04.06.2022
1771 Clear 28 1014 49 10000 2.06 0 15:35 04.06.2022
1772 Clear 27 1016 52 10000 3.09 30 13:57 04.06.2022
1773 Clouds 22 1016 75 10000 2.57 30 11:28 04.06.2022
1774 Clear 20 1016 84 10000 2.57 180 10:52 04.06.2022
1775 Thunderstorm 17 1016 96 10000 2.06 70 09:46 04.06.2022
1776 Rain 17 1015 93 10000 2.06 360 08:50 04.06.2022
1777 Clear 17 1015 92 10000 3.09 110 08:31 04.06.2022
1778 Clear 16 1014 94 9000 3.09 90 06:25 04.06.2022
1779 Clouds 17 1014 94 9000 3.6 40 03:37 04.06.2022
1780 Clear 18 1014 92 10000 4.12 40 00:22 04.06.2022
1781 Clear 18 1014 87 10000 3.09 40 22:56 03.06.2022
1782 Clear 20 1014 81 10000 2.57 30 21:52 03.06.2022
1783 Clear 21 1014 77 10000 2.06 40 20:40 03.06.2022
1784 Clear 21 1014 76 10000 1.54 0 19:37 03.06.2022
1785 Clouds 20 1014 88 10000 2.06 90 16:58 03.06.2022
1786 Rain 19 1014 86 10000 3.09 170 15:55 03.06.2022
1787 Rain 21 1014 70 10000 3.6 170 14:25 03.06.2022
1788 Clear 22 1014 60 10000 2.57 20 12:21 03.06.2022
1789 Clear 18 1014 61 10000 3.6 50 09:57 03.06.2022
1790 Clear 18 1014 62 10000 3.09 40 09:29 03.06.2022
1791 Clear 18 1014 62 10000 3.09 40 09:29 03.06.2022
1792 Clear 16 1014 66 10000 3.6 50 07:47 03.06.2022
1793 Clear 15 1014 65 10000 2.57 360 07:19 03.06.2022
1794 Clear 14 1014 66 10000 2.57 30 06:29 03.06.2022
1795 Clear 15 1015 63 10000 3.09 40 03:52 03.06.2022
1796 Clear 19 1016 44 10000 5.14 50 23:53 02.06.2022
1797 Clear 20 1016 40 10000 4.63 40 22:33 02.06.2022
1798 Clear 23 1016 34 10000 4.12 30 20:57 02.06.2022
1799 Clear 24 1015 34 10000 4.63 40 19:58 02.06.2022
1800 Clear 24 1015 32 10000 4.63 40 19:39 02.06.2022
1801 Clear 24 1015 33 10000 5.14 30 18:59 02.06.2022
1802 Clear 24 1016 33 10000 4.63 70 16:30 02.06.2022
1803 Clear 24 1016 34 10000 5.14 80 15:47 02.06.2022
1804 Clear 22 1017 40 10000 5.14 110 13:32 02.06.2022
1805 Clear 21 1018 42 10000 4.63 60 12:51 02.06.2022
1806 Clear 19 1018 49 10000 5.14 70 10:48 02.06.2022
1807 Clear 16 1019 60 10000 4.63 50 09:45 02.06.2022
1808 Clear 16 1019 61 10000 4.63 50 09:26 02.06.2022
1809 Clear 13 1019 68 10000 5.14 60 08:24 02.06.2022
1810 Clear 11 1018 75 10000 3.09 60 06:26 02.06.2022
1811 Clear 12 1018 68 10000 3.6 50 03:53 02.06.2022
1812 Clear 14 1018 58 10000 3.6 30 01:36 02.06.2022
1813 Clear 17 1018 55 10000 4.63 30 23:36 01.06.2022
1814 Clear 18 1017 52 10000 3.6 360 22:18 01.06.2022
1815 Clear 19 1016 47 10000 4.63 20 21:26 01.06.2022
1816 Clear 20 1016 42 10000 3.6 330 20:39 01.06.2022
1817 Clear 21 1016 39 10000 3.6 360 19:52 01.06.2022
1818 Clear 22 1015 37 10000 4.12 340 18:52 01.06.2022
1819 Clear 22 1016 37 10000 3.6 310 17:40 01.06.2022
1820 Clear 22 1016 40 10000 3.09 0 16:22 01.06.2022
1821 Clear 21 1016 42 10000 4.12 280 14:51 01.06.2022
1822 Clear 20 1016 44 10000 5.14 310 13:44 01.06.2022
1823 Clouds 18 1016 53 10000 3.6 280 11:41 01.06.2022
1824 Clear 15 1016 61 10000 2.57 270 09:34 01.06.2022
1825 Clear 13 1016 72 10000 2.57 340 08:28 01.06.2022
1826 Clear 9 1016 84 10000 2.06 330 07:21 01.06.2022
1827 Clear 9 1015 80 10000 1.03 360 04:59 01.06.2022
1828 Clear 14 1015 60 10000 2.57 330 23:57 31.05.2022
1829 Clear 16 1015 55 10000 3.09 320 22:59 31.05.2022
1830 Clear 16 1015 54 10000 4.12 320 22:33 31.05.2022
1831 Clear 18 1014 46 10000 4.63 320 21:45 31.05.2022
1832 Clear 19 1013 46 10000 4.63 320 20:45 31.05.2022
1833 Clear 19 1013 46 10000 4.63 320 20:45 31.05.2022
1834 Clear 20 1013 45 10000 5.14 320 19:53 31.05.2022
1835 Clear 20 1013 44 10000 6.17 310 18:45 31.05.2022
1836 Clear 21 1012 38 10000 3.6 260 17:49 31.05.2022
1837 Clear 21 1012 38 10000 3.6 260 17:49 31.05.2022
1838 Clear 21 1012 36 10000 4.12 260 16:48 31.05.2022
1839 Clear 21 1012 37 10000 4.63 290 15:40 31.05.2022
1840 Clear 20 1013 40 10000 3.6 270 13:45 31.05.2022
1841 Clear 19 1012 42 10000 3.6 210 12:20 31.05.2022
1842 Clear 17 1013 52 10000 2.06 240 10:52 31.05.2022
1843 Clouds 14 1012 65 10000 2.57 330 08:41 31.05.2022
1844 Clear 12 1012 69 10000 1.54 0 06:57 31.05.2022
1845 Clear 12 1012 68 10000 1.54 340 04:53 31.05.2022
1846 Clear 13 1013 61 10000 3.09 30 00:26 31.05.2022
1847 Clear 14 1012 56 10000 3.6 40 23:26 30.05.2022
1848 Clear 15 1012 53 10000 3.6 40 22:48 30.05.2022
1849 Clear 16 1012 49 10000 4.12 40 21:51 30.05.2022
1850 Clear 17 1012 46 10000 2.57 360 21:32 30.05.2022
1851 Clear 18 1011 42 10000 3.09 360 19:51 30.05.2022
1852 Clear 19 1011 39 10000 3.09 360 18:39 30.05.2022
1853 Clear 19 1012 39 10000 2.57 80 17:24 30.05.2022
1854 Clear 18 1012 40 10000 3.09 330 16:40 30.05.2022
1855 Clear 17 1012 46 10000 3.6 30 14:23 30.05.2022
1856 Clouds 16 1013 50 10000 3.6 30 12:21 30.05.2022
1857 Clouds 13 1013 63 10000 3.6 30 10:41 30.05.2022
1858 Clear 12 1013 73 10000 4.12 40 09:19 30.05.2022
1859 Clear 8 1013 86 10000 3.09 40 06:40 30.05.2022
1860 Clear 8 1013 86 10000 3.6 30 05:48 30.05.2022
1861 Clear 11 1013 74 10000 4.63 20 01:33 30.05.2022
1862 Clear 13 1013 63 10000 5.14 40 22:57 29.05.2022
1863 Clear 14 1013 59 10000 5.14 30 22:36 29.05.2022
1864 Clear 15 1013 50 10000 4.12 10 20:54 29.05.2022
1865 Clear 16 1013 46 10000 4.12 360 19:32 29.05.2022
1866 Clear 16 1013 45 10000 5.14 20 18:44 29.05.2022
1867 Clear 16 1014 44 10000 4.12 30 17:31 29.05.2022
1868 Clear 16 1015 44 10000 4.63 10 15:48 29.05.2022
1869 Clear 15 1015 46 10000 4.63 50 14:58 29.05.2022
1870 Clear 15 1016 49 10000 4.12 350 13:53 29.05.2022
1871 Clouds 14 1017 54 10000 4.63 20 11:41 29.05.2022
1872 Clouds 13 1017 60 10000 5.14 40 10:39 29.05.2022
1873 Clear 11 1018 71 10000 5.14 30 09:18 29.05.2022
1874 Clear 8 1018 81 10000 4.63 30 06:18 29.05.2022
1875 Clear 9 1018 77 10000 4.63 30 04:45 29.05.2022
1876 Clear 10 1018 72 10000 4.12 10 03:53 29.05.2022
1877 Clear 14 1019 55 10000 7.2 20 23:50 28.05.2022
1878 Clear 14 1019 55 10000 7.2 20 23:26 28.05.2022
1879 Clear 15 1019 55 10000 7.2 30 22:39 28.05.2022
1880 Clear 16 1019 54 10000 7.2 30 21:38 28.05.2022
1881 Clear 19 1019 40 10000 5.14 40 19:51 28.05.2022
1882 Clear 19 1019 41 10000 5.66 30 18:54 28.05.2022
1883 Clear 20 1020 43 10000 5.14 350 17:38 28.05.2022
1884 Clear 20 1020 44 10000 4.63 350 16:50 28.05.2022
1885 Clear 20 1020 45 10000 4.12 340 15:43 28.05.2022
1886 Clouds 19 1021 49 10000 4.12 340 14:28 28.05.2022
1887 Clouds 18 1022 55 10000 3.09 350 13:21 28.05.2022
1888 Clouds 18 1022 58 10000 2.57 330 12:39 28.05.2022
1889 Clouds 17 1023 65 10000 2.06 60 11:23 28.05.2022
1890 Clouds 16 1023 70 10000 2.57 40 10:21 28.05.2022
1891 Clear 13 1024 81 10000 1.54 10 09:22 28.05.2022
1892 Clear 10 1024 91 10000 1.54 0 07:23 28.05.2022
1893 Clear 9 1023 90 10000 1.54 330 06:26 28.05.2022
1894 Clear 11 1023 83 10000 1.54 340 03:48 28.05.2022
1895 Clear 14 1024 70 10000 2.57 330 00:33 28.05.2022
1896 Clear 15 1024 64 10000 3.09 330 23:34 27.05.2022
1897 Clear 18 1024 57 10000 5.14 300 21:50 27.05.2022
1898 Clear 20 1024 50 10000 5.14 310 20:57 27.05.2022
1899 Clear 21 1023 51 10000 4.63 310 20:26 27.05.2022
1900 Clear 21 1023 48 10000 4.63 290 19:51 27.05.2022
1901 Clear 22 1023 49 10000 4.12 310 19:32 27.05.2022
1902 Clear 22 1023 49 10000 5.14 280 18:29 27.05.2022
1903 Clouds 21 1024 64 10000 4.12 280 16:42 27.05.2022
1904 Clouds 20 1024 69 10000 4.63 290 15:34 27.05.2022
1905 Clouds 18 1025 73 10000 4.12 270 14:45 27.05.2022
1906 Clouds 18 1025 75 10000 4.63 280 13:30 27.05.2022
1907 Clouds 15 1025 81 10000 3.6 260 11:41 27.05.2022
1908 Clouds 15 1025 81 10000 3.6 260 11:23 27.05.2022
1909 Clouds 15 1025 82 10000 3.09 220 10:32 27.05.2022
1910 Clouds 14 1025 83 10000 3.09 260 09:37 27.05.2022
1911 Clouds 13 1025 83 10000 3.6 280 08:24 27.05.2022
1912 Clouds 14 1025 80 10000 5.66 310 06:45 27.05.2022
1913 Clouds 15 1025 73 10000 6.69 290 02:56 27.05.2022
1914 Clouds 16 1026 75 10000 7.2 300 00:53 27.05.2022
1915 Clouds 17 1026 74 10000 5.14 300 22:50 26.05.2022
1916 Clouds 18 1025 72 10000 4.63 300 21:43 26.05.2022
1917 Clouds 18 1025 68 10000 4.12 290 20:59 26.05.2022
1918 Clouds 19 1025 66 10000 5.66 290 19:27 26.05.2022
1919 Clouds 21 1025 60 10000 5.14 270 18:21 26.05.2022
1920 Clouds 21 1025 60 10000 4.12 250 16:58 26.05.2022
1921 Clouds 20 1025 60 10000 4.12 280 15:49 26.05.2022
1922 Clouds 20 1025 62 10000 4.63 250 15:18 26.05.2022
1923 Clouds 19 1026 65 10000 4.63 290 13:45 26.05.2022
1924 Clouds 16 1026 78 10000 4.63 300 11:38 26.05.2022
1925 Clouds 15 1025 83 10000 5.66 290 10:37 26.05.2022
1926 Clouds 15 1025 79 10000 5.14 280 09:37 26.05.2022
1927 Clouds 14 1024 85 10000 3.6 260 08:38 26.05.2022
1928 Clouds 14 1023 86 10000 5.66 270 05:25 26.05.2022
1929 Clouds 15 1022 78 10000 6.17 250 01:26 26.05.2022
1930 Clouds 16 1022 70 10000 3.6 260 23:41 25.05.2022
1931 Clouds 17 1021 66 10000 4.63 270 22:51 25.05.2022
1932 Clouds 17 1020 60 10000 6.17 240 21:39 25.05.2022
1933 Clouds 18 1020 58 10000 5.14 240 20:43 25.05.2022
1934 Clear 18 1019 53 10000 6.69 270 19:32 25.05.2022
1935 Clear 19 1019 50 10000 6.69 270 18:23 25.05.2022
1936 Clear 20 1019 47 10000 6.69 250 16:42 25.05.2022
1937 Clear 20 1019 47 10000 6.17 240 16:21 25.05.2022
1938 Clear 20 1018 47 10000 7.72 260 15:24 25.05.2022
1939 Clouds 20 1018 48 9000 6.17 250 14:42 25.05.2022
1940 Clouds 19 1018 48 9000 6.17 240 14:24 25.05.2022
1941 Clear 18 1018 51 10000 5.66 240 13:21 25.05.2022
1942 Clouds 17 1018 59 10000 4.63 260 11:32 25.05.2022
1943 Clouds 15 1018 67 10000 2.57 260 10:23 25.05.2022
1944 Clouds 14 1017 76 10000 0.45 270 09:29 25.05.2022
1945 Clear 9 1016 93 10000 1.52 266 07:26 25.05.2022
1946 Clear 9 1016 92 10000 1.54 280 05:41 25.05.2022
1947 Clouds 11 1013 88 10000 1.31 288 01:51 25.05.2022
1948 Clear 12 1013 80 10000 2.06 260 23:48 24.05.2022
1949 Clear 13 1013 76 10000 2.06 250 22:58 24.05.2022
1950 Clear 15 1012 69 10000 2.57 250 21:57 24.05.2022
1951 Clear 15 1012 67 10000 4.63 250 21:37 24.05.2022
1952 Clear 15 1012 66 10000 4.63 250 21:18 24.05.2022
1953 Clear 17 1011 60 10000 5.14 300 19:23 24.05.2022
1954 Clouds 16 1011 64 10000 6.69 290 18:29 24.05.2022
1955 Clear 19 1010 49 10000 6.17 240 16:39 24.05.2022
1956 Clouds 18 1009 51 10000 5.66 220 15:52 24.05.2022
1957 Clouds 18 1009 55 10000 7.2 240 14:41 24.05.2022
1958 Clouds 17 1009 59 10000 6.17 230 13:47 24.05.2022
1959 Clouds 16 1009 60 10000 6.69 230 12:31 24.05.2022
1960 Clouds 13 1009 79 10000 5.66 250 09:52 24.05.2022
1961 Clouds 12 1008 84 10000 5.66 250 08:57 24.05.2022
1962 Clouds 12 1008 86 10000 5.66 240 08:38 24.05.2022
1963 Clouds 11 1007 91 10000 4.12 250 06:42 24.05.2022
1964 Clouds 12 1005 90 10000 4.63 260 03:48 24.05.2022
1965 Clouds 13 1005 92 10000 3.6 260 01:47 24.05.2022
1966 Clouds 13 1005 93 10000 3.09 260 00:53 24.05.2022
1967 Clouds 15 1005 88 10000 2.57 230 22:25 23.05.2022
1968 Clouds 15 1004 86 10000 2.57 240 21:53 23.05.2022
1969 Clouds 16 1004 84 10000 3.6 260 20:55 23.05.2022
1970 Clouds 16 1004 84 10000 5.14 270 20:21 23.05.2022
1971 Clouds 16 1003 89 10000 5.14 240 19:30 23.05.2022
1972 Clouds 16 1003 85 10000 6.17 260 18:42 23.05.2022
1973 Clouds 16 1003 84 10000 6.17 260 18:22 23.05.2022
1974 Clouds 18 1002 79 10000 5.66 270 16:51 23.05.2022
1975 Clouds 16 1001 93 8000 6.17 290 14:49 23.05.2022
1976 Clouds 18 1000 85 10000 4.63 260 12:30 23.05.2022
1977 Clouds 18 1001 89 10000 5.66 240 11:25 23.05.2022
1978 Rain 17 1001 89 10000 2.06 180 09:49 23.05.2022
1979 Rain 17 1001 89 10000 2.06 180 09:23 23.05.2022
1980 Clouds 16 1001 89 10000 2.57 350 07:48 23.05.2022
1981 Clouds 15 1002 90 10000 2.57 100 06:45 23.05.2022
1982 Clear 16 1003 85 10000 1.54 60 05:21 23.05.2022
1983 Clear 17 1005 81 10000 4.63 70 02:23 23.05.2022
1984 Clear 17 1006 81 10000 4.12 70 01:37 23.05.2022
1985 Rain 18 1008 72 10000 1.54 20 23:51 22.05.2022
1986 Clear 19 1008 70 10000 3.09 60 22:35 22.05.2022
1987 Clear 20 1008 66 10000 3.6 20 21:55 22.05.2022
1988 Clear 21 1008 63 10000 4.63 40 20:54 22.05.2022
1989 Clear 21 1009 61 10000 4.63 40 20:31 22.05.2022
1990 Clear 22 1009 59 10000 4.63 40 19:56 22.05.2022
1991 Clear 22 1009 57 10000 4.63 30 18:55 22.05.2022
1992 Clear 23 1009 57 10000 4.63 40 18:25 22.05.2022
1993 Clear 22 1010 59 10000 4.63 60 17:34 22.05.2022
1994 Clouds 22 1011 60 10000 3.09 80 16:36 22.05.2022
1995 Clouds 22 1012 58 10000 3.6 90 14:49 22.05.2022
1996 Rain 21 1012 61 10000 4.63 90 13:48 22.05.2022
1997 Clear 21 1013 58 10000 5.66 100 12:52 22.05.2022
1998 Clear 21 1014 58 10000 2.57 90 11:44 22.05.2022
1999 Clear 18 1015 68 10000 3.6 90 09:45 22.05.2022
2000 Clear 17 1015 72 10000 4.63 80 08:54 22.05.2022
2001 Clear 14 1016 83 10000 2.57 70 07:22 22.05.2022
2002 Clear 14 1016 83 10000 2.57 70 06:24 22.05.2022
2003 Clear 16 1018 77 10000 3.09 50 02:33 22.05.2022
2004 Clear 17 1019 71 10000 4.12 40 00:44 22.05.2022
2005 Clear 18 1019 69 10000 3.6 40 23:55 21.05.2022
2006 Clear 19 1019 67 10000 3.6 40 23:21 21.05.2022
2007 Clear 21 1019 57 10000 3.09 320 21:47 21.05.2022
2008 Clear 22 1019 56 10000 3.09 320 21:26 21.05.2022
2009 Clear 23 1018 50 10000 2.57 340 20:27 21.05.2022
2010 Clear 24 1019 46 10000 3.6 360 19:43 21.05.2022
2011 Clear 24 1020 47 10000 2.57 330 18:21 21.05.2022
2012 Clear 24 1020 47 10000 3.6 270 16:55 21.05.2022
2013 Clouds 22 1021 53 10000 2.57 0 14:38 21.05.2022
2014 Clouds 22 1021 53 10000 2.57 0 14:38 21.05.2022
2015 Clear 22 1022 55 10000 2.57 210 13:54 21.05.2022
2016 Clouds 21 1022 56 10000 2.57 260 13:18 21.05.2022
2017 Clear 21 1023 58 10000 2.24 46 12:38 21.05.2022
2018 Clouds 18 1023 70 10000 2.06 260 10:53 21.05.2022
2019 Clouds 17 1024 74 10000 2.06 190 09:53 21.05.2022
2020 Clouds 15 1023 84 10000 1.03 0 08:58 21.05.2022
2021 Clouds 14 1023 88 10000 2.06 200 08:36 21.05.2022
2022 Clouds 11 1022 92 10000 1.38 235 05:52 21.05.2022
2023 Clear 13 1024 85 10000 1.54 190 01:33 21.05.2022
2024 Clear 14 1023 81 10000 2.06 220 23:30 20.05.2022
2025 Clear 15 1023 76 10000 2.06 260 22:29 20.05.2022
2026 Clear 15 1022 73 10000 3.09 270 21:55 20.05.2022
2027 Clear 16 1023 73 10000 3.09 270 21:55 20.05.2022
2028 Clouds 17 1022 70 10000 5.14 290 21:18 20.05.2022
2029 Clouds 17 1022 69 10000 5.14 290 20:44 20.05.2022
2030 Clouds 17 1021 70 10000 6.17 320 19:45 20.05.2022
2031 Clouds 17 1021 74 10000 7.72 300 18:49 20.05.2022
2032 Clouds 18 1020 76 10000 8.23 300 17:48 20.05.2022
2033 Clouds 21 1018 76 10000 9.26 280 16:23 20.05.2022
2034 Clouds 21 1018 74 10000 9.26 280 15:53 20.05.2022
2035 Clouds 24 1016 72 10000 6.17 250 14:32 20.05.2022
2036 Clouds 23 1016 80 10000 4.12 260 13:59 20.05.2022
2037 Clouds 20 1017 87 10000 3.09 360 11:51 20.05.2022
2038 Rain 18 1016 90 10000 2.06 220 10:34 20.05.2022
2039 Rain 17 1016 90 10000 5.66 90 09:23 20.05.2022
2040 Clouds 17 1018 75 10000 1.54 90 07:43 20.05.2022
2041 Clear 17 1018 73 10000 2.57 50 06:40 20.05.2022
2042 Clear 17 1019 71 10000 3.09 50 05:39 20.05.2022
2043 Clear 19 1020 66 10000 5.14 40 01:29 20.05.2022
2044 Clear 20 1020 65 10000 4.63 40 23:46 19.05.2022
2045 Clear 21 1020 67 10000 3.6 10 22:35 19.05.2022
2046 Clear 22 1020 66 10000 3.09 350 21:50 19.05.2022
2047 Clear 22 1019 65 10000 4.12 10 21:23 19.05.2022
2048 Clear 23 1019 63 10000 3.6 340 20:43 19.05.2022
2049 Clear 24 1019 60 10000 4.63 340 19:54 19.05.2022
2050 Clear 25 1019 58 10000 3.6 300 19:00 19.05.2022
2051 Clear 25 1019 54 10000 3.6 280 17:44 19.05.2022
2052 Clouds 25 1019 52 10000 3.09 270 15:43 19.05.2022
2053 Clear 25 1019 53 10000 3.09 270 14:47 19.05.2022
2054 Clouds 24 1019 57 10000 3.6 360 14:20 19.05.2022
2055 Clouds 22 1018 70 10000 7.72 310 11:54 19.05.2022
2056 Clear 23 1017 77 10000 3.09 190 10:31 19.05.2022
2057 Clear 21 1016 83 10000 3.09 170 08:44 19.05.2022
2058 Clear 20 1015 88 10000 2.06 120 07:18 19.05.2022
2059 Clear 21 1015 83 10000 2.06 120 03:52 19.05.2022
2060 Clouds 22 1016 75 10000 2.57 120 00:58 19.05.2022
2061 Clear 24 1016 67 10000 4.12 100 23:40 18.05.2022
2062 Clear 24 1016 63 10000 2.57 40 22:43 18.05.2022
2063 Clear 26 1017 53 10000 4.12 40 21:45 18.05.2022
2064 Clear 26 1016 53 10000 4.12 40 21:23 18.05.2022
2065 Clear 27 1017 47 10000 4.12 60 20:21 18.05.2022
2066 Clear 28 1017 46 10000 5.14 60 19:18 18.05.2022
2067 Clear 28 1018 43 10000 4.12 60 18:18 18.05.2022
2068 Clear 28 1017 42 10000 4.63 100 17:40 18.05.2022
2069 Clear 29 1018 41 10000 4.63 40 17:22 18.05.2022
2070 Clear 28 1019 43 10000 3.6 40 15:58 18.05.2022
2071 Clear 28 1019 44 10000 2.57 70 15:35 18.05.2022
2072 Clear 26 1019 50 10000 3.09 30 14:21 18.05.2022
2073 Clear 25 1020 57 10000 3.09 50 12:58 18.05.2022
2074 Clear 24 1021 61 10000 3.09 30 12:25 18.05.2022
2075 Clear 22 1021 64 10000 3.09 30 11:33 18.05.2022
2076 Clear 21 1021 67 10000 3.6 40 10:48 18.05.2022
2077 Clear 18 1021 75 10000 3.6 350 08:25 18.05.2022
2078 Clear 17 1021 81 10000 4.12 330 07:28 18.05.2022
2079 Clear 19 1019 84 10000 3.09 320 04:26 18.05.2022
2080 Clouds 22 1018 73 10000 3.6 150 00:52 18.05.2022
2081 Clear 24 1017 59 10000 3.6 110 23:41 17.05.2022
2082 Clear 25 1016 55 10000 3.6 120 21:23 17.05.2022
2083 Clear 27 1016 44 10000 4.12 130 20:44 17.05.2022
2084 Clear 27 1016 44 10000 5.14 140 19:45 17.05.2022
2085 Clear 28 1016 45 10000 4.12 130 19:24 17.05.2022
2086 Clear 28 1017 44 10000 4.63 120 17:49 17.05.2022
2087 Clear 29 1017 44 10000 4.12 170 16:58 17.05.2022
2088 Clear 29 1017 44 10000 3.6 190 16:24 17.05.2022
2089 Clear 28 1017 42 10000 3.6 130 14:56 17.05.2022
2090 Clear 28 1018 42 10000 2.57 50 14:29 17.05.2022
2091 Clear 27 1018 41 10000 3.09 60 13:30 17.05.2022
2092 Clear 24 1019 50 10000 2.06 30 10:43 17.05.2022
2093 Clear 20 1020 71 10000 2.06 360 08:55 17.05.2022
2094 Clear 17 1019 83 10000 1.03 50 07:57 17.05.2022
2095 Clear 16 1019 85 10000 2.57 70 06:27 17.05.2022
2096 Clear 18 1019 79 10000 2.06 150 02:27 17.05.2022
2097 Clear 19 1019 72 10000 2.06 60 00:28 17.05.2022
2098 Clear 21 1019 63 10000 2.57 80 22:41 16.05.2022
2099 Clear 22 1019 57 10000 2.06 70 21:33 16.05.2022
2100 Clear 23 1019 46 10000 3.09 240 20:46 16.05.2022
2101 Clear 25 1018 43 10000 4.12 230 19:22 16.05.2022
2102 Clear 25 1018 44 10000 4.12 270 17:58 16.05.2022
2103 Clear 24 1018 53 10000 3.6 250 15:49 16.05.2022
2104 Clouds 23 1018 60 10000 4.12 240 13:49 16.05.2022
2105 Clouds 21 1019 69 10000 3.09 260 12:50 16.05.2022
2106 Clouds 18 1018 79 10000 4.12 240 10:53 16.05.2022
2107 Clouds 17 1017 87 10000 4.12 240 09:23 16.05.2022
2108 Clear 17 1014 91 10000 3.09 220 06:34 16.05.2022
2109 Thunderstorm 17 1012 93 10000 2.06 150 03:31 16.05.2022
2110 Clouds 18 1012 88 10000 2.57 180 23:26 15.05.2022
2111 Thunderstorm 19 1013 85 10000 4.12 210 22:29 15.05.2022
2112 Rain 19 1013 78 10000 4.63 190 21:44 15.05.2022
2113 Rain 23 1012 59 10000 6.69 210 20:54 15.05.2022
2114 Clear 28 1010 36 10000 5.66 110 19:32 15.05.2022
2115 Clear 29 1011 34 10000 6.17 110 17:51 15.05.2022
2116 Clear 28 1012 35 10000 6.17 100 15:59 15.05.2022
2117 Clear 27 1013 34 10000 6.17 90 13:54 15.05.2022
2118 Clear 25 1014 40 10000 7.2 100 12:26 15.05.2022
2119 Clear 23 1014 46 10000 4.63 100 11:39 15.05.2022
2120 Clear 21 1015 54 10000 4.12 110 10:25 15.05.2022
2121 Clear 17 1016 65 10000 3.09 100 08:45 15.05.2022
2122 Clear 14 1016 72 10000 3.09 80 06:58 15.05.2022
2123 Clear 14 1016 72 10000 2.06 350 05:47 15.05.2022
2124 Clear 16 1017 64 10000 3.6 70 00:49 15.05.2022
2125 Clear 18 1018 60 10000 3.09 70 23:39 14.05.2022
2126 Clear 18 1018 57 10000 2.06 50 22:47 14.05.2022
2127 Clear 21 1018 49 10000 3.09 60 21:29 14.05.2022
2128 Clear 22 1018 45 10000 3.6 70 20:53 14.05.2022
2129 Clear 23 1018 43 10000 3.6 80 19:38 14.05.2022
2130 Clear 23 1018 41 10000 3.09 110 19:19 14.05.2022
2131 Clear 23 1019 41 10000 3.09 110 18:44 14.05.2022
2132 Clear 23 1019 41 10000 3.6 90 16:46 14.05.2022
2133 Clear 23 1020 41 10000 1.54 0 15:30 14.05.2022
2134 Clear 22 1021 44 10000 1.54 0 14:34 14.05.2022
2135 Clear 19 1022 52 10000 1.54 0 12:24 14.05.2022
2136 Clear 18 1022 55 10000 2.06 100 11:35 14.05.2022
2137 Clear 16 1023 62 10000 1.54 0 10:21 14.05.2022
2138 Clear 16 1023 63 10000 1.54 0 09:53 14.05.2022
2139 Clear 14 1023 71 10000 2.57 60 08:49 14.05.2022
2140 Clear 10 1022 83 10000 2.06 360 06:41 14.05.2022
2141 Clear 13 1023 72 10000 3.6 20 02:39 14.05.2022
2142 Clear 16 1022 61 10000 3.09 320 23:44 13.05.2022
2143 Clear 16 1022 59 10000 2.57 320 22:58 13.05.2022
2144 Clear 17 1022 56 10000 2.57 330 22:27 13.05.2022
2145 Clear 18 1022 52 10000 3.09 330 21:52 13.05.2022
2146 Clear 20 1022 45 10000 3.09 320 20:45 13.05.2022
2147 Clear 21 1021 46 10000 3.09 300 20:27 13.05.2022
2148 Clear 22 1021 41 10000 2.57 310 19:28 13.05.2022
2149 Clear 22 1021 41 10000 3.09 310 17:51 13.05.2022
2150 Clear 22 1022 42 10000 3.09 290 17:28 13.05.2022
2151 Clear 21 1022 41 10000 3.09 290 16:20 13.05.2022
2152 Clear 20 1022 44 10000 3.09 310 15:29 13.05.2022
2153 Clouds 19 1023 47 10000 3.6 290 13:48 13.05.2022
2154 Clouds 18 1023 49 10000 3.6 260 12:32 13.05.2022
2155 Clouds 17 1023 53 10000 2.57 290 11:23 13.05.2022
2156 Clear 14 1023 70 10000 3.09 260 09:34 13.05.2022
2157 Clear 13 1023 75 10000 3.09 300 08:49 13.05.2022
2158 Clear 10 1023 82 10000 1.54 250 07:48 13.05.2022
2159 Clear 10 1022 78 10000 2.06 230 06:33 13.05.2022
2160 Clear 10 1022 78 10000 2.06 230 06:33 13.05.2022
2161 Clear 10 1022 77 10000 2.06 230 06:33 13.05.2022
2162 Clear 12 1022 69 10000 3.09 350 03:34 13.05.2022
2163 Clear 14 1022 68 10000 4.63 340 00:39 13.05.2022
2164 Clear 16 1020 66 10000 2.57 330 22:45 12.05.2022
2165 Clear 17 1020 63 10000 2.57 320 21:56 12.05.2022
2166 Clear 19 1019 55 10000 3.09 250 20:29 12.05.2022
2167 Clear 20 1019 53 10000 3.6 230 19:18 12.05.2022
2168 Clear 20 1019 52 10000 3.6 260 17:24 12.05.2022
2169 Clear 20 1019 52 10000 4.12 270 16:23 12.05.2022
2170 Clouds 20 1020 54 10000 3.6 240 14:42 12.05.2022
2171 Clouds 19 1020 56 10000 4.12 230 13:47 12.05.2022
2172 Clouds 17 1020 60 10000 3.09 220 11:23 12.05.2022
2173 Clear 15 1021 73 10000 1.03 0 09:31 12.05.2022
2174 Clear 14 1021 77 10000 1.54 260 08:51 12.05.2022
2175 Clear 12 1019 84 10000 3.09 310 07:41 12.05.2022
2176 Clouds 12 1019 83 10000 3.09 310 06:34 12.05.2022
2177 Clouds 15 1017 81 10000 2.57 290 02:59 12.05.2022
2178 Clouds 17 1016 72 10000 5.66 320 00:39 12.05.2022
2179 Clear 20 1014 63 10000 5.66 230 22:39 11.05.2022
2180 Clear 20 1014 63 10000 6.17 220 21:55 11.05.2022
2181 Clear 21 1014 62 10000 6.69 270 21:24 11.05.2022
2182 Clouds 23 1013 55 10000 7.72 230 19:36 11.05.2022
2183 Clouds 25 1012 48 8000 8.23 240 16:59 11.05.2022
2184 Clouds 25 1012 46 9000 8.23 220 15:59 11.05.2022
2185 Clear 24 1013 46 10000 8.75 230 14:39 11.05.2022
2186 Clear 24 1013 46 10000 8.75 230 14:39 11.05.2022
2187 Clear 24 1013 45 10000 7.2 200 14:19 11.05.2022
2188 Clear 22 1013 47 10000 6.17 210 11:55 11.05.2022
2189 Clear 21 1013 50 10000 5.66 240 11:30 11.05.2022
2190 Clear 18 1013 68 10000 4.63 250 09:29 11.05.2022
2191 Clear 12 1014 88 10000 2.06 240 06:24 11.05.2022
2192 Clear 17 1015 70 10000 1.54 20 01:29 11.05.2022
2193 Clear 20 1016 57 10000 1.54 230 22:53 10.05.2022
2194 Clear 22 1016 50 10000 2.57 250 22:19 10.05.2022
2195 Clear 24 1015 44 10000 3.6 260 21:21 10.05.2022
2196 Clear 26 1015 41 10000 5.66 240 20:21 10.05.2022
2197 Clear 27 1015 38 10000 7.72 250 18:36 10.05.2022
2198 Clear 27 1016 39 10000 6.17 210 17:37 10.05.2022
2199 Clear 27 1016 39 10000 7.72 190 15:56 10.05.2022
2200 Clear 25 1018 45 10000 6.69 220 12:51 10.05.2022
2201 Clear 24 1019 48 10000 6.17 220 11:53 10.05.2022
2202 Clear 23 1019 52 10000 5.14 230 11:28 10.05.2022
2203 Clear 22 1019 57 10000 4.12 190 10:56 10.05.2022
2204 Clear 19 1019 64 10000 3.6 160 09:28 10.05.2022
2205 Clear 17 1019 74 10000 2.57 190 07:51 10.05.2022
2206 Clear 15 1020 81 10000 2.06 50 05:54 10.05.2022
2207 Clear 16 1021 76 10000 1.03 20 01:53 10.05.2022
2208 Clear 18 1022 64 10000 1.54 70 23:43 09.05.2022
2209 Clear 20 1022 57 10000 1.54 0 22:33 09.05.2022
2210 Clear 22 1021 52 10000 2.57 260 21:36 09.05.2022
2211 Clear 25 1021 40 10000 2.57 230 19:56 09.05.2022
2212 Clear 26 1021 40 10000 3.6 240 18:25 09.05.2022
2213 Clear 26 1022 40 10000 2.57 250 17:25 09.05.2022
2214 Clear 26 1022 41 10000 3.09 180 16:18 09.05.2022
2215 Clear 25 1022 42 10000 3.09 250 15:47 09.05.2022
2216 Clear 24 1023 44 10000 2.57 0 14:33 09.05.2022
2217 Clear 24 1023 47 10000 2.57 0 13:56 09.05.2022
2218 Clear 22 1024 53 10000 1.54 0 12:55 09.05.2022
2219 Clear 21 1024 57 10000 2.06 60 11:52 09.05.2022
2220 Clear 18 1025 63 10000 1.54 0 10:47 09.05.2022
2221 Clear 17 1025 66 10000 1.54 340 10:20 09.05.2022
2222 Clear 12 1024 79 10000 2.06 30 07:56 09.05.2022
2223 Clear 11 1025 81 10000 3.09 20 04:35 09.05.2022
2224 Clear 15 1025 73 10000 3.09 40 00:30 09.05.2022
2225 Clear 16 1025 68 10000 3.6 40 23:28 08.05.2022
2226 Clear 18 1024 63 10000 4.12 40 22:29 08.05.2022
2227 Clear 20 1023 57 10000 4.12 30 20:54 08.05.2022
2228 Clouds 20 1023 55 10000 5.66 50 20:22 08.05.2022
2229 Clear 21 1023 53 10000 4.63 10 19:33 08.05.2022
2230 Clouds 22 1023 50 10000 5.14 30 18:35 08.05.2022
2231 Clouds 22 1023 51 10000 5.14 50 17:36 08.05.2022
2232 Clouds 21 1024 59 10000 4.12 360 15:46 08.05.2022
2233 Clouds 20 1024 63 10000 5.14 20 15:21 08.05.2022
2234 Clouds 16 1025 77 8000 5.66 30 12:46 08.05.2022
2235 Mist 14 1026 85 6000 5.14 20 10:59 08.05.2022
2236 Mist 13 1026 89 6000 4.63 20 10:22 08.05.2022
2237 Mist 13 1025 89 5000 5.14 10 09:51 08.05.2022
2238 Mist 12 1024 92 4000 4.12 10 07:43 08.05.2022
2239 Clear 12 1024 90 10000 4.63 30 05:22 08.05.2022
2240 Clear 13 1024 86 10000 4.12 350 03:21 08.05.2022
2241 Clear 14 1024 83 10000 4.12 10 00:42 08.05.2022
2242 Clear 15 1024 78 10000 4.12 20 23:55 07.05.2022
2243 Clear 16 1024 71 10000 4.63 330 22:59 07.05.2022
2244 Clear 17 1023 66 10000 3.6 30 22:35 07.05.2022
2245 Clear 17 1023 64 10000 3.6 40 21:55 07.05.2022
2246 Clear 18 1022 59 10000 4.63 30 21:20 07.05.2022
2247 Clear 20 1022 52 10000 4.12 350 19:59 07.05.2022
2248 Clouds 21 1022 52 10000 5.14 340 18:41 07.05.2022
2249 Clear 20 1023 55 10000 3.09 360 16:24 07.05.2022
2250 Clouds 19 1023 61 10000 3.09 340 14:51 07.05.2022
2251 Clear 15 1024 79 10000 3.6 350 11:21 07.05.2022
2252 Clouds 12 1025 85 10000 4.63 310 09:42 07.05.2022
2253 Clear 12 1024 88 10000 2.06 330 08:30 07.05.2022
2254 Clear 11 1024 84 10000 3.09 330 06:44 07.05.2022
2255 Clear 11 1024 85 10000 4.12 330 06:24 07.05.2022
2256 Clear 13 1024 76 10000 4.12 330 03:54 07.05.2022
2257 Clear 16 1025 68 10000 3.6 360 23:41 06.05.2022
2258 Clear 17 1024 62 10000 2.57 340 22:35 06.05.2022
2259 Clear 18 1025 56 10000 3.6 330 21:52 06.05.2022
2260 Clear 19 1024 50 10000 3.09 20 21:24 06.05.2022
2261 Clear 21 1024 42 10000 4.12 360 19:43 06.05.2022
2262 Clear 22 1024 42 10000 4.12 360 19:21 06.05.2022
2263 Clear 22 1024 41 10000 4.12 330 18:29 06.05.2022
2264 Clear 22 1024 42 10000 3.6 330 17:34 06.05.2022
2265 Clear 21 1025 45 10000 3.09 310 15:51 06.05.2022
2266 Clouds 21 1025 49 10000 3.09 300 14:58 06.05.2022
2267 Clouds 19 1025 54 10000 3.6 10 13:45 06.05.2022
2268 Clouds 18 1026 59 10000 3.6 20 12:47 06.05.2022
2269 Clouds 17 1026 63 10000 3.09 10 11:58 06.05.2022
2270 Clear 15 1026 73 9000 3.6 350 10:41 06.05.2022
2271 Clear 13 1026 80 9000 3.09 350 09:47 06.05.2022
2272 Clear 12 1026 86 9000 3.09 350 08:59 06.05.2022
2273 Clear 9 1026 91 9000 3.6 350 07:27 06.05.2022
2274 Clear 9 1026 89 8000 3.6 350 06:25 06.05.2022
2275 Clouds 11 1026 84 10000 3.09 340 02:54 06.05.2022
2276 Clear 11 1026 80 10000 4.12 340 01:57 06.05.2022
2277 Clouds 14 1025 67 10000 4.63 330 22:48 05.05.2022
2278 Clouds 16 1024 62 10000 4.12 330 21:46 05.05.2022
2279 Clear 17 1023 56 10000 5.66 340 20:34 05.05.2022
2280 Clouds 18 1023 53 10000 5.14 340 18:43 05.05.2022
2281 Clear 18 1023 55 10000 5.14 340 16:40 05.05.2022
2282 Clouds 17 1023 59 10000 4.12 320 14:59 05.05.2022
2283 Clouds 17 1023 60 10000 4.63 340 13:29 05.05.2022
2284 Clouds 17 1023 62 10000 4.63 320 12:55 05.05.2022
2285 Clouds 14 1023 79 10000 3.09 340 10:59 05.05.2022
2286 Clouds 12 1022 89 9000 4.63 310 09:40 05.05.2022
2287 Mist 11 1022 92 10000 3.6 300 08:30 05.05.2022
2288 Clouds 10 1021 89 10000 3.6 290 06:23 05.05.2022
2289 Clear 12 1021 83 9000 3.6 300 02:20 05.05.2022
2290 Clear 12 1021 84 6000 3.09 290 01:37 05.05.2022
2291 Clouds 12 1021 85 10000 2.57 270 23:57 04.05.2022
2292 Clear 12 1020 82 10000 2.57 270 22:54 04.05.2022
2293 Clouds 13 1020 76 10000 4.12 270 21:59 04.05.2022
2294 Clouds 14 1019 70 10000 4.63 330 21:30 04.05.2022
2295 Clouds 16 1019 60 10000 5.14 330 20:42 04.05.2022
2296 Clouds 16 1019 55 10000 6.17 320 19:59 04.05.2022
2297 Clear 17 1018 54 10000 4.12 330 19:35 04.05.2022
2298 Clear 18 1018 51 10000 5.14 360 18:22 04.05.2022
2299 Clear 18 1018 50 10000 6.17 340 17:59 04.05.2022
2300 Clear 18 1018 47 10000 3.6 320 16:29 04.05.2022
2301 Clouds 18 1018 50 10000 3.6 320 15:32 04.05.2022
2302 Clouds 18 1019 52 10000 4.12 320 14:38 04.05.2022
2303 Clear 17 1019 54 10000 3.09 360 14:18 04.05.2022
2304 Clear 16 1019 62 10000 3.09 330 12:36 04.05.2022
2305 Clear 13 1019 75 9000 3.09 350 11:28 04.05.2022
2306 Clear 11 1019 81 9000 3.09 340 09:50 04.05.2022
2307 Clear 10 1019 83 9000 3.09 340 09:20 04.05.2022
2308 Clouds 10 1018 86 8000 3.6 10 07:33 04.05.2022
2309 Clear 11 1018 82 9000 4.12 10 04:34 04.05.2022
2310 Clear 12 1019 79 10000 5.66 10 02:33 04.05.2022
2311 Clear 15 1018 59 10000 4.12 10 22:59 03.05.2022
2312 Clear 16 1017 56 10000 5.14 20 21:50 03.05.2022
2313 Clear 16 1017 53 10000 5.66 20 21:23 03.05.2022
2314 Clear 17 1017 51 10000 5.66 20 20:46 03.05.2022
2315 Clear 18 1016 46 10000 5.66 20 19:32 03.05.2022
2316 Clear 19 1016 43 10000 5.14 350 18:43 03.05.2022
2317 Clear 19 1016 42 10000 4.12 350 17:21 03.05.2022
2318 Clear 19 1017 43 10000 4.63 40 15:57 03.05.2022
2319 Clear 18 1017 46 10000 5.66 20 14:23 03.05.2022
2320 Clear 17 1018 52 10000 5.14 10 12:35 03.05.2022
2321 Clear 16 1018 57 10000 5.66 20 11:39 03.05.2022
2322 Clear 14 1018 64 10000 6.17 10 10:44 03.05.2022
2323 Clear 10 1018 75 9000 4.63 10 08:29 03.05.2022
2324 Clear 10 1017 75 9000 4.63 360 06:45 03.05.2022
2325 Clear 11 1018 70 10000 4.63 10 02:48 03.05.2022
2326 Clear 14 1018 62 10000 5.66 10 23:32 02.05.2022
2327 Clear 14 1017 58 10000 4.12 360 22:29 02.05.2022
2328 Clear 15 1017 54 10000 3.6 20 21:47 02.05.2022
2329 Clear 18 1016 49 10000 5.14 20 19:59 02.05.2022
2330 Clear 18 1016 47 10000 3.6 360 18:27 02.05.2022
2331 Clear 18 1016 48 10000 5.14 10 17:41 02.05.2022
2332 Clear 18 1017 49 10000 4.63 30 16:43 02.05.2022
2333 Clear 18 1017 51 10000 4.63 350 15:44 02.05.2022
2334 Clear 18 1017 51 10000 5.14 30 14:54 02.05.2022
2335 Clouds 17 1017 53 10000 5.14 40 13:45 02.05.2022
2336 Clear 15 1018 59 10000 4.63 20 11:41 02.05.2022
2337 Clear 12 1018 66 10000 4.63 10 10:18 02.05.2022
2338 Clear 10 1018 76 10000 2.57 360 08:44 02.05.2022
2339 Clear 8 1018 80 10000 2.57 350 07:23 02.05.2022
2340 Clear 10 1020 69 10000 3.09 350 01:27 02.05.2022
2341 Clear 12 1020 61 10000 3.09 40 00:23 02.05.2022
2342 Clear 12 1020 59 10000 3.6 40 23:43 01.05.2022
2343 Clear 14 1020 53 10000 3.6 50 21:46 01.05.2022
2344 Clear 15 1020 49 10000 4.63 50 20:50 01.05.2022
2345 Clear 16 1020 44 10000 4.63 50 19:46 01.05.2022
2346 Clear 16 1020 43 10000 4.63 60 18:53 01.05.2022
2347 Clear 17 1020 43 10000 5.14 30 17:57 01.05.2022
2348 Clear 17 1020 43 10000 5.66 30 16:46 01.05.2022
2349 Clear 17 1021 44 10000 5.66 50 16:23 01.05.2022
2350 Clear 16 1021 45 10000 5.14 50 14:58 01.05.2022
2351 Clear 15 1022 50 10000 4.63 70 13:23 01.05.2022
2352 Clear 12 1023 63 10000 5.14 40 10:46 01.05.2022
2353 Clear 8 1024 77 10000 3.09 350 08:51 01.05.2022
2354 Clear 5 1023 84 10000 2.57 350 06:53 01.05.2022
2355 Clear 8 1024 70 10000 3.13 42 02:51 01.05.2022
2356 Clear 12 1025 57 10000 4.63 30 22:58 30.04.2022
2357 Clear 13 1024 54 10000 4.12 30 21:35 30.04.2022
2358 Clear 14 1024 48 10000 6.17 20 20:35 30.04.2022
2359 Clear 16 1024 43 10000 6.17 50 19:33 30.04.2022
2360 Clear 17 1024 43 10000 6.17 20 17:40 30.04.2022
2361 Clear 17 1025 44 10000 6.17 30 16:34 30.04.2022
2362 Clear 16 1025 46 10000 5.66 30 15:21 30.04.2022
2363 Clear 16 1026 48 10000 6.17 30 14:33 30.04.2022
2364 Clouds 14 1027 58 10000 5.14 30 12:36 30.04.2022
2365 Clear 12 1027 67 10000 5.14 20 11:33 30.04.2022
2366 Clouds 12 1027 72 10000 5.14 10 10:40 30.04.2022
2367 Clear 9 1027 84 10000 5.14 20 08:54 30.04.2022
2368 Clouds 7 1026 88 9000 4.12 350 05:38 30.04.2022
2369 Clear 11 1027 72 10000 5.14 20 00:35 30.04.2022
2370 Clear 13 1027 68 10000 6.69 20 23:37 29.04.2022
2371 Clear 14 1026 65 10000 5.66 20 22:31 29.04.2022
2372 Clear 16 1025 56 10000 4.12 10 21:27 29.04.2022
2373 Clear 18 1025 52 10000 4.63 10 20:39 29.04.2022
2374 Clear 18 1025 48 10000 5.14 40 19:38 29.04.2022
2375 Clear 19 1025 45 10000 5.14 20 17:54 29.04.2022
2376 Clear 20 1025 45 10000 5.66 10 17:21 29.04.2022
2377 Clear 19 1026 50 10000 6.71 45 14:57 29.04.2022
2378 Clouds 18 1026 53 10000 5.14 30 14:20 29.04.2022
2379 Clear 17 1027 58 10000 4.63 360 12:48 29.04.2022
2380 Clear 13 1027 67 10000 4.12 20 10:59 29.04.2022
2381 Clear 12 1026 70 10000 4.12 20 08:46 29.04.2022
2382 Clear 11 1026 71 10000 4.12 20 07:27 29.04.2022
2383 Clear 12 1026 71 10000 3.6 10 06:38 29.04.2022
2384 Clear 12 1026 70 10000 3.6 20 04:43 29.04.2022
2385 Clear 15 1026 60 10000 5.14 30 00:19 29.04.2022
2386 Clear 16 1026 59 10000 5.14 40 23:27 28.04.2022
2387 Clear 16 1026 54 10000 3.6 40 22:41 28.04.2022
2388 Clear 17 1026 49 10000 3.09 50 21:47 28.04.2022
2389 Clear 18 1025 43 10000 3.6 50 20:57 28.04.2022
2390 Clear 19 1025 41 10000 4.12 70 20:24 28.04.2022
2391 Clear 20 1025 38 10000 6.17 40 19:41 28.04.2022
2392 Clear 20 1024 37 10000 6.17 40 19:21 28.04.2022
2393 Clear 21 1024 36 10000 6.69 80 18:35 28.04.2022
2394 Clear 21 1025 34 10000 5.14 70 17:20 28.04.2022
2395 Clear 21 1025 35 10000 5.14 60 16:40 28.04.2022
2396 Clear 21 1025 35 10000 5.14 60 16:18 28.04.2022
2397 Clear 21 1025 39 10000 5.66 60 15:27 28.04.2022
2398 Clear 19 1025 44 10000 7.72 70 13:44 28.04.2022
2399 Clear 18 1026 51 10000 6.69 60 12:44 28.04.2022
2400 Clear 17 1026 53 10000 6.69 60 11:58 28.04.2022
2401 Clear 15 1026 63 10000 5.14 60 10:46 28.04.2022
2402 Clear 13 1026 68 10000 4.63 50 09:54 28.04.2022
2403 Clear 10 1025 78 10000 4.63 30 08:31 28.04.2022
2404 Clear 8 1025 81 10000 3.6 30 07:19 28.04.2022
2405 Clear 9 1024 78 10000 4.63 30 05:56 28.04.2022
2406 Clear 9 1024 78 10000 5.14 30 05:38 28.04.2022
2407 Clear 10 1024 76 10000 5.14 30 04:39 28.04.2022
2408 Clear 14 1023 65 10000 5.66 40 00:30 28.04.2022
2409 Clear 15 1023 58 10000 6.17 40 22:40 27.04.2022
2410 Clear 16 1022 55 10000 5.14 40 21:55 27.04.2022
2411 Clear 16 1022 52 10000 4.63 50 21:18 27.04.2022
2412 Clear 18 1022 46 10000 6.17 60 20:37 27.04.2022
2413 Clear 18 1021 46 10000 6.69 30 19:38 27.04.2022
2414 Clear 18 1021 46 10000 6.69 30 19:18 27.04.2022
2415 Clear 19 1021 46 10000 7.2 60 18:22 27.04.2022
2416 Clear 19 1021 45 10000 7.2 60 18:22 27.04.2022
2417 Clear 18 1021 46 10000 7.2 60 18:22 27.04.2022
2418 Clear 18 1021 47 10000 6.17 50 17:24 27.04.2022
2419 Clear 18 1022 50 10000 6.17 60 15:21 27.04.2022
2420 Clear 14 1023 63 10000 4.12 40 12:27 27.04.2022
2421 Clear 13 1023 66 10000 3.6 40 11:21 27.04.2022
2422 Clear 10 1023 73 9000 3.6 40 09:45 27.04.2022
2423 Clear 6 1022 84 9000 4.63 30 07:19 27.04.2022
2424 Clear 7 1022 78 10000 4.63 30 05:37 27.04.2022
2425 Clear 9 1022 67 10000 5.66 40 01:35 27.04.2022
2426 Clear 10 1021 66 10000 6.17 40 00:52 27.04.2022
2427 Clear 11 1021 67 10000 5.14 10 23:57 26.04.2022
2428 Clear 12 1020 65 10000 3.6 50 23:23 26.04.2022
2429 Clear 12 1020 64 10000 4.12 50 22:41 26.04.2022
2430 Clear 13 1020 62 10000 4.12 50 21:49 26.04.2022
2431 Clouds 14 1019 57 10000 4.12 50 20:54 26.04.2022
2432 Clear 14 1019 55 10000 4.12 20 20:34 26.04.2022
2433 Clear 15 1019 54 10000 5.14 60 19:33 26.04.2022
2434 Clear 15 1019 54 10000 5.14 60 18:51 26.04.2022
2435 Clouds 15 1018 56 10000 4.12 50 18:18 26.04.2022
2436 Clouds 15 1018 56 10000 4.12 50 18:18 26.04.2022
2437 Clouds 16 1018 55 10000 4.63 20 17:32 26.04.2022
2438 Clouds 14 1019 62 10000 4.12 30 14:46 26.04.2022
2439 Clouds 13 1019 67 8000 4.63 30 13:34 26.04.2022
2440 Clouds 12 1019 69 6000 5.14 20 12:25 26.04.2022
2441 Clouds 11 1018 76 7000 4.12 350 10:46 26.04.2022
2442 Mist 10 1017 85 4300 3.6 30 09:41 26.04.2022
2443 Mist 8 1017 92 5000 3.6 360 08:28 26.04.2022
2444 Clear 8 1015 87 10000 3.09 350 04:37 26.04.2022
2445 Clear 8 1015 81 10000 3.6 10 02:20 26.04.2022
2446 Clear 10 1015 74 10000 4.12 360 00:28 26.04.2022
2447 Clear 11 1014 65 10000 4.12 20 22:50 25.04.2022
2448 Clear 13 1013 57 10000 5.36 44 21:44 25.04.2022
2449 Clear 14 1013 52 10000 4.12 350 20:46 25.04.2022
2450 Clear 16 1012 47 10000 5.66 330 19:39 25.04.2022
2451 Clear 16 1012 41 10000 6.69 340 18:25 25.04.2022
2452 Clear 16 1012 41 10000 4.12 330 17:32 25.04.2022
2453 Clear 16 1012 45 10000 4.12 340 15:38 25.04.2022
2454 Clouds 16 1011 48 10000 3.6 350 15:18 25.04.2022
2455 Clouds 15 1011 60 10000 3.6 360 13:43 25.04.2022
2456 Clouds 13 1011 71 10000 5.66 20 12:22 25.04.2022
2457 Clouds 10 1011 81 9000 4.63 350 10:27 25.04.2022
2458 Clouds 9 1010 84 7000 5.14 360 09:23 25.04.2022
2459 Clear 9 1009 84 10000 3.6 330 07:19 25.04.2022
2460 Clear 10 1008 78 10000 4.12 350 05:32 25.04.2022
2461 Clear 13 1008 67 10000 4.12 340 01:24 25.04.2022
2462 Clear 14 1007 65 10000 4.63 10 23:53 24.04.2022
2463 Clear 15 1007 63 10000 5.36 43 22:53 24.04.2022
2464 Clear 15 1006 60 10000 3.09 330 22:32 24.04.2022
2465 Clear 16 1006 55 10000 2.57 330 21:54 24.04.2022
2466 Clear 17 1005 53 10000 2.57 330 21:20 24.04.2022
2467 Clear 17 1005 52 10000 3.6 330 20:38 24.04.2022
2468 Clear 17 1004 51 10000 4.12 330 19:51 24.04.2022
2469 Clear 18 1004 49 10000 4.12 360 18:28 24.04.2022
2470 Clear 19 1003 49 10000 4.63 330 17:40 24.04.2022
2471 Clear 19 1003 50 10000 4.12 360 17:20 24.04.2022
2472 Clear 19 1003 50 10000 4.12 360 16:49 24.04.2022
2473 Clear 18 1003 52 10000 3.09 360 16:20 24.04.2022
2474 Clear 18 1003 52 10000 3.6 350 15:36 24.04.2022
2475 Clouds 18 1003 55 10000 4.63 350 14:30 24.04.2022
2476 Clear 17 1002 60 10000 5.14 350 13:26 24.04.2022
2477 Clear 16 1002 62 10000 5.14 340 12:44 24.04.2022
2478 Clear 15 1001 67 10000 4.12 360 11:44 24.04.2022
2479 Clear 14 1001 70 10000 4.12 350 10:32 24.04.2022
2480 Clear 13 1001 76 10000 3.6 360 09:41 24.04.2022
2481 Clear 9 1000 88 10000 2.57 330 07:39 24.04.2022
2482 Clear 10 999 83 10000 3.09 20 05:32 24.04.2022
2483 Clear 14 998 74 10000 5.14 70 01:50 24.04.2022
2484 Clear 14 998 69 10000 5.66 60 00:38 24.04.2022
2485 Clear 15 997 67 10000 5.14 60 23:45 23.04.2022
2486 Clear 15 997 66 10000 5.66 40 23:22 23.04.2022
2487 Clear 15 996 68 10000 7.2 70 21:55 23.04.2022
2488 Clear 16 996 66 10000 6.17 70 21:35 23.04.2022
2489 Clear 16 996 68 10000 5.66 80 20:58 23.04.2022
2490 Clear 16 996 67 10000 6.69 90 19:54 23.04.2022
2491 Clear 16 996 69 10000 7.72 100 19:19 23.04.2022
2492 Clouds 16 996 70 10000 7.2 110 18:53 23.04.2022
2493 Clouds 17 995 64 10000 7.2 50 18:28 23.04.2022
2494 Clouds 18 995 62 10000 6.69 60 17:43 23.04.2022
2495 Rain 19 996 56 10000 7.2 60 16:43 23.04.2022
2496 Clouds 20 996 52 10000 7.2 60 15:32 23.04.2022
2497 Clear 17 996 64 10000 5.14 60 12:50 23.04.2022
2498 Clear 14 997 71 10000 4.12 40 10:50 23.04.2022
2499 Clear 12 997 74 10000 4.63 70 09:38 23.04.2022
2500 Clear 10 997 79 10000 4.12 50 07:38 23.04.2022
2501 Clear 11 998 75 10000 4.12 30 03:54 23.04.2022
2502 Clear 12 999 69 10000 3.6 40 01:32 23.04.2022
2503 Clear 14 1000 63 10000 4.12 50 23:32 22.04.2022
2504 Clear 15 1000 58 10000 4.12 60 22:28 22.04.2022
2505 Clear 16 1000 55 10000 5.14 60 21:44 22.04.2022
2506 Clear 17 1000 52 10000 5.14 50 20:55 22.04.2022
2507 Clear 17 1000 50 10000 5.66 40 20:28 22.04.2022
2508 Clear 18 1000 47 10000 4.12 50 19:22 22.04.2022
2509 Clear 19 1000 44 10000 5.14 70 18:46 22.04.2022
2510 Clear 19 1000 44 10000 4.63 70 17:54 22.04.2022
2511 Clear 19 1000 44 10000 5.14 60 16:52 22.04.2022
2512 Clear 19 1000 45 10000 5.14 60 15:47 22.04.2022
2513 Clear 19 1000 45 10000 6.17 30 15:21 22.04.2022
2514 Clear 18 1001 48 10000 6.17 70 13:54 22.04.2022
2515 Clouds 18 1001 48 10000 6.69 50 13:27 22.04.2022
2516 Clear 16 1002 51 10000 7.2 60 12:29 22.04.2022
2517 Clear 15 1002 57 10000 6.17 50 11:22 22.04.2022
2518 Clear 14 1002 61 10000 6.17 70 10:52 22.04.2022
2519 Clear 14 1002 64 10000 6.17 60 10:31 22.04.2022
2520 Clear 13 1002 67 10000 6.17 50 09:54 22.04.2022
2521 Clear 11 1002 71 10000 5.66 50 08:56 22.04.2022
2522 Clear 11 1003 74 10000 4.63 40 08:24 22.04.2022
2523 Clear 10 1003 75 10000 4.63 60 05:20 22.04.2022
2524 Clear 13 1005 58 10000 4.63 40 00:53 22.04.2022
2525 Clear 14 1005 58 10000 4.63 30 23:29 21.04.2022
2526 Clear 15 1005 58 10000 3.09 10 22:29 21.04.2022
2527 Clear 15 1005 58 10000 3.09 10 22:29 21.04.2022
2528 Clear 18 1005 48 10000 6.69 60 20:55 21.04.2022
2529 Clear 18 1005 47 10000 6.17 70 20:27 21.04.2022
2530 Clear 19 1005 44 10000 6.69 50 18:48 21.04.2022
2531 Clear 19 1005 43 10000 6.69 70 18:19 21.04.2022
2532 Clear 20 1005 40 10000 6.17 40 16:53 21.04.2022
2533 Clear 20 1006 36 10000 6.17 70 15:24 21.04.2022
2534 Clear 19 1007 37 10000 6.17 70 14:51 21.04.2022
2535 Clear 19 1007 37 10000 6.69 60 13:56 21.04.2022
2536 Clear 17 1007 40 10000 7.2 60 13:20 21.04.2022
2537 Clear 15 1008 49 10000 5.66 50 11:37 21.04.2022
2538 Clear 12 1009 55 10000 4.63 40 09:23 21.04.2022
2539 Clear 10 1009 61 10000 3.09 40 08:29 21.04.2022
2540 Clear 9 1009 59 10000 3.6 10 06:26 21.04.2022
2541 Clear 10 1010 59 10000 3.09 10 03:39 21.04.2022
2542 Clear 10 1010 60 10000 3.6 60 03:18 21.04.2022
2543 Clear 10 1010 63 10000 3.09 70 02:43 21.04.2022
2544 Clear 12 1011 55 10000 2.57 360 00:27 21.04.2022
2545 Clear 13 1010 52 10000 2.57 360 23:25 20.04.2022
2546 Clear 14 1010 49 10000 3.6 70 22:58 20.04.2022
2547 Clear 14 1010 48 10000 3.6 50 22:33 20.04.2022
2548 Clear 16 1010 41 10000 4.63 80 21:35 20.04.2022
2549 Clear 17 1010 36 10000 5.14 80 20:43 20.04.2022
2550 Clear 17 1010 36 10000 5.14 80 20:20 20.04.2022
2551 Clear 18 1010 35 10000 5.14 70 19:38 20.04.2022
2552 Clear 18 1010 35 10000 5.66 60 18:45 20.04.2022
2553 Clear 19 1010 37 10000 5.66 60 17:18 20.04.2022
2554 Clear 20 1010 38 10000 5.66 60 16:39 20.04.2022
2555 Clear 19 1010 41 10000 6.69 70 14:55 20.04.2022
2556 Clear 16 1012 55 10000 3.6 60 12:22 20.04.2022
2557 Clear 15 1012 59 10000 3.6 70 11:40 20.04.2022
2558 Clear 13 1012 67 10000 4.12 40 10:39 20.04.2022
2559 Clouds 10 1012 80 8000 3.09 10 09:28 20.04.2022
2560 Clouds 9 1012 84 6000 3.6 350 08:27 20.04.2022
2561 Clouds 8 1012 87 6000 3.6 350 07:53 20.04.2022
2562 Clouds 8 1011 87 9000 3.09 340 05:29 20.04.2022
2563 Clear 10 1012 78 10000 5.14 340 01:37 20.04.2022
2564 Clear 11 1013 71 10000 5.14 340 00:21 20.04.2022
2565 Clear 13 1013 66 10000 5.66 350 22:53 19.04.2022
2566 Clear 13 1013 67 10000 6.17 330 22:23 19.04.2022
2567 Clear 14 1013 65 10000 5.14 340 21:49 19.04.2022
2568 Clear 15 1012 63 10000 4.63 330 20:58 19.04.2022
2569 Clear 16 1012 61 10000 5.66 310 20:37 19.04.2022
2570 Clear 17 1012 56 10000 4.63 330 19:32 19.04.2022
2571 Clear 18 1012 54 10000 4.63 320 18:31 19.04.2022
2572 Clouds 18 1012 54 10000 4.63 330 16:55 19.04.2022
2573 Clouds 17 1012 56 10000 5.14 330 16:33 19.04.2022
2574 Clouds 17 1013 58 10000 4.12 280 15:59 19.04.2022
2575 Clouds 17 1013 58 10000 5.66 280 14:46 19.04.2022
2576 Clear 16 1014 59 10000 3.09 10 12:58 19.04.2022
2577 Clear 15 1014 61 10000 3.09 10 12:36 19.04.2022
2578 Clear 13 1014 62 10000 3.6 360 11:35 19.04.2022
2579 Clear 11 1015 76 10000 3.6 340 09:51 19.04.2022
2580 Clear 8 1015 86 10000 4.12 320 08:22 19.04.2022
2581 Clear 9 1015 77 10000 3.09 340 04:26 19.04.2022
2582 Clear 10 1015 80 10000 3.09 360 02:41 19.04.2022
2583 Clear 12 1016 80 10000 6.69 340 00:23 19.04.2022
2584 Clear 14 1016 73 10000 5.66 330 22:54 18.04.2022
2585 Clear 16 1015 45 10000 2.57 340 21:28 18.04.2022
2586 Clear 17 1015 40 10000 2.57 340 20:46 18.04.2022
2587 Clear 18 1014 38 10000 2.57 330 20:25 18.04.2022
2588 Clear 19 1014 36 10000 2.57 330 19:41 18.04.2022
2589 Clear 19 1014 34 10000 3.09 20 18:52 18.04.2022
2590 Clear 19 1015 32 10000 2.57 340 17:49 18.04.2022
2591 Clear 20 1015 31 10000 1.54 0 17:28 18.04.2022
2592 Clear 20 1015 32 10000 2.57 20 16:40 18.04.2022
2593 Clear 19 1015 32 10000 2.57 60 15:54 18.04.2022
2594 Clear 19 1016 34 10000 3.09 10 14:42 18.04.2022
2595 Clear 19 1016 33 10000 3.09 10 14:42 18.04.2022
2596 Clear 18 1016 38 10000 2.57 20 13:31 18.04.2022
2597 Clear 16 1017 42 10000 2.68 28 12:28 18.04.2022
2598 Clear 14 1017 47 10000 1.03 0 11:20 18.04.2022
2599 Clear 13 1017 50 10000 1.54 0 10:29 18.04.2022
2600 Clear 11 1017 57 10000 2.06 70 09:30 18.04.2022
2601 Clear 7 1017 63 10000 2.06 350 07:35 18.04.2022
2602 Clear 10 1017 54 10000 2.57 20 05:35 18.04.2022
2603 Clear 14 1018 49 10000 3.6 100 23:51 17.04.2022
2604 Clear 14 1019 48 10000 3.09 110 22:40 17.04.2022
2605 Clear 16 1018 45 10000 3.6 110 21:42 17.04.2022
2606 Clear 16 1018 42 10000 4.12 110 21:21 17.04.2022
2607 Clear 18 1019 36 10000 4.63 90 20:33 17.04.2022
2608 Clear 21 1019 29 10000 4.63 80 19:23 17.04.2022
2609 Clear 21 1019 28 10000 5.14 90 17:43 17.04.2022
2610 Clear 20 1020 30 10000 5.14 80 15:39 17.04.2022
2611 Clear 20 1021 29 10000 5.14 90 14:54 17.04.2022
2612 Clear 20 1021 29 10000 5.14 90 14:54 17.04.2022
2613 Clear 18 1022 32 10000 4.63 100 13:47 17.04.2022
2614 Clear 17 1022 35 10000 4.63 90 12:58 17.04.2022
2615 Clear 15 1023 40 10000 4.63 90 12:18 17.04.2022
2616 Clear 12 1024 48 10000 4.63 120 10:46 17.04.2022
2617 Clear 12 1024 49 10000 4.63 120 10:27 17.04.2022
2618 Clear 12 1024 49 10000 4.63 120 10:27 17.04.2022
2619 Clear 10 1025 54 10000 3.6 90 09:29 17.04.2022
2620 Clear 9 1025 61 10000 4.12 80 08:42 17.04.2022
2621 Clear 7 1025 63 10000 3.09 80 07:26 17.04.2022
2622 Clear 10 1025 64 10000 4.63 80 03:53 17.04.2022
2623 Clear 13 1026 59 10000 4.12 80 00:55 17.04.2022
2624 Clear 13 1026 60 10000 3.6 80 23:50 16.04.2022
2625 Clear 15 1026 58 10000 4.63 70 22:29 16.04.2022
2626 Clear 16 1026 53 10000 5.14 60 21:31 16.04.2022
2627 Clear 18 1026 49 10000 6.17 60 20:32 16.04.2022
2628 Clear 19 1025 45 10000 6.69 40 18:59 16.04.2022
2629 Clear 19 1026 46 10000 6.17 60 17:46 16.04.2022
2630 Clear 19 1026 45 10000 6.69 50 16:39 16.04.2022
2631 Clear 19 1026 44 10000 5.14 50 15:45 16.04.2022
2632 Clear 19 1027 45 10000 5.14 50 14:56 16.04.2022
2633 Clear 18 1027 50 10000 5.14 50 13:58 16.04.2022
2634 Clear 18 1027 53 10000 5.66 70 13:32 16.04.2022
2635 Clear 16 1027 66 10000 4.63 40 12:22 16.04.2022
2636 Clear 14 1027 71 9000 4.12 40 10:50 16.04.2022
2637 Clear 12 1027 77 9000 4.12 40 09:56 16.04.2022
2638 Clear 11 1027 82 9000 4.12 30 08:57 16.04.2022
2639 Clear 9 1027 87 8000 3.6 40 07:52 16.04.2022
2640 Clear 10 1026 85 10000 4.12 20 06:58 16.04.2022
2641 Clear 12 1027 78 10000 3.6 40 02:52 16.04.2022
2642 Clear 14 1026 72 10000 4.12 40 00:30 16.04.2022
2643 Clear 15 1026 67 10000 3.6 30 23:21 15.04.2022
2644 Clear 16 1026 63 10000 3.6 20 22:32 15.04.2022
2645 Clear 17 1025 61 10000 4.63 20 21:50 15.04.2022
2646 Clear 18 1025 59 10000 5.14 30 21:18 15.04.2022
2647 Clear 19 1025 56 10000 4.47 43 20:22 15.04.2022
2648 Clear 20 1025 53 10000 4.12 50 19:40 15.04.2022
2649 Clear 21 1024 51 10000 4.63 20 18:54 15.04.2022
2650 Clear 21 1024 50 10000 4.63 30 18:25 15.04.2022
2651 Clear 21 1024 49 10000 3.6 40 17:34 15.04.2022
2652 Clear 21 1024 48 10000 3.6 50 16:53 15.04.2022
2653 Clouds 21 1025 49 10000 3.6 10 16:19 15.04.2022
2654 Clouds 20 1025 50 10000 3.09 340 15:24 15.04.2022
2655 Clouds 19 1025 55 10000 2.57 0 13:41 15.04.2022
2656 Clear 18 1026 60 10000 3.6 10 12:42 15.04.2022
2657 Clear 18 1026 62 10000 3.6 360 11:57 15.04.2022
2658 Clear 18 1026 62 10000 3.6 360 11:57 15.04.2022
2659 Clear 18 1026 63 10000 3.09 360 11:34 15.04.2022
2660 Clear 16 1026 73 10000 2.06 10 10:43 15.04.2022
2661 Clear 14 1026 82 10000 2.06 360 09:47 15.04.2022
2662 Clear 12 1025 88 10000 1.54 340 09:21 15.04.2022
2663 Clear 10 1025 89 10000 1.54 330 07:44 15.04.2022
2664 Clear 10 1024 88 10000 1.54 270 06:37 15.04.2022
2665 Clear 12 1024 83 10000 1.54 20 03:21 15.04.2022
2666 Clear 15 1023 72 10000 3.09 40 23:32 14.04.2022
2667 Clear 15 1024 72 10000 2.06 10 22:49 14.04.2022
2668 Clear 16 1023 68 10000 3.09 60 22:31 14.04.2022
2669 Clear 16 1023 69 10000 3.6 60 21:59 14.04.2022
2670 Clear 17 1023 65 10000 3.6 50 21:30 14.04.2022
2671 Clear 20 1022 51 10000 3.09 360 19:24 14.04.2022
2672 Clear 21 1021 48 10000 3.09 360 18:30 14.04.2022
2673 Clear 21 1021 48 10000 3.09 320 17:44 14.04.2022
2674 Clear 21 1021 47 10000 3.09 360 16:46 14.04.2022
2675 Clear 20 1021 50 10000 2.57 360 15:48 14.04.2022
2676 Clouds 19 1022 59 10000 2.06 350 13:49 14.04.2022
2677 Clear 19 1022 62 10000 2.06 50 13:18 14.04.2022
2678 Clear 18 1022 68 10000 2.57 60 12:32 14.04.2022
2679 Clear 17 1022 79 10000 3.09 60 11:36 14.04.2022
2680 Clear 16 1022 84 10000 2.57 70 10:56 14.04.2022
2681 Clouds 14 1022 91 10000 2.06 80 10:27 14.04.2022
2682 Clouds 12 1022 95 9000 1.54 350 09:26 14.04.2022
2683 Mist 10 1021 95 2900 0.51 360 07:52 14.04.2022
2684 Fog 11 1020 96 6000 1.54 220 05:23 14.04.2022
2685 Clear 13 1020 91 10000 1.54 320 00:22 14.04.2022
2686 Clear 14 1020 88 10000 1.54 280 22:37 13.04.2022
2687 Clear 15 1020 83 10000 1.54 220 21:42 13.04.2022
2688 Clear 15 1019 77 10000 1.54 160 20:35 13.04.2022
2689 Clouds 16 1018 72 10000 2.06 150 19:47 13.04.2022
2690 Clouds 16 1018 72 10000 2.57 170 18:37 13.04.2022
2691 Clouds 16 1018 73 10000 1.03 0 17:25 13.04.2022
2692 Clouds 16 1018 76 10000 1.54 0 16:52 13.04.2022
2693 Clouds 15 1018 83 10000 2.06 210 15:45 13.04.2022
2694 Clouds 15 1018 83 10000 1.54 0 15:23 13.04.2022
2695 Drizzle 15 1018 85 10000 1.54 0 14:34 13.04.2022
2696 Rain 14 1018 87 10000 2.06 190 13:38 13.04.2022
2697 Rain 14 1017 89 10000 3.6 160 12:51 13.04.2022
2698 Rain 13 1017 96 9000 1.54 30 11:32 13.04.2022
2699 Rain 13 1016 95 4400 1.54 290 10:31 13.04.2022
2700 Rain 12 1015 96 9000 1.03 90 08:45 13.04.2022
2701 Rain 12 1014 95 10000 0.51 0 07:57 13.04.2022
2702 Rain 13 1014 93 10000 1.54 0 06:48 13.04.2022
2703 Rain 12 1014 91 10000 1.54 220 06:24 13.04.2022
2704 Clear 14 1013 78 10000 3.09 250 01:51 13.04.2022
2705 Clear 15 1012 74 10000 2.57 230 00:19 13.04.2022
2706 Clear 16 1011 71 10000 3.09 250 22:33 12.04.2022
2707 Clear 16 1011 68 10000 2.57 200 21:54 12.04.2022
2708 Clear 17 1010 64 10000 5.66 230 20:48 12.04.2022
2709 Clear 18 1010 62 10000 5.66 260 20:20 12.04.2022
2710 Clear 18 1010 59 10000 4.63 240 19:40 12.04.2022
2711 Clear 19 1009 58 10000 5.66 240 18:56 12.04.2022
2712 Clear 21 1008 50 10000 7.2 230 17:39 12.04.2022
2713 Clear 21 1008 47 10000 6.69 190 16:47 12.04.2022
2714 Clear 20 1008 49 10000 6.69 200 15:35 12.04.2022
2715 Clear 20 1008 47 10000 8.23 180 14:53 12.04.2022
2716 Clear 20 1007 50 10000 7.72 190 13:53 12.04.2022
2717 Clear 19 1007 51 10000 6.17 190 13:27 12.04.2022
2718 Clear 18 1007 52 10000 5.14 200 12:21 12.04.2022
2719 Clear 17 1007 53 10000 5.66 200 11:39 12.04.2022
2720 Clear 14 1008 65 10000 4.63 170 09:52 12.04.2022
2721 Clear 12 1007 77 10000 3.6 140 08:51 12.04.2022
2722 Clear 11 1006 79 10000 3.6 140 07:20 12.04.2022
2723 Clear 12 1006 78 10000 3.09 140 05:42 12.04.2022
2724 Clear 13 1006 76 10000 4.12 140 02:49 12.04.2022
2725 Clear 15 1007 65 10000 3.6 120 23:25 11.04.2022
2726 Clear 16 1007 62 10000 4.12 110 22:33 11.04.2022
2727 Clear 17 1007 56 10000 4.12 110 21:23 11.04.2022
2728 Clear 17 1007 53 10000 4.63 100 20:37 11.04.2022
2729 Clear 18 1007 50 10000 5.66 110 20:19 11.04.2022
2730 Clear 19 1007 44 10000 5.14 120 19:27 11.04.2022
2731 Clear 19 1007 42 10000 5.14 120 18:56 11.04.2022
2732 Clear 20 1008 40 10000 4.63 120 17:58 11.04.2022
2733 Clear 19 1008 38 10000 6.17 120 17:39 11.04.2022
2734 Clear 19 1008 41 10000 7.2 110 16:36 11.04.2022
2735 Clear 18 1009 44 10000 5.66 130 15:21 11.04.2022
2736 Clear 16 1010 48 10000 5.66 130 13:37 11.04.2022
2737 Clear 14 1010 50 10000 5.14 100 12:40 11.04.2022
2738 Clear 14 1010 51 10000 5.14 100 12:21 11.04.2022
2739 Clear 10 1011 61 10000 4.12 90 10:47 11.04.2022
2740 Clear 8 1011 64 10000 4.63 90 09:58 11.04.2022
2741 Clear 5 1012 72 10000 3.09 60 08:22 11.04.2022
2742 Clear 6 1013 73 10000 4.12 100 04:56 11.04.2022
2743 Clear 9 1016 65 10000 4.12 80 00:30 11.04.2022
2744 Clear 10 1017 61 10000 3.6 90 22:27 10.04.2022
2745 Clear 11 1017 59 10000 4.12 80 21:53 10.04.2022
2746 Clear 12 1017 54 10000 4.12 100 20:55 10.04.2022
2747 Clear 12 1017 50 10000 4.12 110 20:18 10.04.2022
2748 Clear 13 1017 48 10000 5.14 130 19:36 10.04.2022
2749 Clear 13 1017 46 10000 4.63 140 18:50 10.04.2022
2750 Clear 14 1018 45 10000 3.6 130 18:26 10.04.2022
2751 Clear 14 1018 45 10000 4.12 160 17:44 10.04.2022
2752 Clear 15 1018 44 10000 4.63 150 16:59 10.04.2022
2753 Clear 14 1019 45 10000 3.6 160 15:40 10.04.2022
2754 Clear 13 1020 46 10000 4.12 190 14:42 10.04.2022
2755 Clear 12 1021 47 10000 2.57 0 13:44 10.04.2022
2756 Clear 11 1022 55 10000 1.54 0 12:32 10.04.2022
2757 Clear 9 1021 62 10000 2.57 140 11:44 10.04.2022
2758 Clear 9 1021 65 10000 2.57 120 11:18 10.04.2022
2759 Clear 8 1021 70 10000 2.57 100 10:31 10.04.2022
2760 Clear 6 1021 82 10000 1.03 0 09:41 10.04.2022
2761 Clear 1 1021 91 9000 1.54 360 08:28 10.04.2022
2762 Clear 1 1021 90 8000 1.54 10 07:57 10.04.2022
2763 Clear 0 1021 91 8000 1.54 360 06:59 10.04.2022
2764 Clear 3 1020 84 10000 1.03 10 03:38 10.04.2022
2765 Clear 3 1020 82 10000 2.57 290 02:19 10.04.2022
2766 Clear 5 1020 79 10000 3.09 280 23:53 09.04.2022
2767 Clear 6 1019 75 10000 2.06 310 22:56 09.04.2022
2768 Clouds 6 1019 75 10000 2.06 310 22:33 09.04.2022
2769 Clear 8 1018 64 10000 2.57 320 21:19 09.04.2022
2770 Clear 10 1018 57 10000 4.12 330 20:30 09.04.2022
2771 Clear 10 1018 57 10000 4.63 300 19:57 09.04.2022
2772 Clear 10 1018 52 10000 4.63 340 19:39 09.04.2022
2773 Clear 11 1017 56 10000 5.14 350 18:23 09.04.2022
2774 Clear 11 1017 57 10000 4.63 330 17:49 09.04.2022
2775 Clouds 11 1017 61 10000 4.63 260 16:56 09.04.2022
2776 Clouds 10 1017 63 10000 4.63 280 16:38 09.04.2022
2777 Clouds 10 1017 66 10000 2.57 230 15:49 09.04.2022
2778 Clouds 10 1017 63 10000 3.6 280 15:49 09.04.2022
2779 Clouds 10 1017 66 10000 2.57 230 15:49 09.04.2022
2780 Clouds 9 1017 69 10000 2.57 230 15:25 09.04.2022
2781 Clouds 8 1017 81 10000 2.57 10 14:25 09.04.2022
2782 Clouds 7 1017 83 10000 4.63 320 13:26 09.04.2022
2783 Clouds 6 1016 87 10000 3.6 320 12:54 09.04.2022
2784 Clouds 6 1015 90 10000 4.12 320 11:50 09.04.2022
2785 Clouds 5 1015 93 10000 5.14 300 10:52 09.04.2022
2786 Clouds 5 1014 95 10000 4.63 280 10:18 09.04.2022
2787 Clouds 4 1014 95 10000 3.6 270 09:22 09.04.2022
2788 Clouds 3 1013 96 10000 1.03 240 08:18 09.04.2022
2789 Drizzle 4 1011 94 10000 5.14 250 04:38 09.04.2022
2790 Clouds 4 1007 94 10000 6.17 280 00:35 09.04.2022
2791 Clouds 4 1006 95 10000 4.63 280 23:23 08.04.2022
2792 Clouds 3 1003 96 10000 7.2 340 21:53 08.04.2022
2793 Clouds 2 998 96 10000 6.69 360 20:44 08.04.2022
2794 Clouds 2 997 96 10000 7.72 10 19:50 08.04.2022
2795 Clouds 4 995 96 10000 8.75 10 18:56 08.04.2022
2796 Clouds 4 994 96 10000 7.2 20 18:24 08.04.2022
2797 Mist 6 993 96 5000 5.14 30 17:29 08.04.2022
2798 Drizzle 6 993 97 10000 4.63 70 16:58 08.04.2022
2799 Clouds 6 994 94 10000 6.69 360 16:31 08.04.2022
2800 Drizzle 8 994 96 10000 7.6 42 15:37 08.04.2022
2801 Clouds 7 993 97 10000 3.6 70 14:52 08.04.2022
2802 Rain 6 994 96 10000 5.66 60 14:21 08.04.2022
2803 Rain 6 994 96 10000 5.14 60 13:36 08.04.2022
2804 Rain 6 995 96 9000 5.66 30 13:18 08.04.2022
2805 Rain 6 996 94 9000 5.66 70 11:41 08.04.2022
2806 Rain 6 997 94 7000 5.14 50 10:26 08.04.2022
2807 Rain 7 999 92 6000 2.57 70 09:20 08.04.2022
2808 Rain 7 1000 89 10000 1.54 170 07:58 08.04.2022
2809 Rain 8 1002 84 10000 3.09 220 06:47 08.04.2022
2810 Clear 8 1004 72 10000 5.14 240 03:48 08.04.2022
2811 Clouds 9 1004 67 10000 7.2 270 00:32 08.04.2022
2812 Clear 9 1004 66 10000 6.17 260 23:53 07.04.2022
2813 Clouds 10 1003 66 10000 7.2 270 22:57 07.04.2022
2814 Clear 10 1003 66 10000 8.75 270 22:37 07.04.2022
2815 Clouds 10 1002 65 10000 8.23 250 22:19 07.04.2022
2816 Clouds 11 1001 62 10000 8.75 270 21:33 07.04.2022
2817 Clear 12 1000 57 10000 8.75 270 20:57 07.04.2022
2818 Clear 12 1000 57 10000 10.29 270 20:28 07.04.2022
2819 Clouds 15 997 54 10000 12.86 270 17:51 07.04.2022
2820 Clouds 15 997 56 10000 12.86 270 17:24 07.04.2022
2821 Clouds 15 997 59 10000 10.8 280 16:42 07.04.2022
2822 Clouds 15 996 61 10000 12.86 280 15:58 07.04.2022
2823 Clouds 14 995 76 10000 10.29 280 14:31 07.04.2022
2824 Rain 13 994 87 10000 9.77 270 13:41 07.04.2022
2825 Rain 14 993 82 10000 12.35 230 12:28 07.04.2022
2826 Clouds 13 993 89 10000 10.8 230 10:58 07.04.2022
2827 Clouds 12 993 90 10000 10.29 210 09:36 07.04.2022
2828 Clouds 12 993 87 10000 9.77 210 08:37 07.04.2022
2829 Rain 11 995 92 10000 8.75 200 06:42 07.04.2022
2830 Clouds 11 1000 84 10000 8.23 230 02:43 07.04.2022
2831 Clouds 11 1000 86 10000 7.72 210 01:52 07.04.2022
2832 Clouds 11 1002 85 10000 8.75 210 23:57 06.04.2022
2833 Clouds 11 1002 80 10000 9.26 210 22:48 06.04.2022
2834 Clouds 11 1002 77 10000 8.23 230 22:25 06.04.2022
2835 Clouds 12 1002 74 10000 7.72 210 21:32 06.04.2022
2836 Clouds 12 1002 75 10000 8.23 220 20:35 06.04.2022
2837 Clouds 12 1002 74 10000 8.23 210 19:53 06.04.2022
2838 Clouds 13 1003 71 10000 7.72 210 18:51 06.04.2022
2839 Clouds 13 1003 70 10000 8.23 210 18:22 06.04.2022
2840 Clouds 13 1003 70 10000 8.75 210 17:35 06.04.2022
2841 Clouds 13 1004 68 10000 8.23 240 16:38 06.04.2022
2842 Clouds 13 1005 70 10000 8.23 210 15:48 06.04.2022
2843 Clouds 12 1006 71 10000 7.2 210 14:57 06.04.2022
2844 Clouds 11 1007 73 10000 7.2 240 13:24 06.04.2022
2845 Clouds 11 1008 74 10000 7.2 230 12:26 06.04.2022
2846 Clouds 10 1008 79 10000 4.63 220 10:48 06.04.2022
2847 Clouds 9 1008 80 10000 4.63 220 10:29 06.04.2022
2848 Clouds 9 1008 82 10000 4.63 210 09:40 06.04.2022
2849 Clouds 9 1008 82 10000 4.63 210 09:40 06.04.2022
2850 Clouds 8 1009 83 10000 4.63 230 08:32 06.04.2022
2851 Clouds 8 1009 82 10000 4.12 230 07:50 06.04.2022
2852 Clouds 8 1010 82 10000 4.63 250 04:30 06.04.2022
2853 Clouds 11 1012 78 10000 6.17 250 23:54 05.04.2022
2854 Clouds 11 1012 79 10000 3.6 240 22:58 05.04.2022
2855 Clouds 12 1011 82 10000 5.14 280 21:23 05.04.2022
2856 Clouds 12 1011 84 10000 4.63 260 20:26 05.04.2022
2857 Clouds 13 1011 83 10000 5.14 260 19:47 05.04.2022
2858 Clouds 13 1011 83 10000 5.14 250 18:18 05.04.2022
2859 Clouds 13 1012 86 10000 5.66 240 16:55 05.04.2022
2860 Clouds 12 1012 88 10000 4.63 250 16:35 05.04.2022
2861 Clouds 12 1013 91 10000 4.63 240 15:35 05.04.2022
2862 Clouds 11 1013 93 10000 4.63 240 14:37 05.04.2022
2863 Mist 11 1013 95 10000 4.63 230 13:38 05.04.2022
2864 Mist 10 1013 94 8000 4.63 230 11:51 05.04.2022
2865 Mist 10 1013 94 8000 4.63 230 11:51 05.04.2022
2866 Mist 10 1013 95 7000 4.63 240 11:33 05.04.2022
2867 Mist 9 1013 94 6000 5.14 240 10:52 05.04.2022
2868 Clouds 8 1013 93 10000 4.12 230 08:55 05.04.2022
2869 Mist 8 1013 93 6000 5.14 230 07:24 05.04.2022
2870 Clouds 8 1014 77 10000 6.69 230 02:43 05.04.2022
2871 Clouds 8 1015 66 10000 6.17 240 23:18 04.04.2022
2872 Clouds 8 1015 66 10000 5.66 230 22:29 04.04.2022
2873 Clouds 8 1015 65 10000 6.17 240 21:22 04.04.2022
2874 Clouds 8 1015 66 10000 6.17 240 20:53 04.04.2022
2875 Clouds 8 1015 62 10000 7.72 230 20:35 04.04.2022
2876 Clouds 9 1015 62 10000 7.2 250 19:26 04.04.2022
2877 Clouds 9 1015 62 10000 7.72 260 18:39 04.04.2022
2878 Clouds 9 1016 59 10000 8.23 250 17:19 04.04.2022
2879 Clouds 10 1016 51 10000 8.23 250 16:27 04.04.2022
2880 Clouds 10 1017 46 10000 8.75 240 15:33 04.04.2022
2881 Clear 10 1017 45 10000 8.23 260 14:46 04.04.2022
2882 Clear 10 1018 41 10000 7.72 230 13:58 04.04.2022
2883 Clear 9 1019 44 10000 7.72 230 12:58 04.04.2022
2884 Clear 8 1020 54 10000 8.23 230 11:29 04.04.2022
2885 Clear 4 1020 70 10000 5.14 240 09:53 04.04.2022
2886 Clear 1 1022 82 10000 2.57 260 05:34 04.04.2022
2887 Clear 1 1023 80 10000 2.57 320 02:51 04.04.2022
2888 Clear 5 1023 62 10000 3.09 320 23:19 03.04.2022
2889 Clear 6 1023 50 10000 2.57 30 22:00 03.04.2022
2890 Clear 6 1023 48 10000 3.09 40 21:27 03.04.2022
2891 Clear 7 1022 45 10000 3.6 10 20:30 03.04.2022
2892 Clear 8 1022 41 10000 5.14 360 18:46 03.04.2022
2893 Clear 8 1022 40 10000 5.14 10 17:56 03.04.2022
2894 Clear 8 1022 40 10000 5.14 10 17:36 03.04.2022
2895 Clear 9 1022 40 10000 7.2 20 16:50 03.04.2022
2896 Clear 8 1023 41 10000 6.17 30 15:56 03.04.2022
2897 Clear 8 1023 41 10000 7.2 10 14:25 03.04.2022
2898 Clear 7 1024 41 10000 7.72 30 13:28 03.04.2022
2899 Clear 6 1024 46 10000 5.66 360 11:51 03.04.2022
2900 Clear 3 1023 66 10000 5.14 20 09:59 03.04.2022
2901 Clear 2 1023 70 10000 3.6 350 09:18 03.04.2022
2902 Clear 3 1022 69 10000 4.12 20 06:28 03.04.2022
2903 Clear 4 1022 63 10000 4.63 30 02:56 03.04.2022
2904 Clear 4 1021 58 10000 5.14 50 23:50 02.04.2022
2905 Clear 4 1021 58 10000 4.63 40 22:51 02.04.2022
2906 Clear 5 1020 58 10000 6.17 50 21:56 02.04.2022
2907 Clear 5 1020 58 10000 6.17 50 21:56 02.04.2022
2908 Clear 5 1020 57 10000 5.14 50 21:26 02.04.2022
2909 Clear 5 1019 52 10000 7.2 30 20:39 02.04.2022
2910 Clear 7 1018 45 10000 7.72 30 18:51 02.04.2022
2911 Clear 7 1018 44 10000 7.72 20 18:20 02.04.2022
2912 Clear 7 1017 43 10000 7.72 20 17:43 02.04.2022
2913 Clear 7 1018 43 10000 9.77 20 15:59 02.04.2022
2914 Clouds 7 1018 41 10000 9.39 42 15:20 02.04.2022
2915 Clear 7 1017 44 10000 9.77 10 14:42 02.04.2022
2916 Clear 6 1017 49 10000 9.26 30 13:34 02.04.2022
2917 Clouds 6 1017 52 10000 8.75 20 12:34 02.04.2022
2918 Clouds 4 1017 62 10000 8.23 10 10:50 02.04.2022
2919 Clear 1 1016 77 10000 5.14 330 08:44 02.04.2022
2920 Clear 1 1014 77 10000 5.66 360 06:43 02.04.2022
2921 Clear 3 1014 73 10000 6.17 360 03:31 02.04.2022
2922 Clear 3 1014 81 10000 5.66 360 23:55 01.04.2022
2923 Clear 3 1013 79 10000 7.72 20 23:18 01.04.2022
2924 Clouds 3 1012 81 10000 7.6 43 21:32 01.04.2022
2925 Clouds 3 1011 81 10000 7.72 10 20:50 01.04.2022
2926 Clouds 3 1010 81 10000 5.66 360 19:57 01.04.2022
2927 Clouds 3 1010 83 10000 8.75 20 19:31 01.04.2022
2928 Clouds 3 1010 85 10000 9.39 41 18:45 01.04.2022
2929 Snow 2 1009 89 10000 8.23 10 17:46 01.04.2022
2930 Snow 2 1009 91 10000 8.75 20 16:48 01.04.2022
2931 Rain 2 1008 88 10000 7.2 360 15:36 01.04.2022
2932 Snow 2 1007 87 10000 6.69 10 14:20 01.04.2022
2933 Rain 2 1007 87 10000 7.2 360 13:33 01.04.2022
2934 Clouds 2 1007 89 10000 8.23 360 12:32 01.04.2022
2935 Rain 1 1006 93 10000 7.6 43 11:37 01.04.2022
2936 Snow 1 1005 92 5000 5.66 320 10:18 01.04.2022
2937 Snow 1 1004 88 3800 8.75 330 08:30 01.04.2022
2938 Snow 2 1003 89 10000 9.26 300 06:39 01.04.2022
2939 Clouds 2 1004 84 10000 9.26 300 04:49 01.04.2022
2940 Clouds 2 1004 81 10000 9.77 320 04:30 01.04.2022
2941 Clouds 3 1005 73 10000 8.23 340 01:55 01.04.2022
2942 Clouds 4 1004 75 10000 9.26 350 22:58 31.03.2022
2943 Clouds 4 1004 76 10000 8.23 360 21:50 31.03.2022
2944 Clouds 4 1003 76 10000 8.23 360 21:32 31.03.2022
2945 Clouds 5 1002 74 10000 10.73 39 20:29 31.03.2022
2946 Clouds 7 1002 65 10000 7.2 330 19:48 31.03.2022
2947 Clouds 7 1001 63 10000 7.2 320 18:44 31.03.2022
2948 Clouds 7 1001 69 10000 6.69 330 17:49 31.03.2022
2949 Clouds 7 1002 67 10000 5.66 10 16:38 31.03.2022
2950 Clouds 7 1002 75 10000 5.14 360 15:43 31.03.2022
2951 Rain 6 1002 79 10000 7.15 43 15:19 31.03.2022
2952 Clouds 5 1002 82 10000 7.2 20 14:35 31.03.2022
2953 Rain 4 1001 92 10000 6.17 340 11:57 31.03.2022
2954 Rain 4 1001 89 10000 7.2 320 11:20 31.03.2022
2955 Mist 6 1000 89 5000 4.12 10 09:45 31.03.2022
2956 Mist 5 999 88 6000 2.57 340 07:59 31.03.2022
2957 Clouds 6 999 87 7000 3.6 340 05:23 31.03.2022
2958 Mist 9 1001 88 7000 3.6 360 23:58 30.03.2022
2959 Clouds 9 1001 86 6000 4.63 10 22:43 30.03.2022
2960 Clouds 10 1000 85 8000 5.14 10 21:39 30.03.2022
2961 Clouds 10 1000 85 9000 5.14 20 20:54 30.03.2022
2962 Mist 10 1000 87 8000 5.14 10 20:20 30.03.2022
2963 Mist 12 1000 84 9000 4.63 350 19:28 30.03.2022
2964 Clouds 12 1000 85 10000 3.09 340 18:28 30.03.2022
2965 Mist 12 1000 83 10000 2.57 350 17:47 30.03.2022
2966 Mist 13 1000 80 10000 4.12 220 16:57 30.03.2022
2967 Mist 13 1000 79 10000 3.6 330 16:33 30.03.2022
2968 Clouds 13 1001 77 9000 2.57 10 15:24 30.03.2022
2969 Mist 12 1002 88 5000 2.57 60 13:44 30.03.2022
2970 Mist 12 1002 90 4300 2.57 60 12:57 30.03.2022
2971 Rain 10 1003 94 2800 2.57 30 11:27 30.03.2022
2972 Mist 11 1003 94 3200 2.57 30 11:27 30.03.2022
2973 Mist 10 1003 96 2700 1.54 0 10:28 30.03.2022
2974 Mist 10 1003 97 3000 1.54 350 09:24 30.03.2022
2975 Mist 10 1003 93 3400 1.03 0 07:33 30.03.2022
2976 Fog 10 1003 93 3700 1.54 70 05:41 30.03.2022
2977 Mist 10 1004 93 4700 1.54 350 03:52 30.03.2022
2978 Rain 11 1006 88 10000 1.54 270 00:42 30.03.2022
2979 Clear 12 1006 82 10000 2.06 30 22:28 29.03.2022
2980 Clear 12 1006 82 10000 2.57 50 21:45 29.03.2022
2981 Clear 12 1006 80 10000 3.6 60 20:53 29.03.2022
2982 Clear 12 1006 83 10000 3.09 60 20:19 29.03.2022
2983 Clouds 13 1006 80 10000 3.6 10 18:56 29.03.2022
2984 Clouds 13 1006 77 10000 3.09 340 18:21 29.03.2022
2985 Clouds 14 1007 75 10000 2.57 270 17:35 29.03.2022
2986 Rain 14 1007 73 10000 4.12 290 16:57 29.03.2022
2987 Rain 15 1008 66 10000 4.63 300 15:57 29.03.2022
2988 Clear 17 1008 49 10000 6.17 250 14:53 29.03.2022
2989 Clear 17 1008 46 10000 3.09 50 13:58 29.03.2022
2990 Clear 17 1009 49 10000 2.57 20 12:53 29.03.2022
2991 Clouds 15 1009 53 10000 3.09 20 11:43 29.03.2022
2992 Clear 14 1010 55 10000 3.6 50 10:51 29.03.2022
2993 Clear 13 1011 58 10000 2.06 340 09:49 29.03.2022
2994 Clear 12 1010 57 10000 2.06 360 07:35 29.03.2022
2995 Clear 13 1012 54 10000 2.57 60 04:41 29.03.2022
2996 Clear 14 1015 50 10000 2.57 70 00:35 29.03.2022
2997 Clear 15 1015 45 10000 3.09 70 23:23 28.03.2022
2998 Clear 15 1016 45 10000 3.09 70 22:52 28.03.2022
2999 Clear 16 1016 42 10000 3.09 50 22:26 28.03.2022
3000 Clear 17 1016 40 10000 3.6 60 20:56 28.03.2022
3001 Clear 19 1016 35 10000 2.57 50 20:21 28.03.2022
3002 Clear 20 1016 32 10000 3.09 60 19:44 28.03.2022
3003 Clear 20 1017 32 10000 3.09 60 19:25 28.03.2022
3004 Clear 21 1017 31 10000 2.57 50 18:37 28.03.2022
3005 Clear 21 1018 29 10000 2.57 50 17:39 28.03.2022
3006 Clear 21 1019 29 10000 2.06 50 16:20 28.03.2022
3007 Clear 21 1021 34 10000 3.09 70 14:47 28.03.2022
3008 Clear 21 1021 35 10000 3.09 70 14:21 28.03.2022
3009 Clear 17 1023 55 10000 2.57 80 12:20 28.03.2022
3010 Clouds 15 1023 67 7000 2.06 60 11:24 28.03.2022
3011 Mist 11 1024 81 4500 2.06 70 09:43 28.03.2022
3012 Mist 9 1023 82 4300 1.54 10 09:19 28.03.2022
3013 Mist 8 1024 84 4400 2.06 40 08:22 28.03.2022
3014 Mist 8 1024 83 5000 1.03 40 07:28 28.03.2022
3015 Clear 10 1025 69 10000 1.03 350 03:44 28.03.2022
3016 Clear 13 1026 46 10000 2.57 350 23:30 27.03.2022
3017 Clear 14 1026 45 10000 1.03 80 22:24 27.03.2022
3018 Clear 15 1026 44 10000 2.06 360 22:24 27.03.2022
3019 Clear 16 1026 40 10000 2.57 70 21:42 27.03.2022
3020 Clear 16 1026 38 10000 2.57 40 20:57 27.03.2022
3021 Clear 19 1025 31 10000 3.09 40 19:48 27.03.2022
3022 Clear 20 1025 30 10000 3.6 50 19:24 27.03.2022
3023 Clear 21 1025 30 10000 3.09 80 18:27 27.03.2022
3024 Clear 21 1025 30 10000 4.12 90 17:39 27.03.2022
3025 Clear 21 1026 31 10000 4.63 60 16:28 27.03.2022
3026 Clear 20 1026 34 10000 5.14 80 15:21 27.03.2022
3027 Clear 18 1027 42 10000 4.63 50 13:55 27.03.2022
3028 Clear 16 1028 50 10000 3.6 50 12:31 27.03.2022
3029 Clear 13 1028 59 10000 4.12 40 10:57 27.03.2022
3030 Clear 9 1028 70 10000 3.6 40 08:51 27.03.2022
3031 Clear 9 1027 67 10000 4.12 30 05:54 27.03.2022
3032 Clear 12 1028 55 10000 5.14 50 00:48 27.03.2022
3033 Clear 13 1028 52 10000 5.14 40 23:42 26.03.2022
3034 Clear 13 1027 47 10000 4.12 30 22:36 26.03.2022
3035 Clear 15 1027 39 10000 5.14 50 21:34 26.03.2022
3036 Clear 15 1026 35 10000 5.66 60 20:52 26.03.2022
3037 Clear 18 1026 28 10000 6.69 50 19:21 26.03.2022
3038 Clear 19 1026 27 10000 7.72 60 17:54 26.03.2022
3039 Clear 19 1026 27 10000 7.2 40 17:33 26.03.2022
3040 Clear 19 1026 29 10000 6.69 60 16:27 26.03.2022
3041 Clear 19 1026 31 10000 6.69 50 14:57 26.03.2022
3042 Clear 19 1027 31 10000 7.2 60 13:53 26.03.2022
3043 Clear 18 1027 34 10000 8.23 60 12:59 26.03.2022
3044 Clear 16 1028 42 10000 5.66 50 11:41 26.03.2022
3045 Clear 16 1028 42 10000 5.66 50 11:41 26.03.2022
3046 Clear 12 1028 51 10000 4.12 40 10:22 26.03.2022
3047 Clear 9 1028 62 8000 3.6 30 08:35 26.03.2022
3048 Clear 8 1027 63 9000 4.12 30 05:54 26.03.2022
3049 Clear 9 1027 61 10000 4.12 30 04:23 26.03.2022
3050 Clear 11 1027 51 10000 5.14 30 00:22 26.03.2022
3051 Clear 14 1027 44 10000 5.14 40 21:49 25.03.2022
3052 Clear 15 1027 41 10000 5.14 40 20:46 25.03.2022
3053 Clear 16 1026 36 10000 5.66 40 19:38 25.03.2022
3054 Clear 17 1026 33 10000 6.17 40 18:47 25.03.2022
3055 Clear 19 1026 29 10000 6.17 40 17:47 25.03.2022
3056 Clear 19 1026 29 10000 6.17 40 17:26 25.03.2022
3057 Clear 19 1026 27 10000 6.69 60 16:18 25.03.2022
3058 Clear 19 1027 30 10000 5.66 30 14:26 25.03.2022
3059 Clear 18 1028 34 10000 5.14 60 12:48 25.03.2022
3060 Clear 13 1028 46 10000 4.63 30 10:22 25.03.2022
3061 Clear 11 1028 52 9000 4.12 30 09:28 25.03.2022
3062 Clear 8 1027 57 10000 4.12 40 07:54 25.03.2022
3063 Clear 8 1027 57 10000 4.12 30 07:27 25.03.2022
3064 Clear 8 1027 54 10000 3.09 40 05:55 25.03.2022
3065 Clear 12 1027 44 10000 4.63 40 00:46 25.03.2022
3066 Clear 13 1027 44 10000 3.6 40 22:51 24.03.2022
3067 Clear 14 1026 44 10000 3.09 50 21:45 24.03.2022
3068 Clear 15 1026 38 10000 3.6 20 20:26 24.03.2022
3069 Clear 17 1026 37 10000 3.6 60 19:47 24.03.2022
3070 Clear 20 1025 29 10000 3.6 40 17:47 24.03.2022
3071 Clear 20 1025 28 10000 3.6 50 17:19 24.03.2022
3072 Clear 20 1026 29 10000 2.57 30 15:45 24.03.2022
3073 Clear 20 1026 29 10000 3.09 50 14:48 24.03.2022
3074 Clear 20 1027 30 10000 4.12 60 14:18 24.03.2022
3075 Clear 19 1027 34 10000 4.63 80 13:23 24.03.2022
3076 Clear 16 1028 39 10000 3.09 90 11:47 24.03.2022
3077 Clear 12 1028 53 10000 2.57 70 09:55 24.03.2022
3078 Clear 9 1028 61 10000 3.09 70 08:42 24.03.2022
3079 Clear 7 1027 61 10000 2.06 60 06:49 24.03.2022
3080 Clear 8 1028 54 10000 2.57 360 03:57 24.03.2022
3081 Clear 11 1028 47 10000 3.09 60 23:20 23.03.2022
3082 Clear 12 1028 47 10000 2.57 70 21:40 23.03.2022
3083 Clear 13 1028 43 10000 2.06 50 21:18 23.03.2022
3084 Clear 15 1028 38 10000 3.09 80 19:46 23.03.2022
3085 Clear 17 1028 34 10000 4.63 70 18:55 23.03.2022
3086 Clear 18 1028 31 10000 3.6 110 17:37 23.03.2022
3087 Clear 19 1028 32 10000 5.66 90 16:39 23.03.2022
3088 Clear 18 1029 31 10000 4.12 130 14:51 23.03.2022
3089 Clear 18 1029 31 10000 4.12 130 14:26 23.03.2022
3090 Clear 17 1030 33 10000 3.6 100 12:55 23.03.2022
3091 Clear 12 1031 49 10000 2.57 150 10:20 23.03.2022
3092 Clear 6 1029 62 10000 1.54 200 06:55 23.03.2022
3093 Clear 7 1029 62 10000 2.57 60 05:27 23.03.2022
3094 Clear 10 1028 62 8000 2.57 120 00:35 23.03.2022
3095 Clear 11 1028 61 9000 2.06 70 23:41 22.03.2022
3096 Clear 13 1028 54 10000 3.6 70 21:30 22.03.2022
3097 Clear 14 1028 49 10000 3.6 60 20:51 22.03.2022
3098 Clear 15 1027 43 10000 3.6 100 19:52 22.03.2022
3099 Clear 15 1027 42 10000 3.6 100 19:25 22.03.2022
3100 Clear 17 1027 37 10000 5.14 110 18:45 22.03.2022
3101 Clear 18 1027 32 10000 6.69 110 17:38 22.03.2022
3102 Clear 18 1027 32 10000 7.2 110 16:32 22.03.2022
3103 Clear 18 1027 33 10000 7.2 120 15:23 22.03.2022
3104 Clear 18 1028 34 10000 6.69 110 14:59 22.03.2022
3105 Clear 18 1028 34 10000 4.63 100 14:41 22.03.2022
3106 Clear 17 1028 33 10000 4.12 150 13:36 22.03.2022
3107 Clear 15 1029 34 10000 5.66 170 11:52 22.03.2022
3108 Clear 13 1030 42 10000 5.66 200 10:46 22.03.2022
3109 Clear 9 1029 69 10000 2.06 140 08:40 22.03.2022
3110 Clear 8 1029 75 10000 3.09 150 06:58 22.03.2022
3111 Clear 10 1028 69 10000 3.09 60 03:54 22.03.2022
3112 Clear 11 1028 72 10000 2.57 130 00:34 22.03.2022
3113 Clear 12 1028 68 10000 2.06 110 22:42 21.03.2022
3114 Clear 14 1027 65 10000 3.09 90 21:20 21.03.2022
3115 Clear 14 1027 64 10000 3.09 90 20:42 21.03.2022
3116 Clear 15 1027 59 10000 2.57 110 19:59 21.03.2022
3117 Clear 16 1027 57 10000 3.09 130 19:35 21.03.2022
3118 Clear 17 1026 53 10000 3.6 140 18:46 21.03.2022
3119 Clear 18 1026 49 10000 5.14 120 17:35 21.03.2022
3120 Clear 18 1027 48 10000 5.14 150 16:58 21.03.2022
3121 Clear 18 1026 47 10000 4.63 150 16:24 21.03.2022
3122 Clear 18 1027 48 10000 4.12 120 15:21 21.03.2022
3123 Clear 18 1027 50 10000 3.6 90 14:29 21.03.2022
3124 Clear 17 1028 52 10000 2.57 150 12:58 21.03.2022
3125 Clear 16 1028 55 10000 2.57 130 11:57 21.03.2022
3126 Clear 14 1029 61 10000 3.6 160 10:59 21.03.2022
3127 Clear 11 1029 74 10000 2.06 150 09:42 21.03.2022
3128 Clear 7 1028 82 9000 2.06 150 07:22 21.03.2022
3129 Clouds 7 1027 83 9000 1.54 10 05:42 21.03.2022
3130 Clear 6 1027 76 10000 2.06 30 00:46 21.03.2022
3131 Clear 8 1027 65 10000 2.06 100 22:57 20.03.2022
3132 Clouds 9 1027 64 10000 2.57 110 22:23 20.03.2022
3133 Clouds 9 1027 60 10000 3.09 100 21:37 20.03.2022
3134 Clouds 9 1026 58 10000 2.57 110 20:54 20.03.2022
3135 Clear 10 1026 55 10000 2.57 130 20:27 20.03.2022
3136 Clear 10 1026 52 10000 2.57 120 19:48 20.03.2022
3137 Clear 10 1026 50 10000 2.57 140 19:19 20.03.2022
3138 Clear 12 1025 39 10000 4.12 150 17:44 20.03.2022
3139 Clear 12 1025 38 10000 4.12 150 17:24 20.03.2022
3140 Clear 13 1025 35 10000 3.09 160 15:58 20.03.2022
3141 Clear 13 1025 38 10000 2.57 120 14:38 20.03.2022
3142 Clear 11 1026 42 10000 3.09 100 13:38 20.03.2022
3143 Clear 10 1026 45 10000 3.6 90 12:19 20.03.2022
3144 Clear 7 1026 62 10000 2.57 50 09:59 20.03.2022
3145 Clear 4 1026 68 10000 3.09 360 08:20 20.03.2022
3146 Clear 4 1025 65 10000 4.63 50 06:37 20.03.2022
3147 Clear 6 1026 50 10000 6.17 70 03:18 20.03.2022
3148 Clear 8 1027 45 10000 6.17 80 00:54 20.03.2022
3149 Clear 9 1027 44 10000 6.17 80 00:34 20.03.2022
3150 Clear 10 1028 51 10000 5.14 90 22:31 19.03.2022
3151 Clear 11 1028 50 10000 4.12 60 21:26 19.03.2022
3152 Clear 14 1028 43 10000 6.17 50 19:29 19.03.2022
3153 Clear 14 1028 41 10000 6.17 50 18:44 19.03.2022
3154 Clear 16 1028 39 10000 8.75 50 17:52 19.03.2022
3155 Clear 16 1028 39 10000 8.75 50 17:33 19.03.2022
3156 Clear 16 1030 40 10000 7.72 60 15:40 19.03.2022
3157 Clear 15 1031 43 10000 8.75 70 14:19 19.03.2022
3158 Clear 14 1032 45 10000 8.23 80 12:56 19.03.2022
3159 Clear 13 1033 47 10000 8.75 80 12:37 19.03.2022
3160 Clear 12 1033 51 10000 9.26 70 11:46 19.03.2022
3161 Clear 8 1034 67 10000 8.23 70 09:31 19.03.2022
3162 Clear 7 1034 60 10000 7.72 70 05:44 19.03.2022
3163 Clear 8 1035 51 10000 6.69 60 02:34 19.03.2022
3164 Clear 9 1036 51 10000 7.2 50 00:32 19.03.2022
3165 Clear 10 1036 47 10000 7.2 50 23:19 18.03.2022
3166 Clear 11 1036 45 10000 6.69 40 22:22 18.03.2022
3167 Clear 12 1036 39 10000 7.2 50 20:40 18.03.2022
3168 Clear 13 1036 38 10000 6.69 50 19:48 18.03.2022
3169 Clear 14 1036 36 10000 7.2 50 19:19 18.03.2022
3170 Clear 15 1035 34 10000 9.26 50 17:27 18.03.2022
3171 Clear 15 1036 32 10000 10.8 60 16:42 18.03.2022
3172 Clear 15 1037 33 10000 9.26 50 14:29 18.03.2022
3173 Clear 13 1038 38 10000 8.23 50 13:41 18.03.2022
3174 Clear 12 1038 44 10000 8.23 60 12:18 18.03.2022
3175 Clear 8 1038 63 10000 7.2 40 10:27 18.03.2022
3176 Clear 6 1038 74 10000 6.17 50 09:20 18.03.2022
3177 Clear 5 1038 80 10000 6.17 40 07:45 18.03.2022
3178 Clear 5 1037 86 10000 5.66 30 05:39 18.03.2022
3179 Clear 5 1037 86 10000 4.63 20 02:44 18.03.2022
3180 Clear 6 1037 84 10000 4.12 360 00:21 18.03.2022
3181 Clear 7 1037 82 10000 4.12 20 22:56 17.03.2022
3182 Clear 7 1036 82 10000 3.6 20 22:22 17.03.2022
3183 Clear 7 1036 80 10000 4.63 20 21:47 17.03.2022
3184 Clear 7 1035 78 10000 4.12 20 21:19 17.03.2022
3185 Clear 8 1035 77 10000 5.14 20 20:32 17.03.2022
3186 Clear 8 1034 75 10000 4.63 20 19:41 17.03.2022
3187 Clear 8 1034 74 10000 4.12 20 18:57 17.03.2022
3188 Clear 9 1033 69 10000 6.69 20 17:55 17.03.2022
3189 Clouds 9 1033 69 10000 5.14 10 16:43 17.03.2022
3190 Clouds 9 1032 68 10000 5.14 10 15:44 17.03.2022
3191 Clouds 9 1032 68 10000 5.14 10 15:22 17.03.2022
3192 Clouds 9 1032 68 10000 5.14 20 13:49 17.03.2022
3193 Clouds 9 1032 72 10000 5.66 20 12:49 17.03.2022
3194 Clouds 9 1031 74 10000 5.66 20 12:21 17.03.2022
3195 Clouds 8 1031 76 10000 5.66 10 11:25 17.03.2022
3196 Clouds 8 1030 77 10000 5.14 360 09:48 17.03.2022
3197 Clouds 8 1028 78 10000 6.17 340 08:31 17.03.2022
3198 Clouds 8 1027 83 10000 5.14 350 07:32 17.03.2022
3199 Clouds 9 1025 82 10000 5.66 330 05:47 17.03.2022
3200 Clouds 11 1022 81 10000 5.14 310 00:45 17.03.2022
3201 Clouds 11 1021 82 10000 5.66 310 23:39 16.03.2022
3202 Clouds 12 1020 85 10000 4.63 260 22:44 16.03.2022
3203 Clouds 12 1020 86 10000 4.63 260 22:21 16.03.2022
3204 Clear 13 1019 85 10000 2.68 221 21:34 16.03.2022
3205 Clear 13 1018 82 10000 2.57 160 19:40 16.03.2022
3206 Clear 13 1018 81 10000 2.57 160 19:19 16.03.2022
3207 Clear 13 1018 81 10000 3.09 150 18:35 16.03.2022
3208 Clear 13 1018 77 10000 4.63 130 17:41 16.03.2022
3209 Clear 14 1018 75 10000 3.6 140 16:51 16.03.2022
3210 Clear 14 1018 73 10000 2.57 130 15:55 16.03.2022
3211 Clear 14 1018 78 10000 4.12 130 14:25 16.03.2022
3212 Clear 13 1019 82 10000 2.06 80 13:24 16.03.2022
3213 Clear 11 1020 91 10000 1.54 90 11:53 16.03.2022
3214 Mist 10 1020 91 10000 1.54 130 11:20 16.03.2022
3215 Mist 9 1020 92 10000 2.57 140 10:22 16.03.2022
3216 Mist 9 1020 96 10000 2.06 120 08:51 16.03.2022
3217 Clear 9 1020 93 10000 2.06 60 04:45 16.03.2022
3218 Clear 10 1021 94 10000 2.06 90 00:48 16.03.2022
3219 Clouds 11 1021 93 10000 3.09 70 22:38 15.03.2022
3220 Clouds 11 1021 92 10000 4.12 80 21:52 15.03.2022
3221 Clouds 11 1021 92 10000 3.09 70 20:18 15.03.2022
3222 Clouds 11 1021 91 10000 3.6 80 18:57 15.03.2022
3223 Clouds 12 1020 90 10000 3.09 150 16:57 15.03.2022
3224 Mist 11 1020 91 10000 3.6 120 16:28 15.03.2022
3225 Clouds 11 1021 93 10000 2.57 130 14:58 15.03.2022
3226 Clouds 11 1021 95 10000 2.57 100 14:39 15.03.2022
3227 Mist 10 1021 95 7000 2.57 40 13:38 15.03.2022
3228 Clouds 10 1022 94 9000 1.54 50 12:24 15.03.2022
3229 Rain 9 1022 98 6000 1.54 50 11:31 15.03.2022
3230 Mist 9 1022 95 5000 2.06 50 09:40 15.03.2022
3231 Rain 9 1022 95 3700 1.54 40 08:42 15.03.2022
3232 Rain 9 1022 94 4600 2.06 40 07:50 15.03.2022
3233 Rain 9 1022 94 6000 2.06 100 07:28 15.03.2022
3234 Clear 9 1023 77 10000 3.09 110 03:30 15.03.2022
3235 Clear 9 1026 75 10000 3.6 90 23:40 14.03.2022
3236 Clear 9 1026 74 10000 5.14 80 23:21 14.03.2022
3237 Clear 10 1026 71 10000 4.63 80 22:26 14.03.2022
3238 Clear 10 1026 68 10000 4.63 80 21:30 14.03.2022
3239 Clear 11 1026 64 10000 3.6 100 20:41 14.03.2022
3240 Clear 11 1026 63 10000 3.6 100 20:19 14.03.2022
3241 Clear 13 1026 54 10000 5.66 60 18:42 14.03.2022
3242 Clouds 14 1025 53 10000 5.14 60 17:54 14.03.2022
3243 Clouds 15 1026 50 10000 3.6 100 16:58 14.03.2022
3244 Clouds 15 1026 52 10000 3.09 110 15:43 14.03.2022
3245 Clear 15 1026 54 10000 3.09 120 14:40 14.03.2022
3246 Clear 12 1027 72 10000 2.57 150 12:22 14.03.2022
3247 Clear 9 1027 83 10000 2.57 150 10:51 14.03.2022
3248 Clear 7 1026 89 10000 3.09 160 09:44 14.03.2022
3249 Clear 6 1025 93 10000 2.57 180 09:21 14.03.2022
3250 Clear 5 1025 94 10000 2.57 180 08:55 14.03.2022
3251 Clear 5 1024 92 10000 2.57 150 07:32 14.03.2022
3252 Clear 5 1023 92 10000 2.57 150 05:45 14.03.2022
3253 Clouds 7 1019 89 10000 4.12 210 01:55 14.03.2022
3254 Clouds 7 1019 91 10000 5.14 200 01:24 14.03.2022
3255 Clouds 8 1016 91 10000 4.12 210 22:44 13.03.2022
3256 Clouds 8 1014 92 10000 4.12 200 21:31 13.03.2022
3257 Clouds 8 1014 93 10000 3.6 190 20:56 13.03.2022
3258 Clouds 8 1013 93 10000 3.6 190 20:30 13.03.2022
3259 Clouds 8 1013 92 10000 3.6 190 19:49 13.03.2022
3260 Rain 8 1012 92 10000 3.6 190 19:28 13.03.2022
3261 Clouds 8 1012 91 10000 4.63 200 18:59 13.03.2022
3262 Rain 8 1011 90 10000 5.14 210 18:35 13.03.2022
3263 Clouds 8 1011 89 10000 4.63 200 17:41 13.03.2022
3264 Rain 9 1010 88 10000 4.63 180 17:19 13.03.2022
3265 Rain 10 1010 83 10000 5.66 170 16:30 13.03.2022
3266 Drizzle 10 1009 81 10000 5.66 160 15:47 13.03.2022
3267 Rain 10 1009 80 10000 5.66 150 14:56 13.03.2022
3268 Clouds 11 1009 70 10000 5.14 160 13:45 13.03.2022
3269 Rain 11 1010 65 10000 7.2 170 12:55 13.03.2022
3270 Clouds 11 1010 66 10000 6.17 170 11:53 13.03.2022
3271 Clouds 11 1010 67 10000 7.72 170 11:32 13.03.2022
3272 Clouds 11 1010 64 10000 6.69 160 10:47 13.03.2022
3273 Clear 11 1010 66 10000 6.17 160 10:24 13.03.2022
3274 Clear 10 1010 71 10000 6.69 150 09:41 13.03.2022
3275 Clear 9 1010 74 10000 5.66 150 08:46 13.03.2022
3276 Clear 8 1010 79 10000 4.12 150 07:42 13.03.2022
3277 Clear 8 1009 81 10000 6.17 150 05:42 13.03.2022
3278 Clouds 9 1011 81 10000 7.2 150 02:43 13.03.2022
3279 Clouds 9 1011 85 10000 8.23 150 23:59 12.03.2022
3280 Clouds 8 1012 86 10000 5.66 140 22:31 12.03.2022
3281 Rain 9 1012 81 10000 5.66 140 20:54 12.03.2022
3282 Clouds 9 1013 80 10000 6.17 150 19:50 12.03.2022
3283 Clouds 9 1013 80 10000 7.2 140 19:32 12.03.2022
3284 Clouds 9 1013 80 10000 6.17 150 18:27 12.03.2022
3285 Clouds 10 1013 79 10000 7.72 150 17:34 12.03.2022
3286 Clouds 10 1013 82 10000 7.2 150 16:24 12.03.2022
3287 Clouds 10 1014 82 10000 6.69 140 15:24 12.03.2022
3288 Clouds 10 1014 84 10000 5.14 140 14:50 12.03.2022
3289 Clouds 10 1015 83 10000 4.63 160 13:32 12.03.2022
3290 Clouds 10 1016 86 10000 3.6 170 11:56 12.03.2022
3291 Clear 9 1016 88 10000 4.12 170 11:38 12.03.2022
3292 Clouds 8 1016 90 10000 4.12 160 10:58 12.03.2022
3293 Clouds 8 1016 91 10000 4.63 160 09:46 12.03.2022
3294 Clouds 7 1015 93 10000 4.12 160 08:56 12.03.2022
3295 Clouds 7 1014 92 10000 3.09 150 07:27 12.03.2022
3296 Clouds 8 1013 90 10000 4.12 180 03:36 12.03.2022
3297 Clouds 9 1012 89 10000 5.14 170 23:56 11.03.2022
3298 Clouds 9 1012 89 10000 5.14 170 23:56 11.03.2022
3299 Clouds 9 1012 89 10000 5.14 170 23:56 11.03.2022
3300 Clouds 9 1012 89 10000 5.14 170 23:56 11.03.2022
3301 Clouds 9 1011 88 10000 5.14 160 23:18 11.03.2022
3302 Clear 10 1011 86 10000 5.66 170 21:41 11.03.2022
3303 Clear 10 1010 87 10000 5.66 150 20:56 11.03.2022
3304 Clear 10 1010 88 10000 5.14 170 20:35 11.03.2022
3305 Clear 10 1010 88 10000 5.14 150 19:52 11.03.2022
3306 Clouds 10 1009 89 10000 5.66 150 19:22 11.03.2022
3307 Clouds 10 1009 86 10000 6.69 190 17:34 11.03.2022
3308 Rain 11 1009 81 10000 8.75 210 16:38 11.03.2022
3309 Rain 13 1008 75 10000 5.66 140 15:55 11.03.2022
3310 Rain 12 1008 77 10000 7.72 150 14:20 11.03.2022
3311 Clouds 12 1009 73 10000 6.17 160 12:52 11.03.2022
3312 Rain 12 1008 71 10000 7.2 130 12:21 11.03.2022
3313 Clouds 12 1008 69 10000 7.2 140 11:53 11.03.2022
3314 Clear 10 1009 72 10000 5.66 140 09:59 11.03.2022
3315 Clouds 8 1009 81 10000 5.14 130 08:57 11.03.2022
3316 Clear 8 1010 82 10000 4.63 130 08:24 11.03.2022
3317 Clear 8 1010 82 10000 4.12 120 07:45 11.03.2022
3318 Clear 8 1011 79 10000 3.6 140 05:44 11.03.2022
3319 Clear 9 1012 75 10000 3.6 140 03:48 11.03.2022
3320 Clear 10 1014 68 10000 2.57 150 23:38 10.03.2022
3321 Clear 11 1015 65 10000 2.57 110 22:30 10.03.2022
3322 Clear 11 1015 64 10000 3.09 110 21:47 10.03.2022
3323 Clear 11 1015 64 10000 3.09 110 21:19 10.03.2022
3324 Clear 13 1016 56 10000 3.6 120 19:45 10.03.2022
3325 Clear 14 1016 51 10000 5.14 140 18:53 10.03.2022
3326 Clear 16 1016 45 10000 5.14 130 17:28 10.03.2022
3327 Clear 17 1017 44 10000 5.14 120 15:55 10.03.2022
3328 Clouds 17 1018 50 10000 4.63 160 14:48 10.03.2022
3329 Clear 15 1019 55 10000 4.63 140 13:21 10.03.2022
3330 Clear 14 1020 60 10000 4.12 140 11:58 10.03.2022
3331 Clear 12 1021 65 10000 4.12 140 10:54 10.03.2022
3332 Clear 7 1021 75 10000 4.12 140 09:21 10.03.2022
3333 Clear 5 1020 77 10000 3.09 50 07:38 10.03.2022
3334 Clear 6 1020 71 10000 2.57 140 04:36 10.03.2022
3335 Clear 8 1020 67 10000 2.57 40 01:46 10.03.2022
3336 Clear 9 1020 68 10000 2.57 90 23:26 09.03.2022
3337 Clear 10 1020 65 10000 3.6 110 21:51 09.03.2022
3338 Clear 11 1020 64 10000 4.63 110 21:31 09.03.2022
3339 Clear 12 1020 62 10000 2.57 110 19:50 09.03.2022
3340 Clear 14 1019 54 10000 4.12 140 18:34 09.03.2022
3341 Clear 15 1019 53 10000 5.14 130 17:27 09.03.2022
3342 Clouds 15 1019 54 10000 5.66 120 16:31 09.03.2022
3343 Clouds 15 1019 54 10000 5.14 170 15:28 09.03.2022
3344 Clouds 14 1020 61 10000 4.63 170 13:54 09.03.2022
3345 Clouds 12 1021 71 10000 4.12 200 12:47 09.03.2022
3346 Clouds 11 1021 76 10000 4.12 170 11:54 09.03.2022
3347 Clouds 10 1021 81 10000 4.63 200 11:35 09.03.2022
3348 Clouds 7 1021 88 10000 3.09 180 10:26 09.03.2022
3349 Clouds 5 1021 86 9000 2.57 170 08:54 09.03.2022
3350 Clouds 3 1020 84 9000 4.12 140 07:54 09.03.2022
3351 Clear 5 1019 65 8000 2.06 230 02:57 09.03.2022
3352 Clear 6 1019 58 9000 2.57 130 00:43 09.03.2022
3353 Clear 7 1018 60 8000 3.09 110 22:47 08.03.2022
3354 Clear 7 1018 60 8000 3.09 110 22:26 08.03.2022
3355 Clear 8 1017 57 10000 3.09 90 21:23 08.03.2022
3356 Clear 8 1017 58 10000 3.09 90 20:42 08.03.2022
3357 Clear 10 1017 53 10000 3.09 100 19:42 08.03.2022
3358 Clear 12 1016 47 10000 4.12 130 18:44 08.03.2022
3359 Clear 13 1016 44 10000 5.66 110 17:32 08.03.2022
3360 Clear 13 1016 41 10000 4.63 110 15:56 08.03.2022
3361 Clear 12 1016 44 10000 4.63 90 14:19 08.03.2022
3362 Clear 9 1016 51 10000 4.12 120 12:43 08.03.2022
3363 Clear 7 1016 55 9000 3.6 140 11:45 08.03.2022
3364 Clear 4 1016 60 10000 3.6 100 10:48 08.03.2022
3365 Clear 3 1017 65 10000 3.6 120 09:51 08.03.2022
3366 Clear -1 1016 72 10000 4.12 100 06:59 08.03.2022
3367 Clear 0 1016 71 10000 4.12 100 05:43 08.03.2022
3368 Clear 2 1018 61 10000 4.63 100 23:51 07.03.2022
3369 Clear 3 1018 56 10000 5.14 90 21:57 07.03.2022
3370 Clear 3 1018 56 10000 5.66 80 21:32 07.03.2022
3371 Clear 4 1018 56 10000 6.17 80 20:46 07.03.2022
3372 Clear 4 1019 54 10000 5.66 80 19:55 07.03.2022
3373 Clear 5 1019 52 10000 5.14 90 19:31 07.03.2022
3374 Clear 6 1018 49 10000 6.69 90 18:42 07.03.2022
3375 Clear 6 1018 47 10000 7.2 90 17:48 07.03.2022
3376 Clear 7 1019 46 10000 6.69 90 16:55 07.03.2022
3377 Clear 7 1019 47 10000 7.2 80 15:50 07.03.2022
3378 Clear 6 1020 47 10000 7.72 70 13:51 07.03.2022
3379 Clear 5 1021 51 10000 8.23 70 12:27 07.03.2022
3380 Clear 3 1022 62 10000 6.69 70 10:38 07.03.2022
3381 Clear 0 1022 73 10000 5.66 70 08:57 07.03.2022
3382 Clear 1 1022 72 10000 4.63 40 04:43 07.03.2022
3383 Clear 3 1023 63 10000 6.17 40 00:22 07.03.2022
3384 Clear 3 1023 63 10000 6.69 40 23:35 06.03.2022
3385 Clear 4 1023 62 10000 6.17 40 22:52 06.03.2022
3386 Clear 4 1023 59 10000 6.17 40 21:58 06.03.2022
3387 Clear 5 1023 59 10000 5.66 30 20:50 06.03.2022
3388 Clear 5 1022 56 10000 5.14 30 20:23 06.03.2022
3389 Clear 6 1022 50 10000 5.66 40 19:21 06.03.2022
3390 Clear 7 1022 47 10000 6.69 40 18:25 06.03.2022
3391 Clear 8 1022 43 10000 6.17 40 17:21 06.03.2022
3392 Clear 8 1022 42 10000 7.2 50 16:42 06.03.2022
3393 Clear 9 1022 41 10000 7.2 30 15:52 06.03.2022
3394 Clear 8 1022 43 10000 8.23 50 14:49 06.03.2022
3395 Clear 8 1022 44 10000 8.23 50 14:31 06.03.2022
3396 Clear 8 1023 45 10000 8.75 50 13:29 06.03.2022
3397 Clear 7 1023 49 10000 6.69 50 12:35 06.03.2022
3398 Clear 6 1023 64 10000 4.63 40 11:18 06.03.2022
3399 Mist 3 1023 79 6000 4.12 40 10:27 06.03.2022
3400 Mist 1 1022 91 3200 3.6 10 08:30 06.03.2022
3401 Mist 1 1022 92 3200 3.6 10 08:30 06.03.2022
3402 Mist 1 1021 90 4800 3.6 10 07:35 06.03.2022
3403 Mist 2 1020 89 5000 3.6 10 05:40 06.03.2022
3404 Mist 6 1020 92 3800 3.09 340 00:53 06.03.2022
3405 Mist 6 1020 91 3800 3.09 340 00:31 06.03.2022
3406 Mist 6 1020 89 4300 2.57 350 23:23 05.03.2022
3407 Mist 6 1020 86 4600 3.6 10 22:53 05.03.2022
3408 Mist 7 1020 83 5000 3.6 20 22:23 05.03.2022
3409 Mist 7 1020 81 5000 2.06 350 21:23 05.03.2022
3410 Clear 8 1019 73 7000 3.6 330 19:49 05.03.2022
3411 Mist 9 1019 68 9000 3.6 340 18:56 05.03.2022
3412 Clear 10 1018 65 10000 4.12 340 18:27 05.03.2022
3413 Clear 11 1018 61 10000 4.63 330 16:49 05.03.2022
3414 Clouds 12 1019 57 10000 3.6 350 15:40 05.03.2022
3415 Clouds 12 1019 57 10000 3.13 42 14:52 05.03.2022
3416 Clear 12 1019 56 10000 3.09 350 14:33 05.03.2022
3417 Clouds 12 1019 60 10000 0.89 45 13:22 05.03.2022
3418 Clear 10 1019 77 10000 2.06 60 11:48 05.03.2022
3419 Clear 9 1019 81 10000 1.54 0 11:19 05.03.2022
3420 Clouds 8 1019 87 9000 1.54 40 10:20 05.03.2022
3421 Mist 7 1019 91 4200 2.06 70 09:26 05.03.2022
3422 Mist 6 1019 93 4800 1.54 350 07:51 05.03.2022
3423 Mist 7 1018 93 6000 2.06 50 05:43 05.03.2022
3424 Mist 7 1018 90 7000 2.57 310 03:49 05.03.2022
3425 Clouds 8 1019 87 7000 3.6 340 23:38 04.03.2022
3426 Clouds 8 1019 87 9000 3.09 330 22:44 04.03.2022
3427 Clouds 8 1019 87 10000 4.12 310 22:23 04.03.2022
3428 Clouds 9 1019 87 10000 4.63 310 20:57 04.03.2022
3429 Clouds 9 1019 86 10000 4.63 300 20:27 04.03.2022
3430 Clouds 9 1018 85 10000 4.63 300 19:36 04.03.2022
3431 Clouds 10 1018 84 10000 1.79 293 18:45 04.03.2022
3432 Clouds 10 1018 83 10000 4.63 300 18:20 04.03.2022
3433 Clouds 11 1018 80 9000 4.63 300 17:28 04.03.2022
3434 Clear 12 1018 74 10000 3.09 350 15:31 04.03.2022
3435 Clouds 12 1018 75 8000 2.57 10 14:36 04.03.2022
3436 Clouds 12 1018 77 8000 1.54 0 13:27 04.03.2022
3437 Clouds 11 1018 82 7000 1.03 0 11:56 04.03.2022
3438 Clouds 9 1018 87 8000 1.54 0 10:57 04.03.2022
3439 Mist 9 1018 89 7000 1.54 70 10:18 04.03.2022
3440 Mist 8 1018 92 5000 1.54 30 08:40 04.03.2022
3441 Clouds 8 1017 91 6000 2.06 90 07:41 04.03.2022
3442 Mist 7 1016 96 3200 1.03 320 04:59 04.03.2022
3443 Clouds 8 1016 87 6000 1.54 320 00:41 04.03.2022
3444 Clouds 9 1016 86 9000 1.54 300 22:54 03.03.2022
3445 Clouds 9 1016 83 10000 2.06 60 21:58 03.03.2022
3446 Clouds 10 1016 80 10000 3.09 20 21:34 03.03.2022
3447 Clouds 10 1016 77 10000 1.54 10 20:27 03.03.2022
3448 Clouds 11 1015 75 10000 1.03 0 18:58 03.03.2022
3449 Clouds 11 1015 74 10000 1.54 70 18:25 03.03.2022
3450 Clouds 12 1015 71 10000 2.57 240 17:31 03.03.2022
3451 Clouds 11 1015 77 10000 3.09 240 16:28 03.03.2022
3452 Clouds 12 1015 77 10000 3.6 220 15:43 03.03.2022
3453 Clouds 12 1015 77 10000 3.09 220 14:44 03.03.2022
3454 Clouds 12 1015 77 10000 3.09 200 14:25 03.03.2022
3455 Clouds 11 1016 83 10000 3.09 160 12:32 03.03.2022
3456 Clouds 10 1016 86 10000 2.06 160 10:58 03.03.2022
3457 Clouds 9 1016 88 9000 2.57 150 09:58 03.03.2022
3458 Clouds 8 1016 89 7000 1.54 110 08:42 03.03.2022
3459 Clouds 8 1016 88 7000 2.06 70 06:55 03.03.2022
3460 Clouds 8 1016 87 6000 2.06 60 05:22 03.03.2022
3461 Clear 7 1018 75 8000 1.54 70 23:48 02.03.2022
3462 Clear 8 1018 74 10000 1.54 70 22:54 02.03.2022
3463 Clear 8 1018 72 10000 1.54 80 22:33 02.03.2022
3464 Clear 9 1018 69 10000 1.54 80 21:22 02.03.2022
3465 Clear 9 1018 68 10000 1.54 100 20:25 02.03.2022
3466 Clear 10 1018 63 10000 2.57 90 19:38 02.03.2022
3467 Clear 10 1018 62 10000 2.57 90 19:18 02.03.2022
3468 Clear 11 1018 57 10000 2.57 90 18:35 02.03.2022
3469 Clear 12 1018 57 10000 3.09 70 17:42 02.03.2022
3470 Clear 12 1018 54 10000 3.6 40 16:53 02.03.2022
3471 Clouds 13 1018 52 10000 3.09 60 15:59 02.03.2022
3472 Clear 12 1019 53 10000 3.6 50 14:32 02.03.2022
3473 Clear 10 1019 54 10000 2.57 40 12:58 02.03.2022
3474 Clear 10 1020 58 10000 1.54 0 12:35 02.03.2022
3475 Clear 8 1020 63 10000 2.57 70 11:28 02.03.2022
3476 Clear 8 1020 63 10000 3.09 110 10:50 02.03.2022
3477 Clear 6 1020 67 10000 2.57 80 09:40 02.03.2022
3478 Clear 6 1021 70 10000 3.09 80 08:44 02.03.2022
3479 Clear 6 1021 72 10000 2.57 80 07:24 02.03.2022
3480 Clear 6 1021 73 10000 2.06 70 05:42 02.03.2022
3481 Clear 7 1023 70 10000 2.06 90 00:51 02.03.2022
3482 Clear 8 1024 68 10000 2.06 100 23:40 01.03.2022
3483 Clear 8 1024 64 10000 3.09 100 22:42 01.03.2022
3484 Clear 9 1024 62 10000 3.6 110 21:55 01.03.2022
3485 Clear 10 1024 60 10000 3.6 130 20:56 01.03.2022
3486 Clear 10 1024 58 10000 3.09 130 20:24 01.03.2022
3487 Clear 10 1024 54 10000 3.09 120 19:21 01.03.2022
3488 Clear 11 1024 49 10000 3.09 90 18:26 01.03.2022
3489 Clear 12 1024 44 10000 4.63 70 17:55 01.03.2022
3490 Clear 13 1025 45 10000 2.06 170 16:50 01.03.2022
3491 Clouds 13 1025 47 10000 2.06 140 15:51 01.03.2022
3492 Clear 12 1025 46 10000 2.57 140 14:55 01.03.2022
3493 Clear 12 1026 47 10000 2.57 140 14:34 01.03.2022
3494 Clear 11 1026 49 10000 3.09 150 13:27 01.03.2022
3495 Clear 10 1027 50 10000 3.09 160 12:58 01.03.2022
3496 Clouds 9 1026 57 10000 2.06 170 12:22 01.03.2022
3497 Clear 6 1027 69 10000 2.06 100 10:27 01.03.2022
3498 Clear 4 1026 76 10000 1.54 50 08:41 01.03.2022
3499 Clear 4 1026 76 10000 2.57 50 07:40 01.03.2022
3500 Clear 3 1026 78 10000 2.57 70 04:50 01.03.2022
3501 Clear 4 1027 68 10000 1.54 50 01:43 01.03.2022
3502 Clear 5 1027 64 10000 2.06 60 23:48 28.02.2022
3503 Clear 5 1027 65 10000 3.09 80 23:19 28.02.2022
3504 Clear 6 1027 60 10000 1.54 0 21:59 28.02.2022
3505 Clear 6 1027 58 10000 2.06 120 21:24 28.02.2022
3506 Clear 7 1027 52 10000 3.09 110 19:53 28.02.2022
3507 Clear 8 1027 49 10000 2.06 130 19:27 28.02.2022
3508 Clear 10 1026 41 10000 2.57 150 18:38 28.02.2022
3509 Clear 12 1027 35 10000 1.54 160 17:24 28.02.2022
3510 Clear 12 1027 34 10000 2.06 180 16:33 28.02.2022
3511 Clear 12 1027 35 10000 2.57 160 15:23 28.02.2022
3512 Clear 11 1027 39 10000 2.06 130 14:31 28.02.2022
3513 Clear 11 1028 41 10000 2.57 170 13:47 28.02.2022
3514 Clear 9 1028 49 10000 2.57 160 12:41 28.02.2022
3515 Clear 8 1028 55 10000 2.57 140 11:55 28.02.2022
3516 Clear 6 1028 62 10000 3.09 140 10:48 28.02.2022
3517 Clear 4 1028 69 10000 3.6 130 10:20 28.02.2022
3518 Clear 2 1028 72 10000 2.57 120 09:32 28.02.2022
3519 Clear -1 1028 82 10000 1.54 360 08:29 28.02.2022
3520 Clear -1 1027 79 10000 1.54 10 07:28 28.02.2022
3521 Clear 1 1027 72 10000 2.57 110 04:55 28.02.2022
3522 Clear 1 1027 73 10000 2.57 60 04:26 28.02.2022
3523 Clear 3 1027 66 10000 3.09 80 23:44 27.02.2022
3524 Clear 4 1026 65 10000 2.06 40 22:35 27.02.2022
3525 Clear 5 1026 63 10000 2.57 110 21:52 27.02.2022
3526 Clear 5 1026 63 10000 2.57 110 21:21 27.02.2022
3527 Clear 6 1026 62 10000 2.57 50 20:37 27.02.2022
3528 Clear 7 1026 58 10000 3.09 80 19:58 27.02.2022
3529 Clear 7 1026 56 10000 4.63 100 19:27 27.02.2022
3530 Clear 9 1025 53 10000 1.34 113 18:48 27.02.2022
3531 Clear 10 1025 49 10000 5.66 110 17:57 27.02.2022
3532 Clear 10 1025 50 10000 5.14 110 17:20 27.02.2022
3533 Clear 10 1025 48 10000 5.14 130 16:22 27.02.2022
3534 Clear 8 1025 51 10000 5.66 100 13:40 27.02.2022
3535 Clear 7 1026 54 10000 5.66 120 12:33 27.02.2022
3536 Clear 6 1026 57 10000 5.66 110 11:27 27.02.2022
3537 Clear 4 1026 63 10000 6.17 100 10:20 27.02.2022
3538 Clear 2 1026 71 10000 4.12 110 09:51 27.02.2022
3539 Clear 2 1026 73 10000 4.12 110 09:20 27.02.2022
3540 Clear 0 1026 79 10000 4.12 100 08:31 27.02.2022
3541 Clear 1 1026 78 10000 4.63 110 05:39 27.02.2022
3542 Clear 3 1026 74 10000 4.12 110 02:45 27.02.2022
3543 Clear 4 1027 70 10000 5.14 100 23:34 26.02.2022
3544 Clear 4 1027 70 10000 5.14 90 22:34 26.02.2022
3545 Clear 5 1027 68 10000 5.66 90 21:19 26.02.2022
3546 Clear 6 1028 65 10000 4.63 90 20:37 26.02.2022
3547 Clear 6 1028 63 10000 5.14 90 19:52 26.02.2022
3548 Clear 7 1028 61 10000 5.14 100 19:33 26.02.2022
3549 Clear 9 1028 50 10000 5.66 80 17:58 26.02.2022
3550 Clear 9 1028 50 10000 7.2 90 17:31 26.02.2022
3551 Clear 10 1029 48 10000 7.2 100 16:36 26.02.2022
3552 Clear 10 1030 49 10000 7.2 100 15:27 26.02.2022
3553 Clear 10 1030 51 10000 7.72 100 14:59 26.02.2022
3554 Clear 10 1031 51 10000 7.2 90 14:41 26.02.2022
3555 Clear 9 1032 54 10000 5.66 100 13:46 26.02.2022
3556 Clear 8 1032 60 10000 4.63 110 12:53 26.02.2022
3557 Clear 7 1033 64 10000 5.14 120 11:45 26.02.2022
3558 Clear 6 1033 75 10000 3.6 110 11:24 26.02.2022
3559 Clear 3 1033 86 10000 3.6 110 09:31 26.02.2022
3560 Clear 1 1033 90 10000 3.09 100 08:26 26.02.2022
3561 Clear 1 1033 90 10000 2.57 30 04:23 26.02.2022
3562 Clear 4 1033 79 10000 1.54 50 23:50 25.02.2022
3563 Clear 5 1032 74 10000 2.06 320 22:31 25.02.2022
3564 Clear 5 1031 72 10000 2.57 320 21:31 25.02.2022
3565 Clear 6 1031 69 10000 2.06 340 20:51 25.02.2022
3566 Clear 6 1031 66 10000 2.57 330 20:25 25.02.2022
3567 Clear 10 1029 51 10000 6.17 310 17:57 25.02.2022
3568 Clear 11 1029 53 10000 6.17 270 16:55 25.02.2022
3569 Clouds 10 1028 57 10000 6.17 290 15:56 25.02.2022
3570 Clouds 10 1028 56 10000 5.66 310 15:23 25.02.2022
3571 Clouds 10 1028 61 10000 5.66 270 14:56 25.02.2022
3572 Clouds 10 1028 64 10000 6.17 290 14:27 25.02.2022
3573 Clouds 10 1028 61 10000 6.69 280 13:30 25.02.2022
3574 Clouds 9 1028 69 10000 6.17 290 12:33 25.02.2022
3575 Clear 7 1028 74 10000 6.17 300 11:22 25.02.2022
3576 Clouds 6 1027 81 10000 5.14 270 10:24 25.02.2022
3577 Clouds 4 1027 85 10000 3.6 240 09:51 25.02.2022
3578 Clear 2 1026 91 10000 3.09 240 08:42 25.02.2022
3579 Clouds 1 1026 88 10000 3.6 240 07:35 25.02.2022
3580 Clear 2 1024 87 10000 4.63 250 05:43 25.02.2022
3581 Clear 3 1024 80 10000 4.12 240 02:49 25.02.2022
3582 Clear 4 1022 73 10000 5.14 280 22:55 24.02.2022
3583 Clear 5 1021 68 10000 5.66 270 21:51 24.02.2022
3584 Clouds 5 1021 69 10000 5.14 270 21:31 24.02.2022
3585 Clouds 5 1020 69 10000 6.69 270 20:53 24.02.2022
3586 Clouds 6 1019 64 10000 2.68 270 19:38 24.02.2022
3587 Clear 7 1017 68 10000 7.72 280 18:37 24.02.2022
3588 Clouds 8 1017 70 10000 11.83 280 18:18 24.02.2022
3589 Clouds 8 1016 74 10000 6.69 280 17:33 24.02.2022
3590 Clouds 8 1016 74 10000 6.69 280 17:33 24.02.2022
3591 Clouds 7 1016 84 10000 6.69 280 16:29 24.02.2022
3592 Rain 7 1016 85 10000 9.77 290 15:47 24.02.2022
3593 Rain 9 1015 79 5000 10.8 260 14:53 24.02.2022
3594 Clouds 12 1013 67 10000 8.75 220 14:24 24.02.2022
3595 Clouds 11 1014 69 10000 10.29 230 13:39 24.02.2022
3596 Clouds 11 1014 68 10000 9.26 230 12:49 24.02.2022
3597 Clouds 9 1015 74 10000 7.2 220 10:40 24.02.2022
3598 Clear 7 1015 80 10000 4.63 230 08:58 24.02.2022
3599 Clear 7 1015 81 10000 4.12 230 08:39 24.02.2022
3600 Clouds 8 1016 86 10000 2.57 210 05:52 24.02.2022
3601 Clear 9 1019 82 10000 2.57 230 01:56 24.02.2022
3602 Clear 9 1019 83 10000 2.57 230 01:56 24.02.2022
3603 Clouds 10 1021 74 10000 2.06 240 22:56 23.02.2022
3604 Clouds 10 1021 70 10000 3.09 180 21:40 23.02.2022
3605 Clouds 10 1021 69 10000 3.6 170 20:31 23.02.2022
3606 Clouds 10 1022 67 10000 2.57 200 19:47 23.02.2022
3607 Clouds 11 1022 65 10000 3.09 190 18:32 23.02.2022
3608 Clouds 11 1022 64 10000 3.09 210 17:44 23.02.2022
3609 Clouds 11 1025 63 10000 4.63 230 14:44 23.02.2022
3610 Clouds 10 1027 75 8000 3.09 170 12:45 23.02.2022
3611 Mist 9 1027 89 4700 2.06 210 11:59 23.02.2022
3612 Fog 6 1028 97 700 2.06 240 10:31 23.02.2022
3613 Fog 4 1027 98 900 1.54 260 08:59 23.02.2022
3614 Fog 4 1027 98 900 1.54 260 08:59 23.02.2022
3615 Fog 4 1027 98 900 1.54 260 08:59 23.02.2022
3616 Fog 3 1027 98 550 1.54 250 08:23 23.02.2022
3617 Mist 5 1027 95 3800 2.57 310 05:49 23.02.2022
3618 Clouds 9 1026 90 10000 3.6 260 00:47 23.02.2022
3619 Clouds 10 1025 90 10000 4.12 280 23:39 22.02.2022
3620 Clouds 10 1025 91 10000 4.12 260 22:41 22.02.2022
3621 Drizzle 10 1024 90 10000 4.12 270 21:49 22.02.2022
3622 Drizzle 10 1024 90 10000 4.12 270 21:31 22.02.2022
3623 Drizzle 11 1024 87 8000 5.66 270 20:59 22.02.2022
3624 Drizzle 11 1023 85 10000 6.69 260 20:30 22.02.2022
3625 Clouds 11 1023 83 10000 7.2 240 19:47 22.02.2022
3626 Clouds 12 1023 82 10000 7.2 240 19:28 22.02.2022
3627 Clouds 12 1022 81 10000 6.17 230 18:23 22.02.2022
3628 Clouds 12 1022 81 10000 6.17 240 17:26 22.02.2022
3629 Clouds 12 1022 82 10000 6.17 240 16:41 22.02.2022
3630 Clouds 12 1022 82 10000 6.17 240 16:41 22.02.2022
3631 Clouds 12 1022 84 10000 7.2 240 15:59 22.02.2022
3632 Clouds 11 1023 84 10000 6.17 240 14:48 22.02.2022
3633 Drizzle 9 1024 88 10000 5.66 230 12:48 22.02.2022
3634 Clouds 8 1024 90 10000 6.17 230 10:53 22.02.2022
3635 Clouds 6 1024 89 10000 4.12 220 08:53 22.02.2022
3636 Clear 5 1024 89 10000 3.6 230 07:27 22.02.2022
3637 Clear 5 1025 89 10000 4.12 240 06:30 22.02.2022
3638 Clouds 6 1024 88 10000 5.14 270 02:47 22.02.2022
3639 Clouds 9 1022 77 10000 7.2 290 23:18 21.02.2022
3640 Clouds 9 1021 75 7000 9.26 290 21:56 21.02.2022
3641 Clouds 10 1019 72 10000 9.77 290 20:38 21.02.2022
3642 Clouds 10 1017 68 10000 9.77 290 18:47 21.02.2022
3643 Clouds 10 1016 67 10000 10.29 290 17:41 21.02.2022
3644 Clouds 10 1016 67 10000 10.29 290 17:41 21.02.2022
3645 Clouds 10 1014 63 10000 10.8 280 15:26 21.02.2022
3646 Clouds 9 1013 70 10000 10.8 280 14:22 21.02.2022
3647 Clouds 10 1013 66 10000 12.35 280 13:30 21.02.2022
3648 Clouds 10 1013 63 10000 12.35 270 12:24 21.02.2022
3649 Clouds 8 1013 69 10000 10.8 270 11:31 21.02.2022
3650 Clouds 7 1012 76 10000 8.75 250 10:23 21.02.2022
3651 Clouds 6 1011 74 10000 8.23 260 05:35 21.02.2022
3652 Rain 11 1008 89 5000 10.29 240 00:30 21.02.2022
3653 Clouds 12 1008 79 10000 11.32 230 22:30 20.02.2022
3654 Clouds 12 1009 77 10000 9.77 240 21:43 20.02.2022
3655 Clouds 12 1009 77 10000 9.77 240 21:19 20.02.2022
3656 Clouds 12 1010 77 10000 9.77 230 20:42 20.02.2022
3657 Clouds 12 1011 75 10000 9.26 230 19:42 20.02.2022
3658 Clouds 12 1011 75 10000 8.23 230 18:54 20.02.2022
3659 Clouds 12 1012 75 10000 3.13 225 18:34 20.02.2022
3660 Clouds 12 1012 74 10000 9.26 210 17:53 20.02.2022
3661 Clouds 13 1014 71 10000 9.26 230 16:18 20.02.2022
3662 Clouds 13 1015 72 10000 8.75 240 14:53 20.02.2022
3663 Clouds 13 1016 72 10000 8.75 240 13:53 20.02.2022
3664 Clouds 12 1017 75 10000 9.26 230 12:35 20.02.2022
3665 Clouds 11 1017 84 10000 6.17 230 10:47 20.02.2022
3666 Clouds 11 1018 84 10000 8.23 220 10:20 20.02.2022
3667 Clouds 9 1018 88 10000 7.2 230 08:58 20.02.2022
3668 Clouds 9 1018 84 10000 2.24 225 01:19 20.02.2022
3669 Clouds 9 1018 81 10000 7.72 240 00:30 20.02.2022
3670 Clouds 9 1017 78 10000 8.23 240 23:19 19.02.2022
3671 Clouds 9 1017 72 10000 9.26 250 22:23 19.02.2022
3672 Clouds 9 1016 68 10000 9.26 240 21:45 19.02.2022
3673 Clouds 9 1016 65 10000 7.72 220 20:23 19.02.2022
3674 Clouds 9 1016 66 10000 8.23 230 19:34 19.02.2022
3675 Clouds 9 1016 65 10000 8.75 210 18:38 19.02.2022
3676 Rain 10 1017 58 10000 8.75 210 17:37 19.02.2022
3677 Clouds 10 1017 55 10000 7.72 210 16:44 19.02.2022
3678 Clear 10 1018 55 10000 8.75 230 15:20 19.02.2022
3679 Clear 10 1018 53 10000 8.75 220 14:52 19.02.2022
3680 Clear 10 1019 54 10000 7.2 230 13:50 19.02.2022
3681 Clear 7 1020 71 10000 6.69 240 11:40 19.02.2022
3682 Clear 5 1020 77 10000 6.69 240 10:30 19.02.2022
3683 Clear 2 1019 85 10000 4.63 240 08:31 19.02.2022
3684 Clear 3 1019 84 10000 4.12 240 06:45 19.02.2022
3685 Clear 7 1015 68 10000 8.75 250 23:55 18.02.2022
3686 Clear 7 1014 66 10000 8.75 250 22:24 18.02.2022
3687 Clouds 8 1012 62 10000 7.72 260 20:57 18.02.2022
3688 Clouds 9 1011 60 10000 8.75 260 19:56 18.02.2022
3689 Clear 9 1010 59 10000 8.75 250 18:51 18.02.2022
3690 Clear 10 1010 57 10000 10.8 270 18:25 18.02.2022
3691 Clear 10 1008 58 10000 10.29 270 17:56 18.02.2022
3692 Clouds 11 1005 69 10000 11.83 240 15:35 18.02.2022
3693 Clouds 11 1004 87 10000 12.86 260 13:56 18.02.2022
3694 Rain 11 1004 91 7000 11.32 220 13:28 18.02.2022
3695 Clouds 12 1003 90 10000 9.26 200 12:42 18.02.2022
3696 Drizzle 12 1004 91 10000 9.77 190 11:55 18.02.2022
3697 Clouds 12 1005 85 10000 10.29 210 10:42 18.02.2022
3698 Clouds 12 1007 89 10000 8.23 200 06:58 18.02.2022
3699 Clouds 12 1008 90 10000 7.2 200 05:42 18.02.2022
3700 Clouds 10 1015 75 10000 2.57 210 23:53 17.02.2022
3701 Clouds 11 1016 70 10000 3.09 240 21:50 17.02.2022
3702 Clouds 11 1016 68 10000 2.57 230 21:27 17.02.2022
3703 Clear 11 1016 65 10000 5.14 220 20:40 17.02.2022
3704 Clouds 11 1017 64 10000 3.09 250 19:54 17.02.2022
3705 Clear 12 1016 58 10000 4.63 240 18:57 17.02.2022
3706 Clear 13 1016 53 10000 6.69 250 17:59 17.02.2022
3707 Clear 14 1016 51 10000 8.75 250 16:43 17.02.2022
3708 Clear 14 1016 52 10000 7.72 260 15:44 17.02.2022
3709 Clouds 13 1016 60 10000 8.23 260 14:29 17.02.2022
3710 Clouds 12 1016 63 10000 9.77 270 12:51 17.02.2022
3711 Clouds 12 1016 68 10000 9.26 260 11:30 17.02.2022
3712 Clouds 11 1014 71 10000 8.75 250 09:38 17.02.2022
3713 Clouds 12 1012 71 10000 8.75 280 06:37 17.02.2022
3714 Clouds 13 1007 88 10000 9.77 230 23:23 16.02.2022
3715 Clouds 14 1007 87 10000 10.29 240 22:27 16.02.2022
3716 Clouds 13 1007 89 10000 8.75 230 20:21 16.02.2022
3717 Drizzle 14 1006 92 10000 3.13 225 18:56 16.02.2022
3718 Clouds 14 1006 92 10000 6.69 230 17:56 16.02.2022
3719 Clouds 15 1007 85 10000 8.23 220 16:44 16.02.2022
3720 Clouds 15 1007 80 10000 9.26 250 15:21 16.02.2022
3721 Clouds 14 1007 86 10000 8.23 230 13:40 16.02.2022
3722 Clouds 13 1007 90 10000 8.23 230 12:24 16.02.2022
3723 Clouds 13 1006 90 10000 7.2 230 11:45 16.02.2022
3724 Clouds 12 1006 94 10000 7.72 230 10:34 16.02.2022
3725 Clouds 12 1006 94 10000 6.17 230 09:34 16.02.2022
3726 Rain 11 1005 95 10000 6.17 220 06:43 16.02.2022
3727 Rain 9 1010 93 10000 6.69 210 00:37 16.02.2022
3728 Drizzle 9 1011 92 10000 7.72 220 22:34 15.02.2022
3729 Clouds 9 1012 90 10000 7.2 220 21:50 15.02.2022
3730 Drizzle 9 1012 90 10000 7.2 220 21:29 15.02.2022
3731 Clouds 9 1012 90 10000 6.69 220 20:58 15.02.2022
3732 Clouds 9 1012 88 10000 7.2 200 20:22 15.02.2022
3733 Clouds 9 1013 91 10000 6.69 220 19:43 15.02.2022
3734 Clouds 9 1013 87 10000 6.17 210 18:25 15.02.2022
3735 Clouds 9 1013 84 10000 6.69 210 17:53 15.02.2022
3736 Clouds 9 1014 84 10000 5.66 210 17:28 15.02.2022
3737 Clouds 9 1015 81 10000 6.69 220 15:43 15.02.2022
3738 Clouds 10 1016 74 10000 7.2 220 13:57 15.02.2022
3739 Clouds 10 1016 73 10000 7.2 230 13:25 15.02.2022
3740 Clouds 8 1017 80 10000 3.6 220 11:41 15.02.2022
3741 Clouds 6 1016 89 10000 5.14 240 10:27 15.02.2022
3742 Clouds 4 1016 93 10000 3.6 240 08:42 15.02.2022
3743 Clouds 5 1015 91 10000 4.12 260 06:45 15.02.2022
3744 Clouds 6 1010 94 10000 4.12 260 23:35 14.02.2022
3745 Clouds 6 1008 92 10000 3.6 280 21:57 14.02.2022
3746 Clouds 7 1008 90 10000 5.14 290 20:53 14.02.2022
3747 Clouds 7 1006 89 10000 4.12 260 19:49 14.02.2022
3748 Clouds 7 1006 90 10000 4.12 260 19:29 14.02.2022
3749 Rain 8 1005 90 8000 4.12 200 18:24 14.02.2022
3750 Clouds 9 1005 83 10000 3.6 230 17:28 14.02.2022
3751 Clouds 10 1004 79 10000 5.66 200 16:37 14.02.2022
3752 Clouds 11 1004 69 10000 6.17 220 15:22 14.02.2022
3753 Clouds 11 1005 68 10000 6.69 210 13:35 14.02.2022
3754 Clouds 11 1005 70 10000 5.66 230 12:58 14.02.2022
3755 Clouds 10 1005 71 10000 6.17 210 12:32 14.02.2022
3756 Clouds 9 1005 77 10000 6.69 210 11:38 14.02.2022
3757 Clouds 8 1004 83 10000 5.66 220 10:21 14.02.2022
3758 Clouds 8 1003 85 10000 5.14 220 08:18 14.02.2022
3759 Clouds 8 1002 85 10000 5.14 240 07:26 14.02.2022
3760 Clear 12 1002 68 10000 6.69 180 22:49 13.02.2022
3761 Clouds 12 1002 68 10000 6.69 180 22:30 13.02.2022
3762 Clear 12 1002 66 10000 7.2 180 21:59 13.02.2022
3763 Clear 12 1003 66 10000 7.72 190 21:24 13.02.2022
3764 Clear 12 1003 66 10000 6.17 180 20:28 13.02.2022
3765 Clear 13 1004 64 10000 1.34 203 19:23 13.02.2022
3766 Clear 13 1004 63 10000 6.17 180 18:41 13.02.2022
3767 Clear 13 1005 60 10000 7.72 180 17:32 13.02.2022
3768 Clear 14 1006 59 10000 9.26 200 15:53 13.02.2022
3769 Clear 12 1008 65 10000 8.75 170 14:50 13.02.2022
3770 Clear 11 1010 67 10000 8.75 180 13:39 13.02.2022
3771 Clear 9 1012 74 10000 7.2 180 12:44 13.02.2022
3772 Clear 3 1014 82 10000 4.63 160 10:46 13.02.2022
3773 Clear 3 1014 82 10000 4.63 160 10:27 13.02.2022
3774 Clear 0 1015 83 10000 2.57 140 08:59 13.02.2022
3775 Clear 0 1017 83 10000 3.09 160 05:27 13.02.2022
3776 Clear 2 1020 75 10000 3.09 160 00:34 13.02.2022
3777 Clear 3 1021 72 10000 4.12 160 22:58 12.02.2022
3778 Clear 3 1021 73 10000 4.63 150 22:33 12.02.2022
3779 Clear 3 1021 72 10000 2.57 160 21:18 12.02.2022
3780 Clear 4 1022 70 10000 3.6 150 20:25 12.02.2022
3781 Clear 5 1022 65 10000 3.09 130 19:18 12.02.2022
3782 Clear 6 1022 58 10000 3.6 130 18:41 12.02.2022
3783 Clear 7 1022 55 10000 4.12 150 18:23 12.02.2022
3784 Clear 9 1023 47 10000 3.6 150 16:55 12.02.2022
3785 Clear 9 1023 46 10000 3.6 140 16:25 12.02.2022
3786 Clear 9 1023 46 10000 3.6 160 15:49 12.02.2022
3787 Clear 9 1025 46 10000 4.63 160 14:30 12.02.2022
3788 Clear 7 1027 59 10000 5.66 150 12:55 12.02.2022
3789 Clear 2 1029 86 10000 4.12 130 10:36 12.02.2022
3790 Clear 0 1028 89 10000 2.06 130 09:39 12.02.2022
3791 Clear 0 1028 89 10000 2.57 120 08:48 12.02.2022
3792 Clear 0 1029 88 10000 1.54 20 07:53 12.02.2022
3793 Clear 1 1030 87 10000 2.57 40 05:33 12.02.2022
3794 Clear 1 1031 88 9000 1.54 30 03:32 12.02.2022
3795 Clear 2 1032 84 6000 2.06 50 02:18 12.02.2022
3796 Clear 2 1033 85 10000 1.54 20 22:28 11.02.2022
3797 Clear 3 1033 82 10000 1.54 10 21:51 11.02.2022
3798 Clear 4 1033 77 10000 2.06 110 20:40 11.02.2022
3799 Clear 5 1034 77 10000 2.06 90 19:40 11.02.2022
3800 Clear 5 1034 76 10000 2.06 90 19:20 11.02.2022
3801 Clear 7 1033 69 10000 2.57 80 17:55 11.02.2022
3802 Clouds 8 1033 66 10000 2.57 70 17:25 11.02.2022
3803 Clouds 8 1034 61 10000 3.09 70 16:22 11.02.2022
3804 Clouds 8 1034 65 10000 2.57 50 14:43 11.02.2022
3805 Clouds 8 1034 68 10000 3.6 30 14:21 11.02.2022
3806 Clouds 8 1034 68 10000 3.6 30 13:59 11.02.2022
3807 Clouds 8 1034 72 10000 3.09 350 13:39 11.02.2022
3808 Clear 6 1034 87 10000 2.57 310 11:42 11.02.2022
3809 Clear 3 1033 93 10000 3.09 310 09:59 11.02.2022
3810 Mist 1 1032 93 4300 2.57 310 08:49 11.02.2022
3811 Clear 0 1031 96 8000 2.06 290 08:27 11.02.2022
3812 Clear 0 1031 96 8000 2.06 290 08:27 11.02.2022
3813 Clear 1 1030 94 10000 3.09 300 07:22 11.02.2022
3814 Clear 3 1027 93 10000 2.57 280 02:39 11.02.2022
3815 Clear 3 1027 93 10000 3.09 290 02:18 11.02.2022
3816 Clear 5 1026 92 10000 5.14 330 22:53 10.02.2022
3817 Clouds 5 1026 92 10000 4.63 320 21:50 10.02.2022
3818 Clouds 5 1025 93 10000 4.63 340 21:21 10.02.2022
3819 Clouds 6 1025 91 10000 7.2 340 20:45 10.02.2022
3820 Clouds 7 1024 88 10000 6.69 340 19:26 10.02.2022
3821 Clouds 9 1023 82 10000 1.79 293 18:47 10.02.2022
3822 Clouds 10 1023 79 10000 4.63 230 17:27 10.02.2022
3823 Clouds 10 1023 80 10000 3.6 240 16:57 10.02.2022
3824 Drizzle 10 1023 80 10000 4.12 230 15:59 10.02.2022
3825 Clouds 10 1023 82 10000 4.12 220 15:33 10.02.2022
3826 Clouds 9 1023 84 10000 5.14 230 14:49 10.02.2022
3827 Clouds 9 1023 82 10000 5.66 240 14:26 10.02.2022
3828 Clouds 9 1024 78 10000 5.66 260 13:30 10.02.2022
3829 Clouds 9 1024 81 10000 4.63 240 12:51 10.02.2022
3830 Clouds 9 1024 81 10000 4.63 240 12:51 10.02.2022
3831 Clouds 7 1024 86 10000 5.66 230 11:38 10.02.2022
3832 Clouds 7 1025 86 10000 5.66 230 11:20 10.02.2022
3833 Mist 7 1024 90 10000 4.12 240 10:18 10.02.2022
3834 Clouds 6 1024 92 10000 5.14 230 09:25 10.02.2022
3835 Clouds 6 1023 91 10000 4.63 240 07:37 10.02.2022
3836 Mist 6 1023 92 4400 5.14 250 05:51 10.02.2022
3837 Clouds 6 1022 90 8000 2.24 221 01:57 10.02.2022
3838 Clouds 6 1023 91 7000 2.06 240 00:50 10.02.2022
3839 Clouds 6 1023 91 7000 2.06 240 00:50 10.02.2022
3840 Clouds 6 1023 91 7000 1.54 270 00:29 10.02.2022
3841 Clouds 6 1023 89 9000 4.12 260 23:26 09.02.2022
3842 Clear 5 1023 91 10000 2.06 360 22:37 09.02.2022
3843 Clear 6 1023 87 10000 1.54 10 21:52 09.02.2022
3844 Clear 6 1023 80 10000 1.54 320 21:30 09.02.2022
3845 Clear 7 1023 83 10000 1.54 130 20:51 09.02.2022
3846 Clear 7 1023 81 10000 1.54 130 20:31 09.02.2022
3847 Clear 8 1024 79 10000 2.06 220 19:56 09.02.2022
3848 Clear 9 1024 75 10000 2.06 210 19:32 09.02.2022
3849 Clear 12 1024 62 10000 2.57 170 17:38 09.02.2022
3850 Clear 13 1024 58 10000 1.54 120 16:52 09.02.2022
3851 Clear 13 1025 59 10000 2.57 170 15:52 09.02.2022
3852 Clear 12 1025 62 10000 2.57 190 14:42 09.02.2022
3853 Clear 9 1027 79 10000 3.09 160 12:28 09.02.2022
3854 Clear 6 1027 88 10000 2.06 120 10:55 09.02.2022
3855 Clear 6 1027 88 10000 2.06 120 10:55 09.02.2022
3856 Clear 5 1027 92 10000 2.57 140 10:30 09.02.2022
3857 Mist 4 1028 95 7000 1.03 50 09:40 09.02.2022
3858 Mist 3 1028 95 7000 1.03 50 09:19 09.02.2022
3859 Mist 3 1028 95 6000 1.03 10 07:55 09.02.2022
3860 Mist 4 1028 96 6000 2.06 80 05:30 09.02.2022
3861 Mist 4 1029 95 6000 2.06 110 03:50 09.02.2022
3862 Fog 6 1030 95 6000 0.45 135 01:27 09.02.2022
3863 Clear 7 1030 93 10000 2.57 140 23:34 08.02.2022
3864 Clouds 7 1030 91 10000 2.57 150 22:50 08.02.2022
3865 Clouds 8 1031 88 10000 2.57 150 22:22 08.02.2022
3866 Clouds 8 1031 89 10000 2.06 170 21:49 08.02.2022
3867 Clouds 8 1031 88 10000 2.06 170 21:21 08.02.2022
3868 Clouds 9 1031 87 10000 2.06 230 20:45 08.02.2022
3869 Clouds 9 1031 84 10000 2.57 250 19:46 08.02.2022
3870 Clouds 10 1031 85 10000 4.63 240 18:48 08.02.2022
3871 Clouds 10 1031 82 10000 4.63 240 17:43 08.02.2022
3872 Clouds 11 1031 80 10000 5.14 240 16:34 08.02.2022
3873 Clouds 11 1031 81 10000 5.66 240 15:30 08.02.2022
3874 Clouds 11 1031 81 10000 5.14 240 14:38 08.02.2022
3875 Clouds 10 1032 84 10000 4.12 220 13:29 08.02.2022
3876 Clouds 9 1033 87 10000 4.12 220 11:55 08.02.2022
3877 Clouds 8 1033 89 10000 3.09 210 10:23 08.02.2022
3878 Clouds 8 1033 89 10000 3.09 210 10:23 08.02.2022
3879 Clouds 7 1033 90 10000 2.57 200 09:45 08.02.2022
3880 Clouds 7 1032 90 10000 3.6 210 07:55 08.02.2022
3881 Clouds 6 1032 86 10000 3.09 240 05:41 08.02.2022
3882 Clouds 6 1032 85 10000 2.57 230 04:39 08.02.2022
3883 Clouds 6 1032 84 10000 2.57 230 04:21 08.02.2022
3884 Clouds 6 1032 86 10000 2.06 240 03:36 08.02.2022
3885 Clouds 5 1032 87 10000 2.06 240 03:18 08.02.2022
3886 Clouds 5 1032 86 10000 3.09 210 02:59 08.02.2022
3887 Clouds 6 1032 84 10000 2.06 240 02:36 08.02.2022
3888 Clouds 5 1032 87 10000 2.06 230 02:18 08.02.2022
3889 Clouds 5 1032 86 10000 1.54 230 01:44 08.02.2022
3890 Clouds 5 1032 85 10000 2.06 230 01:24 08.02.2022
3891 Clouds 5 1032 85 10000 2.06 230 00:55 08.02.2022
3892 Clouds 5 1032 82 10000 3.09 240 23:58 07.02.2022
3893 Clouds 5 1032 84 10000 3.09 240 23:40 07.02.2022
3894 Clouds 5 1032 82 10000 2.06 220 23:18 07.02.2022
3895 Clouds 5 1032 80 10000 2.06 220 22:54 07.02.2022
3896 Clear 5 1031 80 10000 2.06 210 22:18 07.02.2022
3897 Clear 5 1031 78 10000 2.06 210 21:44 07.02.2022
3898 Clear 6 1031 76 10000 2.06 220 21:25 07.02.2022
3899 Clear 6 1031 77 10000 2.06 230 20:41 07.02.2022
3900 Clear 6 1031 75 10000 1.54 240 19:56 07.02.2022
3901 Clear 6 1031 73 10000 1.54 220 19:38 07.02.2022
3902 Clear 9 1030 63 10000 3.6 290 18:21 07.02.2022
3903 Clear 10 1031 59 10000 4.63 300 16:53 07.02.2022
3904 Clear 10 1030 57 10000 5.14 280 16:20 07.02.2022
3905 Clear 10 1030 58 10000 5.14 310 15:48 07.02.2022
3906 Clouds 10 1030 61 10000 3.6 300 13:37 07.02.2022
3907 Clouds 10 1030 60 10000 3.6 300 13:19 07.02.2022
3908 Clouds 8 1030 74 10000 1.34 293 11:58 07.02.2022
3909 Clouds 8 1030 74 10000 1.34 293 11:58 07.02.2022
3910 Clear 8 1030 77 10000 1.34 270 11:37 07.02.2022
3911 Clear 7 1029 81 10000 1.34 270 10:52 07.02.2022
3912 Clear 6 1028 84 10000 0.89 270 10:32 07.02.2022
3913 Clear 4 1027 88 10000 1.03 0 09:53 07.02.2022
3914 Clear 3 1026 88 10000 0.45 46 09:18 07.02.2022
3915 Clear 3 1026 87 10000 1.03 0 08:43 07.02.2022
3916 Clouds 4 1025 83 10000 1.79 293 07:26 07.02.2022
3917 Clear 5 1024 81 10000 1.79 270 06:34 07.02.2022
3918 Clear 7 1021 74 10000 2.24 270 03:49 07.02.2022
3919 Clouds 9 1016 81 10000 1.79 270 00:47 07.02.2022
3920 Clouds 9 1014 83 10000 3.13 270 23:49 06.02.2022
3921 Clouds 10 1014 86 10000 4.47 270 23:19 06.02.2022
3922 Clouds 10 1013 90 10000 3.58 270 22:34 06.02.2022
3923 Clouds 10 1012 95 10000 4.92 270 21:36 06.02.2022
3924 Rain 10 1012 95 8000 1.79 248 20:58 06.02.2022
3925 Clouds 10 1012 93 10000 3.58 248 20:36 06.02.2022
3926 Clouds 10 1012 94 10000 2.24 248 19:45 06.02.2022
3927 Clouds 10 1012 91 6000 3.13 270 18:50 06.02.2022
3928 Clouds 10 1012 91 10000 3.13 270 18:24 06.02.2022
3929 Drizzle 10 1012 92 10000 3.13 248 17:26 06.02.2022
3930 Clouds 10 1012 92 10000 2.68 225 16:48 06.02.2022
3931 Clouds 10 1012 92 8000 3.13 248 15:50 06.02.2022
3932 Clouds 10 1012 92 8000 3.13 225 15:27 06.02.2022
3933 Clouds 10 1013 89 9000 3.13 225 14:50 06.02.2022
3934 Clouds 10 1013 88 10000 3.58 248 13:51 06.02.2022
3935 Clouds 10 1014 89 10000 4.02 225 13:20 06.02.2022
3936 Clouds 9 1015 92 10000 3.58 225 11:44 06.02.2022
3937 Clouds 8 1016 90 10000 3.58 225 10:31 06.02.2022
3938 Clouds 8 1016 87 10000 2.68 225 09:26 06.02.2022
3939 Clouds 8 1017 87 10000 3.58 225 08:41 06.02.2022
3940 Clouds 7 1019 87 10000 3.58 225 06:27 06.02.2022
3941 Clouds 7 1020 85 10000 3.58 225 05:27 06.02.2022
3942 Clear 7 1022 82 10000 2.24 225 02:25 06.02.2022
3943 Clear 7 1023 79 10000 3.13 225 00:30 06.02.2022
3944 Clouds 7 1024 80 10000 2.68 225 23:27 05.02.2022
3945 Clouds 7 1024 80 10000 3.13 225 21:43 05.02.2022
3946 Clear 7 1024 79 10000 1.79 225 20:39 05.02.2022
3947 Clear 7 1025 77 10000 2.68 225 20:19 05.02.2022
3948 Clouds 7 1025 77 10000 1.79 225 19:41 05.02.2022
3949 Clear 8 1025 73 10000 2.68 225 18:26 05.02.2022
3950 Clouds 9 1025 67 10000 1.79 248 17:34 05.02.2022
3951 Clear 10 1025 57 10000 1.34 248 15:43 05.02.2022
3952 Clear 10 1025 57 10000 2.68 225 15:25 05.02.2022
3953 Clouds 9 1026 75 10000 1.34 225 13:25 05.02.2022
3954 Clouds 9 1026 75 10000 1.34 225 13:25 05.02.2022
3955 Clear 8 1026 80 10000 1.79 248 12:42 05.02.2022
3956 Clear 6 1026 88 10000 1.34 270 11:29 05.02.2022
3957 Clear 4 1025 91 10000 1.34 49 10:43 05.02.2022
3958 Clear 3 1025 91 10000 0.45 48 09:49 05.02.2022
3959 Clear 2 1025 93 10000 0.51 0 08:39 05.02.2022
3960 Clear 2 1024 92 10000 1.54 0 06:59 05.02.2022
3961 Clear 2 1024 92 10000 1.03 150 06:27 05.02.2022
3962 Clear 3 1023 89 10000 0.45 48 02:40 05.02.2022
3963 Clear 3 1022 87 10000 0.89 46 01:18 05.02.2022
3964 Clear 3 1022 87 10000 3.09 240 00:36 05.02.2022
3965 Clouds 4 1021 87 10000 4.12 230 23:33 04.02.2022
3966 Clouds 4 1020 87 10000 0.89 44 22:39 04.02.2022
3967 Clouds 4 1020 86 10000 0.89 44 21:36 04.02.2022
3968 Clear 4 1019 86 10000 2.24 43 21:18 04.02.2022
3969 Clear 5 1019 83 10000 2.57 260 20:29 04.02.2022
3970 Clear 6 1018 83 10000 1.79 270 19:18 04.02.2022
3971 Clouds 10 1013 81 10000 4.47 248 16:22 04.02.2022
3972 Clouds 11 1012 75 10000 2.68 248 15:18 04.02.2022
3973 Clouds 11 1013 76 10000 2.68 225 14:40 04.02.2022
3974 Drizzle 9 1015 88 10000 2.24 225 12:43 04.02.2022
3975 Clouds 8 1015 91 10000 2.24 203 11:45 04.02.2022
3976 Clouds 8 1015 91 10000 1.79 225 10:55 04.02.2022
3977 Drizzle 7 1015 93 10000 1.79 225 09:56 04.02.2022
3978 Clouds 7 1015 94 10000 1.34 225 08:30 04.02.2022
3979 Drizzle 7 1017 93 10000 1.79 225 03:47 04.02.2022
3980 Clouds 7 1017 90 10000 1.79 225 02:36 04.02.2022
3981 Clouds 7 1017 91 10000 1.79 225 23:40 03.02.2022
3982 Clouds 7 1017 91 10000 1.79 225 22:51 03.02.2022
3983 Clouds 8 1017 90 10000 1.79 225 21:52 03.02.2022
3984 Clouds 8 1017 90 10000 1.79 225 21:29 03.02.2022
3985 Clouds 8 1017 88 10000 1.79 225 20:22 03.02.2022
3986 Clouds 8 1017 86 10000 1.34 225 19:46 03.02.2022
3987 Clouds 8 1017 84 10000 1.34 225 18:56 03.02.2022
3988 Clouds 8 1016 84 10000 0.89 248 17:59 03.02.2022
3989 Clouds 8 1016 82 10000 0.45 225 17:19 03.02.2022
3990 Clouds 8 1017 84 10000 1.34 270 15:34 03.02.2022
3991 Clouds 7 1017 83 10000 1.34 225 13:50 03.02.2022
3992 Clouds 7 1018 81 10000 1.34 225 12:22 03.02.2022
3993 Clouds 7 1019 82 10000 1.79 225 08:56 03.02.2022
3994 Clouds 7 1019 81 10000 1.34 225 07:43 03.02.2022
3995 Clouds 8 1024 79 10000 0.89 203 00:49 03.02.2022
3996 Clouds 9 1024 79 10000 1.34 225 00:22 03.02.2022
3997 Clouds 9 1024 81 10000 1.79 203 22:39 02.02.2022
3998 Clouds 9 1025 79 10000 1.34 216 21:51 02.02.2022
3999 Clouds 9 1025 78 10000 1.79 225 21:29 02.02.2022
4000 Clouds 9 1025 79 10000 0.89 270 20:27 02.02.2022
4001 Clouds 9 1025 80 10000 0.89 248 19:46 02.02.2022
4002 Clouds 10 1025 79 10000 1.79 225 18:56 02.02.2022
4003 Clouds 10 1025 80 10000 1.34 225 18:24 02.02.2022
4004 Clouds 10 1025 80 10000 1.79 270 17:20 02.02.2022
4005 Clouds 10 1025 80 10000 1.79 270 16:58 02.02.2022
4006 Clouds 11 1025 79 10000 3.13 270 15:29 02.02.2022
4007 Clouds 10 1025 89 10000 2.24 270 12:31 02.02.2022
4008 Clouds 10 1025 89 10000 1.79 270 11:49 02.02.2022
4009 Clouds 10 1025 90 10000 2.24 270 11:30 02.02.2022
4010 Clouds 10 1025 91 10000 1.79 270 09:18 02.02.2022
4011 Clouds 10 1024 90 10000 2.68 270 04:57 02.02.2022
4012 Clouds 10 1023 90 10000 3.13 270 22:34 01.02.2022
4013 Clouds 10 1023 91 10000 3.58 270 20:55 01.02.2022
4014 Clouds 10 1022 92 10000 3.58 270 19:39 01.02.2022
4015 Clouds 10 1022 92 10000 3.58 270 17:37 01.02.2022
4016 Clouds 10 1022 92 10000 4.02 270 16:31 01.02.2022
4017 Clouds 8 1023 95 10000 2.24 248 13:27 01.02.2022
4018 Drizzle 7 1024 95 10000 1.79 270 12:28 01.02.2022
4019 Drizzle 6 1025 94 10000 2.68 225 10:42 01.02.2022
4020 Clouds 2 1028 77 10000 2.06 260 02:24 01.02.2022
4021 Clear 2 1028 76 10000 2.57 270 23:39 31.01.2022
4022 Clear 3 1027 69 10000 1.34 270 22:42 31.01.2022
4023 Clear 4 1027 65 10000 0.89 270 21:36 31.01.2022
4024 Clear 5 1026 63 10000 0.89 270 20:44 31.01.2022
4025 Clear 5 1026 63 10000 1.79 270 20:24 31.01.2022
4026 Clear 6 1025 58 10000 1.34 270 18:54 31.01.2022
4027 Clear 6 1025 58 10000 3.13 270 18:20 31.01.2022
4028 Clear 7 1024 57 10000 2.68 293 17:25 31.01.2022
4029 Clear 7 1023 55 10000 1.79 270 16:25 31.01.2022
4030 Clouds 8 1023 59 10000 2.68 270 14:54 31.01.2022
4031 Clouds 8 1022 75 10000 3.13 270 13:43 31.01.2022
4032 Clouds 9 1022 65 10000 3.13 293 12:38 31.01.2022
4033 Clouds 8 1022 73 10000 4.47 270 11:34 31.01.2022
4034 Clouds 8 1021 76 10000 4.02 270 10:49 31.01.2022
4035 Clouds 7 1021 79 10000 2.24 270 09:39 31.01.2022
4036 Clouds 7 1020 77 10000 3.58 270 08:57 31.01.2022
4037 Clear 7 1020 78 10000 2.68 270 08:38 31.01.2022
4038 Clear 7 1020 78 10000 3.13 270 08:19 31.01.2022
4039 Clouds 7 1020 93 10000 3.13 270 06:18 31.01.2022
4040 Clouds 7 1025 79 10000 2.24 248 00:44 31.01.2022
4041 Clouds 6 1026 79 10000 1.54 230 22:38 30.01.2022
4042 Clouds 7 1026 78 10000 0.89 225 22:20 30.01.2022
4043 Clouds 6 1027 82 10000 1.03 0 21:38 30.01.2022
4044 Clouds 6 1027 82 10000 1.03 260 21:18 30.01.2022
4045 Clouds 6 1028 78 10000 1.34 270 20:45 30.01.2022
4046 Clouds 6 1028 78 10000 1.34 270 20:26 30.01.2022
4047 Clouds 7 1028 77 10000 0.89 68 19:24 30.01.2022
4048 Clouds 7 1029 74 10000 0.45 68 18:35 30.01.2022
4049 Clouds 8 1029 70 10000 0.89 270 17:53 30.01.2022
4050 Clouds 9 1029 66 10000 0.89 270 17:20 30.01.2022
4051 Clouds 9 1030 65 10000 0.89 45 16:37 30.01.2022
4052 Clouds 10 1030 65 10000 0.45 23 16:37 30.01.2022
4053 Clouds 10 1030 66 10000 0.89 315 16:19 30.01.2022
4054 Clouds 10 1030 65 10000 0.89 270 15:49 30.01.2022
4055 Clouds 10 1030 67 10000 1.79 270 15:30 30.01.2022
4056 Clouds 10 1031 67 10000 0.45 270 14:45 30.01.2022
4057 Clouds 9 1033 69 10000 1.03 0 12:46 30.01.2022
4058 Clear 9 1033 74 10000 1.34 68 11:53 30.01.2022
4059 Clear 7 1033 82 10000 0.89 90 10:29 30.01.2022
4060 Clear 6 1033 85 10000 0.45 45 09:50 30.01.2022
4061 Clear 6 1033 84 10000 2.24 42 08:54 30.01.2022
4062 Clouds 7 1032 82 10000 0.89 68 07:28 30.01.2022
4063 Drizzle 9 1032 95 10000 1.34 270 01:56 30.01.2022
4064 Drizzle 9 1032 95 10000 1.34 270 01:56 30.01.2022
4065 Drizzle 9 1032 95 10000 1.34 270 01:56 30.01.2022
4066 Clouds 9 1032 95 10000 1.34 248 00:23 30.01.2022
4067 Clouds 9 1032 95 10000 1.79 270 23:18 29.01.2022
4068 Clouds 10 1032 91 10000 1.34 248 21:49 29.01.2022
4069 Clouds 10 1032 90 10000 1.79 270 21:24 29.01.2022
4070 Clouds 10 1032 90 10000 3.13 270 20:32 29.01.2022
4071 Drizzle 10 1032 92 10000 2.68 270 19:34 29.01.2022
4072 Clouds 10 1032 92 10000 2.24 270 18:52 29.01.2022
4073 Clouds 10 1032 92 10000 1.79 270 18:23 29.01.2022
4074 Clouds 10 1031 93 10000 1.79 270 17:29 29.01.2022
4075 Drizzle 10 1031 95 10000 2.24 270 15:57 29.01.2022
4076 Mist 10 1032 94 10000 4.63 250 14:23 29.01.2022
4077 Mist 9 1033 95 10000 5.14 250 13:44 29.01.2022
4078 Mist 9 1032 94 10000 1.34 270 13:24 29.01.2022
4079 Clouds 9 1033 93 10000 2.24 225 11:49 29.01.2022
4080 Drizzle 9 1033 93 10000 1.79 225 11:24 29.01.2022
4081 Clouds 7 1033 95 10000 1.79 225 08:57 29.01.2022
4082 Mist 7 1033 97 10000 1.79 225 06:55 29.01.2022
4083 Clouds 6 1036 90 10000 1.34 225 00:36 29.01.2022
4084 Clouds 6 1036 90 10000 0.89 225 23:59 28.01.2022
4085 Clouds 6 1036 90 10000 2.24 225 22:51 28.01.2022
4086 Clouds 6 1036 91 10000 1.34 225 22:22 28.01.2022
4087 Clouds 6 1036 90 10000 0.89 225 21:37 28.01.2022
4088 Clouds 6 1037 91 10000 0.89 248 20:30 28.01.2022
4089 Clouds 6 1037 91 10000 0.89 248 20:30 28.01.2022
4090 Clouds 6 1036 90 10000 0.89 180 19:31 28.01.2022
4091 Clouds 7 1037 89 10000 0.45 203 18:43 28.01.2022
4092 Clouds 7 1036 87 10000 0.45 203 17:31 28.01.2022
4093 Clouds 7 1037 87 10000 0.89 293 15:20 28.01.2022
4094 Clouds 7 1037 89 10000 0.89 203 13:52 28.01.2022
4095 Clouds 7 1038 93 10000 0.89 203 12:30 28.01.2022
4096 Mist 6 1038 94 9000 0.89 248 11:25 28.01.2022
4097 Mist 6 1037 96 4500 0.45 218 09:52 28.01.2022
4098 Mist 6 1036 97 1500 0.45 113 08:26 28.01.2022
4099 Mist 6 1036 97 3100 1.54 0 07:34 28.01.2022
4100 Fog 6 1035 96 450 0 0 05:23 28.01.2022
4101 Mist 7 1035 96 1300 0.89 270 03:44 28.01.2022
4102 Mist 7 1034 97 4400 0.89 270 02:22 28.01.2022
4103 Mist 7 1034 97 4500 0.45 270 01:33 28.01.2022
4104 Mist 7 1033 96 5000 1.34 270 23:25 27.01.2022
4105 Mist 7 1032 94 3000 1.34 270 21:49 27.01.2022
4106 Mist 7 1032 94 4000 1.79 270 21:29 27.01.2022
4107 Drizzle 6 1031 95 2500 1.34 225 20:44 27.01.2022
4108 Mist 6 1031 92 4800 1.34 225 18:55 27.01.2022
4109 Clouds 7 1031 86 10000 1.34 225 17:56 27.01.2022
4110 Clouds 7 1030 86 7000 1.79 225 15:18 27.01.2022
4111 Clouds 5 1031 85 10000 0.45 225 13:36 27.01.2022
4112 Clouds 5 1031 86 10000 0.89 203 12:40 27.01.2022
4113 Mist 3 1032 90 9000 0.89 203 10:24 27.01.2022
4114 Mist 3 1032 90 8000 0.45 203 08:57 27.01.2022
4115 Mist 3 1032 91 8000 0.45 225 08:31 27.01.2022
4116 Mist 3 1031 92 7000 0.45 180 05:59 27.01.2022
4117 Mist 2 1033 92 7000 3.09 160 02:43 27.01.2022
4118 Mist 2 1033 91 7000 0.89 248 23:32 26.01.2022
4119 Mist 2 1034 92 7000 1.34 270 21:59 26.01.2022
4120 Mist 2 1034 92 7000 0.89 270 21:35 26.01.2022
4121 Mist 2 1034 92 7000 1.34 270 20:36 26.01.2022
4122 Mist 2 1034 92 7000 0.89 270 20:36 26.01.2022
4123 Mist 3 1034 91 7000 1.34 270 19:59 26.01.2022
4124 Mist 3 1034 90 8000 0.45 180 19:20 26.01.2022
4125 Mist 3 1034 90 9000 1.03 0 18:45 26.01.2022
4126 Mist 3 1034 91 9000 0.89 270 17:50 26.01.2022
4127 Mist 3 1034 90 10000 0.45 293 17:23 26.01.2022
4128 Mist 3 1034 90 10000 0.89 270 16:31 26.01.2022
4129 Mist 3 1034 88 8000 0.89 293 15:49 26.01.2022
4130 Mist 3 1034 91 6000 0.45 68 14:20 26.01.2022
4131 Mist 2 1035 91 6000 0.45 225 11:52 26.01.2022
4132 Mist 1 1035 93 6000 1.54 180 10:28 26.01.2022
4133 Mist 1 1035 95 6000 0.45 203 09:48 26.01.2022
4134 Clouds 0 1034 96 7000 0.89 270 07:44 26.01.2022
4135 Mist 0 1035 97 5000 0.45 68 03:31 26.01.2022
4136 Mist 0 1034 97 2100 1.34 270 23:58 25.01.2022
4137 Mist 0 1034 97 1500 0.89 270 23:19 25.01.2022
4138 Mist 0 1034 97 1600 1.34 270 22:21 25.01.2022
4139 Mist 1 1034 97 1500 0.89 270 21:58 25.01.2022
4140 Mist 1 1034 98 1900 1.03 0 20:59 25.01.2022
4141 Mist 1 1033 98 1700 0.51 0 20:40 25.01.2022
4142 Mist 1 1033 98 1500 1.03 0 19:53 25.01.2022
4143 Mist 1 1033 98 3700 1.54 0 18:38 25.01.2022
4144 Mist 1 1033 98 3000 1.54 330 17:45 25.01.2022
4145 Mist 1 1033 93 3700 2.06 310 16:45 25.01.2022
4146 Mist 1 1033 98 3700 2.06 310 16:21 25.01.2022
4147 Mist 1 1033 98 3100 2.06 310 15:38 25.01.2022
4148 Mist 1 1033 98 3200 1.54 290 14:57 25.01.2022
4149 Mist 1 1034 100 2100 1.03 0 13:42 25.01.2022
4150 Fog 0 1033 94 500 0 0 10:58 25.01.2022
4151 Fog -1 1033 95 250 0.51 0 08:38 25.01.2022
4152 Fog -1 1032 95 1000 0.89 68 07:29 25.01.2022
4153 Fog -1 1032 95 450 0.45 135 06:49 25.01.2022
4154 Fog -1 1032 94 400 1.03 160 05:22 25.01.2022
4155 Mist 0 1032 92 6000 1.54 30 23:37 24.01.2022
4156 Mist 0 1032 92 7000 2.06 30 23:19 24.01.2022
4157 Mist 1 1032 92 7000 2.06 30 22:59 24.01.2022
4158 Mist 1 1032 92 6000 1.54 30 22:41 24.01.2022
4159 Clear 1 1032 89 6000 1.54 10 21:54 24.01.2022
4160 Clear 2 1031 88 7000 1.03 0 21:29 24.01.2022
4161 Clear 2 1031 88 9000 0.45 68 20:32 24.01.2022
4162 Clear 3 1031 87 10000 2.06 30 19:52 24.01.2022
4163 Clear 3 1031 84 10000 0.45 68 19:30 24.01.2022
4164 Clear 4 1031 81 10000 0.45 45 18:19 24.01.2022
4165 Clear 6 1031 75 10000 0.89 68 17:24 24.01.2022
4166 Clear 7 1031 72 10000 2.24 45 16:55 24.01.2022
4167 Clear 7 1031 71 10000 1.34 68 16:21 24.01.2022
4168 Clear 7 1030 71 10000 1.34 90 14:44 24.01.2022
4169 Clear 6 1031 75 10000 1.34 68 13:26 24.01.2022
4170 Clear 5 1031 82 10000 0.89 68 12:30 24.01.2022
4171 Clear 2 1032 90 9000 0.89 68 10:46 24.01.2022
4172 Clear 0 1032 95 6000 0.89 45 09:49 24.01.2022
4173 Clear 0 1031 96 6000 0.45 68 08:54 24.01.2022
4174 Clear 0 1031 95 6000 0.45 68 07:19 24.01.2022
4175 Clear 0 1031 94 7000 0.45 68 07:19 24.01.2022
4176 Clear 1 1032 90 9000 0.89 45 01:31 24.01.2022
4177 Clear 2 1032 89 9000 0.89 68 00:45 24.01.2022
4178 Clear 2 1032 90 8000 0.89 45 00:26 24.01.2022
4179 Clouds 3 1033 87 10000 0.45 68 22:43 23.01.2022
4180 Clouds 4 1033 83 10000 0.45 45 21:50 23.01.2022
4181 Clouds 4 1033 81 10000 0.89 68 21:26 23.01.2022
4182 Clouds 4 1033 80 10000 1.79 90 20:54 23.01.2022
4183 Clouds 5 1033 81 10000 1.34 68 19:55 23.01.2022
4184 Clouds 5 1033 81 10000 0.89 90 18:52 23.01.2022
4185 Clouds 4 1033 83 10000 1.34 90 17:52 23.01.2022
4186 Clouds 5 1033 83 10000 1.34 68 16:52 23.01.2022
4187 Clouds 4 1033 86 10000 0.89 68 15:18 23.01.2022
4188 Clouds 4 1034 86 10000 1.34 90 14:33 23.01.2022
4189 Clouds 4 1035 86 10000 1.34 90 13:27 23.01.2022
4190 Clouds 4 1035 88 10000 1.34 68 12:40 23.01.2022
4191 Clouds 4 1035 89 10000 0.89 135 12:18 23.01.2022
4192 Clouds 4 1036 89 10000 0.89 90 11:25 23.01.2022
4193 Clouds 4 1036 89 10000 1.34 90 10:57 23.01.2022
4194 Clouds 4 1036 88 10000 1.34 90 10:23 23.01.2022
4195 Clouds 4 1035 88 10000 1.34 68 09:25 23.01.2022
4196 Clouds 4 1035 89 10000 1.34 68 05:59 23.01.2022
4197 Clouds 4 1036 88 10000 1.34 68 03:20 23.01.2022
4198 Clouds 4 1036 88 10000 1.34 68 01:36 23.01.2022
4199 Clouds 5 1036 87 10000 0.45 315 00:42 23.01.2022
4200 Clouds 5 1036 86 10000 1.34 68 23:58 22.01.2022
4201 Clouds 5 1037 86 10000 0.45 270 22:48 22.01.2022
4202 Clouds 5 1037 85 10000 1.34 270 22:19 22.01.2022
4203 Clouds 5 1037 84 10000 0.89 68 20:29 22.01.2022
4204 Clouds 5 1037 84 10000 0.89 270 19:41 22.01.2022
4205 Clouds 5 1037 83 10000 1.34 270 18:37 22.01.2022
4206 Clouds 6 1036 80 10000 0.45 293 17:45 22.01.2022
4207 Clouds 6 1036 79 10000 0.45 270 17:19 22.01.2022
4208 Clouds 6 1036 79 10000 0.89 293 16:54 22.01.2022
4209 Clouds 6 1037 78 10000 0.89 270 15:45 22.01.2022
4210 Clouds 6 1037 77 10000 0.45 270 14:52 22.01.2022
4211 Clouds 6 1037 78 10000 0.89 68 13:30 22.01.2022
4212 Clouds 5 1038 80 10000 0.89 270 12:37 22.01.2022
4213 Clouds 5 1038 81 10000 0.89 293 12:19 22.01.2022
4214 Clouds 5 1038 83 10000 0.89 270 10:54 22.01.2022
4215 Clouds 5 1037 83 10000 0.45 43 10:25 22.01.2022
4216 Clouds 4 1037 83 10000 1.34 68 08:59 22.01.2022
4217 Clouds 4 1037 83 10000 0.89 68 08:39 22.01.2022
4218 Clouds 4 1036 83 10000 0.89 270 06:46 22.01.2022
4219 Clouds 4 1037 82 10000 1.34 270 02:40 22.01.2022
4220 Clouds 3 1037 85 10000 0.89 270 23:52 21.01.2022
4221 Clouds 3 1037 85 10000 1.34 293 23:21 21.01.2022
4222 Clouds 3 1037 82 10000 0.45 270 21:45 21.01.2022
4223 Clouds 3 1037 86 10000 0.45 44 19:48 21.01.2022
4224 Clouds 4 1037 82 10000 0.45 270 18:20 21.01.2022
4225 Clouds 5 1037 80 10000 0.89 270 16:54 21.01.2022
4226 Clouds 5 1037 83 10000 0.89 68 15:24 21.01.2022
4227 Clouds 5 1037 85 10000 1.34 44 12:53 21.01.2022
4228 Clouds 4 1038 88 10000 0.45 225 11:42 21.01.2022
4229 Clouds 4 1038 89 10000 1.34 44 11:23 21.01.2022
4230 Clouds 2 1037 91 10000 0.45 23 09:34 21.01.2022
4231 Clouds 2 1037 90 10000 0.89 68 08:21 21.01.2022
4232 Clear 2 1036 90 10000 0.89 338 04:37 21.01.2022
4233 Clouds 4 1036 85 10000 0.89 293 23:19 20.01.2022
4234 Clouds 4 1035 82 10000 0.45 270 21:50 20.01.2022
4235 Clear 4 1035 82 10000 0.45 68 21:31 20.01.2022
4236 Clear 4 1034 81 10000 1.79 68 20:21 20.01.2022
4237 Clear 4 1034 81 10000 0.89 45 19:19 20.01.2022
4238 Clouds 5 1033 78 10000 2.24 68 18:18 20.01.2022
4239 Clouds 6 1033 75 10000 1.34 68 16:40 20.01.2022
4240 Clouds 7 1032 73 10000 2.68 68 15:40 20.01.2022
4241 Clouds 7 1033 77 10000 1.79 90 14:40 20.01.2022
4242 Clouds 6 1032 84 10000 0.89 270 13:33 20.01.2022
4243 Clouds 5 1033 92 10000 1.34 270 12:32 20.01.2022
4244 Clouds 5 1033 92 10000 0.89 270 11:49 20.01.2022
4245 Clear 3 1032 94 10000 0.89 270 10:38 20.01.2022
4246 Clear 2 1032 95 10000 0.89 270 09:34 20.01.2022
4247 Clear 2 1030 95 10000 1.34 270 07:50 20.01.2022
4248 Mist 6 1028 97 5000 0.89 270 00:44 20.01.2022
4249 Mist 6 1028 95 3500 0.89 293 22:54 19.01.2022
4250 Drizzle 6 1027 96 3600 1.79 270 22:21 19.01.2022
4251 Drizzle 6 1027 95 5000 1.34 225 21:23 19.01.2022
4252 Drizzle 6 1026 95 5000 0.89 225 20:46 19.01.2022
4253 Rain 6 1026 92 7000 1.34 270 19:42 19.01.2022
4254 Clouds 6 1027 91 7000 1.34 225 18:29 19.01.2022
4255 Clouds 6 1026 90 7000 1.79 270 17:44 19.01.2022
4256 Clouds 6 1026 91 7000 0.89 225 16:47 19.01.2022
4257 Clouds 6 1027 89 10000 1.79 270 14:42 19.01.2022
4258 Mist 6 1028 91 5000 1.34 270 12:42 19.01.2022
4259 Clouds 5 1028 92 7000 0.45 225 11:41 19.01.2022
4260 Clouds 5 1028 91 7000 0.89 293 10:23 19.01.2022
4261 Clouds 4 1028 92 7000 1.79 270 09:34 19.01.2022
4262 Clouds 4 1028 92 10000 1.54 260 06:45 19.01.2022
4263 Clouds 4 1030 89 10000 0.89 68 02:41 19.01.2022
4264 Clear 4 1032 90 10000 0.45 68 23:20 18.01.2022
4265 Clouds 5 1032 89 10000 0.89 68 22:34 18.01.2022
4266 Clear 5 1033 85 10000 0.45 90 21:00 18.01.2022
4267 Clouds 6 1033 84 10000 0.45 90 19:55 18.01.2022
4268 Clouds 6 1033 84 10000 0.89 68 19:36 18.01.2022
4269 Clouds 6 1033 82 10000 0.89 68 18:54 18.01.2022
4270 Clear 7 1033 78 10000 1.79 68 17:58 18.01.2022
4271 Clear 9 1033 72 10000 2.24 45 16:58 18.01.2022
4272 Clouds 9 1033 71 10000 1.34 68 15:47 18.01.2022
4273 Clouds 9 1034 72 10000 2.24 68 15:22 18.01.2022
4274 Clear 8 1036 81 9000 1.79 135 12:49 18.01.2022
4275 Mist 4 1037 98 9000 0.89 45 10:47 18.01.2022
4276 Clouds 2 1037 98 6000 0.89 45 09:21 18.01.2022
4277 Fog 2 1037 98 7000 0.89 68 07:56 18.01.2022
4278 Mist 1 1038 96 5000 0.89 68 02:35 18.01.2022
4279 Mist 2 1038 95 5000 1.54 30 23:47 17.01.2022
4280 Mist 3 1039 93 5000 0.45 45 22:29 17.01.2022
4281 Clear 4 1038 93 6000 0.45 45 21:35 17.01.2022
4282 Clouds 4 1038 93 9000 0.45 45 20:27 17.01.2022
4283 Clouds 6 1038 87 10000 0.45 68 18:31 17.01.2022
4284 Clouds 7 1038 87 10000 0.45 68 17:44 17.01.2022
4285 Clouds 7 1037 86 10000 0.89 270 16:45 17.01.2022
4286 Clouds 7 1037 90 10000 1.79 270 15:23 17.01.2022
4287 Clouds 7 1037 91 10000 0.89 293 14:57 17.01.2022
4288 Clouds 7 1037 93 8000 1.34 293 13:27 17.01.2022
4289 Clouds 7 1038 94 7000 0.89 248 12:56 17.01.2022
4290 Mist 6 1038 96 6000 0.89 293 11:49 17.01.2022
4291 Clouds 5 1037 96 6000 0.89 270 10:25 17.01.2022
4292 Mist 5 1037 97 3400 0.89 293 10:25 17.01.2022
4293 Clouds 5 1037 96 6000 2.06 270 09:35 17.01.2022
4294 Fog 5 1036 96 550 1.03 0 07:43 17.01.2022
4295 Fog 5 1035 96 500 1.03 0 07:18 17.01.2022
4296 Mist 5 1034 96 10000 0.89 270 00:56 17.01.2022
4297 Mist 5 1033 96 10000 1.34 225 22:31 16.01.2022
4298 Mist 4 1032 96 10000 0.89 203 20:38 16.01.2022
4299 Mist 4 1031 95 10000 0.89 203 18:53 16.01.2022
4300 Mist 4 1030 96 10000 0.89 225 17:59 16.01.2022
4301 Mist 4 1030 95 10000 1.34 225 17:25 16.01.2022
4302 Mist 4 1030 94 10000 1.34 203 16:45 16.01.2022
4303 Drizzle 3 1030 96 3100 0.89 203 14:50 16.01.2022
4304 Mist 3 1029 93 10000 0.45 203 14:27 16.01.2022
4305 Mist 3 1030 93 10000 5.14 190 12:51 16.01.2022
4306 Clouds 2 1030 94 8000 1.79 225 11:47 16.01.2022
4307 Mist 1 1029 96 7000 0.45 180 10:55 16.01.2022
4308 Mist 1 1029 96 6000 0.45 158 10:26 16.01.2022
4309 Mist 0 1029 97 7000 0.45 203 09:54 16.01.2022
4310 Fog 0 1029 97 6000 0.45 180 09:22 16.01.2022
4311 Mist 0 1029 97 5000 0.89 225 08:38 16.01.2022
4312 Mist -1 1027 94 5000 1.34 293 03:21 16.01.2022
4313 Mist -1 1026 99 5000 3.09 270 23:50 15.01.2022
4314 Mist 0 1025 95 3300 4.12 260 22:19 15.01.2022
4315 Mist 0 1025 93 3100 4.12 250 21:19 15.01.2022
4316 Mist 1 1025 92 4700 2.57 240 20:40 15.01.2022
4317 Mist 2 1024 91 5000 1.54 350 19:30 15.01.2022
4318 Mist 3 1024 85 5000 0.89 270 18:47 15.01.2022
4319 Mist 5 1024 80 5000 0.45 270 17:30 15.01.2022
4320 Clouds 7 1024 73 9000 1.79 293 16:37 15.01.2022
4321 Clouds 7 1026 80 7000 0.45 45 13:56 15.01.2022
4322 Mist 4 1027 92 5000 0.89 68 12:20 15.01.2022
4323 Mist 1 1027 97 3200 1.03 350 10:43 15.01.2022
4324 Mist 0 1027 96 4800 0.51 60 08:32 15.01.2022
4325 Mist 2 1030 92 5000 1.54 30 00:35 15.01.2022
4326 Clear 2 1032 91 6000 1.54 10 21:52 14.01.2022
4327 Clear 3 1032 86 9000 1.54 40 20:41 14.01.2022
4328 Clear 3 1032 84 10000 1.03 0 20:21 14.01.2022
4329 Clear 4 1033 82 10000 2.06 20 18:49 14.01.2022
4330 Clear 4 1033 82 10000 2.57 50 18:20 14.01.2022
4331 Clear 7 1033 72 10000 0.45 113 16:50 14.01.2022
4332 Clear 7 1033 68 10000 0.89 68 15:48 14.01.2022
4333 Clear 7 1034 70 10000 1.34 68 14:42 14.01.2022
4334 Clear 6 1035 76 10000 0.45 68 13:36 14.01.2022
4335 Clear 5 1036 86 10000 0.89 135 12:29 14.01.2022
4336 Clear 3 1036 93 8000 0.89 68 10:57 14.01.2022
4337 Mist 1 1036 95 5000 0.89 45 09:44 14.01.2022
4338 Mist 0 1036 97 5000 0.89 45 08:44 14.01.2022
4339 Mist 0 1036 94 5000 0.89 68 06:45 14.01.2022
4340 Clear 1 1038 94 6000 1.54 10 01:33 14.01.2022
4341 Clear 1 1039 95 6000 3.09 360 23:19 13.01.2022
4342 Clear 1 1039 95 6000 1.34 68 21:40 13.01.2022
4343 Clear 1 1039 95 6000 0.89 68 21:22 13.01.2022
4344 Clear 2 1039 96 10000 1.79 68 19:40 13.01.2022
4345 Clear 2 1039 95 10000 0.89 68 19:22 13.01.2022
4346 Clear 3 1039 91 10000 1.34 68 17:54 13.01.2022
4347 Clear 4 1039 90 10000 2.57 30 16:21 13.01.2022
4348 Clouds 4 1040 93 10000 1.54 10 15:37 13.01.2022
4349 Clouds 4 1040 95 10000 2.06 60 14:49 13.01.2022
4350 Mist 2 1041 100 1700 2.06 50 12:46 13.01.2022
4351 Mist 2 1041 97 1400 0.89 90 10:25 13.01.2022
4352 Mist 2 1041 98 3600 0.89 68 09:20 13.01.2022
4353 Mist 2 1041 98 2600 1.34 68 08:27 13.01.2022
4354 Mist 2 1041 98 2700 0.89 68 07:24 13.01.2022
4355 Mist 2 1041 98 2900 1.34 68 06:38 13.01.2022
4356 Mist 2 1041 97 1900 1.34 68 05:20 13.01.2022
4357 Fog 3 1041 97 900 1.34 68 02:33 13.01.2022
4358 Mist 3 1041 97 1200 1.34 68 00:56 13.01.2022
4359 Mist 4 1041 94 4600 1.79 68 23:50 12.01.2022
4360 Mist 4 1041 94 4600 1.79 68 23:29 12.01.2022
4361 Clouds 4 1041 90 7000 1.34 68 21:58 12.01.2022
4362 Clouds 4 1040 89 8000 1.34 68 21:23 12.01.2022
4363 Clouds 4 1040 88 8000 2.24 68 20:57 12.01.2022
4364 Clouds 4 1040 87 10000 1.34 68 19:57 12.01.2022
4365 Clouds 4 1040 86 10000 1.34 68 18:43 12.01.2022
4366 Clouds 4 1039 85 10000 0.45 68 17:51 12.01.2022
4367 Clouds 5 1039 86 10000 1.34 45 16:39 12.01.2022
4368 Mist 4 1039 91 4900 0.45 68 14:49 12.01.2022
4369 Mist 3 1040 95 9000 0.89 68 13:37 12.01.2022
4370 Mist 2 1040 96 10000 0.45 90 12:35 12.01.2022
4371 Mist 0 1038 98 1200 0.45 135 08:55 12.01.2022
4372 Mist 0 1038 98 1100 0.45 90 07:55 12.01.2022
4373 Fog 0 1038 98 900 0.45 0 07:32 12.01.2022
4374 Fog 0 1036 97 800 0.45 135 01:34 12.01.2022
4375 Mist 0 1036 97 2100 0.89 90 23:26 11.01.2022
4376 Fog 0 1035 98 750 0.89 45 22:25 11.01.2022
4377 Fog 1 1035 96 1200 0.45 90 21:28 11.01.2022
4378 Mist 1 1034 96 3500 0.45 135 20:36 11.01.2022
4379 Mist 1 1034 95 6000 0.89 135 19:23 11.01.2022
4380 Mist 2 1033 91 8000 3.09 70 17:53 11.01.2022
4381 Clear 4 1033 87 10000 0.45 135 16:39 11.01.2022
4382 Clouds 4 1033 85 10000 1.54 140 16:18 11.01.2022
4383 Clouds 3 1032 91 10000 0.51 0 14:50 11.01.2022
4384 Mist 3 1033 90 10000 1.03 0 14:32 11.01.2022
4385 Mist 2 1033 95 9000 3.09 140 13:48 11.01.2022
4386 Mist 2 1033 95 9000 3.09 140 13:25 11.01.2022
4387 Fog 2 1033 95 8000 0.45 135 12:25 11.01.2022
4388 Fog 1 1032 96 7000 0.45 90 10:32 11.01.2022
4389 Mist 1 1031 95 9000 0.45 158 07:55 11.01.2022
4390 Mist 2 1030 95 9000 0.89 135 04:28 11.01.2022
4391 Clouds 3 1028 95 10000 0.45 158 00:27 11.01.2022
4392 Clouds 3 1028 95 7000 0.45 135 23:39 10.01.2022
4393 Mist 3 1028 95 10000 0.45 135 22:39 10.01.2022
4394 Mist 3 1028 95 10000 0.45 135 22:18 10.01.2022
4395 Clouds 3 1027 95 10000 0.89 135 21:36 10.01.2022
4396 Clouds 3 1027 95 10000 0.89 135 21:18 10.01.2022
4397 Clouds 3 1027 95 10000 0.45 113 20:54 10.01.2022
4398 Mist 3 1026 95 10000 3.09 110 20:19 10.01.2022
4399 Mist 3 1026 96 10000 0.45 113 19:39 10.01.2022
4400 Mist 3 1026 97 10000 0.45 90 19:19 10.01.2022
4401 Mist 3 1025 97 10000 0.89 135 18:46 10.01.2022
4402 Mist 4 1024 96 10000 0.89 135 16:49 10.01.2022
4403 Fog 4 1023 97 10000 0.45 90 16:27 10.01.2022
4404 Mist 4 1022 98 3800 1.54 90 14:49 10.01.2022
4405 Mist 4 1021 98 2800 2.06 100 13:35 10.01.2022
4406 Mist 4 1021 98 3400 0.45 158 11:57 10.01.2022
4407 Fog 3 1020 98 6000 0.45 90 10:50 10.01.2022
4408 Mist 3 1018 98 3900 0.45 158 09:40 10.01.2022
4409 Mist 3 1014 96 3200 0.45 68 05:52 10.01.2022
4410 Mist 3 1013 95 2700 0.45 68 04:48 10.01.2022
4411 Clear 4 1010 96 6000 2.06 60 01:22 10.01.2022
4412 Clouds 4 1010 95 7000 0.45 203 00:22 10.01.2022
4413 Clouds 4 1009 97 10000 1.54 250 22:48 09.01.2022
4414 Clouds 4 1009 96 10000 1.54 220 22:21 09.01.2022
4415 Clouds 4 1008 95 10000 1.03 0 21:42 09.01.2022
4416 Clouds 4 1008 95 10000 1.03 0 21:22 09.01.2022
4417 Clouds 4 1008 95 10000 0.51 0 20:49 09.01.2022
4418 Clouds 4 1008 95 10000 0.51 0 20:29 09.01.2022
4419 Clouds 5 1007 94 10000 2.06 230 19:44 09.01.2022
4420 Clear 5 1007 94 10000 0.45 270 19:22 09.01.2022
4421 Clear 5 1007 93 10000 0.89 270 18:49 09.01.2022
4422 Clear 5 1007 92 10000 0.89 248 18:30 09.01.2022
4423 Clear 5 1007 93 10000 1.34 270 17:30 09.01.2022
4424 Clouds 5 1006 93 10000 0.89 270 16:51 09.01.2022
4425 Clear 5 1006 92 10000 0.89 225 15:56 09.01.2022
4426 Clear 5 1006 92 10000 0.89 270 15:34 09.01.2022
4427 Clouds 5 1006 89 10000 2.57 230 14:40 09.01.2022
4428 Clouds 5 1006 91 10000 3.09 220 13:50 09.01.2022
4429 Clouds 5 1006 93 9000 1.03 0 12:44 09.01.2022
4430 Mist 5 1006 93 3300 1.79 215 11:48 09.01.2022
4431 Clouds 5 1005 93 10000 0.89 45 10:49 09.01.2022
4432 Clouds 5 1005 93 10000 1.79 225 09:42 09.01.2022
4433 Rain 4 1005 93 10000 2.24 270 08:31 09.01.2022
4434 Clouds 5 1003 88 10000 2.68 270 03:55 09.01.2022
4435 Clouds 6 1000 87 10000 3.13 270 01:23 09.01.2022
4436 Clouds 7 997 88 10000 3.58 270 23:39 08.01.2022
4437 Clouds 7 996 89 10000 4.92 270 22:59 08.01.2022
4438 Clouds 8 995 88 10000 3.13 270 22:19 08.01.2022
4439 Clouds 8 995 88 10000 2.68 248 21:25 08.01.2022
4440 Clouds 8 996 91 10000 2.24 225 20:41 08.01.2022
4441 Clouds 8 996 92 10000 2.68 225 20:19 08.01.2022
4442 Rain 8 999 94 10000 2.68 225 18:34 08.01.2022
4443 Clouds 8 1001 93 10000 1.34 203 17:22 08.01.2022
4444 Clouds 8 1004 94 10000 1.79 203 15:52 08.01.2022
4445 Rain 8 1007 94 10000 2.24 225 14:44 08.01.2022
4446 Clouds 8 1011 95 8000 1.34 203 13:25 08.01.2022
4447 Clouds 7 1013 96 10000 1.79 225 11:28 08.01.2022
4448 Clouds 6 1014 94 10000 0.45 203 10:28 08.01.2022
4449 Clouds 5 1014 94 10000 1.34 203 09:48 08.01.2022
4450 Clouds 3 1015 95 10000 0.89 221 08:22 08.01.2022
4451 Clear 3 1016 92 10000 2.57 250 03:31 08.01.2022
4452 Clouds 5 1014 85 10000 2.68 270 00:42 08.01.2022
4453 Clouds 7 1011 92 10000 3.58 270 22:49 07.01.2022
4454 Clouds 6 1011 91 10000 2.68 225 21:18 07.01.2022
4455 Clouds 6 1012 91 10000 3.13 225 20:20 07.01.2022
4456 Rain 7 1013 84 10000 2.68 203 19:25 07.01.2022
4457 Clear 7 1013 82 10000 1.79 203 18:45 07.01.2022
4458 Clear 7 1015 78 10000 2.24 225 17:28 07.01.2022
4459 Clouds 8 1015 74 10000 2.24 270 16:41 07.01.2022
4460 Clouds 8 1015 79 10000 3.13 270 14:37 07.01.2022
4461 Clouds 7 1016 85 10000 2.24 270 13:41 07.01.2022
4462 Clouds 7 1016 88 10000 2.68 225 12:50 07.01.2022
4463 Rain 5 1016 94 10000 2.24 225 09:48 07.01.2022
4464 Clouds 3 1017 93 10000 2.68 225 02:58 07.01.2022
4465 Clouds 3 1017 92 10000 1.34 203 02:19 07.01.2022
4466 Rain 3 1018 87 10000 1.34 180 01:41 07.01.2022
4467 Rain 3 1018 86 10000 2.24 225 01:20 07.01.2022
4468 Clear 4 1019 82 10000 0.89 225 00:28 07.01.2022
4469 Clear 4 1020 84 10000 0.89 203 21:39 06.01.2022
4470 Clear 4 1020 85 10000 1.34 225 20:36 06.01.2022
4471 Clouds 4 1020 84 10000 1.34 180 19:54 06.01.2022
4472 Clear 4 1021 82 10000 0.89 203 19:28 06.01.2022
4473 Clouds 5 1021 69 10000 1.79 225 17:51 06.01.2022
4474 Clouds 5 1021 68 10000 1.79 225 17:19 06.01.2022
4475 Clouds 6 1020 63 10000 1.34 227 16:21 06.01.2022
4476 Clouds 6 1020 63 10000 1.79 248 15:40 06.01.2022
4477 Clouds 6 1020 67 10000 1.34 270 15:19 06.01.2022
4478 Clear 6 1021 76 10000 0.89 270 14:19 06.01.2022
4479 Clear 5 1022 85 10000 0.89 293 12:59 06.01.2022
4480 Clouds 3 1022 87 10000 1.34 293 11:58 06.01.2022
4481 Clear 2 1022 93 10000 1.54 0 11:29 06.01.2022
4482 Clear 0 1021 93 10000 1.54 240 09:33 06.01.2022
4483 Clear 1 1019 90 10000 0.51 0 01:57 06.01.2022
4484 Clear 2 1019 87 10000 1.34 270 23:56 05.01.2022
4485 Clear 2 1019 87 10000 1.03 0 23:21 05.01.2022
4486 Clear 2 1018 87 10000 2.06 280 22:42 05.01.2022
4487 Clear 2 1018 88 10000 2.06 270 22:18 05.01.2022
4488 Clouds 3 1018 83 10000 0.89 270 21:23 05.01.2022
4489 Clouds 2 1018 86 10000 2.06 230 20:30 05.01.2022
4490 Clear 3 1017 82 10000 1.34 270 19:29 05.01.2022
4491 Clear 3 1017 83 10000 2.57 290 19:29 05.01.2022
4492 Clear 4 1016 81 10000 2.06 280 18:21 05.01.2022
4493 Clouds 6 1015 74 10000 2.24 270 16:56 05.01.2022
4494 Clouds 6 1015 72 10000 3.13 270 16:18 05.01.2022
4495 Clouds 7 1015 73 10000 2.24 270 14:56 05.01.2022
4496 Clear 6 1015 75 10000 2.24 270 13:34 05.01.2022
4497 Clouds 5 1014 82 10000 1.79 270 12:20 05.01.2022
4498 Clouds 1 1012 91 10000 2.68 45 08:35 05.01.2022
4499 Clouds 1 1011 87 10000 1.34 46 06:46 05.01.2022
4500 Clear 3 1008 84 10000 2.24 270 01:47 05.01.2022
4501 Rain 4 1006 85 10000 1.79 293 23:44 04.01.2022
4502 Clouds 4 1006 86 10000 2.24 270 23:25 04.01.2022
4503 Clouds 6 1004 88 10000 3.58 270 21:50 04.01.2022
4504 Clouds 8 1002 85 10000 2.68 270 20:45 04.01.2022
4505 Clouds 9 1001 81 10000 2.68 248 18:41 04.01.2022
4506 Clouds 9 1001 88 10000 1.79 225 17:33 04.01.2022
4507 Clouds 9 1000 88 10000 2.24 225 16:39 04.01.2022
4508 Clouds 9 1001 88 10000 2.24 225 16:20 04.01.2022
4509 Clouds 9 1000 92 10000 1.79 225 14:42 04.01.2022
4510 Clouds 9 1001 93 10000 1.79 248 13:57 04.01.2022
4511 Clouds 9 1001 95 10000 1.79 225 12:36 04.01.2022
4512 Clouds 8 1001 95 10000 1.34 270 10:28 04.01.2022
4513 Clouds 8 1000 95 10000 1.34 270 08:59 04.01.2022
4514 Rain 8 999 97 6000 0.89 270 06:46 04.01.2022
4515 Rain 11 1004 95 6000 0.89 225 00:50 04.01.2022
4516 Drizzle 11 1004 94 10000 1.34 225 00:31 04.01.2022
4517 Drizzle 12 1006 93 10000 1.79 225 22:30 03.01.2022
4518 Drizzle 12 1007 93 10000 1.79 225 21:41 03.01.2022
4519 Drizzle 12 1008 93 10000 2.68 225 20:51 03.01.2022
4520 Mist 12 1009 96 4200 2.24 225 19:46 03.01.2022
4521 Rain 11 1010 95 7000 1.79 225 18:33 03.01.2022
4522 Rain 11 1011 94 10000 0.45 203 17:40 03.01.2022
4523 Rain 12 1012 92 10000 1.34 203 16:57 03.01.2022
4524 Clouds 13 1014 82 10000 2.24 225 14:54 03.01.2022
4525 Clouds 12 1015 84 10000 1.79 225 13:53 03.01.2022
4526 Clouds 12 1016 86 10000 1.34 225 12:35 03.01.2022
4527 Clouds 11 1017 87 10000 2.68 225 11:33 03.01.2022
4528 Clouds 11 1017 88 10000 1.34 203 09:49 03.01.2022
4529 Clouds 11 1018 87 10000 1.79 225 08:46 03.01.2022
4530 Clouds 11 1018 87 10000 1.34 203 06:48 03.01.2022
4531 Clouds 12 1019 79 10000 2.24 225 23:47 02.01.2022
4532 Clouds 12 1019 79 10000 2.68 225 23:18 02.01.2022
4533 Clouds 12 1019 79 10000 2.24 248 22:43 02.01.2022
4534 Clouds 13 1018 80 10000 2.24 225 21:38 02.01.2022
4535 Clouds 13 1018 79 10000 2.68 225 20:31 02.01.2022
4536 Clouds 13 1017 80 10000 2.68 225 19:52 02.01.2022
4537 Clouds 13 1017 80 10000 2.68 225 19:25 02.01.2022
4538 Clouds 13 1017 83 10000 2.24 225 18:33 02.01.2022
4539 Clouds 13 1018 82 10000 2.24 225 17:43 02.01.2022
4540 Clouds 13 1017 82 10000 1.79 225 17:21 02.01.2022
4541 Clouds 14 1017 81 10000 2.24 225 16:33 02.01.2022
4542 Clouds 14 1018 81 10000 2.68 225 15:51 02.01.2022
4543 Clouds 13 1018 83 10000 1.34 225 13:58 02.01.2022
4544 Clouds 13 1018 81 10000 2.24 225 12:34 02.01.2022
4545 Clouds 13 1018 80 10000 2.68 225 11:56 02.01.2022
4546 Clouds 11 1018 85 10000 2.24 225 10:59 02.01.2022
4547 Clear 11 1018 84 10000 2.68 225 10:26 02.01.2022
4548 Clear 11 1017 78 10000 1.34 225 08:27 02.01.2022
4549 Clear 10 1019 87 10000 0.45 203 03:22 02.01.2022
4550 Clear 10 1021 87 10000 0.45 225 23:56 01.01.2022
4551 Clear 9 1021 90 10000 2.06 120 23:36 01.01.2022
4552 Clear 10 1021 88 10000 0.89 225 22:44 01.01.2022
4553 Clear 10 1021 86 10000 1.54 120 22:18 01.01.2022
4554 Clear 10 1022 88 10000 0.45 203 21:43 01.01.2022
4555 Clear 10 1022 87 10000 0.45 180 20:52 01.01.2022
4556 Clear 11 1022 87 10000 0.89 203 19:55 01.01.2022
4557 Clear 11 1022 87 10000 0.89 203 18:58 01.01.2022
4558 Clear 11 1022 84 10000 2.06 170 17:57 01.01.2022
4559 Clear 13 1022 78 10000 0.45 180 16:35 01.01.2022
4560 Clear 14 1022 76 10000 0.45 158 15:57 01.01.2022
4561 Clear 14 1022 75 10000 0.89 135 15:22 01.01.2022
4562 Clear 13 1023 83 10000 0.45 158 13:42 01.01.2022
4563 Clear 12 1024 90 10000 0.45 158 12:49 01.01.2022
4564 Clear 10 1024 93 10000 0.45 203 11:51 01.01.2022
4565 Clear 9 1024 95 10000 0.45 203 11:22 01.01.2022
4566 Fog 8 1025 98 10000 0.45 158 10:26 01.01.2022
4567 Mist 7 1025 98 3600 0.89 113 09:41 01.01.2022
4568 Fog 8 1025 97 6000 2.57 120 08:25 01.01.2022
4569 Mist 8 1025 98 5000 0.45 113 07:44 01.01.2022
4570 Mist 9 1025 97 1500 3.09 140 06:47 01.01.2022
4571 Mist 9 1025 97 5000 0.45 113 05:26 01.01.2022
4572 Mist 9 1025 97 4100 2.06 120 04:37 01.01.2022
4573 Mist 10 1026 97 4400 2.57 110 01:28 01.01.2022
4574 Clouds 11 1026 96 10000 3.6 230 23:36 31.12.2021
4575 Mist 11 1026 95 5000 1.34 225 21:53 31.12.2021
4576 Clouds 12 1026 93 10000 1.34 225 20:38 31.12.2021
4577 Clouds 12 1025 93 10000 1.34 225 19:30 31.12.2021
4578 Clouds 13 1025 90 10000 2.06 270 18:37 31.12.2021
4579 Clouds 14 1024 86 10000 0.45 158 17:40 31.12.2021
4580 Clouds 14 1024 85 10000 2.57 220 17:19 31.12.2021
4581 Clouds 14 1023 85 10000 3.09 220 16:38 31.12.2021
4582 Clouds 15 1023 80 10000 1.79 248 15:57 31.12.2021
4583 Clear 15 1022 78 10000 0.89 225 15:29 31.12.2021
4584 Clear 15 1022 78 10000 4.12 240 14:57 31.12.2021
4585 Clear 15 1022 79 10000 0.89 225 14:30 31.12.2021
4586 Clear 14 1022 84 10000 0.89 225 13:37 31.12.2021
4587 Clear 13 1023 86 10000 0.89 203 12:49 31.12.2021
4588 Clear 11 1022 92 10000 0.89 225 11:52 31.12.2021
4589 Clear 10 1022 93 10000 0.45 203 11:33 31.12.2021
4590 Clear 9 1021 95 10000 0.45 158 10:38 31.12.2021
4591 Clear 9 1021 95 10000 0.45 203 10:20 31.12.2021
4592 Clear 8 1021 96 10000 3.09 140 09:33 31.12.2021
4593 Clear 8 1021 95 10000 0.45 225 08:47 31.12.2021
4594 Fog 8 1020 95 10000 0.45 203 07:32 31.12.2021
4595 Clouds 11 1022 95 10000 2.06 110 23:36 30.12.2021
4596 Clouds 12 1022 96 10000 0.45 203 22:50 30.12.2021
4597 Clouds 12 1022 94 10000 0.45 203 22:26 30.12.2021
4598 Clouds 12 1022 94 10000 0.45 203 21:37 30.12.2021
4599 Clouds 12 1022 94 10000 0.89 203 21:37 30.12.2021
4600 Clouds 12 1022 92 10000 0.45 203 20:49 30.12.2021
4601 Clouds 13 1022 93 10000 0.45 225 20:28 30.12.2021
4602 Clouds 13 1022 91 10000 0.45 203 19:48 30.12.2021
4603 Clouds 14 1022 91 10000 0.89 203 19:18 30.12.2021
4604 Clouds 14 1022 90 10000 1.34 225 18:21 30.12.2021
4605 Clouds 14 1021 87 10000 0.89 203 16:37 30.12.2021
4606 Clouds 15 1021 86 10000 1.79 225 15:53 30.12.2021
4607 Clouds 15 1021 86 10000 1.79 225 14:51 30.12.2021
4608 Clouds 15 1021 87 10000 2.24 225 14:31 30.12.2021
4609 Clouds 14 1021 89 10000 2.24 225 13:24 30.12.2021
4610 Clouds 14 1021 91 10000 1.79 225 11:45 30.12.2021
4611 Clouds 13 1021 92 10000 2.24 225 10:27 30.12.2021
4612 Clouds 13 1020 93 10000 2.68 225 09:27 30.12.2021
4613 Clouds 14 1018 91 10000 1.79 203 06:56 30.12.2021
4614 Clouds 14 1018 91 10000 1.79 225 04:56 30.12.2021
4615 Clouds 14 1018 95 10000 1.79 225 03:40 30.12.2021
4616 Clouds 14 1017 94 10000 2.24 225 02:19 30.12.2021
4617 Clouds 14 1016 92 10000 1.79 225 23:37 29.12.2021
4618 Clouds 14 1015 93 10000 2.68 225 22:35 29.12.2021
4619 Clouds 14 1015 94 10000 2.68 248 21:55 29.12.2021
4620 Clouds 14 1014 95 10000 2.24 225 20:57 29.12.2021
4621 Clouds 14 1014 94 10000 1.79 225 20:29 29.12.2021
4622 Clouds 15 1013 94 10000 2.24 225 19:31 29.12.2021
4623 Clouds 15 1012 96 10000 1.34 225 18:36 29.12.2021
4624 Drizzle 15 1011 96 10000 2.24 248 17:49 29.12.2021
4625 Drizzle 15 1011 96 10000 2.24 225 17:26 29.12.2021
4626 Drizzle 15 1010 96 8000 2.24 225 16:21 29.12.2021
4627 Clouds 15 1010 94 10000 2.24 225 15:21 29.12.2021
4628 Mist 14 1009 97 5000 1.34 225 12:57 29.12.2021
4629 Clouds 13 1009 97 7000 1.34 225 12:35 29.12.2021
4630 Mist 12 1008 97 7000 0.45 270 11:23 29.12.2021
4631 Clouds 10 1008 96 10000 0.45 203 09:35 29.12.2021
4632 Rain 10 1008 96 4800 0.45 158 07:47 29.12.2021
4633 Drizzle 10 1008 94 10000 0.45 203 06:36 29.12.2021
4634 Drizzle 10 1009 93 10000 0.89 203 05:57 29.12.2021
4635 Clouds 10 1009 91 10000 0.45 215 05:27 29.12.2021
4636 Clouds 10 1008 85 10000 3.13 199 01:27 29.12.2021
4637 Clouds 10 1007 80 10000 1.79 248 23:59 28.12.2021
4638 Clouds 11 1006 77 10000 2.24 225 22:57 28.12.2021
4639 Clouds 11 1006 77 10000 2.68 270 22:26 28.12.2021
4640 Clouds 11 1006 76 10000 2.68 248 21:56 28.12.2021
4641 Clouds 11 1005 74 10000 2.24 270 21:35 28.12.2021
4642 Clouds 11 1004 73 10000 1.79 225 20:32 28.12.2021
4643 Clouds 11 1003 72 10000 3.58 248 18:56 28.12.2021
4644 Clouds 11 1002 72 10000 3.58 248 18:28 28.12.2021
4645 Clouds 11 1001 73 10000 4.02 248 17:48 28.12.2021
4646 Clouds 11 1000 78 10000 3.58 225 16:25 28.12.2021
4647 Clouds 11 1000 78 10000 3.58 270 15:41 28.12.2021
4648 Clouds 12 1000 73 10000 4.02 270 15:19 28.12.2021
4649 Clouds 12 999 75 10000 3.58 225 14:45 28.12.2021
4650 Clouds 12 999 75 10000 3.58 270 14:20 28.12.2021
4651 Clouds 12 1000 73 10000 2.68 270 13:42 28.12.2021
4652 Clouds 12 1000 72 10000 4.47 270 13:24 28.12.2021
4653 Clouds 12 999 77 10000 3.58 248 12:39 28.12.2021
4654 Clouds 12 999 78 10000 2.68 248 11:27 28.12.2021
4655 Clouds 12 996 86 10000 2.24 225 07:40 28.12.2021
4656 Clouds 12 995 89 10000 1.79 225 06:40 28.12.2021
4657 Rain 11 994 92 8000 0.89 203 23:43 27.12.2021
4658 Drizzle 11 995 91 10000 1.34 135 22:58 27.12.2021
4659 Clouds 11 996 92 10000 1.34 203 21:33 27.12.2021
4660 Clouds 11 997 92 10000 1.34 158 20:46 27.12.2021
4661 Clouds 11 997 91 10000 0.89 158 19:58 27.12.2021
4662 Clouds 11 998 91 10000 0.45 180 19:39 27.12.2021
4663 Clouds 11 998 89 10000 0.89 203 18:23 27.12.2021
4664 Clouds 11 997 86 10000 1.34 203 17:46 27.12.2021
4665 Clouds 12 997 84 10000 2.68 225 16:40 27.12.2021
4666 Clouds 13 997 87 10000 1.79 225 15:52 27.12.2021
4667 Clouds 12 996 93 10000 2.24 225 14:32 27.12.2021
4668 Clouds 10 996 96 10000 0.89 225 13:39 27.12.2021
4669 Mist 9 996 96 10000 0.89 135 12:36 27.12.2021
4670 Drizzle 9 996 96 10000 0.45 158 10:31 27.12.2021
4671 Clouds 9 997 96 10000 0.89 135 09:47 27.12.2021
4672 Clouds 10 998 96 10000 0.89 203 07:38 27.12.2021
4673 Clouds 10 999 96 10000 0.89 203 07:20 27.12.2021
4674 Clouds 10 1000 97 6000 0.45 225 02:19 27.12.2021
4675 Clouds 10 1001 96 10000 0.45 158 23:58 26.12.2021
4676 Clouds 10 1002 96 10000 0.45 203 23:36 26.12.2021
4677 Clouds 10 1002 96 10000 0.89 203 22:34 26.12.2021
4678 Clouds 9 1002 94 10000 0.45 203 20:59 26.12.2021
4679 Rain 10 1003 93 10000 0.45 225 19:47 26.12.2021
4680 Clouds 9 1003 92 10000 1.79 225 18:24 26.12.2021
4681 Clouds 10 1003 90 10000 1.79 225 17:24 26.12.2021
4682 Clouds 11 1002 96 10000 0.89 203 14:29 26.12.2021
4683 Clouds 11 1003 98 6000 1.34 203 13:41 26.12.2021
4684 Rain 10 1003 98 5000 0.89 225 13:20 26.12.2021
4685 Rain 10 1003 98 10000 0.45 203 12:33 26.12.2021
4686 Rain 10 1003 98 10000 0.45 203 12:33 26.12.2021
4687 Mist 9 1003 98 10000 1.54 160 10:42 26.12.2021
4688 Fog 9 1003 98 10000 2.06 170 09:28 26.12.2021
4689 Fog 9 1002 98 7000 3.09 160 08:44 26.12.2021
4690 Mist 9 1003 97 5000 2.06 150 07:59 26.12.2021
4691 Mist 9 1004 98 6000 2.57 140 01:30 26.12.2021
4692 Mist 9 1004 98 6000 0.45 158 23:58 25.12.2021
4693 Fog 9 1004 97 7000 2.06 160 23:27 25.12.2021
4694 Mist 9 1004 97 6000 2.06 160 22:28 25.12.2021
4695 Mist 9 1004 97 7000 0.45 158 21:18 25.12.2021
4696 Mist 9 1004 98 3900 2.06 60 19:28 25.12.2021
4697 Mist 9 1004 98 4100 1.54 40 18:57 25.12.2021
4698 Mist 10 1004 97 5000 1.54 40 18:21 25.12.2021
4699 Mist 10 1004 96 3100 0.89 45 16:42 25.12.2021
4700 Clouds 10 1004 95 10000 1.54 30 15:26 25.12.2021
4701 Clouds 10 1004 95 10000 1.03 0 13:43 25.12.2021
4702 Mist 10 1004 97 10000 0.45 270 12:18 25.12.2021
4703 Mist 9 1004 98 3500 0.89 225 10:32 25.12.2021
4704 Mist 9 1004 98 2500 1.54 120 09:48 25.12.2021
4705 Clouds 9 1003 97 10000 0.45 203 05:39 25.12.2021
4706 Rain 9 1003 98 7000 0.45 225 01:34 25.12.2021
4707 Rain 9 1004 96 7000 2.06 190 00:18 25.12.2021
4708 Clouds 9 1004 97 6000 0.45 203 21:46 24.12.2021
4709 Rain 9 1004 97 7000 0.45 248 19:26 24.12.2021
4710 Mist 9 1005 97 7000 0.45 180 18:41 24.12.2021
4711 Mist 10 1005 96 10000 0.45 203 16:43 24.12.2021
4712 Fog 10 1005 96 1000 0.45 203 15:50 24.12.2021
4713 Mist 10 1005 96 4700 0.45 203 15:20 24.12.2021
4714 Mist 10 1006 96 3600 0.89 225 14:33 24.12.2021
4715 Mist 10 1006 96 1300 0.89 203 13:54 24.12.2021
4716 Fog 10 1006 96 10000 0.89 225 13:32 24.12.2021
4717 Fog 10 1007 97 10000 0.45 203 12:40 24.12.2021
4718 Mist 9 1007 96 10000 0.89 203 11:43 24.12.2021
4719 Mist 9 1008 96 10000 0.45 225 11:24 24.12.2021
4720 Clouds 9 1008 97 10000 0.89 225 10:35 24.12.2021
4721 Clouds 8 1008 96 10000 0.45 224 08:48 24.12.2021
4722 Rain 8 1008 94 10000 2.06 190 07:58 24.12.2021
4723 Rain 8 1008 93 10000 2.06 160 07:31 24.12.2021
4724 Clouds 8 1011 90 10000 0.89 225 00:47 24.12.2021
4725 Clouds 8 1011 91 10000 1.03 0 23:50 23.12.2021
4726 Clouds 8 1011 92 10000 0.89 223 22:53 23.12.2021
4727 Clouds 8 1011 89 10000 0.45 270 22:24 23.12.2021
4728 Clear 8 1011 89 10000 0.89 203 21:47 23.12.2021
4729 Clear 8 1011 88 10000 1.34 248 20:31 23.12.2021
4730 Clear 8 1012 86 10000 0.45 158 19:30 23.12.2021
4731 Clear 8 1012 85 10000 0.45 203 18:28 23.12.2021
4732 Clear 8 1012 84 10000 0.45 225 17:46 23.12.2021
4733 Clear 9 1012 82 10000 0.89 203 16:27 23.12.2021
4734 Clear 9 1011 80 10000 0.45 203 15:54 23.12.2021
4735 Clear 9 1011 80 10000 0.89 225 15:30 23.12.2021
4736 Clouds 9 1012 82 10000 1.79 225 14:42 23.12.2021
4737 Clouds 8 1012 82 10000 1.34 203 14:19 23.12.2021
4738 Clouds 5 1013 87 10000 0.45 225 12:39 23.12.2021
4739 Clouds 2 1013 88 9000 0.45 203 10:36 23.12.2021
4740 Clouds 1 1014 90 8000 0.45 203 09:34 23.12.2021
4741 Clouds 1 1014 90 8000 0.45 180 08:58 23.12.2021
4742 Mist -1 1014 95 7000 1.54 130 06:23 23.12.2021
4743 Mist -2 1016 95 6000 2.57 130 03:28 23.12.2021
4744 Clouds -1 1018 88 7000 0.89 135 22:55 22.12.2021
4745 Clouds -1 1018 88 8000 0.89 135 22:23 22.12.2021
4746 Clouds -1 1018 88 8000 0.45 158 21:53 22.12.2021
4747 Clouds -1 1018 89 8000 0.89 113 21:27 22.12.2021
4748 Clouds -1 1019 89 8000 0.45 135 20:41 22.12.2021
4749 Clouds 0 1019 87 9000 0.89 135 19:59 22.12.2021
4750 Clouds 0 1020 88 8000 0.89 203 19:19 22.12.2021
4751 Clouds 0 1020 85 7000 1.34 113 17:39 22.12.2021
4752 Clouds 0 1020 84 8000 4.63 110 16:36 22.12.2021
4753 Mist 0 1020 86 8000 3.09 120 15:36 22.12.2021
4754 Mist 0 1021 86 8000 3.6 120 13:23 22.12.2021
4755 Mist -1 1022 90 7000 1.79 90 12:31 22.12.2021
4756 Mist -1 1023 90 7000 2.24 113 09:53 22.12.2021
4757 Mist -2 1023 92 5000 1.79 135 09:33 22.12.2021
4758 Mist -1 1023 92 8000 1.34 90 07:22 22.12.2021
4759 Mist -1 1023 93 6000 1.34 113 05:41 22.12.2021
4760 Mist -1 1023 93 6000 1.34 90 05:22 22.12.2021
4761 Mist -1 1023 93 5000 0.89 158 04:45 22.12.2021
4762 Mist -1 1023 93 5000 1.34 90 04:22 22.12.2021
4763 Mist -2 1023 94 4500 0.45 90 03:32 22.12.2021
4764 Mist -1 1023 93 10000 1.54 70 00:29 22.12.2021
4765 Mist -1 1024 91 10000 0.89 68 22:52 21.12.2021
4766 Clear -1 1024 91 10000 1.54 10 22:27 21.12.2021
4767 Clear 0 1024 88 10000 0.45 90 21:43 21.12.2021
4768 Clear 0 1024 87 10000 0.89 113 20:54 21.12.2021
4769 Clear 0 1023 88 10000 0.89 68 20:20 21.12.2021
4770 Clear 0 1023 87 10000 0.89 68 19:41 21.12.2021
4771 Clear 0 1023 85 10000 1.34 68 18:43 21.12.2021
4772 Clear 1 1023 83 10000 0.45 68 18:21 21.12.2021
4773 Clear 2 1023 82 10000 1.34 68 17:41 21.12.2021
4774 Clear 4 1022 76 10000 0.89 113 15:55 21.12.2021
4775 Clear 4 1022 75 10000 2.24 68 15:20 21.12.2021
4776 Clear 4 1023 78 10000 1.34 68 13:50 21.12.2021
4777 Clear 3 1023 77 10000 1.34 68 13:30 21.12.2021
4778 Clear 2 1024 85 10000 0.89 113 11:36 21.12.2021
4779 Clear 0 1024 88 10000 1.79 45 10:21 21.12.2021
4780 Clear -1 1023 90 10000 0.89 45 09:23 21.12.2021
4781 Clear 0 1023 89 10000 1.34 68 07:58 21.12.2021
4782 Clear 0 1023 86 10000 1.34 45 07:27 21.12.2021
4783 Clear 1 1023 85 10000 0.89 68 05:31 21.12.2021
4784 Clear 2 1024 80 10000 0.89 68 02:40 21.12.2021
4785 Clouds 4 1025 73 10000 0.89 68 23:58 20.12.2021
4786 Clouds 5 1025 72 10000 0.45 45 23:27 20.12.2021
4787 Clouds 5 1025 72 10000 0.89 68 22:28 20.12.2021
4788 Clouds 5 1025 72 10000 0.89 68 22:28 20.12.2021
4789 Clouds 5 1025 72 10000 0.89 68 21:47 20.12.2021
4790 Clouds 5 1025 72 10000 0.89 113 21:23 20.12.2021
4791 Clouds 5 1025 72 10000 0.89 90 20:44 20.12.2021
4792 Clouds 5 1025 73 10000 1.34 68 19:53 20.12.2021
4793 Clouds 5 1025 73 10000 1.34 68 19:53 20.12.2021
4794 Clouds 5 1025 73 10000 1.79 68 19:31 20.12.2021
4795 Clouds 5 1025 75 10000 0.89 68 18:54 20.12.2021
4796 Clouds 5 1025 76 10000 1.34 90 17:53 20.12.2021
4797 Clouds 5 1025 77 10000 2.24 68 17:25 20.12.2021
4798 Clouds 6 1025 76 10000 0.89 68 16:40 20.12.2021
4799 Clouds 6 1025 77 10000 1.34 90 15:51 20.12.2021
4800 Clouds 5 1026 80 10000 0.89 90 14:51 20.12.2021
4801 Clouds 5 1026 83 10000 1.34 90 13:18 20.12.2021
4802 Clouds 5 1027 85 10000 2.68 45 11:19 20.12.2021
4803 Clouds 5 1027 88 10000 2.68 45 09:48 20.12.2021
4804 Clouds 5 1026 89 10000 1.34 68 09:29 20.12.2021
4805 Clouds 5 1026 89 10000 2.24 68 08:42 20.12.2021
4806 Clouds 5 1026 89 10000 0.89 68 07:50 20.12.2021
4807 Clouds 5 1026 89 10000 1.34 68 07:30 20.12.2021
4808 Clouds 5 1026 90 10000 1.79 68 04:24 20.12.2021
4809 Clouds 5 1027 93 10000 1.79 45 23:58 19.12.2021
4810 Clouds 5 1028 95 10000 2.68 68 22:45 19.12.2021
4811 Mist 5 1028 95 10000 2.24 45 21:50 19.12.2021
4812 Mist 5 1028 95 9000 3.13 68 21:30 19.12.2021
4813 Mist 5 1028 96 7000 1.34 68 20:32 19.12.2021
4814 Mist 5 1028 96 7000 2.68 68 19:51 19.12.2021
4815 Fog 5 1029 96 6000 1.79 45 19:22 19.12.2021
4816 Mist 5 1029 96 6000 1.34 68 18:29 19.12.2021
4817 Mist 5 1029 97 5000 2.68 45 17:53 19.12.2021
4818 Mist 5 1029 95 10000 2.24 68 17:19 19.12.2021
4819 Mist 6 1029 95 10000 2.24 68 16:26 19.12.2021
4820 Clouds 6 1029 94 8000 1.79 68 15:43 19.12.2021
4821 Clouds 6 1030 94 10000 1.79 45 15:20 19.12.2021
4822 Clouds 6 1030 94 10000 1.79 45 14:42 19.12.2021
4823 Mist 5 1031 96 8000 2.24 45 13:22 19.12.2021
4824 Mist 5 1031 98 8000 1.34 45 12:46 19.12.2021
4825 Fog 5 1032 97 10000 1.34 68 12:23 19.12.2021
4826 Mist 5 1032 97 4800 2.24 68 11:21 19.12.2021
4827 Mist 5 1032 97 3100 1.79 68 10:26 19.12.2021
4828 Mist 5 1033 97 4500 0.89 68 09:42 19.12.2021
4829 Fog 5 1032 97 6000 1.34 68 08:43 19.12.2021
4830 Mist 5 1033 97 5000 2.68 68 04:45 19.12.2021
4831 Mist 6 1035 96 5000 2.68 68 01:33 19.12.2021
4832 Mist 6 1035 95 6000 3.13 45 00:52 19.12.2021
4833 Mist 6 1035 96 6000 1.79 68 22:42 18.12.2021
4834 Mist 5 1034 95 5000 2.68 45 21:58 18.12.2021
4835 Mist 5 1034 93 5000 2.68 45 21:36 18.12.2021
4836 Mist 6 1034 92 5000 2.68 45 20:44 18.12.2021
4837 Mist 6 1034 92 5000 2.24 45 20:19 18.12.2021
4838 Clear 6 1034 86 6000 1.79 45 19:25 18.12.2021
4839 Clear 7 1034 81 10000 1.79 68 18:22 18.12.2021
4840 Clear 7 1034 79 10000 2.68 68 17:48 18.12.2021
4841 Clear 9 1034 77 10000 1.79 68 16:26 18.12.2021
4842 Clear 9 1034 76 10000 2.68 45 15:28 18.12.2021
4843 Clear 9 1034 76 10000 3.58 45 14:51 18.12.2021
4844 Clear 8 1035 77 9000 1.79 45 13:29 18.12.2021
4845 Clear 6 1035 89 9000 1.79 68 11:23 18.12.2021
4846 Clouds 4 1036 94 7000 0.89 68 09:52 18.12.2021
4847 Clouds 4 1035 95 9000 1.34 68 08:47 18.12.2021
4848 Clouds 4 1035 94 9000 1.34 68 08:27 18.12.2021
4849 Mist 4 1035 96 8000 2.68 45 05:56 18.12.2021
4850 Clear 5 1036 94 6000 0.45 68 00:34 18.12.2021
4851 Clear 5 1036 95 6000 0.45 113 23:46 17.12.2021
4852 Mist 6 1036 93 5000 0.89 68 21:58 17.12.2021
4853 Mist 6 1035 93 4800 1.34 68 21:23 17.12.2021
4854 Clouds 6 1035 92 6000 0.89 68 20:42 17.12.2021
4855 Clouds 7 1035 90 7000 0.89 68 19:45 17.12.2021
4856 Clear 7 1035 88 10000 1.79 68 18:39 17.12.2021
4857 Clear 8 1035 85 10000 2.68 45 17:40 17.12.2021
4858 Clear 9 1035 83 10000 2.68 68 16:50 17.12.2021
4859 Clear 9 1035 83 10000 3.13 68 16:25 17.12.2021
4860 Clear 9 1035 82 10000 3.58 68 15:25 17.12.2021
4861 Clouds 9 1035 84 10000 2.24 68 14:41 17.12.2021
4862 Clouds 9 1036 87 10000 2.68 68 13:30 17.12.2021
4863 Clouds 8 1037 91 10000 1.79 68 12:21 17.12.2021
4864 Clouds 8 1037 93 10000 2.24 68 10:39 17.12.2021
4865 Clouds 8 1037 93 10000 2.24 68 09:44 17.12.2021
4866 Clouds 7 1036 94 8000 0.45 92 08:31 17.12.2021
4867 Clouds 7 1036 95 7000 0.89 68 07:20 17.12.2021
4868 Mist 6 1036 94 5000 1.79 68 04:40 17.12.2021
4869 Mist 6 1037 92 5000 0.45 68 23:58 16.12.2021
4870 Clear 7 1038 88 7000 2.57 10 22:24 16.12.2021
4871 Clear 7 1038 90 7000 0.45 68 21:51 16.12.2021
4872 Clear 7 1038 90 6000 0.45 68 21:30 16.12.2021
4873 Clear 8 1037 85 9000 0.45 45 20:31 16.12.2021
4874 Clear 9 1037 83 10000 0.89 68 19:51 16.12.2021
4875 Clouds 10 1037 81 10000 1.34 45 18:41 16.12.2021
4876 Clouds 10 1037 82 10000 1.34 68 18:22 16.12.2021
4877 Clouds 10 1037 81 10000 0.89 68 17:32 16.12.2021
4878 Clouds 10 1037 82 10000 0.89 68 16:23 16.12.2021
4879 Clouds 11 1037 80 10000 1.34 45 15:20 16.12.2021
4880 Clouds 11 1037 83 10000 0.89 68 13:44 16.12.2021
4881 Clouds 10 1037 91 10000 0.45 113 11:48 16.12.2021
4882 Clouds 9 1037 92 10000 0.45 90 11:18 16.12.2021
4883 Clouds 8 1037 94 9000 0.51 0 10:32 16.12.2021
4884 Clouds 8 1036 93 10000 1.03 350 08:56 16.12.2021
4885 Clouds 8 1036 93 7000 0.51 0 06:23 16.12.2021
4886 Clouds 8 1035 94 6000 0.89 68 03:19 16.12.2021
4887 Clouds 7 1035 94 6000 0.45 135 23:36 15.12.2021
4888 Clouds 7 1035 94 10000 1.54 110 22:49 15.12.2021
4889 Clouds 7 1035 95 10000 0 0 22:19 15.12.2021
4890 Clouds 7 1035 93 10000 1.54 50 21:31 15.12.2021
4891 Clouds 7 1034 92 10000 0.45 68 20:32 15.12.2021
4892 Clear 8 1034 91 10000 1.54 10 19:53 15.12.2021
4893 Clouds 9 1033 87 10000 0 0 18:41 15.12.2021
4894 Clouds 9 1033 87 10000 1.03 50 18:18 15.12.2021
4895 Clouds 9 1033 87 10000 1.03 0 17:40 15.12.2021
4896 Clouds 9 1033 87 10000 0.45 113 16:57 15.12.2021
4897 Clouds 9 1033 87 10000 0.89 113 15:47 15.12.2021
4898 Clouds 9 1033 88 10000 1.34 68 15:29 15.12.2021
4899 Clouds 9 1033 88 10000 0.45 68 14:44 15.12.2021
4900 Clouds 9 1033 88 10000 0.51 0 13:27 15.12.2021
4901 Clouds 8 1033 93 10000 0.45 113 10:58 15.12.2021
4902 Clouds 7 1033 94 9000 1.54 100 09:38 15.12.2021
4903 Clouds 7 1032 96 9000 1.54 40 07:52 15.12.2021
4904 Mist 7 1031 95 7000 1.54 0 03:58 15.12.2021
4905 Mist 7 1031 95 7000 2.06 140 23:53 14.12.2021
4906 Mist 7 1031 95 7000 2.06 140 22:55 14.12.2021
4907 Mist 7 1031 95 7000 1.54 120 22:37 14.12.2021
4908 Mist 7 1031 94 7000 2.06 140 21:25 14.12.2021
4909 Mist 7 1031 94 8000 1.03 150 20:20 14.12.2021
4910 Mist 7 1030 93 8000 2.06 150 19:21 14.12.2021
4911 Clouds 8 1030 92 9000 1.54 160 18:38 14.12.2021
4912 Clouds 8 1030 92 10000 0 0 17:51 14.12.2021
4913 Clouds 8 1030 91 10000 0 0 16:43 14.12.2021
4914 Clouds 8 1030 91 10000 0 0 16:43 14.12.2021
4915 Clouds 8 1030 91 10000 0 0 16:18 14.12.2021
4916 Mist 8 1029 93 10000 1.03 0 13:58 14.12.2021
4917 Clouds 7 1030 95 10000 0.45 293 12:48 14.12.2021
4918 Mist 6 1030 96 10000 0.45 270 11:25 14.12.2021
4919 Fog 6 1030 96 10000 1.54 240 10:45 14.12.2021
4920 Fog 5 1030 97 9000 0.45 270 09:54 14.12.2021
4921 Mist 5 1029 97 9000 0.45 225 08:49 14.12.2021
4922 Mist 5 1029 97 9000 1.03 230 08:21 14.12.2021
4923 Mist 5 1028 97 10000 1.34 293 07:23 14.12.2021
4924 Fog 6 1027 97 6000 0.45 135 23:51 13.12.2021
4925 Fog 6 1027 96 7000 0.45 158 22:26 13.12.2021
4926 Fog 6 1027 96 9000 0.89 135 21:39 13.12.2021
4927 Fog 7 1027 96 10000 3.09 180 20:51 13.12.2021
4928 Fog 7 1027 96 10000 3.09 150 20:22 13.12.2021
4929 Fog 7 1027 96 10000 0.45 135 19:49 13.12.2021
4930 Mist 7 1027 96 10000 3.6 120 17:39 13.12.2021
4931 Clouds 7 1026 96 10000 0.89 135 17:18 13.12.2021
4932 Mist 8 1026 95 10000 1.34 135 15:47 13.12.2021
4933 Mist 8 1026 94 10000 3.6 120 14:43 13.12.2021
4934 Clouds 8 1026 94 10000 0.89 90 13:37 13.12.2021
4935 Clouds 8 1027 93 10000 0.45 180 12:41 13.12.2021
4936 Clouds 8 1027 94 10000 1.79 113 11:54 13.12.2021
4937 Clouds 8 1027 94 10000 1.34 135 11:34 13.12.2021
4938 Mist 8 1027 96 10000 0.89 135 10:41 13.12.2021
4939 Mist 9 1027 96 10000 0.45 135 08:45 13.12.2021
4940 Clouds 9 1027 96 10000 0.45 158 06:56 13.12.2021
4941 Clouds 9 1026 97 9000 0.45 135 05:19 13.12.2021
4942 Clouds 9 1027 97 10000 2.57 160 00:41 13.12.2021
4943 Mist 10 1027 96 10000 1.34 203 21:59 12.12.2021
4944 Mist 10 1027 97 8000 0.45 203 21:30 12.12.2021
4945 Mist 10 1026 97 5000 0.45 203 19:38 12.12.2021
4946 Mist 10 1026 96 9000 0.45 135 18:28 12.12.2021
4947 Mist 10 1026 96 10000 0.45 221 16:54 12.12.2021
4948 Clouds 10 1026 95 10000 1.34 221 16:26 12.12.2021
4949 Drizzle 11 1026 95 10000 0.89 179 15:28 12.12.2021
4950 Clouds 11 1025 95 10000 0.45 203 14:54 12.12.2021
4951 Clouds 11 1026 94 10000 0.45 203 14:28 12.12.2021
4952 Drizzle 10 1026 96 10000 0.45 180 12:55 12.12.2021
4953 Clouds 10 1026 97 10000 0.45 203 12:24 12.12.2021
4954 Clouds 9 1026 97 9000 0.45 203 11:43 12.12.2021
4955 Clouds 9 1026 98 10000 0.45 203 10:45 12.12.2021
4956 Mist 9 1025 97 7000 0.45 203 10:22 12.12.2021
4957 Fog 8 1025 98 10000 1.34 225 08:53 12.12.2021
4958 Fog 8 1024 97 10000 0.45 225 07:31 12.12.2021
4959 Fog 7 1023 97 10000 0.45 203 05:56 12.12.2021
4960 Drizzle 7 1023 97 10000 0.45 225 04:55 12.12.2021
4961 Drizzle 7 1023 96 4200 0.89 180 02:56 12.12.2021
4962 Clouds 6 1023 90 10000 0.89 203 23:30 11.12.2021
4963 Clear 6 1023 90 10000 0.89 203 22:21 11.12.2021
4964 Clear 6 1023 90 10000 0.45 180 21:50 11.12.2021
4965 Clear 6 1022 90 10000 0.89 203 20:22 11.12.2021
4966 Clear 6 1022 89 10000 0.89 203 19:21 11.12.2021
4967 Clear 6 1022 88 10000 0.45 203 18:50 11.12.2021
4968 Clear 6 1021 86 10000 3.6 160 17:56 11.12.2021
4969 Clouds 7 1021 83 10000 1.54 210 16:59 11.12.2021
4970 Clear 8 1020 80 10000 1.34 225 15:48 11.12.2021
4971 Clouds 7 1020 82 10000 0.89 203 14:54 11.12.2021
4972 Clear 6 1020 88 10000 3.6 240 12:42 11.12.2021
4973 Clear 4 1019 91 10000 3.09 240 11:24 11.12.2021
4974 Clear 2 1018 94 10000 0.45 49 09:45 11.12.2021
4975 Clear 2 1018 94 10000 0.45 49 09:45 11.12.2021
4976 Clear 2 1018 94 10000 0.45 49 09:45 11.12.2021
4977 Clear 2 1018 94 10000 0.45 49 09:45 11.12.2021
4978 Clear 2 1016 93 10000 2.57 250 07:32 11.12.2021
4979 Clear 4 1010 86 10000 2.24 270 00:51 11.12.2021
4980 Clear 4 1009 83 10000 2.24 270 23:49 10.12.2021
4981 Clear 4 1008 84 10000 2.24 270 23:18 10.12.2021
4982 Clear 5 1007 81 10000 2.24 270 21:52 10.12.2021
4983 Clear 5 1006 79 10000 2.24 270 20:57 10.12.2021
4984 Clouds 6 1004 77 10000 2.24 270 19:21 10.12.2021
4985 Clouds 6 1003 74 10000 3.58 270 17:55 10.12.2021
4986 Clouds 7 1002 73 10000 3.13 270 16:55 10.12.2021
4987 Clouds 7 1001 72 10000 4.47 270 16:19 10.12.2021
4988 Clouds 7 1000 74 10000 4.02 270 15:39 10.12.2021
4989 Clouds 7 1000 74 10000 3.13 270 15:20 10.12.2021
4990 Clouds 8 998 70 10000 3.13 270 13:51 10.12.2021
4991 Clouds 8 998 75 10000 4.47 270 13:26 10.12.2021
4992 Clouds 7 997 78 10000 4.47 270 12:34 10.12.2021
4993 Clouds 7 997 87 10000 4.47 270 11:28 10.12.2021
4994 Clouds 7 997 87 10000 4.47 270 11:28 10.12.2021
4995 Clouds 6 995 86 10000 3.58 270 09:54 10.12.2021
4996 Clouds 7 992 89 10000 3.58 270 08:32 10.12.2021
4997 Clouds 8 990 92 10000 3.13 270 06:22 10.12.2021
4998 Rain 5 991 96 7000 1.79 158 02:48 10.12.2021
4999 Rain 5 997 95 10000 1.34 135 23:54 09.12.2021
5000 Rain 5 998 95 8000 1.34 135 23:20 09.12.2021
5001 Mist 6 1000 93 10000 0.89 180 22:24 09.12.2021
5002 Mist 6 1001 92 10000 1.34 135 21:50 09.12.2021
5003 Clouds 5 1003 90 10000 0.89 135 20:42 09.12.2021
5004 Clouds 5 1003 90 10000 0.89 135 20:42 09.12.2021
5005 Clouds 5 1004 91 10000 0.89 158 20:21 09.12.2021
5006 Clouds 5 1005 90 10000 0.89 180 19:21 09.12.2021
5007 Clear 5 1005 90 10000 0.89 180 18:36 09.12.2021
5008 Clear 5 1006 87 10000 0.89 203 17:51 09.12.2021
5009 Clear 5 1006 87 10000 1.34 225 17:26 09.12.2021
5010 Clear 6 1006 83 10000 0.89 203 16:54 09.12.2021
5011 Clear 7 1006 82 10000 0.89 225 15:34 09.12.2021
5012 Clouds 7 1007 77 10000 2.24 203 14:46 09.12.2021
5013 Clear 7 1007 80 10000 2.24 225 13:23 09.12.2021
5014 Clear 6 1007 80 10000 1.79 225 12:40 09.12.2021
5015 Clouds 5 1008 85 10000 0.89 203 11:24 09.12.2021
5016 Clear 2 1007 90 10000 1.79 225 09:21 09.12.2021
5017 Clear 3 1006 90 10000 1.79 218 06:44 09.12.2021
5018 Clear 2 1006 92 10000 4.02 217 03:41 09.12.2021
5019 Clear 2 1004 91 10000 3.09 240 23:44 08.12.2021
5020 Clear 3 1004 91 10000 3.09 240 23:21 08.12.2021
5021 Clear 3 1004 90 10000 0.45 217 22:48 08.12.2021
5022 Clear 3 1003 89 10000 2.57 240 21:42 08.12.2021
5023 Clear 3 1003 88 10000 2.24 225 21:24 08.12.2021
5024 Clear 4 1002 89 10000 3.6 240 19:58 08.12.2021
5025 Clear 4 1002 87 10000 0.89 217 19:34 08.12.2021
5026 Clouds 5 1001 85 10000 0.45 217 18:46 08.12.2021
5027 Clouds 6 1000 80 10000 1.34 225 17:37 08.12.2021
5028 Clouds 7 1000 77 10000 1.34 270 15:57 08.12.2021
5029 Clouds 7 999 76 10000 1.34 270 15:29 08.12.2021
5030 Clouds 8 999 77 10000 0.89 225 14:40 08.12.2021
5031 Clouds 5 998 86 10000 2.24 225 11:36 08.12.2021
5032 Clouds 5 998 88 10000 1.79 225 10:32 08.12.2021
5033 Clouds 3 997 92 10000 2.24 221 09:25 08.12.2021
5034 Clouds 4 997 89 10000 1.79 225 07:26 08.12.2021
5035 Clouds 5 996 86 10000 1.79 225 04:57 08.12.2021
5036 Clouds 8 995 90 8000 1.79 248 23:34 07.12.2021
5037 Clouds 8 994 92 10000 3.13 225 21:55 07.12.2021
5038 Clouds 8 993 95 10000 1.34 203 21:23 07.12.2021
5039 Clouds 8 993 95 10000 1.34 203 21:23 07.12.2021
5040 Mist 7 994 95 4700 1.34 203 20:24 07.12.2021
5041 Clouds 7 995 90 10000 1.34 135 18:55 07.12.2021
5042 Rain 7 997 89 10000 1.79 135 17:53 07.12.2021
5043 Rain 7 998 88 10000 1.34 135 17:20 07.12.2021
5044 Clouds 7 1000 89 10000 1.34 135 16:34 07.12.2021
5045 Clouds 7 1002 91 10000 1.34 135 15:35 07.12.2021
5046 Clouds 6 1003 94 10000 1.34 135 14:36 07.12.2021
5047 Mist 6 1006 97 10000 0.89 135 13:18 07.12.2021
5048 Fog 5 1008 97 10000 1.79 135 12:21 07.12.2021
5049 Fog 4 1010 97 6000 0.89 180 10:44 07.12.2021
5050 Fog 3 1012 97 10000 2.57 160 08:46 07.12.2021
5051 Clouds 3 1013 94 10000 2.24 227 06:22 07.12.2021
5052 Clouds 4 1013 94 10000 0.89 222 05:45 07.12.2021
5053 Clear 6 1012 91 10000 1.34 225 00:54 07.12.2021
5054 Clouds 6 1010 92 10000 0.89 219 23:18 06.12.2021
5055 Clear 6 1010 92 10000 4.02 222 22:39 06.12.2021
5056 Clouds 6 1010 92 10000 1.79 225 21:58 06.12.2021
5057 Clouds 6 1010 93 10000 2.68 219 21:20 06.12.2021
5058 Clouds 6 1010 91 10000 1.79 225 20:30 06.12.2021
5059 Rain 6 1010 91 10000 3.13 225 19:24 06.12.2021
5060 Clouds 6 1009 90 10000 2.68 225 18:29 06.12.2021
5061 Rain 6 1010 90 10000 1.79 203 17:52 06.12.2021
5062 Rain 6 1011 89 10000 2.68 225 17:20 06.12.2021
5063 Rain 7 1011 84 10000 1.79 203 15:49 06.12.2021
5064 Clouds 7 1013 88 10000 1.34 203 13:53 06.12.2021
5065 Clouds 7 1014 89 10000 0.89 180 12:40 06.12.2021
5066 Clouds 6 1015 92 10000 0.89 203 11:54 06.12.2021
5067 Mist 5 1015 96 3700 1.03 210 09:37 06.12.2021
5068 Clouds 5 1014 96 10000 0.45 270 06:59 06.12.2021
5069 Clouds 5 1010 90 10000 1.79 270 00:38 06.12.2021
5070 Clouds 6 1008 93 10000 1.34 270 21:54 05.12.2021
5071 Clouds 6 1008 94 9000 2.24 270 21:25 05.12.2021
5072 Mist 5 1007 93 5000 1.34 248 20:20 05.12.2021
5073 Mist 5 1007 93 5000 0.89 270 19:58 05.12.2021
5074 Clouds 5 1007 92 10000 1.34 270 19:23 05.12.2021
5075 Clouds 5 1006 92 10000 1.79 270 18:26 05.12.2021
5076 Clouds 5 1006 93 10000 1.79 270 17:49 05.12.2021
5077 Clouds 6 1005 92 10000 1.79 293 16:58 05.12.2021
5078 Clouds 6 1004 92 10000 1.79 270 16:28 05.12.2021
5079 Drizzle 6 1004 92 10000 1.34 270 15:59 05.12.2021
5080 Clouds 5 1003 93 10000 2.68 270 14:48 05.12.2021
5081 Clouds 5 1003 93 10000 1.79 270 14:29 05.12.2021
5082 Clouds 5 1003 91 10000 1.79 270 13:32 05.12.2021
5083 Rain 6 1003 91 10000 1.79 270 12:42 05.12.2021
5084 Clouds 6 1003 91 10000 1.79 270 12:23 05.12.2021
5085 Clouds 5 1003 93 10000 1.34 270 11:41 05.12.2021
5086 Clouds 4 1002 93 10000 1.79 225 10:24 05.12.2021
5087 Rain 4 1002 93 10000 2.24 270 09:35 05.12.2021
5088 Clouds 3 1002 92 10000 1.34 225 04:57 05.12.2021
5089 Clouds 4 1004 89 10000 0.89 270 01:24 05.12.2021
5090 Clouds 4 1005 91 10000 1.79 248 22:44 04.12.2021
5091 Clouds 5 1005 90 10000 1.79 225 21:37 04.12.2021
5092 Clouds 4 1005 92 10000 1.79 225 20:46 04.12.2021
5093 Clouds 4 1005 88 10000 1.34 225 19:54 04.12.2021
5094 Clouds 5 1004 86 10000 3.58 270 19:24 04.12.2021
5095 Clear 6 1004 79 10000 2.24 270 17:52 04.12.2021
5096 Clouds 6 1003 78 10000 1.79 270 17:32 04.12.2021
5097 Clear 7 1003 75 10000 2.68 270 16:47 04.12.2021
5098 Clear 8 1003 73 10000 2.68 270 16:28 04.12.2021
5099 Rain 8 1000 89 5000 1.79 270 13:30 04.12.2021
5100 Clouds 11 999 84 10000 3.13 270 11:41 04.12.2021
5101 Clouds 11 999 85 10000 3.58 270 11:18 04.12.2021
5102 Clouds 11 998 92 10000 2.68 270 09:57 04.12.2021
5103 Drizzle 11 997 94 10000 0.89 248 08:38 04.12.2021
5104 Drizzle 12 998 95 10000 1.79 270 05:18 04.12.2021
5105 Clouds 12 998 95 10000 2.24 225 04:39 04.12.2021
5106 Mist 9 1000 98 5000 0.45 203 23:48 03.12.2021
5107 Clouds 8 1001 97 10000 0.89 203 22:55 03.12.2021
5108 Clouds 7 1002 98 7000 0.89 203 21:58 03.12.2021
5109 Rain 6 1003 98 8000 0.89 203 21:24 03.12.2021
5110 Rain 6 1004 97 5000 0.89 203 20:43 03.12.2021
5111 Rain 5 1005 97 5000 0.89 203 19:36 03.12.2021
5112 Drizzle 4 1006 96 7000 0.89 180 18:26 03.12.2021
5113 Drizzle 4 1007 97 5000 0.89 225 17:42 03.12.2021
5114 Drizzle 3 1010 95 7000 1.79 225 13:48 03.12.2021
5115 Rain 3 1011 94 5000 1.34 225 12:52 03.12.2021
5116 Clouds 3 1013 87 10000 1.79 225 11:24 03.12.2021
5117 Clear 3 1014 87 10000 1.79 225 09:55 03.12.2021
5118 Clear 2 1014 91 10000 0.89 203 08:24 03.12.2021
5119 Clear 2 1014 93 10000 3.09 140 07:37 03.12.2021
5120 Clear 1 1015 93 10000 1.54 250 01:56 03.12.2021
5121 Clear 1 1015 91 10000 1.34 270 00:47 03.12.2021
5122 Clear 2 1014 90 10000 1.34 270 23:45 02.12.2021
5123 Clouds 4 1014 84 10000 0.89 270 21:42 02.12.2021
5124 Clear 4 1014 82 10000 1.34 270 20:57 02.12.2021
5125 Clouds 4 1013 82 10000 1.34 270 20:37 02.12.2021
5126 Clouds 4 1012 78 10000 1.34 270 19:25 02.12.2021
5127 Clouds 5 1011 74 10000 1.79 293 17:43 02.12.2021
5128 Clouds 6 1009 66 10000 1.79 270 15:42 02.12.2021
5129 Clouds 6 1009 60 10000 2.24 270 14:59 02.12.2021
5130 Clouds 6 1009 64 10000 2.68 270 14:33 02.12.2021
5131 Clouds 5 1009 73 10000 2.68 270 12:52 02.12.2021
5132 Clouds 5 1009 75 10000 3.13 270 12:18 02.12.2021
5133 Clear 3 1008 87 10000 1.34 270 09:41 02.12.2021
5134 Clouds 3 1007 86 10000 0.89 293 08:55 02.12.2021
5135 Clouds 6 1005 88 10000 1.34 293 04:54 02.12.2021
5136 Clouds 5 1003 91 10000 2.24 270 00:53 02.12.2021
5137 Clouds 6 1003 88 10000 1.79 270 23:28 01.12.2021
5138 Clouds 6 1003 89 10000 1.34 270 22:24 01.12.2021
5139 Clouds 7 1002 86 10000 1.79 225 20:53 01.12.2021
5140 Clouds 7 1002 84 10000 2.24 225 19:58 01.12.2021
5141 Clouds 7 1002 84 10000 0.89 270 19:28 01.12.2021
5142 Clouds 8 1001 81 10000 1.79 248 17:50 01.12.2021
5143 Clouds 9 1001 80 10000 3.58 270 16:50 01.12.2021
5144 Clouds 10 1000 83 10000 3.13 270 14:59 01.12.2021
5145 Clouds 11 1000 82 10000 2.68 270 13:49 01.12.2021
5146 Clouds 10 1000 85 10000 2.68 270 12:51 01.12.2021
5147 Clouds 10 1000 85 10000 1.79 270 12:51 01.12.2021
5148 Clouds 10 1000 92 10000 1.79 270 10:43 01.12.2021
5149 Clouds 10 1000 95 10000 2.24 225 09:32 01.12.2021
5150 Drizzle 9 1000 96 10000 2.24 225 08:36 01.12.2021
5151 Clouds 9 1001 96 7000 2.24 225 07:37 01.12.2021
5152 Clouds 9 1002 96 7000 2.24 225 07:19 01.12.2021
5153 Clouds 9 1006 91 6000 3.13 225 03:47 01.12.2021
5154 Clouds 9 1008 88 10000 1.79 225 02:34 01.12.2021
5155 Clouds 8 1012 89 10000 2.24 225 23:56 30.11.2021
5156 Clouds 8 1012 90 10000 1.79 225 23:28 30.11.2021
5157 Clouds 8 1014 89 10000 2.24 225 21:55 30.11.2021
5158 Clouds 8 1015 90 10000 1.79 225 20:46 30.11.2021
5159 Clouds 8 1015 89 10000 1.79 225 20:23 30.11.2021
5160 Clouds 8 1015 89 10000 2.68 225 19:38 30.11.2021
5161 Clouds 8 1015 89 10000 3.13 225 18:51 30.11.2021
5162 Clouds 8 1016 92 10000 3.13 225 17:21 30.11.2021
5163 Drizzle 7 1017 93 9000 2.68 225 15:50 30.11.2021
5164 Clouds 7 1017 91 10000 2.68 225 14:31 30.11.2021
5165 Clouds 7 1017 92 10000 2.24 225 13:40 30.11.2021
5166 Clouds 7 1018 92 10000 2.68 225 12:53 30.11.2021
5167 Clouds 6 1018 92 10000 2.68 225 11:54 30.11.2021
5168 Clouds 6 1018 92 10000 1.79 225 11:25 30.11.2021
5169 Clouds 5 1018 92 10000 1.79 225 10:35 30.11.2021
5170 Clouds 5 1018 92 10000 2.24 225 08:55 30.11.2021
5171 Clouds 4 1018 92 10000 2.24 225 08:32 30.11.2021
5172 Clouds 4 1018 94 10000 1.79 225 07:49 30.11.2021
5173 Drizzle 4 1018 94 5000 2.24 225 06:36 30.11.2021
5174 Clear 2 1019 92 10000 1.34 225 01:47 30.11.2021
5175 Clear 2 1019 92 10000 1.79 222 01:27 30.11.2021
5176 Clear 1 1019 91 10000 1.34 226 23:32 29.11.2021
5177 Clear 1 1019 91 10000 0.89 36 22:59 29.11.2021
5178 Clear 1 1019 91 10000 0.45 42 22:37 29.11.2021
5179 Clear 1 1019 90 10000 1.34 43 21:52 29.11.2021
5180 Clear 1 1018 91 10000 1.03 250 21:20 29.11.2021
5181 Clear 2 1018 89 10000 0.45 42 20:46 29.11.2021
5182 Clear 2 1018 88 10000 0.45 43 19:58 29.11.2021
5183 Clear 2 1018 87 10000 2.57 230 19:40 29.11.2021
5184 Clear 3 1017 84 10000 1.54 270 18:59 29.11.2021
5185 Clouds 4 1018 71 10000 2.68 287 18:40 29.11.2021
5186 Clouds 5 1017 67 10000 3.06 294 17:21 29.11.2021
5187 Clouds 5 1017 67 10000 3.06 294 16:45 29.11.2021
5188 Clouds 6 1016 62 10000 3.3 300 16:24 29.11.2021
5189 Clouds 6 1015 60 10000 3.55 304 14:46 29.11.2021
5190 Clouds 6 1015 62 10000 3.9 310 13:52 29.11.2021
5191 Clouds 6 1015 67 10000 3.99 324 12:58 29.11.2021
5192 Clouds 5 1014 70 10000 3.78 318 12:19 29.11.2021
5193 Clouds 4 1014 74 10000 3.37 314 11:28 29.11.2021
5194 Clouds 1 1013 93 10000 1.54 240 09:58 29.11.2021
5195 Clouds 0 1011 93 10000 1.03 0 07:26 29.11.2021
5196 Clouds 1 1009 88 10000 1.54 300 05:51 29.11.2021
5197 Clear 0 1007 93 10000 1.54 280 01:24 29.11.2021
5198 Clear 1 1006 89 10000 1.54 290 23:54 28.11.2021
5199 Clear 2 1006 89 10000 2.57 300 23:36 28.11.2021
5200 Clouds 3 1005 83 10000 3.09 290 22:18 28.11.2021
5201 Clear 3 1005 85 10000 3.09 290 21:39 28.11.2021
5202 Clouds 3 1005 83 10000 3.6 310 20:44 28.11.2021
5203 Clouds 4 1004 79 10000 5.14 300 19:51 28.11.2021
5204 Clouds 4 1004 73 10000 3.09 300 18:40 28.11.2021
5205 Clouds 4 1004 73 10000 3.09 300 18:19 28.11.2021
5206 Clouds 5 1003 72 10000 4.63 310 17:45 28.11.2021
5207 Clouds 5 1003 73 10000 6.17 320 16:48 28.11.2021
5208 Clouds 5 1003 73 10000 6.17 320 16:28 28.11.2021
5209 Clouds 5 1002 75 10000 6.17 320 15:50 28.11.2021
5210 Clouds 5 1002 75 10000 6.69 320 14:56 28.11.2021
5211 Clouds 5 1002 77 10000 6.17 320 14:28 28.11.2021
5212 Clouds 5 1002 83 10000 5.14 290 12:54 28.11.2021
5213 Clouds 5 1002 83 10000 6.17 310 11:51 28.11.2021
5214 Clouds 5 1001 87 10000 5.14 310 10:37 28.11.2021
5215 Clouds 5 1001 87 10000 5.14 310 09:56 28.11.2021
5216 Clouds 5 1001 87 10000 5.66 320 09:36 28.11.2021
5217 Clouds 5 999 87 10000 4.63 300 05:23 28.11.2021
5218 Rain 4 996 95 10000 2.57 270 22:58 27.11.2021
5219 Clouds 2 996 93 10000 2.06 260 20:28 27.11.2021
5220 Clouds 3 994 93 10000 4.12 330 18:44 27.11.2021
5221 Clouds 4 991 93 10000 2.57 350 16:31 27.11.2021
5222 Rain 3 990 95 10000 3.6 360 15:32 27.11.2021
5223 Rain 4 989 89 8000 2.57 230 13:41 27.11.2021
5224 Clouds 4 988 91 10000 5.66 230 12:29 27.11.2021
5225 Clouds 2 987 98 10000 5.14 210 10:31 27.11.2021
5226 Clouds 2 987 91 7000 7.2 210 09:41 27.11.2021
5227 Rain 3 987 89 10000 6.17 200 07:44 27.11.2021
5228 Clear 2 988 91 10000 4.63 230 04:56 27.11.2021
5229 Clouds 5 989 87 10000 2.57 280 00:55 27.11.2021
5230 Clouds 5 989 89 10000 5.14 260 23:29 26.11.2021
5231 Clouds 5 989 93 10000 4.63 240 22:25 26.11.2021
5232 Clouds 6 990 83 10000 4.12 250 21:34 26.11.2021
5233 Clouds 6 990 85 10000 6.69 250 20:45 26.11.2021
5234 Clouds 7 991 91 10000 7.2 230 20:18 26.11.2021
5235 Drizzle 6 991 91 10000 6.69 240 19:47 26.11.2021
5236 Clouds 6 992 91 10000 5.66 220 17:57 26.11.2021
5237 Clouds 6 994 85 10000 7.2 230 17:22 26.11.2021
5238 Drizzle 7 995 81 10000 8.23 210 15:56 26.11.2021
5239 Clouds 6 1000 78 10000 3.13 225 13:35 26.11.2021
5240 Clouds 6 1001 81 10000 3.13 225 12:34 26.11.2021
5241 Clear 4 1004 92 10000 1.79 225 10:38 26.11.2021
5242 Clouds 3 1005 95 10000 2.68 38 08:59 26.11.2021
5243 Clear 3 1006 95 10000 0.89 43 08:21 26.11.2021
5244 Mist 3 1007 95 10000 0.45 43 07:29 26.11.2021
5245 Mist 3 1008 95 10000 1.54 260 06:27 26.11.2021
5246 Clear 3 1009 93 10000 2.57 230 04:51 26.11.2021
5247 Clear 4 1010 92 10000 0.45 248 02:52 26.11.2021
5248 Clouds 6 1012 92 10000 0.89 270 23:27 25.11.2021
5249 Clouds 6 1013 92 10000 0.89 270 21:48 25.11.2021
5250 Clouds 6 1013 91 10000 0.45 68 20:29 25.11.2021
5251 Drizzle 6 1013 91 7000 0.45 45 18:48 25.11.2021
5252 Clouds 6 1013 89 6000 0.51 0 17:48 25.11.2021
5253 Mist 6 1013 89 5000 1.34 42 17:26 25.11.2021
5254 Clouds 6 1013 88 7000 0.45 270 16:34 25.11.2021
5255 Clouds 6 1013 87 7000 0 0 15:49 25.11.2021
5256 Clouds 6 1013 84 8000 0.45 270 14:19 25.11.2021
5257 Clouds 6 1013 80 6000 0.45 293 12:28 25.11.2021
5258 Clouds 5 1014 84 6000 0.89 270 11:52 25.11.2021
5259 Mist 2 1014 94 4200 0.45 248 09:56 25.11.2021
5260 Clouds 4 1012 83 7000 0.89 90 06:22 25.11.2021
5261 Clouds 4 1012 83 10000 0.89 41 02:52 25.11.2021
5262 Clouds 5 1013 82 10000 0.45 68 23:32 24.11.2021
5263 Clouds 4 1014 83 10000 0.89 68 22:28 24.11.2021
5264 Clouds 5 1014 82 10000 0.45 68 21:44 24.11.2021
5265 Clouds 5 1015 82 10000 0.89 45 20:56 24.11.2021
5266 Clouds 5 1015 83 10000 1.34 45 20:26 24.11.2021
5267 Clouds 5 1016 85 10000 0.89 68 18:37 24.11.2021
5268 Clouds 5 1016 85 10000 0.89 45 18:18 24.11.2021
5269 Clouds 6 1017 80 10000 0.89 23 16:19 24.11.2021
5270 Clouds 6 1018 79 10000 1.34 68 14:54 24.11.2021
5271 Clouds 6 1019 81 10000 1.34 45 14:20 24.11.2021
5272 Clouds 6 1019 81 10000 1.34 45 14:20 24.11.2021
5273 Clouds 5 1021 88 10000 0.89 68 12:50 24.11.2021
5274 Mist 4 1022 95 10000 0.89 45 11:22 24.11.2021
5275 Mist 3 1022 96 5000 1.34 68 10:50 24.11.2021
5276 Mist 3 1022 96 3500 2.24 45 10:27 24.11.2021
5277 Mist 3 1023 96 5000 0.89 45 07:56 24.11.2021
5278 Mist 3 1023 96 2300 0.89 68 06:59 24.11.2021
5279 Clouds 3 1025 96 6000 1.34 68 03:59 24.11.2021
5280 Clear 4 1026 94 7000 1.34 68 01:30 24.11.2021
5281 Clear 5 1027 90 10000 1.79 45 22:59 23.11.2021
5282 Clear 5 1027 89 10000 1.34 68 22:34 23.11.2021
5283 Clear 5 1027 88 10000 2.24 68 21:45 23.11.2021
5284 Clear 6 1027 85 10000 1.79 68 20:21 23.11.2021
5285 Clear 6 1027 80 10000 1.34 68 19:20 23.11.2021
5286 Clear 6 1027 74 10000 1.79 68 18:29 23.11.2021
5287 Clear 8 1027 67 10000 2.68 68 17:23 23.11.2021
5288 Clear 8 1027 62 10000 3.13 68 16:35 23.11.2021
5289 Clear 9 1027 56 10000 3.58 45 15:25 23.11.2021
5290 Clear 9 1027 54 10000 3.13 68 14:39 23.11.2021
5291 Clear 7 1028 54 10000 3.13 68 12:50 23.11.2021
5292 Clear 4 1029 66 10000 2.24 68 10:26 23.11.2021
5293 Clear 3 1029 74 10000 1.34 68 09:43 23.11.2021
5294 Clear 2 1028 83 10000 0.89 68 07:42 23.11.2021
5295 Clear 2 1028 84 10000 1.79 23 04:38 23.11.2021
5296 Clear 2 1028 86 10000 1.79 45 03:27 23.11.2021
5297 Clear 3 1027 81 10000 1.79 45 23:26 22.11.2021
5298 Clear 4 1027 80 10000 2.24 45 22:56 22.11.2021
5299 Clear 4 1027 79 10000 1.34 68 22:30 22.11.2021
5300 Clear 4 1027 77 10000 3.13 68 21:44 22.11.2021
5301 Clear 4 1027 77 10000 2.68 45 20:56 22.11.2021
5302 Clear 5 1026 75 10000 2.24 68 20:23 22.11.2021
5303 Clear 6 1025 75 10000 1.79 68 19:20 22.11.2021
5304 Clear 6 1025 75 10000 2.24 68 18:40 22.11.2021
5305 Clouds 6 1025 74 10000 2.68 45 17:46 22.11.2021
5306 Clouds 7 1024 73 10000 3.58 45 16:30 22.11.2021
5307 Clouds 8 1023 72 10000 4.02 45 14:41 22.11.2021
5308 Clouds 7 1023 76 10000 3.58 68 12:48 22.11.2021
5309 Clouds 7 1023 80 10000 4.02 45 11:27 22.11.2021
5310 Clouds 6 1022 85 10000 2.24 45 09:56 22.11.2021
5311 Clouds 5 1021 91 10000 3.13 45 08:42 22.11.2021
5312 Clouds 4 1020 93 10000 3.13 45 07:33 22.11.2021
5313 Clear 5 1016 92 10000 1.79 68 00:50 22.11.2021
5314 Clear 6 1016 91 10000 2.24 68 23:19 21.11.2021
5315 Clear 6 1015 90 10000 1.79 68 22:42 21.11.2021
5316 Clear 7 1014 89 10000 2.24 68 20:44 21.11.2021
5317 Clear 7 1014 90 10000 1.79 68 20:26 21.11.2021
5318 Clear 7 1014 90 10000 1.34 68 18:53 21.11.2021
5319 Clouds 8 1013 92 10000 1.79 68 17:52 21.11.2021
5320 Clear 8 1013 93 10000 1.34 68 17:29 21.11.2021
5321 Clouds 8 1013 97 10000 2.24 45 14:49 21.11.2021
5322 Clouds 8 1013 97 7000 1.03 0 14:18 21.11.2021
5323 Drizzle 8 1014 96 3100 0.45 248 12:58 21.11.2021
5324 Clouds 7 1014 97 9000 1.54 0 12:20 21.11.2021
5325 Mist 7 1014 97 8000 0.45 248 11:37 21.11.2021
5326 Mist 6 1014 96 6000 2.06 230 10:19 21.11.2021
5327 Mist 6 1014 96 6000 0.45 225 09:45 21.11.2021
5328 Mist 6 1014 97 5000 2.06 240 08:32 21.11.2021
5329 Mist 6 1014 97 5000 0.89 203 07:52 21.11.2021
5330 Mist 6 1015 97 5000 0.45 270 06:28 21.11.2021
5331 Fog 6 1016 96 6000 0.45 248 05:41 21.11.2021
5332 Mist 6 1017 95 6000 1.54 240 03:22 21.11.2021
5333 Mist 6 1017 95 5000 1.54 230 02:55 21.11.2021
5334 Mist 6 1018 96 4300 0.45 42 01:28 21.11.2021
5335 Mist 6 1018 94 5000 0.45 68 00:43 21.11.2021
5336 Mist 6 1019 95 6000 0.45 270 22:35 20.11.2021
5337 Mist 6 1020 95 6000 0.45 270 21:32 20.11.2021
5338 Mist 6 1020 95 7000 0.45 225 19:58 20.11.2021
5339 Mist 6 1021 96 7000 2.06 170 18:45 20.11.2021
5340 Mist 6 1021 96 8000 2.06 140 18:23 20.11.2021
5341 Mist 7 1022 96 8000 2.57 150 17:22 20.11.2021
5342 Fog 7 1023 98 10000 1.54 150 15:23 20.11.2021
5343 Fog 7 1024 98 10000 2.57 60 14:39 20.11.2021
5344 Fog 7 1024 98 10000 2.57 60 14:20 20.11.2021
5345 Mist 7 1025 95 10000 0.45 90 11:56 20.11.2021
5346 Mist 7 1025 95 10000 0.45 90 11:56 20.11.2021
5347 Mist 7 1027 97 10000 2.06 140 09:59 20.11.2021
5348 Mist 7 1027 97 10000 4.12 160 08:48 20.11.2021
5349 Mist 8 1027 96 10000 0.45 158 06:57 20.11.2021
5350 Mist 8 1028 95 10000 0.45 135 05:21 20.11.2021
5351 Mist 8 1028 95 10000 0.45 90 04:50 20.11.2021
5352 Clouds 9 1030 91 10000 1.34 135 00:45 20.11.2021
5353 Clouds 9 1030 91 10000 0.45 135 00:27 20.11.2021
5354 Clouds 9 1031 90 10000 0.89 90 22:54 19.11.2021
5355 Clouds 10 1031 88 10000 0.89 135 21:44 19.11.2021
5356 Clouds 10 1031 88 10000 0.89 113 20:54 19.11.2021
5357 Clouds 10 1031 87 10000 0.45 135 20:35 19.11.2021
5358 Clouds 10 1031 86 10000 0.89 113 19:49 19.11.2021
5359 Clouds 10 1031 85 10000 0.45 113 18:50 19.11.2021
5360 Clouds 10 1031 85 10000 1.03 0 18:19 19.11.2021
5361 Clouds 11 1031 82 10000 0.45 45 16:47 19.11.2021
5362 Clouds 11 1031 82 10000 0.45 68 15:31 19.11.2021
5363 Clouds 10 1033 87 10000 0.45 68 12:53 19.11.2021
5364 Clouds 8 1033 95 10000 1.03 110 10:27 19.11.2021
5365 Clouds 7 1032 95 9000 0.45 203 08:47 19.11.2021
5366 Clouds 6 1032 95 9000 1.03 120 07:34 19.11.2021
5367 Fog 7 1032 97 9000 0.45 225 04:28 19.11.2021
5368 Fog 7 1033 97 6000 2.06 150 01:32 19.11.2021
5369 Mist 6 1033 97 5000 2.06 140 23:50 18.11.2021
5370 Mist 7 1033 97 4500 2.06 160 21:48 18.11.2021
5371 Mist 7 1032 96 1700 0.45 113 20:48 18.11.2021
5372 Mist 7 1032 96 2900 2.06 130 20:29 18.11.2021
5373 Mist 7 1032 94 3800 0.45 158 19:44 18.11.2021
5374 Fog 7 1032 93 6000 0.45 180 18:55 18.11.2021
5375 Fog 8 1032 91 7000 3.09 140 18:27 18.11.2021
5376 Mist 9 1031 90 8000 3.09 140 17:49 18.11.2021
5377 Clear 11 1031 82 10000 0.45 225 16:44 18.11.2021
5378 Clear 12 1031 74 10000 0.45 225 15:25 18.11.2021
5379 Clouds 11 1032 80 10000 0.45 248 13:31 18.11.2021
5380 Clear 10 1032 89 10000 1.54 0 12:33 18.11.2021
5381 Clear 9 1032 94 8000 0.45 293 11:42 18.11.2021
5382 Clear 7 1032 96 8000 0.45 248 11:24 18.11.2021
5383 Fog 5 1031 97 600 0.51 110 09:37 18.11.2021
5384 Mist 4 1031 97 1300 0.51 40 07:35 18.11.2021
5385 Fog 4 1030 97 3700 0.51 10 05:55 18.11.2021
5386 Mist 5 1030 97 6000 0.45 248 05:36 18.11.2021
5387 Mist 6 1029 94 5000 0 0 01:23 18.11.2021
5388 Clear 8 1029 93 10000 1.03 310 22:49 17.11.2021
5389 Clouds 8 1028 92 10000 1.03 0 22:21 17.11.2021
5390 Clouds 8 1028 91 10000 1.54 350 21:39 17.11.2021
5391 Clear 9 1028 91 10000 1.54 0 20:58 17.11.2021
5392 Clear 11 1025 86 10000 1.03 310 18:34 17.11.2021
5393 Clouds 12 1025 84 10000 1.54 320 17:28 17.11.2021
5394 Clouds 13 1024 82 10000 0.45 248 14:52 17.11.2021
5395 Clouds 11 1024 95 7000 2.06 250 12:42 17.11.2021
5396 Mist 11 1024 96 6000 2.06 250 11:49 17.11.2021
5397 Mist 10 1024 96 4500 2.57 250 10:49 17.11.2021
5398 Mist 9 1023 97 4300 1.34 42 09:26 17.11.2021
5399 Mist 8 1022 96 4300 0.89 203 07:45 17.11.2021
5400 Mist 8 1022 97 4200 0.45 225 04:47 17.11.2021
5401 Mist 8 1022 96 5000 1.54 220 02:42 17.11.2021
5402 Mist 8 1022 95 10000 0.45 203 23:27 16.11.2021
5403 Mist 7 1022 94 10000 1.54 150 21:48 16.11.2021
5404 Clouds 7 1022 93 10000 0 0 20:19 16.11.2021
5405 Clouds 7 1022 92 9000 1.03 250 18:54 16.11.2021
5406 Clouds 8 1022 90 9000 0 0 18:36 16.11.2021
5407 Clouds 8 1022 90 9000 0 0 18:36 16.11.2021
5408 Clouds 8 1022 87 10000 0.51 0 17:44 16.11.2021
5409 Clouds 8 1022 86 10000 1.54 0 16:58 16.11.2021
5410 Clouds 8 1022 85 10000 1.03 0 16:18 16.11.2021
5411 Clouds 8 1022 85 10000 1.54 0 15:41 16.11.2021
5412 Clouds 7 1023 86 10000 0.45 42 12:40 16.11.2021
5413 Clouds 6 1024 93 10000 0.89 68 10:21 16.11.2021
5414 Clouds 6 1024 92 8000 0.45 135 09:38 16.11.2021
5415 Clouds 6 1024 94 8000 0.89 68 07:34 16.11.2021
5416 Clouds 6 1024 93 10000 0.45 90 05:27 16.11.2021
5417 Clouds 7 1025 90 7000 0.89 68 23:24 15.11.2021
5418 Mist 7 1025 92 8000 0.89 68 22:40 15.11.2021
5419 Mist 7 1024 93 8000 1.79 68 21:56 15.11.2021
5420 Mist 7 1025 92 6000 1.79 68 21:30 15.11.2021
5421 Drizzle 7 1024 94 6000 1.79 68 20:32 15.11.2021
5422 Mist 7 1024 94 5000 1.79 68 19:18 15.11.2021
5423 Mist 7 1024 94 6000 2.57 10 17:31 15.11.2021
5424 Mist 8 1023 94 7000 2.57 350 15:50 15.11.2021
5425 Mist 8 1023 93 8000 4.12 360 15:32 15.11.2021
5426 Mist 7 1024 98 5000 4.12 360 14:27 15.11.2021
5427 Mist 7 1024 95 5000 0.45 43 12:37 15.11.2021
5428 Mist 6 1024 97 4800 0.89 90 09:59 15.11.2021
5429 Mist 6 1024 96 4500 1.79 68 09:19 15.11.2021
5430 Mist 6 1023 97 1500 1.79 68 06:54 15.11.2021
5431 Clear 7 1023 93 7000 0.45 45 00:56 15.11.2021
5432 Clouds 9 1023 91 10000 1.34 68 22:44 14.11.2021
5433 Clear 9 1023 90 10000 1.34 45 21:45 14.11.2021
5434 Clouds 11 1021 86 10000 1.79 68 19:18 14.11.2021
5435 Clouds 11 1021 86 10000 1.34 68 18:54 14.11.2021
5436 Clouds 11 1021 85 10000 1.79 45 18:36 14.11.2021
5437 Clouds 11 1021 85 10000 1.79 68 18:18 14.11.2021
5438 Clouds 11 1021 84 10000 1.79 68 17:58 14.11.2021
5439 Clouds 12 1021 84 10000 1.34 68 17:40 14.11.2021
5440 Clouds 12 1021 84 10000 1.34 68 17:21 14.11.2021
5441 Clouds 12 1020 82 10000 1.79 45 16:58 14.11.2021
5442 Clouds 12 1020 82 10000 1.79 68 16:40 14.11.2021
5443 Clouds 12 1020 82 10000 2.24 68 16:18 14.11.2021
5444 Clouds 12 1020 82 10000 2.24 45 15:19 14.11.2021
5445 Clouds 12 1020 85 10000 1.79 68 14:45 14.11.2021
5446 Clouds 12 1020 86 10000 1.79 45 14:20 14.11.2021
5447 Clouds 12 1020 87 10000 1.79 45 13:51 14.11.2021
5448 Clouds 12 1020 88 10000 1.79 68 13:27 14.11.2021
5449 Clouds 11 1020 90 10000 1.79 68 12:22 14.11.2021
5450 Clouds 11 1019 93 10000 1.34 68 10:58 14.11.2021
5451 Mist 11 1019 94 10000 1.79 68 10:36 14.11.2021
5452 Clouds 10 1019 95 10000 0.45 68 09:27 14.11.2021
5453 Drizzle 10 1019 95 10000 2.06 350 08:51 14.11.2021
5454 Clouds 10 1018 95 10000 1.54 300 04:47 14.11.2021
5455 Clouds 10 1018 94 10000 0.45 42 22:50 13.11.2021
5456 Clouds 10 1018 94 10000 0.45 270 22:20 13.11.2021
5457 Mist 10 1018 94 10000 0.89 43 21:35 13.11.2021
5458 Clouds 11 1018 92 6000 0.45 270 20:43 13.11.2021
5459 Clouds 11 1017 92 10000 0.45 248 18:56 13.11.2021
5460 Clouds 11 1017 91 10000 0.45 248 18:32 13.11.2021
5461 Clouds 11 1016 90 10000 2.57 290 17:41 13.11.2021
5462 Clouds 12 1016 87 10000 2.57 290 15:55 13.11.2021
5463 Clouds 13 1015 85 10000 0.89 248 14:45 13.11.2021
5464 Clouds 13 1016 87 10000 1.34 270 13:47 13.11.2021
5465 Clouds 12 1016 94 10000 0.45 225 12:43 13.11.2021
5466 Clouds 12 1016 94 10000 0.45 270 11:51 13.11.2021
5467 Drizzle 12 1016 94 10000 0.45 248 11:22 13.11.2021
5468 Clouds 11 1016 96 10000 0.89 225 10:34 13.11.2021
5469 Clouds 11 1015 96 10000 0.89 248 09:49 13.11.2021
5470 Mist 11 1015 95 10000 0.45 225 09:28 13.11.2021
5471 Clouds 11 1015 95 10000 1.34 225 08:49 13.11.2021
5472 Drizzle 11 1014 94 10000 0.89 225 07:54 13.11.2021
5473 Mist 11 1014 93 10000 1.79 225 04:43 13.11.2021
5474 Clouds 11 1014 93 10000 1.34 225 04:20 13.11.2021
5475 Clouds 11 1015 92 10000 0.89 203 00:18 13.11.2021
5476 Clouds 10 1015 91 10000 0.89 225 22:42 12.11.2021
5477 Clouds 11 1015 87 10000 1.34 225 20:54 12.11.2021
5478 Clouds 10 1015 84 10000 2.24 225 19:40 12.11.2021
5479 Clouds 10 1015 84 10000 0.45 225 19:22 12.11.2021
5480 Clouds 10 1016 80 10000 0.45 225 18:20 12.11.2021
5481 Clear 13 1016 70 10000 0.45 38 16:18 12.11.2021
5482 Clear 13 1016 73 10000 3.09 160 14:46 12.11.2021
5483 Mist 4 1019 100 5000 5.14 140 11:31 12.11.2021
5484 Mist 3 1019 100 2900 3.09 140 10:48 12.11.2021
5485 Fog 2 1019 100 800 2.06 120 09:27 12.11.2021
5486 Fog 1 1020 100 800 1.54 120 08:35 12.11.2021
5487 Fog 2 1022 96 1700 2.06 50 02:19 12.11.2021
5488 Mist 4 1022 97 3600 1.54 80 23:31 11.11.2021
5489 Mist 4 1023 96 4400 1.03 90 22:28 11.11.2021
5490 Mist 5 1023 93 5000 0.51 130 21:26 11.11.2021
5491 Mist 5 1024 91 6000 1.03 0 20:26 11.11.2021
5492 Clear 6 1024 88 10000 1.03 110 18:54 11.11.2021
5493 Clear 7 1024 82 10000 2.06 80 17:42 11.11.2021
5494 Clear 10 1023 75 10000 0.45 68 16:38 11.11.2021
5495 Clear 10 1024 78 8000 0.45 45 14:44 11.11.2021
5496 Clear 10 1024 77 7000 0.89 113 14:26 11.11.2021
5497 Clear 10 1024 80 6000 0.45 45 13:36 11.11.2021
5498 Mist 8 1024 90 5000 1.54 0 12:48 11.11.2021
5499 Fog 3 1026 99 400 1.03 0 10:35 11.11.2021
5500 Fog 1 1026 99 300 0.45 68 09:33 11.11.2021
5501 Fog 0 1025 98 700 1.54 0 07:36 11.11.2021
5502 Mist 1 1024 98 3400 1.54 350 02:35 11.11.2021
5503 Mist 3 1025 96 5000 1.54 360 22:59 10.11.2021
5504 Mist 4 1025 93 5000 1.54 0 22:22 10.11.2021
5505 Mist 4 1024 94 6000 1.54 60 21:18 10.11.2021
5506 Mist 4 1024 93 7000 1.03 0 20:45 10.11.2021
5507 Mist 5 1024 92 8000 1.03 10 19:46 10.11.2021
5508 Mist 7 1024 81 10000 0.45 135 17:50 10.11.2021
5509 Mist 9 1024 78 10000 1.54 0 16:33 10.11.2021
5510 Clear 10 1024 75 10000 1.54 100 14:52 10.11.2021
5511 Clear 10 1024 74 10000 0.45 45 13:41 10.11.2021
5512 Clear 9 1024 78 10000 0.89 45 12:47 10.11.2021
5513 Fog 5 1025 95 9000 0.45 0 10:39 10.11.2021
5514 Mist 1 1025 96 5000 0.45 68 08:45 10.11.2021
5515 Mist 1 1024 95 7000 0.89 45 07:44 10.11.2021
5516 Mist 2 1024 94 4400 2.06 50 06:26 10.11.2021
5517 Fog 2 1024 96 6000 0.51 0 05:51 10.11.2021
5518 Clear 4 1025 89 10000 0.45 68 23:53 09.11.2021
5519 Clear 5 1025 87 10000 2.06 350 21:50 09.11.2021
5520 Clear 5 1025 87 10000 2.06 350 21:50 09.11.2021
5521 Clear 6 1025 83 10000 1.03 30 20:32 09.11.2021
5522 Clear 7 1025 78 10000 1.03 40 19:25 09.11.2021
5523 Clear 9 1024 70 10000 2.06 50 17:44 09.11.2021
5524 Clear 12 1025 61 10000 2.06 70 15:45 09.11.2021
5525 Clear 12 1025 61 10000 0.89 68 14:44 09.11.2021
5526 Clear 11 1026 74 10000 0.45 68 12:53 09.11.2021
5527 Clear 10 1026 77 10000 0.89 45 12:53 09.11.2021
5528 Clear 9 1027 85 10000 0.45 23 11:56 09.11.2021
5529 Clear 7 1027 88 10000 1.03 0 10:45 09.11.2021
5530 Mist 3 1026 98 8000 2.06 60 09:35 09.11.2021
5531 Mist 3 1027 96 7000 1.54 30 08:27 09.11.2021
5532 Fog 3 1026 96 9000 1.54 30 05:56 09.11.2021
5533 Fog 4 1025 94 10000 1.54 350 02:25 09.11.2021
5534 Fog 5 1025 91 10000 0.45 135 01:46 09.11.2021
5535 Clear 5 1025 91 10000 1.54 30 23:59 08.11.2021
5536 Clear 6 1026 91 10000 1.54 360 22:51 08.11.2021
5537 Clear 6 1026 89 10000 1.54 360 22:28 08.11.2021
5538 Clouds 7 1025 87 10000 1.03 60 20:56 08.11.2021
5539 Clouds 8 1025 84 10000 1.03 0 19:53 08.11.2021
5540 Clear 8 1025 80 10000 1.03 0 18:57 08.11.2021
5541 Clouds 11 1024 70 10000 0.45 270 17:22 08.11.2021
5542 Clouds 12 1024 63 10000 0.45 45 15:27 08.11.2021
5543 Clouds 13 1024 63 10000 0.45 45 14:43 08.11.2021
5544 Clouds 12 1024 63 10000 0.45 90 13:56 08.11.2021
5545 Clouds 12 1024 67 10000 0.45 248 12:44 08.11.2021
5546 Clear 9 1025 84 10000 0.45 270 11:27 08.11.2021
5547 Clouds 6 1025 95 10000 1.03 0 10:00 08.11.2021
5548 Clouds 5 1024 96 10000 0 0 08:55 08.11.2021
5549 Clouds 5 1024 94 10000 0.51 20 07:38 08.11.2021
5550 Clouds 4 1023 94 10000 0 0 06:20 08.11.2021
5551 Clouds 5 1023 96 6000 0 0 03:33 08.11.2021
5552 Clear 6 1023 88 10000 1.03 0 23:51 07.11.2021
5553 Clouds 7 1023 87 10000 0.45 248 22:30 07.11.2021
5554 Clouds 8 1023 83 10000 1.03 0 21:22 07.11.2021
5555 Clouds 8 1023 84 10000 1.54 0 19:55 07.11.2021
5556 Clouds 10 1022 77 10000 1.54 290 18:26 07.11.2021
5557 Clouds 11 1022 74 10000 0.45 225 17:38 07.11.2021
5558 Clouds 13 1022 68 10000 0.45 248 15:55 07.11.2021
5559 Clouds 13 1022 72 10000 0.89 270 14:42 07.11.2021
5560 Clouds 13 1022 76 10000 0.89 270 13:55 07.11.2021
5561 Clouds 11 1022 92 10000 0.45 248 11:53 07.11.2021
5562 Mist 10 1022 95 10000 0.45 225 10:22 07.11.2021
5563 Drizzle 9 1022 94 10000 0.45 225 08:48 07.11.2021
5564 Clouds 8 1025 87 10000 1.34 225 02:49 07.11.2021
5565 Clear 7 1026 89 10000 1.34 225 00:18 07.11.2021
5566 Clear 6 1027 88 10000 0.45 225 22:54 06.11.2021
5567 Clouds 7 1027 88 10000 1.79 36 21:43 06.11.2021
5568 Clouds 7 1028 82 10000 2.24 38 20:52 06.11.2021
5569 Clouds 8 1028 78 10000 1.79 40 19:40 06.11.2021
5570 Clear 10 1029 68 10000 0.89 225 17:30 06.11.2021
5571 Clear 11 1029 62 10000 0.89 225 16:21 06.11.2021
5572 Clear 11 1031 65 10000 0.45 225 13:39 06.11.2021
5573 Clear 11 1031 66 10000 0.45 225 12:52 06.11.2021
5574 Clear 5 1031 93 9000 0.89 43 09:55 06.11.2021
5575 Clear 2 1032 95 8000 0.51 60 08:36 06.11.2021
5576 Mist 3 1031 93 4700 0 0 04:50 06.11.2021
5577 Clouds 6 1031 87 10000 1.03 240 23:41 05.11.2021
5578 Clouds 6 1031 85 10000 1.03 240 23:19 05.11.2021
5579 Clouds 7 1030 83 10000 1.54 280 22:33 05.11.2021
5580 Clouds 8 1029 81 10000 0.51 0 20:26 05.11.2021
5581 Clouds 8 1029 79 10000 1.03 330 19:51 05.11.2021
5582 Clouds 9 1028 77 10000 1.54 0 18:43 05.11.2021
5583 Clouds 10 1028 72 10000 1.54 0 17:45 05.11.2021
5584 Clouds 11 1027 70 10000 0.45 270 16:37 05.11.2021
5585 Clouds 11 1026 72 10000 0.45 45 14:21 05.11.2021
5586 Clouds 10 1026 77 10000 0.89 248 12:26 05.11.2021
5587 Clear 8 1024 89 10000 0.45 44 09:27 05.11.2021
5588 Clear 7 1023 90 10000 0.45 135 07:48 05.11.2021
5589 Clouds 7 1021 90 10000 0.45 225 05:40 05.11.2021
5590 Clouds 8 1019 91 10000 0.45 203 02:37 05.11.2021
5591 Clouds 8 1019 92 10000 0.45 270 02:18 05.11.2021
5592 Clouds 8 1018 93 10000 0.45 270 23:56 04.11.2021
5593 Clouds 8 1017 93 10000 0.45 270 22:21 04.11.2021
5594 Clouds 8 1017 93 10000 0.89 248 21:56 04.11.2021
5595 Clouds 8 1016 93 10000 0.45 270 21:27 04.11.2021
5596 Clouds 8 1015 93 10000 0.45 270 20:28 04.11.2021
5597 Clouds 8 1015 93 10000 0.89 270 19:49 04.11.2021
5598 Clouds 8 1014 93 10000 0.45 248 19:25 04.11.2021
5599 Drizzle 8 1014 92 10000 0.45 248 18:26 04.11.2021
5600 Rain 9 1013 86 10000 0.89 248 17:26 04.11.2021
5601 Clouds 10 1012 77 10000 0.89 248 15:42 04.11.2021
5602 Clouds 10 1011 79 10000 0.89 225 13:45 04.11.2021
5603 Clouds 8 1010 94 10000 0.89 270 10:35 04.11.2021
5604 Clouds 7 1008 96 8000 0.89 270 08:41 04.11.2021
5605 Drizzle 6 1008 95 4900 0.45 270 07:36 04.11.2021
5606 Clouds 6 1007 95 6000 0.45 270 06:59 04.11.2021
5607 Clear 6 1006 88 10000 1.03 230 23:18 03.11.2021
5608 Clear 6 1006 88 10000 1.54 230 22:25 03.11.2021
5609 Clear 7 1005 84 10000 1.54 270 21:37 03.11.2021
5610 Clear 7 1005 85 10000 0.45 225 20:44 03.11.2021
5611 Clear 7 1005 83 10000 1.54 290 20:25 03.11.2021
5612 Clear 8 1004 83 10000 0.45 248 19:33 03.11.2021
5613 Clouds 9 1003 77 10000 0.45 113 18:27 03.11.2021
5614 Clouds 9 1003 77 10000 0.45 113 18:27 03.11.2021
5615 Clouds 9 1003 77 10000 0.45 113 18:27 03.11.2021
5616 Clear 9 1003 74 10000 0.45 248 17:48 03.11.2021
5617 Clouds 11 1002 70 10000 0.45 68 16:49 03.11.2021
5618 Clouds 12 1002 72 10000 0.89 270 15:49 03.11.2021
5619 Clouds 12 1002 72 10000 0.45 203 15:30 03.11.2021
5620 Clouds 11 1002 77 10000 0.89 0 13:41 03.11.2021
5621 Clouds 9 1001 93 10000 0.45 270 11:35 03.11.2021
5622 Clouds 8 1001 93 10000 0.45 248 10:50 03.11.2021
5623 Clouds 7 1000 95 10000 0.45 45 09:47 03.11.2021
5624 Clouds 7 1000 95 10000 0.45 225 08:53 03.11.2021
5625 Mist 7 999 96 10000 0.45 270 07:55 03.11.2021
5626 Clouds 7 998 96 9000 0.45 270 07:32 03.11.2021
5627 Clouds 8 997 95 10000 0.45 0 04:23 03.11.2021
5628 Rain 8 998 95 10000 0.89 45 00:58 03.11.2021
5629 Rain 8 998 92 10000 0.45 45 23:24 02.11.2021
5630 Clear 9 999 91 10000 0.45 68 21:59 02.11.2021
5631 Clear 8 999 89 10000 0.89 135 20:43 02.11.2021
5632 Clear 9 1000 88 10000 2.06 120 19:58 02.11.2021
5633 Clear 9 1000 87 10000 3.6 140 19:31 02.11.2021
5634 Clear 9 1000 87 10000 3.6 140 19:31 02.11.2021
5635 Clouds 9 1000 86 10000 3.09 150 18:36 02.11.2021
5636 Clouds 10 1000 81 10000 0.89 225 17:46 02.11.2021
5637 Clouds 11 1000 79 10000 0.45 180 17:25 02.11.2021
5638 Clouds 12 1000 74 10000 0.89 225 16:19 02.11.2021
5639 Clouds 12 1001 73 10000 0.89 225 14:57 02.11.2021
5640 Clouds 12 1001 74 10000 1.34 225 13:31 02.11.2021
5641 Clouds 12 1002 76 10000 1.34 225 12:59 02.11.2021
5642 Clouds 11 1002 79 10000 1.79 225 12:18 02.11.2021
5643 Clouds 10 1001 81 10000 1.34 248 11:26 02.11.2021
5644 Clouds 9 1001 86 10000 1.34 225 10:38 02.11.2021
5645 Clouds 9 1001 89 10000 1.79 203 10:18 02.11.2021
5646 Clouds 8 1000 91 10000 1.34 225 07:47 02.11.2021
5647 Clouds 9 1000 93 10000 1.79 225 05:55 02.11.2021
5648 Clouds 8 1000 93 10000 1.34 225 03:27 02.11.2021
5649 Clear 8 1001 93 10000 0.89 203 00:19 02.11.2021
5650 Clear 8 1001 93 10000 0.45 225 22:19 01.11.2021
5651 Clear 8 1001 93 10000 0.89 252 20:46 01.11.2021
5652 Clear 8 1001 93 10000 0.89 250 20:26 01.11.2021
5653 Clear 8 1001 93 10000 0.45 222 19:42 01.11.2021
5654 Clear 8 1001 93 10000 0.45 228 18:50 01.11.2021
5655 Clear 9 1001 91 10000 0.45 203 17:49 01.11.2021
5656 Clouds 10 1001 89 10000 0.45 225 16:58 01.11.2021
5657 Rain 10 1001 87 8000 5.14 260 16:32 01.11.2021
5658 Clouds 11 1001 82 10000 0.89 225 15:39 01.11.2021
5659 Clouds 13 1001 76 10000 1.79 225 15:19 01.11.2021
5660 Clouds 14 1001 70 10000 0.89 219 14:38 01.11.2021
5661 Clouds 13 1001 72 10000 1.79 225 14:19 01.11.2021
5662 Clear 13 1002 70 10000 3.13 225 12:50 01.11.2021
5663 Clouds 12 1002 78 10000 2.68 225 11:39 01.11.2021
5664 Clouds 11 1002 86 10000 2.24 225 10:20 01.11.2021
5665 Clouds 9 1001 91 10000 0.89 225 08:20 01.11.2021
5666 Clouds 9 1001 91 10000 1.79 225 07:46 01.11.2021
5667 Clouds 9 1001 89 10000 0.89 225 03:55 01.11.2021
5668 Clouds 9 1001 89 10000 0.89 225 01:44 01.11.2021
5669 Clear 10 1001 87 10000 1.34 225 23:30 31.10.2021
5670 Clear 11 1000 89 10000 0.89 147 20:58 31.10.2021
5671 Clear 11 1000 89 10000 0.89 147 20:58 31.10.2021
5672 Clear 11 1000 91 10000 1.34 225 19:49 31.10.2021
5673 Clear 12 1000 89 10000 1.79 225 18:43 31.10.2021
5674 Clear 12 999 88 10000 1.79 225 18:20 31.10.2021
5675 Clouds 15 997 91 10000 1.79 225 16:41 31.10.2021
5676 Rain 17 996 83 10000 1.34 225 14:45 31.10.2021
5677 Clouds 17 998 83 10000 1.79 203 12:55 31.10.2021
5678 Clear 15 999 87 10000 0.89 135 11:44 31.10.2021
5679 Clouds 13 1000 93 10000 0.89 203 10:48 31.10.2021
5680 Clouds 11 1002 96 10000 0.89 135 09:26 31.10.2021
5681 Clouds 11 1002 97 10000 0.89 203 08:45 31.10.2021
5682 Clear 10 1006 95 10000 0.45 180 02:52 31.10.2021
5683 Clear 11 1007 94 10000 2.57 120 00:32 31.10.2021
5684 Clear 11 1006 92 10000 0.89 225 22:27 30.10.2021
5685 Clear 12 1005 94 10000 1.79 231 21:29 30.10.2021
5686 Clear 12 1004 93 10000 3.6 220 19:49 30.10.2021
5687 Clouds 14 1001 94 10000 1.34 225 17:49 30.10.2021
5688 Rain 15 1000 93 10000 1.34 225 15:49 30.10.2021
5689 Drizzle 14 999 96 10000 0.89 225 13:59 30.10.2021
5690 Mist 14 999 96 10000 0.89 225 13:38 30.10.2021
5691 Mist 14 999 96 10000 0.89 158 13:20 30.10.2021
5692 Mist 14 999 96 10000 0.89 225 11:50 30.10.2021
5693 Clouds 14 999 94 10000 0.89 225 10:57 30.10.2021
5694 Drizzle 13 999 95 10000 1.34 225 08:59 30.10.2021
5695 Clouds 13 999 96 10000 0.89 135 07:57 30.10.2021
5696 Clouds 12 999 97 10000 0.45 135 05:48 30.10.2021
5697 Clouds 13 1002 96 10000 0.45 135 03:28 30.10.2021
5698 Clouds 12 1005 96 10000 0.89 225 23:22 29.10.2021
5699 Clouds 12 1005 96 10000 0.45 203 22:35 29.10.2021
5700 Clouds 13 1006 95 10000 0.89 203 21:19 29.10.2021
5701 Clouds 12 1006 94 10000 0.89 225 20:33 29.10.2021
5702 Clouds 13 1005 94 10000 1.34 225 19:33 29.10.2021
5703 Clouds 13 1005 93 10000 0.89 248 18:18 29.10.2021
5704 Rain 14 1005 87 10000 1.34 225 16:20 29.10.2021
5705 Rain 14 1006 85 10000 0.89 225 13:23 29.10.2021
5706 Clear 14 1005 75 10000 0.89 203 10:49 29.10.2021
5707 Clear 13 1005 78 10000 1.34 203 10:31 29.10.2021
5708 Clear 10 1006 83 10000 0.89 158 05:43 29.10.2021
5709 Clear 12 1009 80 10000 0.45 225 00:35 29.10.2021
5710 Clear 13 1010 77 10000 0.45 203 22:40 28.10.2021
5711 Clear 13 1010 71 10000 0.89 225 21:20 28.10.2021
5712 Clear 14 1011 68 10000 0.89 225 20:19 28.10.2021
5713 Clear 16 1011 65 10000 0.89 135 18:57 28.10.2021
5714 Clear 18 1011 57 10000 0.89 180 17:57 28.10.2021
5715 Clear 18 1012 56 10000 1.79 225 16:54 28.10.2021
5716 Clear 18 1013 64 10000 1.34 225 14:59 28.10.2021
5717 Clear 15 1015 72 10000 1.34 225 13:35 28.10.2021
5718 Clear 13 1016 79 10000 0.45 203 12:53 28.10.2021
5719 Clear 13 1016 80 10000 0.89 225 12:34 28.10.2021
5720 Clear 9 1017 93 10000 0.45 225 10:48 28.10.2021
5721 Fog 7 1017 97 10000 0.45 225 09:38 28.10.2021
5722 Fog 7 1017 95 10000 0.45 248 08:37 28.10.2021
5723 Fog 7 1017 95 1000 0.89 203 07:49 28.10.2021
5724 Fog 8 1018 95 10000 0.45 135 04:36 28.10.2021
5725 Clear 11 1021 86 10000 0.45 135 23:26 27.10.2021
5726 Clear 11 1021 86 10000 1.03 0 22:30 27.10.2021
5727 Clear 11 1021 85 10000 1.03 100 21:32 27.10.2021
5728 Clear 12 1021 86 10000 2.06 120 20:49 27.10.2021
5729 Clear 13 1022 79 10000 2.06 120 19:52 27.10.2021
5730 Clear 13 1022 76 10000 0.45 135 19:32 27.10.2021
5731 Clear 15 1022 75 10000 0.45 113 18:39 27.10.2021
5732 Clear 17 1023 68 10000 0.45 158 16:26 27.10.2021
5733 Clear 16 1023 72 10000 0.45 225 15:30 27.10.2021
5734 Clear 16 1023 73 10000 0.45 203 15:30 27.10.2021
5735 Clear 16 1023 72 10000 0.45 225 15:30 27.10.2021
5736 Clear 15 1024 79 9000 0.45 180 14:39 27.10.2021
5737 Clear 10 1025 93 8000 0.45 225 11:21 27.10.2021
5738 Clear 10 1025 90 8000 0.45 225 10:58 27.10.2021
5739 Fog 9 1025 96 9000 0.89 225 09:45 27.10.2021
5740 Fog 8 1024 96 10000 2.57 130 07:53 27.10.2021
5741 Clouds 9 1025 95 9000 1.54 130 06:53 27.10.2021
5742 Clear 11 1025 90 10000 2.24 229 01:45 27.10.2021
5743 Clear 12 1025 88 10000 3.13 218 00:56 27.10.2021
5744 Clouds 12 1025 87 10000 2.68 219 00:24 27.10.2021
5745 Clouds 12 1025 88 10000 0.45 225 23:40 26.10.2021
5746 Clouds 13 1025 87 10000 1.34 225 22:37 26.10.2021
5747 Clouds 13 1025 86 10000 0.45 225 21:57 26.10.2021
5748 Clear 14 1025 84 10000 1.34 225 20:27 26.10.2021
5749 Clouds 14 1024 84 10000 1.79 225 19:26 26.10.2021
5750 Clouds 15 1024 81 10000 0.89 225 18:40 26.10.2021
5751 Clouds 15 1023 79 10000 1.34 203 16:22 26.10.2021
5752 Clouds 14 1024 81 10000 0.45 248 14:19 26.10.2021
5753 Clouds 11 1024 97 10000 0.89 225 11:34 26.10.2021
5754 Fog 10 1024 97 10000 0.45 225 10:20 26.10.2021
5755 Fog 8 1022 97 700 0.45 203 07:25 26.10.2021
5756 Fog 9 1021 95 5000 0.45 225 03:39 26.10.2021
5757 Fog 9 1021 95 5000 0.45 225 03:39 26.10.2021
5758 Clear 12 1020 94 10000 0.45 225 23:50 25.10.2021
5759 Clouds 12 1020 92 10000 0.45 225 22:53 25.10.2021
5760 Clouds 12 1020 92 10000 0.89 225 22:18 25.10.2021
5761 Clouds 12 1020 92 10000 0.89 225 21:38 25.10.2021
5762 Clouds 13 1019 90 10000 0.89 225 19:53 25.10.2021
5763 Clouds 13 1019 88 10000 3.09 170 19:25 25.10.2021
5764 Clouds 13 1019 86 10000 3.09 160 18:54 25.10.2021
5765 Clouds 15 1019 83 10000 1.34 209 17:59 25.10.2021
5766 Clouds 14 1019 88 10000 0.45 214 15:45 25.10.2021
5767 Clouds 12 1019 94 10000 3.6 200 14:28 25.10.2021
5768 Clouds 11 1019 97 10000 3.6 170 12:29 25.10.2021
5769 Mist 9 1019 95 9000 3.09 140 10:20 25.10.2021
5770 Clouds 8 1019 96 10000 3.09 140 08:34 25.10.2021
5771 Clouds 8 1019 90 10000 1.03 120 06:24 25.10.2021
5772 Clear 8 1020 82 10000 0.45 201 00:54 25.10.2021
5773 Clear 8 1020 81 10000 0.45 200 00:35 25.10.2021
5774 Clear 9 1020 80 10000 2.06 70 23:47 24.10.2021
5775 Clear 9 1020 81 10000 1.03 80 22:44 24.10.2021
5776 Clear 9 1020 81 10000 1.03 80 22:21 24.10.2021
5777 Clear 10 1020 76 10000 1.54 190 21:41 24.10.2021
5778 Clear 10 1021 74 10000 1.03 150 20:42 24.10.2021
5779 Clear 10 1021 74 10000 1.03 150 20:23 24.10.2021
5780 Clear 12 1020 70 10000 2.57 170 18:52 24.10.2021
5781 Clear 14 1020 63 10000 3.6 170 17:55 24.10.2021
5782 Clear 15 1021 59 10000 4.12 170 16:49 24.10.2021
5783 Clear 14 1021 64 10000 3.6 210 15:28 24.10.2021
5784 Clear 12 1022 71 10000 4.12 180 13:49 24.10.2021
5785 Clear 10 1022 80 10000 5.14 160 12:41 24.10.2021
5786 Clear 8 1023 86 10000 3.09 150 11:40 24.10.2021
5787 Clear 6 1022 87 10000 2.06 100 10:43 24.10.2021
5788 Clear 4 1022 94 10000 3.09 70 09:38 24.10.2021
5789 Clear 5 1024 87 10000 1.54 20 03:36 24.10.2021
5790 Clear 7 1026 83 10000 2.06 50 00:40 24.10.2021
5791 Clear 7 1026 83 10000 2.06 40 23:24 23.10.2021
5792 Clear 8 1026 77 10000 2.57 100 21:45 23.10.2021
5793 Clouds 11 1026 74 10000 3.09 110 19:47 23.10.2021
5794 Clouds 13 1026 69 10000 1.54 150 18:48 23.10.2021
5795 Clear 13 1026 67 10000 3.09 160 18:21 23.10.2021
5796 Clouds 14 1026 65 10000 2.06 190 17:42 23.10.2021
5797 Clouds 14 1027 66 10000 1.54 80 16:18 23.10.2021
5798 Clear 14 1027 70 10000 1.03 0 13:57 23.10.2021
5799 Clouds 9 1027 90 10000 2.06 240 03:32 23.10.2021
5800 Clear 9 1026 90 10000 1.54 220 23:42 22.10.2021
5801 Clouds 9 1025 89 10000 3.09 230 22:28 22.10.2021
5802 Clear 11 1025 84 10000 2.06 250 19:51 22.10.2021
5803 Clouds 12 1024 77 10000 0.45 222 18:40 22.10.2021
5804 Clear 12 1024 73 10000 1.34 35 17:25 22.10.2021
5805 Clouds 14 1023 63 10000 1.34 43 14:58 22.10.2021
5806 Clear 13 1023 71 10000 0.45 45 13:35 22.10.2021
5807 Clear 8 1023 87 10000 0.45 43 10:58 22.10.2021
5808 Clear 6 1022 91 10000 1.54 210 10:37 22.10.2021
5809 Clear 4 1022 94 10000 1.54 210 09:41 22.10.2021
5810 Clear 4 1021 97 10000 1.54 210 08:30 22.10.2021
5811 Fog 4 1020 96 10000 1.54 220 07:21 22.10.2021
5812 Clear 4 1020 94 10000 1.03 0 02:56 22.10.2021
5813 Clear 6 1019 89 10000 1.54 0 23:53 21.10.2021
5814 Clear 6 1018 89 10000 1.03 0 23:21 21.10.2021
5815 Clear 7 1017 85 10000 2.06 280 21:39 21.10.2021
5816 Clear 8 1016 85 10000 1.54 270 20:27 21.10.2021
5817 Clouds 9 1015 82 10000 1.34 43 19:57 21.10.2021
5818 Clouds 9 1014 79 10000 0.89 44 19:28 21.10.2021
5819 Clouds 11 1013 81 10000 2.68 42 18:43 21.10.2021
5820 Clouds 12 1013 86 10000 2.68 42 17:54 21.10.2021
5821 Clouds 13 1012 88 10000 0.89 43 17:32 21.10.2021
5822 Rain 13 1010 88 7000 1.34 224 15:34 21.10.2021
5823 Rain 13 1010 86 4300 0.89 225 14:57 21.10.2021
5824 Rain 13 1010 87 7000 0.89 225 14:37 21.10.2021
5825 Rain 13 1010 87 7000 0.89 225 14:37 21.10.2021
5826 Clouds 14 1011 68 10000 2.68 225 12:44 21.10.2021
5827 Clear 11 1010 81 10000 1.79 225 09:56 21.10.2021
5828 Clouds 11 1009 78 10000 1.79 225 08:21 21.10.2021
5829 Clear 11 1007 77 10000 2.24 270 07:23 21.10.2021
5830 Clouds 14 997 77 10000 3.58 225 00:58 21.10.2021
5831 Rain 17 997 77 10000 3.13 225 23:20 20.10.2021
5832 Clouds 18 1000 80 10000 2.24 203 21:51 20.10.2021
5833 Clouds 18 1000 81 10000 2.24 225 21:28 20.10.2021
5834 Clouds 18 1001 81 10000 1.79 225 20:46 20.10.2021
5835 Clouds 18 1001 81 10000 2.24 225 20:26 20.10.2021
5836 Clouds 19 1003 78 10000 1.79 225 19:32 20.10.2021
5837 Clouds 19 1003 78 10000 1.34 225 18:49 20.10.2021
5838 Clouds 19 1005 75 10000 1.34 203 17:40 20.10.2021
5839 Clouds 19 1008 78 10000 1.79 225 15:26 20.10.2021
5840 Clouds 16 1010 89 10000 1.79 225 10:25 20.10.2021
5841 Clear 16 1010 83 10000 0.89 225 08:36 20.10.2021
5842 Clear 16 1014 78 10000 1.34 342 02:47 20.10.2021
5843 Clear 17 1015 74 10000 0.45 291 00:35 20.10.2021
5844 Clear 17 1016 69 10000 4.63 160 23:32 19.10.2021
5845 Clear 18 1017 67 10000 0.45 124 21:41 19.10.2021
5846 Clear 19 1017 65 10000 5.14 180 20:45 19.10.2021
5847 Clear 19 1017 65 10000 4.63 190 20:22 19.10.2021
5848 Clear 20 1017 59 10000 4.12 190 19:39 19.10.2021
5849 Clear 21 1017 60 10000 4.63 190 18:52 19.10.2021
5850 Clear 23 1017 57 10000 4.63 190 17:57 19.10.2021
5851 Clear 23 1018 56 10000 1.34 225 15:38 19.10.2021
5852 Clear 23 1018 56 10000 1.34 225 15:19 19.10.2021
5853 Clear 22 1019 63 10000 1.79 225 14:23 19.10.2021
5854 Clouds 19 1021 77 10000 1.79 203 12:38 19.10.2021
5855 Clouds 18 1021 81 10000 0.89 225 11:31 19.10.2021
5856 Clouds 16 1020 89 10000 0.45 248 10:19 19.10.2021
5857 Clear 16 1020 90 10000 0.45 203 08:58 19.10.2021
5858 Clouds 16 1020 90 10000 0.89 315 06:34 19.10.2021
5859 Clouds 15 1020 95 10000 4.12 160 00:24 19.10.2021
5860 Clouds 15 1020 94 10000 3.6 150 23:49 18.10.2021
5861 Clouds 15 1020 94 10000 2.57 150 23:19 18.10.2021
5862 Clouds 15 1020 94 7000 2.57 180 22:53 18.10.2021
5863 Rain 16 1021 91 10000 2.57 180 21:19 18.10.2021
5864 Rain 16 1021 88 10000 2.06 190 20:41 18.10.2021
5865 Rain 16 1021 87 10000 1.54 220 19:53 18.10.2021
5866 Clouds 17 1021 86 10000 1.54 220 19:30 18.10.2021
5867 Clouds 17 1020 82 10000 3.6 210 18:54 18.10.2021
5868 Clear 18 1020 74 10000 0.45 37 15:32 18.10.2021
5869 Clear 16 1021 79 10000 3.6 150 13:32 18.10.2021
5870 Clear 10 1022 87 10000 2.57 110 10:42 18.10.2021
5871 Clear 7 1021 95 9000 2.57 60 09:30 18.10.2021
5872 Clear 7 1021 89 10000 0.45 45 03:22 18.10.2021
5873 Clear 10 1021 80 10000 1.03 30 23:31 17.10.2021
5874 Clear 11 1020 77 10000 0.45 90 21:55 17.10.2021
5875 Clear 12 1020 73 10000 0.45 90 21:18 17.10.2021
5876 Clear 12 1020 69 10000 0.89 135 20:38 17.10.2021
5877 Clear 13 1019 66 10000 0.45 113 19:42 17.10.2021
5878 Clear 13 1019 65 10000 0.45 90 19:23 17.10.2021
5879 Clear 16 1019 56 10000 0.45 68 17:34 17.10.2021
5880 Clear 16 1019 54 10000 0.89 135 15:46 17.10.2021
5881 Clear 15 1020 60 10000 0.89 68 14:26 17.10.2021
5882 Clear 15 1020 61 10000 0.45 158 13:56 17.10.2021
5883 Clear 13 1020 70 10000 0.45 158 12:35 17.10.2021
5884 Clear 9 1020 84 10000 0.89 68 10:44 17.10.2021
5885 Clear 6 1020 91 10000 0.45 68 09:43 17.10.2021
5886 Clear 6 1019 93 10000 1.03 340 07:42 17.10.2021
5887 Clear 9 1020 79 10000 1.54 20 00:56 17.10.2021
5888 Clear 9 1021 77 10000 0.45 90 00:24 17.10.2021
5889 Clear 10 1020 72 10000 1.54 50 22:31 16.10.2021
5890 Clear 12 1020 68 10000 0.45 68 20:35 16.10.2021
5891 Clear 13 1020 68 10000 0.45 90 19:56 16.10.2021
5892 Clear 13 1020 66 10000 0.45 45 19:37 16.10.2021
5893 Clear 14 1020 62 10000 0.89 68 19:18 16.10.2021
5894 Clear 15 1020 61 10000 0.89 45 18:42 16.10.2021
5895 Clear 16 1020 56 10000 1.34 45 18:19 16.10.2021
5896 Clear 17 1020 53 10000 1.34 68 17:28 16.10.2021
5897 Clear 17 1020 56 10000 0.45 158 15:39 16.10.2021
5898 Clear 15 1022 70 10000 0.45 68 12:44 16.10.2021
5899 Clear 11 1022 85 10000 0.45 90 10:51 16.10.2021
5900 Clear 9 1021 93 10000 1.03 0 08:56 16.10.2021
5901 Clouds 11 1021 93 10000 1.34 68 01:36 16.10.2021
5902 Clouds 12 1021 91 10000 1.34 68 23:59 15.10.2021
5903 Clouds 12 1021 88 10000 1.34 45 23:25 15.10.2021
5904 Clouds 13 1020 87 10000 1.34 68 22:20 15.10.2021
5905 Clouds 13 1020 85 10000 0.89 45 21:37 15.10.2021
5906 Clouds 13 1020 83 10000 2.57 10 20:52 15.10.2021
5907 Clear 13 1020 81 10000 1.54 340 20:22 15.10.2021
5908 Clouds 14 1020 78 10000 1.03 330 19:19 15.10.2021
5909 Clouds 16 1019 72 10000 0.45 68 18:21 15.10.2021
5910 Clouds 17 1019 66 10000 0.45 43 15:46 15.10.2021
5911 Clear 16 1020 69 10000 0.45 135 13:49 15.10.2021
5912 Clear 12 1020 83 10000 0.51 0 11:52 15.10.2021
5913 Clear 10 1019 85 10000 0 0 10:58 15.10.2021
5914 Clear 9 1019 90 10000 0.45 45 10:22 15.10.2021
5915 Clear 7 1019 91 10000 1.03 340 07:33 15.10.2021
5916 Clear 7 1020 90 10000 1.03 360 04:26 15.10.2021
5917 Clear 9 1022 82 10000 1.54 360 00:22 15.10.2021
5918 Clear 10 1022 80 10000 1.54 30 22:54 14.10.2021
5919 Clear 10 1022 79 10000 1.54 10 22:18 14.10.2021
5920 Clear 10 1022 78 10000 1.03 30 21:37 14.10.2021
5921 Clear 13 1023 67 10000 2.57 140 20:20 14.10.2021
5922 Clear 13 1023 67 10000 2.57 140 19:43 14.10.2021
5923 Clear 16 1023 55 10000 0 0 18:26 14.10.2021
5924 Clear 17 1024 52 10000 2.06 160 16:58 14.10.2021
5925 Clear 17 1024 51 10000 0.45 225 16:31 14.10.2021
5926 Clear 16 1026 56 10000 0.45 203 14:44 14.10.2021
5927 Clear 16 1026 57 10000 0.45 225 14:26 14.10.2021
5928 Clear 14 1027 68 10000 0.45 225 12:35 14.10.2021
5929 Clear 12 1028 77 10000 0.45 225 11:34 14.10.2021
5930 Clouds 7 1028 90 10000 0.89 178 08:26 14.10.2021
5931 Clouds 7 1028 89 10000 0.7 198 05:52 14.10.2021
5932 Clouds 9 1028 81 10000 0.51 97 00:36 14.10.2021
5933 Clear 9 1028 80 10000 1.54 10 22:40 13.10.2021
5934 Clear 9 1028 77 10000 1.54 350 21:36 13.10.2021
5935 Clear 10 1028 70 10000 1.03 330 20:43 13.10.2021
5936 Clear 12 1028 62 10000 0.45 68 19:24 13.10.2021
5937 Clear 14 1027 57 10000 0.89 68 18:38 13.10.2021
5938 Clear 15 1027 54 10000 0.45 135 16:37 13.10.2021
5939 Clouds 15 1028 56 10000 0.45 45 14:47 13.10.2021
5940 Clouds 14 1028 59 10000 0.45 68 14:24 13.10.2021
5941 Clear 13 1028 67 10000 0.89 68 12:42 13.10.2021
5942 Clear 11 1028 82 10000 1.34 68 11:37 13.10.2021
5943 Clear 8 1027 93 10000 1.03 360 09:56 13.10.2021
5944 Clear 7 1026 93 10000 1.54 350 07:53 13.10.2021
5945 Clear 10 1024 92 10000 1.34 43 03:39 13.10.2021
5946 Clouds 11 1024 88 10000 2.06 350 02:21 13.10.2021
5947 Clear 12 1023 83 10000 2.24 42 23:36 12.10.2021
5948 Clear 12 1023 81 10000 0.45 43 22:50 12.10.2021
5949 Clear 12 1023 80 10000 2.57 320 22:29 12.10.2021
5950 Clear 13 1023 79 10000 1.34 43 20:54 12.10.2021
5951 Clear 13 1023 78 10000 3.09 320 20:31 12.10.2021
5952 Clear 14 1023 78 10000 0.45 44 19:42 12.10.2021
5953 Clear 15 1022 73 10000 0.45 44 18:26 12.10.2021
5954 Clouds 15 1022 69 10000 3.6 300 17:21 12.10.2021
5955 Clouds 16 1022 68 10000 3.13 44 16:24 12.10.2021
5956 Clouds 16 1023 67 10000 1.34 42 15:33 12.10.2021
5957 Clouds 15 1024 71 10000 2.24 44 13:46 12.10.2021
5958 Clouds 15 1024 73 10000 1.34 43 13:18 12.10.2021
5959 Clouds 12 1025 87 10000 2.06 250 11:30 12.10.2021
5960 Clouds 7 1026 94 10000 1.03 240 09:41 12.10.2021
5961 Clouds 7 1026 95 10000 1.54 250 08:31 12.10.2021
5962 Clear 7 1026 92 10000 1.03 210 06:46 12.10.2021
5963 Clear 7 1026 91 10000 0.51 0 04:52 12.10.2021
5964 Clear 7 1027 93 10000 1.03 290 04:28 12.10.2021
5965 Clear 10 1028 85 10000 1.54 330 23:59 11.10.2021
5966 Clear 10 1028 85 10000 0.45 248 23:37 11.10.2021
5967 Clear 10 1028 85 10000 0.51 320 22:55 11.10.2021
5968 Clear 11 1028 80 10000 0.45 270 21:32 11.10.2021
5969 Clear 12 1028 77 10000 0.45 0 20:31 11.10.2021
5970 Clear 13 1028 71 10000 0.45 23 19:36 11.10.2021
5971 Clear 15 1028 64 10000 1.34 68 18:24 11.10.2021
5972 Clouds 16 1028 60 10000 1.34 68 16:41 11.10.2021
5973 Clouds 16 1028 59 10000 1.34 338 16:21 11.10.2021
5974 Clouds 16 1028 59 10000 1.34 90 15:45 11.10.2021
5975 Clouds 16 1028 61 10000 0.89 45 14:54 11.10.2021
5976 Clouds 16 1029 62 10000 1.79 68 14:22 11.10.2021
5977 Clouds 16 1029 63 10000 0.89 90 13:36 11.10.2021
5978 Clear 14 1029 79 10000 0.89 23 11:25 11.10.2021
5979 Clear 12 1028 93 10000 3.09 340 09:47 11.10.2021
5980 Clouds 11 1028 94 10000 0.89 44 08:41 11.10.2021
5981 Mist 11 1028 93 4400 0.45 68 03:47 11.10.2021
5982 Mist 11 1028 90 5000 2.06 340 01:34 11.10.2021
5983 Mist 11 1028 90 5000 0.45 270 00:43 11.10.2021
5984 Mist 11 1028 87 5000 1.03 330 23:52 10.10.2021
5985 Clear 11 1027 83 6000 1.03 360 21:51 10.10.2021
5986 Clear 12 1027 78 7000 0.45 0 21:28 10.10.2021
5987 Clouds 13 1027 78 9000 0.89 45 20:41 10.10.2021
5988 Clouds 13 1027 76 10000 0.89 68 20:20 10.10.2021
5989 Clouds 14 1027 76 10000 0.89 68 19:51 10.10.2021
5990 Clear 14 1027 71 10000 1.34 68 19:31 10.10.2021
5991 Clear 16 1026 67 10000 1.34 90 18:28 10.10.2021
5992 Clear 17 1026 62 10000 0.45 45 15:57 10.10.2021
5993 Clear 17 1027 62 10000 0.89 68 15:38 10.10.2021
5994 Clear 16 1027 69 10000 1.34 90 13:42 10.10.2021
5995 Clear 14 1027 75 10000 1.79 68 12:44 10.10.2021
5996 Clear 14 1027 77 10000 0.45 90 12:23 10.10.2021
5997 Mist 11 1027 87 4300 1.54 0 10:37 10.10.2021
5998 Mist 8 1027 96 3000 0.45 68 09:27 10.10.2021
5999 Fog 8 1026 96 2000 0.45 90 08:52 10.10.2021
6000 Mist 8 1026 94 4000 0.51 320 06:36 10.10.2021
6001 Mist 10 1026 91 4500 0.45 68 02:28 10.10.2021
6002 Clear 11 1026 86 6000 0.45 68 00:54 10.10.2021
6003 Clear 11 1026 85 10000 0.45 68 23:52 09.10.2021
6004 Clear 11 1026 84 10000 0.45 68 23:52 09.10.2021
6005 Clear 12 1026 79 10000 0.45 45 22:39 09.10.2021
6006 Clear 13 1026 77 10000 2.06 10 21:31 09.10.2021
6007 Clear 13 1025 75 10000 2.57 10 20:59 09.10.2021
6008 Clear 13 1025 75 10000 2.57 10 20:59 09.10.2021
6009 Clear 15 1025 69 10000 0.89 68 19:42 09.10.2021
6010 Clear 16 1025 64 10000 1.34 68 18:57 09.10.2021
6011 Clear 17 1025 61 10000 1.79 45 18:32 09.10.2021
6012 Clear 18 1025 59 10000 2.24 45 16:28 09.10.2021
6013 Clear 18 1025 61 10000 1.79 68 14:57 09.10.2021
6014 Clear 16 1026 68 10000 2.24 68 13:41 09.10.2021
6015 Clear 15 1026 74 9000 1.34 45 12:38 09.10.2021
6016 Clear 13 1026 88 10000 1.34 45 11:33 09.10.2021
6017 Mist 12 1026 92 9000 2.57 10 10:38 09.10.2021
6018 Mist 10 1026 94 5000 1.34 45 09:35 09.10.2021
6019 Mist 9 1025 94 4800 1.34 68 08:28 09.10.2021
6020 Mist 9 1025 94 5000 0.89 68 07:37 09.10.2021
6021 Clear 10 1025 90 7000 0.89 68 05:28 09.10.2021
6022 Clear 11 1026 90 10000 0.89 23 02:49 09.10.2021
6023 Clear 12 1026 88 10000 0.89 68 00:58 09.10.2021
6024 Clear 13 1026 85 10000 0.89 68 23:36 08.10.2021
6025 Clear 13 1027 83 10000 0.45 45 22:53 08.10.2021
6026 Clear 14 1026 80 10000 0.89 68 21:50 08.10.2021
6027 Clear 15 1026 75 10000 0.89 68 20:36 08.10.2021
6028 Clear 18 1026 65 10000 2.24 23 18:50 08.10.2021
6029 Clear 19 1026 62 10000 2.68 45 17:28 08.10.2021
6030 Clear 19 1026 61 10000 1.79 68 16:48 08.10.2021
6031 Clear 19 1027 61 10000 2.68 68 16:22 08.10.2021
6032 Clear 18 1028 62 10000 1.79 68 13:55 08.10.2021
6033 Clear 16 1028 70 10000 2.68 45 12:47 08.10.2021
6034 Clear 13 1029 84 10000 1.34 68 11:31 08.10.2021
6035 Clouds 11 1029 93 7000 0.45 50 10:32 08.10.2021
6036 Mist 9 1028 94 4700 0.45 90 06:53 08.10.2021
6037 Clear 11 1028 83 10000 0.45 68 23:33 07.10.2021
6038 Clear 11 1027 85 10000 1.03 350 22:58 07.10.2021
6039 Clear 12 1028 80 10000 1.54 360 21:33 07.10.2021
6040 Clear 13 1028 78 10000 0.45 68 20:56 07.10.2021
6041 Clear 15 1027 70 10000 0.45 45 19:40 07.10.2021
6042 Clear 15 1027 71 10000 0.89 68 19:22 07.10.2021
6043 Clear 18 1026 62 10000 0.89 68 17:38 07.10.2021
6044 Clouds 18 1027 60 10000 0.45 68 16:43 07.10.2021
6045 Clouds 18 1027 63 10000 1.54 60 15:23 07.10.2021
6046 Clouds 17 1027 69 10000 0.89 68 13:45 07.10.2021
6047 Clouds 17 1028 71 10000 0.45 68 13:21 07.10.2021
6048 Clear 16 1028 76 10000 0.45 68 12:36 07.10.2021
6049 Clear 12 1028 91 10000 1.03 0 10:48 07.10.2021
6050 Clear 11 1028 91 10000 1.03 0 10:19 07.10.2021
6051 Clouds 8 1027 94 10000 1.03 10 08:56 07.10.2021
6052 Clouds 8 1027 95 10000 0 0 08:25 07.10.2021
6053 Clear 9 1027 92 10000 1.54 50 07:41 07.10.2021
6054 Clear 8 1027 92 10000 0.51 270 06:54 07.10.2021
6055 Clear 9 1026 90 10000 1.03 0 02:22 07.10.2021
6056 Clear 10 1026 87 10000 2.06 220 23:37 06.10.2021
6057 Clear 11 1025 82 10000 1.54 260 22:45 06.10.2021
6058 Clear 12 1025 80 10000 2.06 270 21:46 06.10.2021
6059 Clear 13 1024 73 10000 0.45 52 20:34 06.10.2021
6060 Clear 15 1023 67 10000 0.89 270 19:46 06.10.2021
6061 Clouds 16 1022 60 10000 1.34 270 18:33 06.10.2021
6062 Clouds 17 1022 57 10000 1.34 270 16:52 06.10.2021
6063 Clouds 17 1022 57 10000 1.34 270 15:26 06.10.2021
6064 Clouds 16 1021 64 10000 1.34 270 13:51 06.10.2021
6065 Clouds 16 1021 68 10000 1.34 248 12:55 06.10.2021
6066 Clouds 15 1021 71 10000 1.79 225 12:31 06.10.2021
6067 Clouds 14 1021 76 10000 1.34 270 11:49 06.10.2021
6068 Clear 11 1020 88 10000 1.34 225 09:58 06.10.2021
6069 Clear 10 1019 91 10000 2.68 217 09:38 06.10.2021
6070 Clear 10 1019 90 10000 0.89 225 08:42 06.10.2021
6071 Clear 10 1018 91 10000 4.02 221 06:48 06.10.2021
6072 Clear 10 1017 89 10000 0.89 180 05:26 06.10.2021
6073 Clear 11 1015 86 10000 3.13 220 00:26 06.10.2021
6074 Clear 11 1015 86 10000 1.34 225 23:52 05.10.2021
6075 Clear 11 1015 86 10000 1.34 225 23:52 05.10.2021
6076 Clouds 11 1014 86 10000 1.34 225 23:32 05.10.2021
6077 Clear 11 1014 86 10000 1.34 225 22:44 05.10.2021
6078 Clouds 12 1013 84 10000 1.34 225 21:58 05.10.2021
6079 Clouds 12 1013 84 10000 0.45 203 21:58 05.10.2021
6080 Clouds 12 1013 85 10000 0.89 225 21:36 05.10.2021
6081 Clouds 12 1012 83 10000 0.89 225 20:39 05.10.2021
6082 Clouds 12 1011 83 10000 1.34 225 20:20 05.10.2021
6083 Clouds 13 1011 75 10000 1.79 270 19:33 05.10.2021
6084 Clouds 15 1010 73 10000 1.34 225 18:49 05.10.2021
6085 Clouds 16 1008 71 10000 1.34 225 16:36 05.10.2021
6086 Clouds 16 1006 73 10000 1.34 270 14:30 05.10.2021
6087 Clouds 15 1006 84 10000 0.89 248 13:33 05.10.2021
6088 Drizzle 13 1005 94 10000 0.89 225 12:38 05.10.2021
6089 Mist 13 1005 94 10000 0.89 225 11:59 05.10.2021
6090 Mist 13 1004 95 5000 2.24 225 10:39 05.10.2021
6091 Mist 13 1004 95 5000 2.24 225 10:39 05.10.2021
6092 Clouds 13 1005 92 10000 1.34 225 08:44 05.10.2021
6093 Clouds 12 1010 92 10000 0.89 225 03:56 05.10.2021
6094 Clear 15 1012 81 10000 0.89 225 23:53 04.10.2021
6095 Clouds 15 1013 78 10000 0.45 203 21:59 04.10.2021
6096 Clouds 17 1014 71 10000 0.89 203 19:34 04.10.2021
6097 Clouds 18 1014 64 10000 1.34 225 18:26 04.10.2021
6098 Clouds 18 1015 63 10000 2.24 225 16:23 04.10.2021
6099 Clouds 18 1015 64 10000 1.79 225 15:31 04.10.2021
6100 Clouds 18 1015 70 10000 0.89 225 14:42 04.10.2021
6101 Clouds 17 1016 72 10000 1.79 225 13:48 04.10.2021
6102 Clouds 17 1016 75 10000 0.89 225 13:24 04.10.2021
6103 Clouds 14 1016 82 10000 1.34 225 11:35 04.10.2021
6104 Clear 12 1016 86 10000 0.89 225 10:48 04.10.2021
6105 Clear 11 1016 90 10000 1.34 225 09:58 04.10.2021
6106 Clear 9 1015 92 10000 0.45 225 08:39 04.10.2021
6107 Clear 9 1015 92 10000 3.09 140 06:56 04.10.2021
6108 Clear 12 1014 85 10000 0.89 225 00:29 04.10.2021
6109 Clear 13 1013 85 10000 1.34 225 22:34 03.10.2021
6110 Clear 13 1012 84 10000 1.34 225 21:38 03.10.2021
6111 Clear 13 1011 84 10000 0.89 225 20:59 03.10.2021
6112 Clouds 14 1010 82 10000 0.45 203 19:57 03.10.2021
6113 Clouds 15 1008 77 10000 0.89 225 18:34 03.10.2021
6114 Clouds 15 1008 74 10000 1.34 225 17:48 03.10.2021
6115 Clouds 15 1005 78 10000 0.89 270 15:57 03.10.2021
6116 Clouds 14 1004 86 10000 0.89 248 14:46 03.10.2021
6117 Clouds 13 1003 92 10000 1.34 225 13:58 03.10.2021
6118 Clouds 13 1001 94 10000 0.89 270 13:21 03.10.2021
6119 Drizzle 13 999 94 10000 1.34 270 12:28 03.10.2021
6120 Rain 15 996 96 10000 0.45 203 10:37 03.10.2021
6121 Mist 15 995 95 3500 2.06 290 08:36 03.10.2021
6122 Clouds 17 997 95 10000 1.34 225 01:30 03.10.2021
6123 Clouds 17 998 92 10000 1.79 225 22:40 02.10.2021
6124 Clouds 17 998 93 10000 1.79 203 20:56 02.10.2021
6125 Rain 17 999 92 10000 1.79 225 19:42 02.10.2021
6126 Clouds 16 1000 90 10000 1.34 225 18:52 02.10.2021
6127 Clouds 16 1001 90 10000 8.75 160 17:54 02.10.2021
6128 Clouds 16 1003 88 10000 7.2 160 17:21 02.10.2021
6129 Clouds 17 1005 79 10000 1.34 225 14:58 02.10.2021
6130 Clear 18 1025 48 10000 0.89 225 16:34 30.09.2021
6131 Clear 17 1026 52 10000 1.34 225 14:57 30.09.2021
6132 Clear 15 1028 62 10000 1.34 225 12:56 30.09.2021
6133 Clear 13 1028 72 10000 0.45 225 11:36 30.09.2021
6134 Clear 12 1029 80 10000 0.45 225 10:42 30.09.2021
6135 Clear 8 1028 89 10000 1.03 60 09:31 30.09.2021
6136 Clear 6 1028 94 10000 0.51 0 08:28 30.09.2021
6137 Clear 7 1028 90 10000 0 0 06:59 30.09.2021
6138 Clear 7 1028 91 10000 0.51 120 04:42 30.09.2021
6139 Clear 9 1028 83 10000 3.13 52 01:19 30.09.2021
6140 Clear 10 1028 82 10000 2.57 230 23:49 29.09.2021
6141 Clear 11 1028 77 10000 0.45 248 21:58 29.09.2021
6142 Clear 12 1027 72 10000 0.89 248 20:57 29.09.2021
6143 Clear 13 1027 69 10000 0.89 270 20:24 29.09.2021
6144 Clouds 14 1026 67 10000 0.89 248 19:43 29.09.2021
6145 Clouds 15 1025 60 10000 1.34 270 18:28 29.09.2021
6146 Clouds 16 1024 60 10000 0.89 248 17:33 29.09.2021
6147 Clouds 15 1024 62 10000 1.34 270 16:46 29.09.2021
6148 Clouds 16 1024 60 10000 2.68 37 15:48 29.09.2021
6149 Clouds 15 1023 67 10000 1.34 248 14:39 29.09.2021
6150 Clouds 16 1022 65 10000 1.79 40 13:41 29.09.2021
6151 Clouds 16 1021 67 10000 1.79 248 12:47 29.09.2021
6152 Clouds 15 1021 75 10000 1.79 248 11:39 29.09.2021
6153 Clouds 14 1020 87 10000 0.89 248 10:39 29.09.2021
6154 Clouds 13 1019 89 10000 0.89 225 09:48 29.09.2021
6155 Clouds 13 1019 91 10000 0.89 225 08:45 29.09.2021
6156 Rain 13 1017 90 9000 1.34 225 07:31 29.09.2021
6157 Clear 14 1016 78 10000 1.34 225 03:29 29.09.2021
6158 Clear 14 1018 69 10000 0.89 203 23:23 28.09.2021
6159 Clear 14 1018 70 10000 0.45 225 22:22 28.09.2021
6160 Clear 15 1018 70 10000 0.45 180 21:35 28.09.2021
6161 Clear 15 1018 67 10000 0.45 225 20:35 28.09.2021
6162 Clear 17 1018 62 10000 0.89 225 19:42 28.09.2021
6163 Clear 18 1019 58 10000 0.45 203 18:44 28.09.2021
6164 Clear 19 1019 55 10000 0.89 203 17:53 28.09.2021
6165 Clear 19 1020 59 10000 0.89 203 15:44 28.09.2021
6166 Clear 17 1022 65 10000 0.89 225 13:38 28.09.2021
6167 Clear 17 1022 70 10000 0.45 225 12:30 28.09.2021
6168 Clear 17 1022 70 10000 0.45 225 12:30 28.09.2021
6169 Clear 16 1022 76 10000 0.45 225 11:59 28.09.2021
6170 Clear 15 1023 80 10000 0.45 203 11:40 28.09.2021
6171 Clear 14 1023 84 10000 0.45 135 10:49 28.09.2021
6172 Clear 12 1022 90 10000 1.54 130 09:53 28.09.2021
6173 Clear 10 1023 95 10000 1.03 0 08:57 28.09.2021
6174 Clear 9 1023 96 10000 1.54 70 08:34 28.09.2021
6175 Clear 9 1023 93 10000 0.45 225 06:51 28.09.2021
6176 Clear 10 1023 91 10000 1.54 60 05:27 28.09.2021
6177 Clear 11 1023 88 10000 0.51 0 01:23 28.09.2021
6178 Clear 12 1023 85 10000 1.03 350 00:25 28.09.2021
6179 Clear 13 1022 82 10000 0.51 340 23:32 27.09.2021
6180 Clear 13 1022 82 10000 0.51 0 22:55 27.09.2021
6181 Clear 14 1021 80 10000 2.06 240 21:44 27.09.2021
6182 Clear 15 1020 71 10000 0.45 225 20:44 27.09.2021
6183 Clear 16 1020 69 10000 0.45 225 19:53 27.09.2021
6184 Clouds 17 1019 67 10000 0.45 225 19:27 27.09.2021
6185 Clouds 18 1019 63 10000 0.89 248 18:49 27.09.2021
6186 Clouds 19 1018 68 10000 0.45 225 17:29 27.09.2021
6187 Clouds 18 1017 76 10000 0.89 225 16:48 27.09.2021
6188 Clouds 17 1017 87 10000 0.45 225 15:44 27.09.2021
6189 Clouds 15 1016 92 10000 0.45 203 15:18 27.09.2021
6190 Rain 17 1014 94 7000 0.89 225 13:32 27.09.2021
6191 Drizzle 17 1014 94 10000 0.89 225 11:31 27.09.2021
6192 Clouds 16 1014 94 10000 0.45 225 10:36 27.09.2021
6193 Clouds 16 1014 93 10000 1.34 203 08:51 27.09.2021
6194 Clouds 16 1015 96 10000 0.89 203 05:22 27.09.2021
6195 Clear 16 1015 95 10000 0.45 225 03:21 27.09.2021
6196 Clear 17 1016 92 10000 0.45 225 22:38 26.09.2021
6197 Clouds 18 1016 91 10000 0.45 225 21:53 26.09.2021
6198 Clouds 18 1016 91 10000 0.45 225 21:25 26.09.2021
6199 Clouds 19 1015 86 10000 0.45 203 20:22 26.09.2021
6200 Clouds 19 1015 85 10000 0.89 225 19:52 26.09.2021
6201 Clouds 20 1015 83 10000 1.34 225 18:46 26.09.2021
6202 Clouds 21 1015 80 10000 0.45 225 17:57 26.09.2021
6203 Clouds 21 1015 82 10000 0.89 225 17:23 26.09.2021
6204 Clouds 21 1014 82 10000 0.45 135 16:57 26.09.2021
6205 Mist 21 1014 80 4800 0.45 328 16:20 26.09.2021
6206 Rain 21 1015 79 10000 0.45 113 15:22 26.09.2021
6207 Clouds 21 1015 76 10000 1.34 225 13:57 26.09.2021
6208 Clouds 21 1015 78 10000 0.89 225 13:29 26.09.2021
6209 Clouds 20 1015 81 10000 0.89 225 12:25 26.09.2021
6210 Clouds 19 1015 84 10000 1.34 225 11:51 26.09.2021
6211 Clouds 17 1015 93 10000 0.45 225 10:38 26.09.2021
6212 Mist 16 1015 96 10000 0.45 225 09:21 26.09.2021
6213 Mist 16 1014 96 10000 0.89 203 08:20 26.09.2021
6214 Clouds 18 1014 91 10000 0.45 203 00:28 26.09.2021
6215 Clouds 18 1013 89 10000 0.89 225 23:41 25.09.2021
6216 Clouds 19 1013 86 10000 0.89 225 22:39 25.09.2021
6217 Clouds 19 1013 84 10000 0.45 338 22:18 25.09.2021
6218 Clouds 20 1013 81 10000 1.54 360 21:36 25.09.2021
6219 Clouds 20 1013 78 10000 1.03 330 20:52 25.09.2021
6220 Clouds 22 1013 67 10000 0.45 135 19:33 25.09.2021
6221 Clear 23 1013 64 10000 0.45 20 18:27 25.09.2021
6222 Clear 23 1013 61 10000 0.45 68 17:19 25.09.2021
6223 Clear 23 1014 62 10000 2.57 60 14:25 25.09.2021
6224 Clear 22 1014 63 10000 0.45 180 13:54 25.09.2021
6225 Clear 20 1015 72 10000 0.45 68 12:36 25.09.2021
6226 Clear 15 1015 87 10000 1.54 40 10:36 25.09.2021
6227 Clear 14 1016 94 10000 1.54 0 09:59 25.09.2021
6228 Mist 11 1016 100 10000 1.03 350 08:52 25.09.2021
6229 Fog 11 1016 97 6000 0.45 45 07:46 25.09.2021
6230 Clear 15 1017 86 10000 0.45 68 00:52 25.09.2021
6231 Clear 16 1017 82 10000 0.45 68 21:58 24.09.2021
6232 Clear 17 1017 80 10000 0.89 45 21:25 24.09.2021
6233 Clear 18 1017 73 10000 2.06 330 20:31 24.09.2021
6234 Clear 21 1016 63 10000 2.57 310 19:29 24.09.2021
6235 Clear 23 1016 60 10000 0.45 225 18:18 24.09.2021
6236 Clear 22 1017 59 10000 0.45 225 17:42 24.09.2021
6237 Clear 22 1017 61 10000 0.45 203 17:23 24.09.2021
6238 Clear 21 1018 64 10000 0.45 225 15:38 24.09.2021
6239 Clouds 19 1019 73 10000 0.45 225 13:21 24.09.2021
6240 Clouds 19 1020 76 10000 0.45 203 12:43 24.09.2021
6241 Clouds 19 1019 77 10000 0.45 113 12:25 24.09.2021
6242 Clouds 16 1019 88 10000 0.45 203 10:49 24.09.2021
6243 Clouds 14 1019 93 10000 0.45 135 09:37 24.09.2021
6244 Mist 14 1019 96 5000 1.54 150 07:57 24.09.2021
6245 Mist 14 1019 95 7000 1.03 140 06:59 24.09.2021
6246 Mist 14 1019 95 4700 0.45 225 05:57 24.09.2021
6247 Mist 13 1020 94 10000 0.45 248 03:56 24.09.2021
6248 Clear 16 1020 78 10000 0.45 225 22:37 23.09.2021
6249 Clear 17 1020 75 10000 0.45 203 21:59 23.09.2021
6250 Clear 18 1020 69 10000 0.45 315 20:54 23.09.2021
6251 Clear 19 1020 65 10000 0.45 42 20:31 23.09.2021
6252 Clear 22 1020 52 10000 0.45 248 18:32 23.09.2021
6253 Clear 23 1020 49 10000 0.89 225 16:39 23.09.2021
6254 Clear 22 1021 54 10000 0.89 248 15:19 23.09.2021
6255 Clear 21 1021 54 10000 0.45 68 14:25 23.09.2021
6256 Clear 20 1022 60 10000 0.45 248 13:27 23.09.2021
6257 Clear 19 1022 60 10000 0.45 248 12:57 23.09.2021
6258 Clear 19 1022 64 10000 0.45 248 12:37 23.09.2021
6259 Clear 18 1022 66 10000 0.45 225 12:18 23.09.2021
6260 Clear 15 1023 81 10000 1.03 0 10:31 23.09.2021
6261 Clear 13 1023 85 10000 0.45 270 09:57 23.09.2021
6262 Clear 12 1023 90 10000 0 0 09:38 23.09.2021
6263 Clear 10 1022 89 10000 0.45 68 06:24 23.09.2021
6264 Clear 14 1025 79 10000 1.54 350 00:25 23.09.2021
6265 Clear 15 1024 74 10000 0.45 68 22:54 22.09.2021
6266 Clear 15 1025 71 10000 0.45 68 22:20 22.09.2021
6267 Clear 16 1024 70 10000 2.06 20 21:44 22.09.2021
6268 Clear 16 1025 69 10000 0.45 68 20:58 22.09.2021
6269 Clear 18 1024 60 10000 0.89 45 19:53 22.09.2021
6270 Clear 19 1024 58 10000 0.45 45 19:27 22.09.2021
6271 Clear 20 1025 52 10000 1.79 45 18:35 22.09.2021
6272 Clouds 21 1025 53 10000 1.34 68 17:33 22.09.2021
6273 Clouds 21 1026 53 10000 1.79 45 15:52 22.09.2021
6274 Clear 19 1027 52 10000 1.34 45 14:29 22.09.2021
6275 Clear 18 1028 55 10000 0.89 90 13:24 22.09.2021
6276 Clear 15 1029 75 10000 0.45 68 11:20 22.09.2021
6277 Clouds 11 1029 88 8000 0.89 68 09:35 22.09.2021
6278 Clouds 10 1028 90 6000 0.45 45 08:51 22.09.2021
6279 Clouds 10 1028 90 7000 0.89 45 07:41 22.09.2021
6280 Clouds 10 1028 89 7000 0.89 68 06:54 22.09.2021
6281 Clouds 11 1028 90 7000 0.45 90 05:49 22.09.2021
6282 Clouds 11 1028 88 7000 0.45 90 05:18 22.09.2021
6283 Clear 11 1029 87 9000 0.45 23 03:33 22.09.2021
6284 Clear 13 1030 83 10000 1.03 0 00:18 22.09.2021
6285 Clear 14 1029 81 10000 2.06 360 22:28 21.09.2021
6286 Clear 15 1029 78 10000 0.89 68 21:31 21.09.2021
6287 Clouds 17 1029 73 10000 1.79 45 19:38 21.09.2021
6288 Clouds 17 1029 69 10000 0.89 68 19:19 21.09.2021
6289 Clouds 18 1028 67 10000 4.63 50 16:58 21.09.2021
6290 Clouds 18 1028 67 10000 0.89 45 16:27 21.09.2021
6291 Clouds 18 1028 64 10000 1.34 40 15:25 21.09.2021
6292 Clouds 18 1028 62 10000 0.89 40 14:49 21.09.2021
6293 Clouds 17 1029 60 10000 2.24 23 13:40 21.09.2021
6294 Clear 16 1029 62 10000 3.58 68 12:58 21.09.2021
6295 Clouds 15 1028 55 10000 3.89 26 11:19 21.09.2021
6296 Clear 12 1028 78 10000 4.12 10 09:54 21.09.2021
6297 Mist 11 1027 89 5000 3.09 350 07:47 21.09.2021
6298 Clouds 12 1026 89 7000 4.12 350 06:18 21.09.2021
6299 Mist 16 1024 92 6000 2.06 360 23:58 20.09.2021
6300 Clouds 17 1023 92 7000 2.06 320 21:58 20.09.2021
6301 Clouds 17 1023 92 9000 1.54 330 21:32 20.09.2021
6302 Clouds 18 1022 83 10000 0.45 248 20:27 20.09.2021
6303 Clouds 19 1021 79 10000 0.45 203 19:24 20.09.2021
6304 Clouds 20 1020 76 10000 0.45 270 17:39 20.09.2021
6305 Clouds 20 1020 71 10000 0.45 270 16:27 20.09.2021
6306 Clouds 20 1020 76 10000 0.45 248 15:47 20.09.2021
6307 Clouds 19 1020 78 10000 0.45 225 15:18 20.09.2021
6308 Clouds 18 1019 84 10000 0.45 203 13:43 20.09.2021
6309 Clouds 17 1019 88 10000 0.45 225 12:35 20.09.2021
6310 Clouds 17 1019 92 10000 0.45 248 11:19 20.09.2021
6311 Clouds 15 1018 96 10000 0.45 248 09:55 20.09.2021
6312 Mist 15 1018 96 10000 0.45 44 09:34 20.09.2021
6313 Mist 15 1018 96 10000 0.45 270 08:58 20.09.2021
6314 Clouds 14 1017 96 10000 1.03 240 06:51 20.09.2021
6315 Clouds 16 1017 87 10000 0.45 248 23:45 19.09.2021
6316 Clouds 17 1016 87 10000 0.89 248 22:21 19.09.2021
6317 Clouds 17 1016 85 10000 0.45 225 21:39 19.09.2021
6318 Clouds 18 1015 83 10000 1.34 270 20:34 19.09.2021
6319 Clear 21 1014 61 10000 2.57 360 19:18 19.09.2021
6320 Clear 22 1013 60 10000 1.79 68 18:26 19.09.2021
6321 Clear 22 1013 60 10000 1.34 45 17:22 19.09.2021
6322 Clouds 22 1013 62 10000 1.79 68 15:55 19.09.2021
6323 Clouds 22 1013 62 10000 1.79 68 15:55 19.09.2021
6324 Clouds 22 1013 63 10000 1.34 45 15:29 19.09.2021
6325 Clouds 22 1013 65 10000 0.45 68 14:46 19.09.2021
6326 Clear 20 1013 72 10000 0.45 248 13:21 19.09.2021
6327 Clear 20 1013 74 10000 0.89 45 12:50 19.09.2021
6328 Clear 18 1013 80 10000 0.45 270 11:27 19.09.2021
6329 Clouds 17 1012 83 10000 0.45 68 10:47 19.09.2021
6330 Clear 16 1012 87 10000 0.45 68 09:40 19.09.2021
6331 Clear 15 1011 89 10000 0.89 68 08:31 19.09.2021
6332 Clear 16 1011 90 10000 1.34 68 06:41 19.09.2021
6333 Clear 18 1012 84 10000 1.54 280 23:38 18.09.2021
6334 Clear 18 1012 82 10000 2.57 270 22:23 18.09.2021
6335 Clear 20 1012 76 10000 0.89 225 20:52 18.09.2021
6336 Clear 20 1012 76 10000 0.89 225 20:52 18.09.2021
6337 Clear 20 1012 70 10000 0.45 68 20:32 18.09.2021
6338 Clear 22 1012 64 10000 0.45 135 19:39 18.09.2021
6339 Clear 22 1012 63 10000 0.45 135 19:20 18.09.2021
6340 Clear 23 1012 61 10000 0.45 135 18:32 18.09.2021
6341 Clear 24 1012 57 10000 0.89 68 17:34 18.09.2021
6342 Clear 24 1013 56 10000 0.89 45 16:20 18.09.2021
6343 Clouds 23 1013 58 10000 0.45 158 13:49 18.09.2021
6344 Clouds 23 1014 60 10000 0.89 135 13:29 18.09.2021
6345 Clouds 22 1014 63 10000 0.45 135 12:49 18.09.2021
6346 Clear 19 1014 70 10000 1.34 68 11:41 18.09.2021
6347 Clear 18 1014 77 10000 2.06 70 10:32 18.09.2021
6348 Clear 16 1014 85 10000 0.45 45 09:35 18.09.2021
6349 Clear 16 1014 85 10000 0.45 45 09:35 18.09.2021
6350 Clear 15 1014 84 10000 0.45 68 08:59 18.09.2021
6351 Clouds 15 1013 86 10000 0.89 68 05:51 18.09.2021
6352 Clouds 16 1014 81 10000 2.15 94 00:42 18.09.2021
6353 Clear 17 1014 80 10000 2.13 94 23:50 17.09.2021
6354 Clear 17 1014 72 10000 2.06 60 22:38 17.09.2021
6355 Clear 17 1014 72 10000 2.06 60 22:19 17.09.2021
6356 Clear 18 1014 68 10000 2.06 100 21:23 17.09.2021
6357 Clear 21 1013 59 10000 0.45 45 19:23 17.09.2021
6358 Clear 23 1014 56 10000 0.89 113 17:25 17.09.2021
6359 Clouds 23 1014 56 10000 0.89 68 16:27 17.09.2021
6360 Clouds 22 1015 59 10000 0.45 135 14:23 17.09.2021
6361 Clear 18 1016 77 10000 0.45 225 10:53 17.09.2021
6362 Clear 14 1016 93 10000 0.45 45 08:54 17.09.2021
6363 Clear 12 1016 93 9000 0.45 45 07:33 17.09.2021
6364 Clear 14 1017 91 10000 0.89 68 03:54 17.09.2021
6365 Clear 16 1018 84 10000 1.03 360 23:35 16.09.2021
6366 Clear 16 1018 79 10000 1.54 340 22:33 16.09.2021
6367 Clear 17 1018 76 10000 2.06 40 21:52 16.09.2021
6368 Clear 18 1018 74 10000 2.06 350 21:26 16.09.2021
6369 Clear 19 1017 67 10000 2.06 360 20:19 16.09.2021
6370 Clear 21 1018 60 10000 0.89 68 18:21 16.09.2021
6371 Clear 21 1017 59 10000 1.79 68 17:54 16.09.2021
6372 Clouds 21 1018 60 10000 0.89 45 14:59 16.09.2021
6373 Clouds 21 1018 59 10000 0.45 225 14:26 16.09.2021
6374 Clouds 20 1018 63 10000 0.89 68 12:52 16.09.2021
6375 Clear 20 1019 63 10000 0.89 45 12:33 16.09.2021
6376 Clear 19 1019 70 10000 1.79 0 11:28 16.09.2021
6377 Clear 18 1019 78 10000 0.89 45 10:34 16.09.2021
6378 Clear 17 1019 85 10000 0.45 45 09:59 16.09.2021
6379 Clouds 15 1018 91 10000 1.34 45 08:43 16.09.2021
6380 Clouds 15 1018 92 10000 0.45 68 07:43 16.09.2021
6381 Clouds 15 1017 92 10000 0.45 68 06:54 16.09.2021
6382 Clouds 15 1017 92 10000 1.79 45 05:57 16.09.2021
6383 Clouds 16 1016 88 10000 1.79 45 01:57 16.09.2021
6384 Clouds 17 1016 85 10000 0.45 43 00:45 16.09.2021
6385 Clouds 18 1016 86 10000 0.89 23 22:47 15.09.2021
6386 Clouds 19 1015 88 10000 1.34 68 21:56 15.09.2021
6387 Clouds 19 1015 89 10000 0.89 68 21:30 15.09.2021
6388 Clouds 19 1015 89 10000 0.89 68 21:30 15.09.2021
6389 Clouds 19 1015 89 10000 0.89 68 21:30 15.09.2021
6390 Clouds 20 1014 88 10000 0.89 68 20:23 15.09.2021
6391 Clouds 20 1014 88 10000 0.45 45 19:29 15.09.2021
6392 Clouds 20 1013 89 8000 0.89 68 18:25 15.09.2021
6393 Mist 20 1013 93 7000 3.6 330 17:26 15.09.2021
6394 Mist 20 1013 94 8000 3.6 340 16:27 15.09.2021
6395 Rain 21 1012 91 10000 3.09 350 14:46 15.09.2021
6396 Clouds 22 1012 92 10000 1.54 0 14:24 15.09.2021
6397 Fog 21 1011 94 700 1.03 0 13:40 15.09.2021
6398 Clouds 21 1011 95 10000 1.54 150 13:21 15.09.2021
6399 Clouds 20 1011 96 6000 2.57 140 12:21 15.09.2021
6400 Clouds 20 1011 96 6000 0.45 215 11:47 15.09.2021
6401 Clouds 19 1011 97 9000 2.06 120 10:56 15.09.2021
6402 Clouds 19 1011 96 6000 0.51 0 09:31 15.09.2021
6403 Drizzle 19 1010 97 10000 1.54 160 08:41 15.09.2021
6404 Clouds 19 1010 96 10000 2.57 130 05:55 15.09.2021
6405 Clouds 20 1011 94 9000 1.54 330 23:56 14.09.2021
6406 Clouds 21 1011 92 10000 1.54 360 21:58 14.09.2021
6407 Clouds 21 1011 92 10000 1.54 0 20:56 14.09.2021
6408 Clouds 22 1010 88 10000 2.06 150 19:54 14.09.2021
6409 Clouds 25 1010 70 10000 0.45 225 18:24 14.09.2021
6410 Clouds 25 1010 68 10000 0.45 158 17:28 14.09.2021
6411 Clouds 26 1011 66 10000 1.79 222 15:58 14.09.2021
6412 Clear 24 1011 75 10000 0.89 203 14:32 14.09.2021
6413 Clear 24 1011 76 10000 0.89 225 14:32 14.09.2021
6414 Clouds 22 1012 87 10000 0.89 203 13:26 14.09.2021
6415 Clouds 19 1012 96 10000 0.45 225 10:57 14.09.2021
6416 Clouds 18 1011 95 7000 0.89 135 09:51 14.09.2021
6417 Clouds 18 1012 93 10000 1.34 225 09:18 14.09.2021
6418 Clouds 18 1010 93 10000 0.45 135 07:25 14.09.2021
6419 Clear 20 1012 76 10000 0.45 135 00:56 14.09.2021
6420 Clear 20 1012 73 10000 0.45 45 22:58 13.09.2021
6421 Clear 21 1013 71 10000 0.45 90 22:27 13.09.2021
6422 Clear 21 1013 69 10000 0.45 68 21:54 13.09.2021
6423 Clear 22 1013 64 10000 0.45 68 21:19 13.09.2021
6424 Clear 24 1013 57 10000 0.45 113 19:34 13.09.2021
6425 Clear 25 1013 53 10000 0.89 68 18:43 13.09.2021
6426 Clear 26 1013 52 10000 0.89 135 17:18 13.09.2021
6427 Clouds 26 1014 54 10000 0.89 113 15:55 13.09.2021
6428 Clear 25 1015 56 10000 1.34 135 14:30 13.09.2021
6429 Clear 20 1016 69 10000 0.89 45 11:21 13.09.2021
6430 Clear 17 1016 80 10000 1.34 23 09:54 13.09.2021
6431 Clouds 13 1016 89 10000 0.89 45 07:46 13.09.2021
6432 Clear 16 1018 73 10000 1.54 360 23:50 12.09.2021
6433 Clear 17 1018 70 10000 0.45 45 22:42 12.09.2021
6434 Clear 17 1018 70 10000 2.57 30 22:20 12.09.2021
6435 Clouds 19 1017 63 10000 1.34 45 20:41 12.09.2021
6436 Clear 20 1016 62 10000 1.34 45 19:56 12.09.2021
6437 Clouds 21 1016 58 10000 1.34 68 19:29 12.09.2021
6438 Clear 22 1017 56 10000 0.89 68 18:50 12.09.2021
6439 Clouds 22 1017 55 10000 2.57 290 16:58 12.09.2021
6440 Clouds 22 1018 55 10000 0.45 248 15:37 12.09.2021
6441 Clouds 22 1018 55 10000 0.89 270 14:32 12.09.2021
6442 Clear 19 1019 65 10000 0.89 68 11:49 12.09.2021
6443 Clear 17 1019 77 10000 0.45 248 10:19 12.09.2021
6444 Clouds 13 1019 88 10000 0.45 293 08:38 12.09.2021
6445 Clear 14 1019 83 10000 1.03 10 04:59 12.09.2021
6446 Clouds 15 1019 77 10000 1.03 10 00:46 12.09.2021
6447 Clear 17 1019 67 10000 1.03 350 22:29 11.09.2021
6448 Clear 18 1019 65 10000 0.45 248 21:38 11.09.2021
6449 Clear 21 1018 60 10000 0.45 248 19:34 11.09.2021
6450 Clouds 22 1018 58 10000 0.89 225 17:56 11.09.2021
6451 Clouds 22 1019 59 10000 0.45 214 16:41 11.09.2021
6452 Clouds 21 1019 61 10000 0.89 270 14:45 11.09.2021
6453 Clouds 21 1019 64 10000 1.34 203 13:22 11.09.2021
6454 Clouds 19 1020 70 10000 0.89 248 11:40 11.09.2021
6455 Clouds 16 1019 87 10000 0.45 248 09:42 11.09.2021
6456 Clear 14 1019 93 10000 0.89 248 08:31 11.09.2021
6457 Clear 14 1018 93 10000 1.54 260 07:34 11.09.2021
6458 Clouds 16 1018 91 10000 0.89 248 02:29 11.09.2021
6459 Clear 19 1016 86 10000 0.45 225 22:27 10.09.2021
6460 Clouds 19 1016 85 10000 0.89 225 21:56 10.09.2021
6461 Clouds 19 1015 85 10000 0.45 248 21:25 10.09.2021
6462 Clouds 22 1014 78 10000 0.89 203 18:43 10.09.2021
6463 Clouds 24 1013 70 10000 0.45 203 17:42 10.09.2021
6464 Clouds 23 1013 76 10000 0.45 225 15:38 10.09.2021
6465 Clouds 23 1013 71 10000 0.45 225 13:18 10.09.2021
6466 Clouds 20 1013 88 10000 0.89 225 10:32 10.09.2021
6467 Clouds 19 1012 90 10000 2.06 220 07:51 10.09.2021
6468 Clouds 19 1012 90 10000 0.89 203 04:33 10.09.2021
6469 Clear 20 1011 84 10000 0.45 225 23:24 09.09.2021
6470 Clear 20 1011 82 10000 1.54 160 21:47 09.09.2021
6471 Clouds 21 1011 82 10000 3.09 200 20:47 09.09.2021
6472 Clouds 21 1010 81 10000 3.09 220 20:23 09.09.2021
6473 Clouds 21 1010 81 10000 3.09 220 20:23 09.09.2021
6474 Clouds 25 1010 58 10000 1.79 225 18:37 09.09.2021
6475 Clear 26 1010 57 10000 1.34 203 17:41 09.09.2021
6476 Clouds 26 1010 59 10000 0.89 225 16:27 09.09.2021
6477 Clouds 25 1011 72 10000 0.89 248 13:35 09.09.2021
6478 Clouds 21 1011 90 10000 0.89 225 11:50 09.09.2021
6479 Mist 21 1011 93 8000 0.45 203 10:54 09.09.2021
6480 Mist 20 1011 95 6000 0.45 203 09:27 09.09.2021
6481 Mist 20 1010 95 9000 1.54 240 06:55 09.09.2021
6482 Clouds 21 1010 94 10000 0.89 225 04:18 09.09.2021
6483 Clear 23 1010 81 10000 1.54 290 22:58 08.09.2021
6484 Clouds 25 1009 69 10000 0.89 223 21:47 08.09.2021
6485 Clear 27 1009 61 10000 1.34 225 20:37 08.09.2021
6486 Clear 29 1010 51 10000 2.06 160 19:44 08.09.2021
6487 Clear 30 1009 50 10000 0.45 135 18:34 08.09.2021
6488 Clear 30 1009 49 10000 0.89 90 17:58 08.09.2021
6489 Clear 30 1009 48 10000 0.45 90 17:39 08.09.2021
6490 Clear 29 1011 50 10000 1.34 135 14:57 08.09.2021
6491 Clear 27 1011 54 10000 1.34 45 13:28 08.09.2021
6492 Clear 26 1012 55 10000 0.89 45 12:41 08.09.2021
6493 Clear 25 1012 57 10000 0.89 135 12:22 08.09.2021
6494 Clear 23 1012 61 10000 1.34 45 11:26 08.09.2021
6495 Clear 21 1012 64 10000 0.45 113 10:31 08.09.2021
6496 Clear 20 1012 69 10000 0.45 113 09:37 08.09.2021
6497 Clear 17 1013 72 10000 0.45 90 07:44 08.09.2021
6498 Clear 18 1013 69 10000 1.54 30 06:40 08.09.2021
6499 Clear 23 1016 52 10000 0.89 68 23:18 07.09.2021
6500 Clear 24 1016 51 10000 0.89 68 22:19 07.09.2021
6501 Clear 26 1016 45 10000 0.45 68 20:41 07.09.2021
6502 Clear 29 1017 36 10000 0.89 135 18:53 07.09.2021
6503 Clear 29 1017 36 10000 0.89 135 18:25 07.09.2021
6504 Clear 30 1017 35 10000 1.79 68 17:22 07.09.2021
6505 Clear 30 1019 35 10000 1.34 135 15:56 07.09.2021
6506 Clear 29 1019 37 10000 1.79 135 14:48 07.09.2021
6507 Clear 28 1020 40 10000 1.34 135 13:50 07.09.2021
6508 Clear 26 1021 49 10000 1.34 135 11:58 07.09.2021
6509 Clear 23 1021 57 10000 1.34 68 10:48 07.09.2021
6510 Clear 20 1021 67 10000 2.06 360 09:40 07.09.2021
6511 Clear 16 1021 80 10000 0.89 45 07:46 07.09.2021
6512 Clear 17 1021 75 10000 0.45 68 06:19 07.09.2021
6513 Clear 19 1022 67 10000 1.03 40 02:38 07.09.2021
6514 Clear 20 1022 60 10000 0.45 45 00:55 07.09.2021
6515 Clear 22 1022 57 10000 0.89 45 23:46 06.09.2021
6516 Clear 22 1022 57 10000 0.89 45 23:28 06.09.2021
6517 Clear 22 1022 59 10000 0.45 45 22:49 06.09.2021
6518 Clear 23 1022 60 10000 0.45 68 21:55 06.09.2021
6519 Clear 26 1021 54 10000 0.45 68 20:34 06.09.2021
6520 Clear 28 1021 45 10000 0.45 158 19:18 06.09.2021
6521 Clear 29 1021 44 10000 0.89 135 18:33 06.09.2021
6522 Clear 29 1021 43 10000 0.89 113 17:50 06.09.2021
6523 Clear 29 1022 45 10000 0.89 45 16:20 06.09.2021
6524 Clear 29 1022 47 10000 0.45 135 14:59 06.09.2021
6525 Clear 27 1023 47 10000 0.45 113 12:50 06.09.2021
6526 Clear 26 1023 52 10000 0.89 68 11:52 06.09.2021
6527 Clear 22 1023 69 10000 0.89 45 10:27 06.09.2021
6528 Clear 17 1022 84 10000 1.54 10 07:39 06.09.2021
6529 Clear 19 1021 77 10000 2.06 350 03:34 06.09.2021
6530 Clear 22 1020 71 10000 0.45 45 23:22 05.09.2021
6531 Clear 23 1020 69 10000 0.89 45 22:32 05.09.2021
6532 Clear 23 1019 68 10000 2.57 50 21:55 05.09.2021
6533 Clouds 24 1019 66 10000 3.09 60 21:20 05.09.2021
6534 Clear 27 1018 59 10000 2.68 45 19:45 05.09.2021
6535 Clouds 28 1018 53 10000 2.06 70 17:52 05.09.2021
6536 Clear 28 1018 52 10000 0.89 23 15:58 05.09.2021
6537 Clouds 28 1018 56 10000 0.45 135 15:19 05.09.2021
6538 Clear 26 1018 65 10000 0.45 113 12:44 05.09.2021
6539 Clear 23 1018 74 10000 0.45 68 11:31 05.09.2021
6540 Clear 21 1018 81 10000 0.45 23 10:40 05.09.2021
6541 Clear 19 1018 89 10000 0.45 68 09:34 05.09.2021
6542 Clear 18 1017 92 10000 1.54 20 08:31 05.09.2021
6543 Clear 19 1016 90 10000 0.51 0 05:47 05.09.2021
6544 Clouds 20 1016 83 10000 1.03 320 00:39 05.09.2021
6545 Clear 20 1016 83 10000 0.45 22 23:56 04.09.2021
6546 Clear 21 1016 83 10000 0.89 68 23:24 04.09.2021
6547 Clear 22 1015 80 10000 0.89 45 22:35 04.09.2021
6548 Clouds 23 1015 73 10000 2.06 350 20:58 04.09.2021
6549 Clouds 25 1014 65 10000 0.45 158 19:33 04.09.2021
6550 Thunderstorm 26 1014 61 10000 0.89 68 17:25 04.09.2021
6551 Clear 26 1015 61 10000 2.57 80 14:37 04.09.2021
6552 Clear 23 1015 76 10000 1.03 0 11:37 04.09.2021
6553 Clouds 22 1015 78 10000 0.45 90 10:55 04.09.2021
6554 Clear 18 1015 87 10000 0.45 68 08:18 04.09.2021
6555 Clear 20 1015 76 10000 1.54 320 00:50 04.09.2021
6556 Clear 21 1015 73 10000 1.03 0 00:19 04.09.2021
6557 Clear 22 1016 70 10000 2.57 20 23:21 03.09.2021
6558 Clear 23 1015 64 10000 0.89 45 21:43 03.09.2021
6559 Clear 24 1015 63 10000 2.57 20 21:23 03.09.2021
6560 Clear 25 1015 58 10000 1.54 50 20:30 03.09.2021
6561 Clear 27 1015 50 10000 0.45 0 19:38 03.09.2021
6562 Clouds 28 1015 50 10000 0.45 45 18:33 03.09.2021
6563 Clear 28 1015 48 10000 0.45 158 17:21 03.09.2021
6564 Clear 27 1017 51 10000 0.45 68 15:42 03.09.2021
6565 Clear 26 1017 54 10000 0.89 135 14:40 03.09.2021
6566 Clear 20 1018 68 10000 1.34 45 11:21 03.09.2021
6567 Clear 17 1018 78 10000 2.06 30 09:55 03.09.2021
6568 Mist 14 1019 89 4800 1.34 68 08:22 03.09.2021
6569 Clear 14 1018 90 6000 1.34 23 06:50 03.09.2021
6570 Clear 18 1020 71 10000 1.34 68 23:58 02.09.2021
6571 Clear 19 1021 62 10000 0.89 68 22:21 02.09.2021
6572 Clear 21 1020 54 10000 0.45 45 20:59 02.09.2021
6573 Clear 25 1020 44 10000 2.68 45 18:52 02.09.2021
6574 Clear 25 1021 48 10000 1.79 68 16:39 02.09.2021
6575 Clear 24 1022 49 10000 1.79 45 15:32 02.09.2021
6576 Clear 22 1023 58 10000 0.45 36 13:42 02.09.2021
6577 Clear 19 1023 66 10000 5.14 40 11:46 02.09.2021
6578 Clear 18 1023 71 10000 1.79 68 11:24 02.09.2021
6579 Clear 14 1024 85 9000 2.24 45 09:20 02.09.2021
6580 Clear 12 1024 89 9000 2.24 45 07:40 02.09.2021
6581 Clear 12 1024 87 10000 1.34 45 06:40 02.09.2021
6582 Clear 14 1025 82 10000 1.79 68 02:38 02.09.2021
6583 Clear 14 1025 82 10000 2.24 45 01:50 02.09.2021
6584 Clear 16 1025 76 10000 3.13 45 23:41 01.09.2021
6585 Clear 16 1025 76 10000 2.68 45 23:23 01.09.2021
6586 Clear 17 1025 72 10000 3.13 45 22:30 01.09.2021
6587 Clear 17 1025 72 10000 3.13 45 22:30 01.09.2021
6588 Clear 18 1024 70 10000 2.68 45 21:32 01.09.2021
6589 Clouds 21 1024 61 10000 4.47 45 19:38 01.09.2021
6590 Clouds 23 1024 55 10000 2.68 68 17:57 01.09.2021
6591 Clouds 23 1025 55 10000 2.68 68 17:18 01.09.2021
6592 Clouds 23 1025 56 10000 2.68 68 16:46 01.09.2021
6593 Clouds 22 1026 57 10000 2.24 45 15:18 01.09.2021
6594 Clouds 18 1027 75 10000 2.68 45 11:48 01.09.2021
6595 Clouds 16 1027 82 10000 1.34 45 10:39 01.09.2021
6596 Clouds 15 1027 86 10000 2.24 45 08:46 01.09.2021
6597 Clouds 15 1027 88 10000 2.68 45 07:50 01.09.2021
6598 Clear 17 1025 67 10000 0.89 45 23:40 31.08.2021
6599 Clear 18 1025 63 10000 1.79 45 22:24 31.08.2021
6600 Clear 21 1024 56 10000 3.58 45 20:34 31.08.2021
6601 Clear 22 1024 53 10000 2.68 45 19:43 31.08.2021
6602 Clouds 23 1024 51 10000 2.68 45 17:53 31.08.2021
6603 Clouds 23 1024 52 10000 2.68 45 17:53 31.08.2021
6604 Clouds 23 1024 52 10000 1.79 45 17:27 31.08.2021
6605 Clouds 23 1024 53 10000 3.13 45 16:41 31.08.2021
6606 Clouds 23 1024 55 10000 3.58 68 15:56 31.08.2021
6607 Clouds 21 1024 67 10000 2.68 45 12:54 31.08.2021
6608 Clouds 18 1024 77 10000 2.24 68 11:20 31.08.2021
6609 Clouds 18 1024 79 10000 1.79 45 10:45 31.08.2021
6610 Clouds 17 1024 83 10000 2.24 68 09:43 31.08.2021
6611 Clouds 16 1023 86 10000 1.34 45 08:23 31.08.2021
6612 Clouds 16 1023 86 10000 0.89 68 05:57 31.08.2021
6613 Clouds 17 1022 83 10000 1.34 68 00:23 31.08.2021
6614 Clouds 18 1022 85 10000 2.24 68 23:25 30.08.2021
6615 Clear 18 1021 79 10000 1.34 68 21:42 30.08.2021
6616 Clear 20 1021 74 10000 1.79 68 20:42 30.08.2021
6617 Clouds 20 1020 71 10000 2.24 68 19:55 30.08.2021
6618 Clouds 21 1020 67 10000 2.68 90 19:28 30.08.2021
6619 Clouds 22 1021 63 10000 2.68 68 18:23 30.08.2021
6620 Clouds 22 1020 63 10000 2.24 68 16:49 30.08.2021
6621 Clouds 21 1020 65 10000 3.13 68 15:50 30.08.2021
6622 Clouds 20 1021 69 10000 2.68 45 14:37 30.08.2021
6623 Clouds 20 1021 71 10000 2.68 68 13:22 30.08.2021
6624 Clouds 19 1021 76 10000 3.13 68 11:56 30.08.2021
6625 Drizzle 16 1020 93 10000 1.34 68 08:23 30.08.2021
6626 Clear 17 1021 72 10000 2.24 45 22:18 29.08.2021
6627 Clear 17 1020 71 10000 1.79 68 21:25 29.08.2021
6628 Clear 18 1020 69 10000 2.24 68 19:32 29.08.2021
6629 Clouds 19 1020 68 10000 0.89 68 18:30 29.08.2021
6630 Clouds 19 1021 67 10000 1.79 68 16:33 29.08.2021
6631 Clouds 19 1021 68 10000 1.34 68 15:25 29.08.2021
6632 Clouds 19 1021 69 10000 2.24 68 13:57 29.08.2021
6633 Clouds 18 1022 74 10000 0.89 68 12:58 29.08.2021
6634 Clouds 17 1022 78 10000 1.34 68 12:19 29.08.2021
6635 Clouds 17 1022 81 10000 1.79 68 11:41 29.08.2021
6636 Clouds 16 1022 83 10000 1.34 68 10:49 29.08.2021
6637 Clouds 16 1022 85 10000 1.79 68 10:30 29.08.2021
6638 Clouds 15 1022 87 10000 2.24 68 09:44 29.08.2021
6639 Clouds 14 1022 88 10000 0.89 45 06:38 29.08.2021
6640 Clear 17 1022 76 10000 0.45 248 23:33 28.08.2021
6641 Clear 19 1021 68 10000 0.89 68 20:46 28.08.2021
6642 Clouds 20 1021 68 10000 1.34 68 19:43 28.08.2021
6643 Clouds 21 1020 63 10000 1.34 225 18:27 28.08.2021
6644 Clouds 21 1021 63 10000 1.79 68 17:47 28.08.2021
6645 Clear 21 1021 64 10000 0.89 45 16:57 28.08.2021
6646 Clouds 21 1021 60 10000 1.34 68 15:27 28.08.2021
6647 Clouds 20 1021 66 10000 2.24 68 14:18 28.08.2021
6648 Clouds 20 1021 68 10000 1.34 68 13:42 28.08.2021
6649 Clouds 19 1022 74 10000 1.34 45 12:40 28.08.2021
6650 Clouds 17 1022 79 10000 2.24 68 11:48 28.08.2021
6651 Clouds 15 1022 86 10000 1.34 68 10:18 28.08.2021
6652 Clouds 13 1021 90 10000 3.6 340 08:36 28.08.2021
6653 Clear 12 1021 88 10000 0.45 90 05:22 28.08.2021
6654 Clouds 18 1020 68 10000 1.34 68 21:59 27.08.2021
6655 Clouds 19 1020 62 10000 0.45 45 20:55 27.08.2021
6656 Clear 20 1019 58 10000 0.45 90 19:57 27.08.2021
6657 Clear 21 1019 52 10000 0.89 68 18:39 27.08.2021
6658 Clouds 21 1019 51 10000 0.89 68 18:20 27.08.2021
6659 Clouds 22 1019 50 10000 2.68 45 16:47 27.08.2021
6660 Clouds 21 1019 51 10000 3.58 42 15:21 27.08.2021
6661 Clouds 21 1020 52 10000 1.34 0 14:37 27.08.2021
6662 Clouds 20 1020 58 10000 3.13 68 12:28 27.08.2021
6663 Clouds 18 1020 69</